<?xml version='1.0' encoding='UTF-8'?><gpx version="1.1" creator="JPX - https://github.com/jenetics/jpx" xmlns="http://www.topografix.com/GPX/1/1"><trk><trkseg><trkpt lat="44.0352346" lon="12.5475243"><ele>88.0</ele><time>2026-04-10T11:05:16.857Z</time></trkpt><trkpt lat="44.0353093" lon="12.5475653"><ele>88.0</ele><time>2026-04-10T11:05:19.858Z</time></trkpt><trkpt lat="44.0353654" lon="12.5475244"><ele>88.0</ele><time>2026-04-10T11:05:20.857Z</time></trkpt><trkpt lat="44.0354744" lon="12.547435"><ele>88.0</ele><time>2026-04-10T11:05:22.856Z</time></trkpt><trkpt lat="44.0355343" lon="12.547371"><ele>88.0</ele><time>2026-04-10T11:05:23.858Z</time></trkpt><trkpt lat="44.035587" lon="12.5473169"><ele>88.0</ele><time>2026-04-10T11:05:24.857Z</time></trkpt><trkpt lat="44.0356475" lon="12.5472476"><ele>88.0</ele><time>2026-04-10T11:05:25.858Z</time></trkpt><trkpt lat="44.0357225" lon="12.5471688"><ele>88.0</ele><time>2026-04-10T11:05:26.856Z</time></trkpt><trkpt lat="44.0357996" lon="12.5470741"><ele>88.0</ele><time>2026-04-10T11:05:27.856Z</time></trkpt><trkpt lat="44.0358612" lon="12.5469752"><ele>88.0</ele><time>2026-04-10T11:05:28.858Z</time></trkpt><trkpt lat="44.035917" lon="12.5468792"><ele>88.0</ele><time>2026-04-10T11:05:29.857Z</time></trkpt><trkpt lat="44.0359714" lon="12.5467978"><ele>88.66666666666666</ele><time>2026-04-10T11:05:30.856Z</time></trkpt><trkpt lat="44.0360265" lon="12.5467142"><ele>89.33333333333333</ele><time>2026-04-10T11:05:31.857Z</time></trkpt><trkpt lat="44.0360922" lon="12.5466336"><ele>90.0</ele><time>2026-04-10T11:05:32.858Z</time></trkpt><trkpt lat="44.0361568" lon="12.5465549"><ele>90.66666666666667</ele><time>2026-04-10T11:05:33.857Z</time></trkpt><trkpt lat="44.0362288" lon="12.5464907"><ele>91.33333333333334</ele><time>2026-04-10T11:05:34.857Z</time></trkpt><trkpt lat="44.0363011" lon="12.5464189"><ele>92.0</ele><time>2026-04-10T11:05:35.856Z</time></trkpt><trkpt lat="44.0363795" lon="12.5463563"><ele>92.0</ele><time>2026-04-10T11:05:36.858Z</time></trkpt><trkpt lat="44.0364675" lon="12.5462966"><ele>92.0</ele><time>2026-04-10T11:05:37.857Z</time></trkpt><trkpt lat="44.0365571" lon="12.5462321"><ele>92.0</ele><time>2026-04-10T11:05:38.857Z</time></trkpt><trkpt lat="44.036645" lon="12.5461682"><ele>92.0</ele><time>2026-04-10T11:05:39.857Z</time></trkpt><trkpt lat="44.0367329" lon="12.5461003"><ele>92.0</ele><time>2026-04-10T11:05:40.857Z</time></trkpt><trkpt lat="44.0368267" lon="12.5460447"><ele>91.6</ele><time>2026-04-10T11:05:41.856Z</time></trkpt><trkpt lat="44.0369215" lon="12.5459876"><ele>91.19999999999999</ele><time>2026-04-10T11:05:42.858Z</time></trkpt><trkpt lat="44.0370085" lon="12.5459042"><ele>90.8</ele><time>2026-04-10T11:05:43.856Z</time></trkpt><trkpt lat="44.0370823" lon="12.5458129"><ele>90.4</ele><time>2026-04-10T11:05:44.857Z</time></trkpt><trkpt lat="44.0371528" lon="12.5456962"><ele>90.0</ele><time>2026-04-10T11:05:45.857Z</time></trkpt><trkpt lat="44.0372248" lon="12.545577"><ele>90.0</ele><time>2026-04-10T11:05:46.857Z</time></trkpt><trkpt lat="44.0372901" lon="12.5454722"><ele>90.0</ele><time>2026-04-10T11:05:47.858Z</time></trkpt><trkpt lat="44.0373546" lon="12.5453754"><ele>90.0</ele><time>2026-04-10T11:05:48.857Z</time></trkpt><trkpt lat="44.0374131" lon="12.5452619"><ele>90.0</ele><time>2026-04-10T11:05:49.858Z</time></trkpt><trkpt lat="44.0374757" lon="12.5451491"><ele>90.0</ele><time>2026-04-10T11:05:50.858Z</time></trkpt><trkpt lat="44.0375463" lon="12.5450604"><ele>89.0</ele><time>2026-04-10T11:05:51.857Z</time></trkpt><trkpt lat="44.0376261" lon="12.5449765"><ele>88.0</ele><time>2026-04-10T11:05:52.857Z</time></trkpt><trkpt lat="44.0377135" lon="12.5448872"><ele>87.0</ele><time>2026-04-10T11:05:53.857Z</time></trkpt><trkpt lat="44.0378071" lon="12.5447919"><ele>86.0</ele><time>2026-04-10T11:05:54.857Z</time></trkpt><trkpt lat="44.0379105" lon="12.5447"><ele>85.0</ele><time>2026-04-10T11:05:55.857Z</time></trkpt><trkpt lat="44.0380075" lon="12.5445877"><ele>82.75</ele><time>2026-04-10T11:05:56.858Z</time></trkpt><trkpt lat="44.038094" lon="12.5444875"><ele>80.5</ele><time>2026-04-10T11:05:57.857Z</time></trkpt><trkpt lat="44.0381837" lon="12.5443856"><ele>78.25</ele><time>2026-04-10T11:05:58.858Z</time></trkpt><trkpt lat="44.0382709" lon="12.5442764"><ele>76.0</ele><time>2026-04-10T11:05:59.857Z</time></trkpt><trkpt lat="44.0383466" lon="12.5441687"><ele>76.0</ele><time>2026-04-10T11:06:00.857Z</time></trkpt><trkpt lat="44.038425" lon="12.5440643"><ele>76.0</ele><time>2026-04-10T11:06:01.856Z</time></trkpt><trkpt lat="44.0385053" lon="12.5439575"><ele>76.0</ele><time>2026-04-10T11:06:02.857Z</time></trkpt><trkpt lat="44.0385857" lon="12.5438428"><ele>76.0</ele><time>2026-04-10T11:06:03.857Z</time></trkpt><trkpt lat="44.0386686" lon="12.5437277"><ele>74.5</ele><time>2026-04-10T11:06:04.858Z</time></trkpt><trkpt lat="44.0387439" lon="12.5436086"><ele>73.0</ele><time>2026-04-10T11:06:05.857Z</time></trkpt><trkpt lat="44.0388203" lon="12.5434843"><ele>71.5</ele><time>2026-04-10T11:06:06.857Z</time></trkpt><trkpt lat="44.0388944" lon="12.5433543"><ele>70.0</ele><time>2026-04-10T11:06:07.859Z</time></trkpt><trkpt lat="44.0389572" lon="12.5432201"><ele>70.0</ele><time>2026-04-10T11:06:08.856Z</time></trkpt><trkpt lat="44.0390094" lon="12.5430903"><ele>70.0</ele><time>2026-04-10T11:06:09.857Z</time></trkpt><trkpt lat="44.0390654" lon="12.5429675"><ele>70.0</ele><time>2026-04-10T11:06:10.856Z</time></trkpt><trkpt lat="44.0391104" lon="12.5428563"><ele>70.0</ele><time>2026-04-10T11:06:11.857Z</time></trkpt><trkpt lat="44.0391522" lon="12.5427662"><ele>70.0</ele><time>2026-04-10T11:06:12.858Z</time></trkpt><trkpt lat="44.0391908" lon="12.5426783"><ele>69.8</ele><time>2026-04-10T11:06:13.856Z</time></trkpt><trkpt lat="44.0392323" lon="12.5426106"><ele>69.6</ele><time>2026-04-10T11:06:14.857Z</time></trkpt><trkpt lat="44.0393123" lon="12.542485"><ele>69.4</ele><time>2026-04-10T11:06:16.858Z</time></trkpt><trkpt lat="44.0393453" lon="12.5424054"><ele>69.2</ele><time>2026-04-10T11:06:17.857Z</time></trkpt><trkpt lat="44.039428" lon="12.5422882"><ele>69.0</ele><time>2026-04-10T11:06:19.857Z</time></trkpt><trkpt lat="44.0395183" lon="12.5421817"><ele>69.0</ele><time>2026-04-10T11:06:21.858Z</time></trkpt><trkpt lat="44.0395868" lon="12.5420485"><ele>69.0</ele><time>2026-04-10T11:06:23.857Z</time></trkpt><trkpt lat="44.0396568" lon="12.5419457"><ele>69.0</ele><time>2026-04-10T11:06:25.857Z</time></trkpt><trkpt lat="44.0397171" lon="12.5418272"><ele>69.0</ele><time>2026-04-10T11:06:27.857Z</time></trkpt><trkpt lat="44.0397833" lon="12.5417157"><ele>69.0</ele><time>2026-04-10T11:06:29.858Z</time></trkpt><trkpt lat="44.0398622" lon="12.5416128"><ele>67.60000000000001</ele><time>2026-04-10T11:06:31.858Z</time></trkpt><trkpt lat="44.0399362" lon="12.541503"><ele>66.2</ele><time>2026-04-10T11:06:33.858Z</time></trkpt><trkpt lat="44.040017" lon="12.5414143"><ele>64.80000000000001</ele><time>2026-04-10T11:06:35.858Z</time></trkpt><trkpt lat="44.0400819" lon="12.5413317"><ele>63.400000000000006</ele><time>2026-04-10T11:06:37.857Z</time></trkpt><trkpt lat="44.040176" lon="12.5412422"><ele>62.0</ele><time>2026-04-10T11:06:39.856Z</time></trkpt><trkpt lat="44.0402735" lon="12.5411432"><ele>60.00000000000001</ele><time>2026-04-10T11:06:41.858Z</time></trkpt><trkpt lat="44.0403247" lon="12.541085"><ele>58.0</ele><time>2026-04-10T11:06:42.857Z</time></trkpt><trkpt lat="44.0403737" lon="12.541018"><ele>56.0</ele><time>2026-04-10T11:06:43.857Z</time></trkpt><trkpt lat="44.0404275" lon="12.5409459"><ele>54.0</ele><time>2026-04-10T11:06:44.858Z</time></trkpt><trkpt lat="44.0404803" lon="12.5408778"><ele>52.00000000000001</ele><time>2026-04-10T11:06:45.858Z</time></trkpt><trkpt lat="44.0405262" lon="12.5408123"><ele>50.0</ele><time>2026-04-10T11:06:46.858Z</time></trkpt><trkpt lat="44.0406109" lon="12.5407116"><ele>50.0</ele><time>2026-04-10T11:06:48.857Z</time></trkpt><trkpt lat="44.0406818" lon="12.5406533"><ele>50.0</ele><time>2026-04-10T11:06:50.858Z</time></trkpt><trkpt lat="44.0406813" lon="12.540524"><ele>50.0</ele><time>2026-04-10T11:06:53.857Z</time></trkpt><trkpt lat="44.0405871" lon="12.5403969"><ele>50.0</ele><time>2026-04-10T11:06:55.856Z</time></trkpt><trkpt lat="44.0405218" lon="12.540341"><ele>50.0</ele><time>2026-04-10T11:06:56.857Z</time></trkpt><trkpt lat="44.0404461" lon="12.5402956"><ele>48.2</ele><time>2026-04-10T11:06:57.857Z</time></trkpt><trkpt lat="44.040353" lon="12.540257"><ele>46.4</ele><time>2026-04-10T11:06:58.858Z</time></trkpt><trkpt lat="44.0402573" lon="12.5402096"><ele>44.599999999999994</ele><time>2026-04-10T11:06:59.857Z</time></trkpt><trkpt lat="44.0401702" lon="12.5401658"><ele>42.8</ele><time>2026-04-10T11:07:00.858Z</time></trkpt><trkpt lat="44.0400858" lon="12.5401174"><ele>41.0</ele><time>2026-04-10T11:07:01.857Z</time></trkpt><trkpt lat="44.0399939" lon="12.5400694"><ele>39.8</ele><time>2026-04-10T11:07:02.856Z</time></trkpt><trkpt lat="44.0398957" lon="12.5400333"><ele>38.599999999999994</ele><time>2026-04-10T11:07:03.858Z</time></trkpt><trkpt lat="44.0397894" lon="12.5399874"><ele>37.4</ele><time>2026-04-10T11:07:04.857Z</time></trkpt><trkpt lat="44.0396771" lon="12.5399636"><ele>36.2</ele><time>2026-04-10T11:07:05.857Z</time></trkpt><trkpt lat="44.039575" lon="12.5399477"><ele>35.0</ele><time>2026-04-10T11:07:06.857Z</time></trkpt><trkpt lat="44.0394626" lon="12.5399268"><ele>35.0</ele><time>2026-04-10T11:07:07.858Z</time></trkpt><trkpt lat="44.0393398" lon="12.5399154"><ele>35.0</ele><time>2026-04-10T11:07:08.856Z</time></trkpt><trkpt lat="44.039223" lon="12.539896"><ele>35.0</ele><time>2026-04-10T11:07:09.857Z</time></trkpt><trkpt lat="44.0391099" lon="12.5398741"><ele>35.0</ele><time>2026-04-10T11:07:10.858Z</time></trkpt><trkpt lat="44.0389918" lon="12.5398503"><ele>34.0</ele><time>2026-04-10T11:07:11.858Z</time></trkpt><trkpt lat="44.038872" lon="12.5398224"><ele>33.0</ele><time>2026-04-10T11:07:12.856Z</time></trkpt><trkpt lat="44.0387599" lon="12.5397897"><ele>32.0</ele><time>2026-04-10T11:07:13.858Z</time></trkpt><trkpt lat="44.0386507" lon="12.5397324"><ele>31.0</ele><time>2026-04-10T11:07:14.858Z</time></trkpt><trkpt lat="44.0385453" lon="12.5396533"><ele>31.0</ele><time>2026-04-10T11:07:15.857Z</time></trkpt><trkpt lat="44.0384375" lon="12.5395642"><ele>31.0</ele><time>2026-04-10T11:07:16.858Z</time></trkpt><trkpt lat="44.0383301" lon="12.5394528"><ele>31.0</ele><time>2026-04-10T11:07:17.858Z</time></trkpt><trkpt lat="44.0382227" lon="12.5393363"><ele>31.0</ele><time>2026-04-10T11:07:18.857Z</time></trkpt><trkpt lat="44.038114" lon="12.539213"><ele>31.0</ele><time>2026-04-10T11:07:19.857Z</time></trkpt><trkpt lat="44.0380171" lon="12.5390703"><ele>31.0</ele><time>2026-04-10T11:07:20.857Z</time></trkpt><trkpt lat="44.0379227" lon="12.5389247"><ele>31.0</ele><time>2026-04-10T11:07:21.858Z</time></trkpt><trkpt lat="44.0378325" lon="12.5387886"><ele>31.0</ele><time>2026-04-10T11:07:22.857Z</time></trkpt><trkpt lat="44.0377374" lon="12.5386934"><ele>30.25</ele><time>2026-04-10T11:07:23.857Z</time></trkpt><trkpt lat="44.0376321" lon="12.5386209"><ele>29.5</ele><time>2026-04-10T11:07:24.856Z</time></trkpt><trkpt lat="44.0375161" lon="12.5385719"><ele>28.75</ele><time>2026-04-10T11:07:25.858Z</time></trkpt><trkpt lat="44.0373968" lon="12.5385275"><ele>28.0</ele><time>2026-04-10T11:07:26.857Z</time></trkpt><trkpt lat="44.0372751" lon="12.5384828"><ele>29.599999999999998</ele><time>2026-04-10T11:07:27.857Z</time></trkpt><trkpt lat="44.0371733" lon="12.5384351"><ele>31.199999999999996</ele><time>2026-04-10T11:07:28.858Z</time></trkpt><trkpt lat="44.0370824" lon="12.5383716"><ele>32.8</ele><time>2026-04-10T11:07:29.858Z</time></trkpt><trkpt lat="44.0370079" lon="12.5382809"><ele>34.4</ele><time>2026-04-10T11:07:30.857Z</time></trkpt><trkpt lat="44.0369297" lon="12.5381677"><ele>36.0</ele><time>2026-04-10T11:07:31.858Z</time></trkpt><trkpt lat="44.0368566" lon="12.5380501"><ele>36.0</ele><time>2026-04-10T11:07:32.857Z</time></trkpt><trkpt lat="44.0367775" lon="12.5379213"><ele>36.0</ele><time>2026-04-10T11:07:33.857Z</time></trkpt><trkpt lat="44.0367098" lon="12.5378088"><ele>36.0</ele><time>2026-04-10T11:07:34.858Z</time></trkpt><trkpt lat="44.0366484" lon="12.5376993"><ele>36.0</ele><time>2026-04-10T11:07:35.857Z</time></trkpt><trkpt lat="44.0366018" lon="12.5375814"><ele>36.0</ele><time>2026-04-10T11:07:36.857Z</time></trkpt><trkpt lat="44.0365568" lon="12.5374812"><ele>38.4</ele><time>2026-04-10T11:07:37.857Z</time></trkpt><trkpt lat="44.0365039" lon="12.5373833"><ele>40.8</ele><time>2026-04-10T11:07:38.858Z</time></trkpt><trkpt lat="44.0364512" lon="12.5372456"><ele>43.199999999999996</ele><time>2026-04-10T11:07:39.858Z</time></trkpt><trkpt lat="44.0363989" lon="12.5371229"><ele>45.6</ele><time>2026-04-10T11:07:40.856Z</time></trkpt><trkpt lat="44.0363434" lon="12.5370162"><ele>48.0</ele><time>2026-04-10T11:07:41.857Z</time></trkpt><trkpt lat="44.0362787" lon="12.5369064"><ele>49.25</ele><time>2026-04-10T11:07:42.857Z</time></trkpt><trkpt lat="44.0362043" lon="12.5367778"><ele>50.5</ele><time>2026-04-10T11:07:43.857Z</time></trkpt><trkpt lat="44.0361297" lon="12.5366339"><ele>51.75</ele><time>2026-04-10T11:07:44.857Z</time></trkpt><trkpt lat="44.0360599" lon="12.5364891"><ele>53.0</ele><time>2026-04-10T11:07:45.856Z</time></trkpt><trkpt lat="44.036004" lon="12.5363327"><ele>53.599999999999994</ele><time>2026-04-10T11:07:46.857Z</time></trkpt><trkpt lat="44.0359517" lon="12.5361954"><ele>54.199999999999996</ele><time>2026-04-10T11:07:47.856Z</time></trkpt><trkpt lat="44.0359014" lon="12.5360894"><ele>54.8</ele><time>2026-04-10T11:07:48.857Z</time></trkpt><trkpt lat="44.0358355" lon="12.5359918"><ele>55.4</ele><time>2026-04-10T11:07:49.857Z</time></trkpt><trkpt lat="44.0357812" lon="12.5359214"><ele>56.0</ele><time>2026-04-10T11:07:50.856Z</time></trkpt><trkpt lat="44.0357071" lon="12.5358341"><ele>56.199999999999996</ele><time>2026-04-10T11:07:52.858Z</time></trkpt><trkpt lat="44.0356124" lon="12.5358901"><ele>56.39999999999999</ele><time>2026-04-10T11:07:56.857Z</time></trkpt><trkpt lat="44.0355664" lon="12.5359565"><ele>56.6</ele><time>2026-04-10T11:07:57.857Z</time></trkpt><trkpt lat="44.0354984" lon="12.5360442"><ele>56.8</ele><time>2026-04-10T11:07:58.858Z</time></trkpt><trkpt lat="44.0354144" lon="12.5361619"><ele>57.0</ele><time>2026-04-10T11:07:59.857Z</time></trkpt><trkpt lat="44.0353225" lon="12.5362854"><ele>57.0</ele><time>2026-04-10T11:08:00.858Z</time></trkpt><trkpt lat="44.0352245" lon="12.5364185"><ele>57.0</ele><time>2026-04-10T11:08:01.856Z</time></trkpt><trkpt lat="44.0351274" lon="12.5365479"><ele>57.0</ele><time>2026-04-10T11:08:02.857Z</time></trkpt><trkpt lat="44.0350406" lon="12.5366661"><ele>57.0</ele><time>2026-04-10T11:08:03.856Z</time></trkpt><trkpt lat="44.0349626" lon="12.5367739"><ele>56.8</ele><time>2026-04-10T11:08:04.858Z</time></trkpt><trkpt lat="44.0348879" lon="12.5368645"><ele>56.6</ele><time>2026-04-10T11:08:05.858Z</time></trkpt><trkpt lat="44.0348104" lon="12.5369573"><ele>56.39999999999999</ele><time>2026-04-10T11:08:06.857Z</time></trkpt><trkpt lat="44.0347358" lon="12.5370534"><ele>56.199999999999996</ele><time>2026-04-10T11:08:07.858Z</time></trkpt><trkpt lat="44.0346715" lon="12.5371369"><ele>56.0</ele><time>2026-04-10T11:08:08.856Z</time></trkpt><trkpt lat="44.0346097" lon="12.5371988"><ele>56.0</ele><time>2026-04-10T11:08:09.856Z</time></trkpt><trkpt lat="44.0345346" lon="12.537212"><ele>55.99999999999999</ele><time>2026-04-10T11:08:10.856Z</time></trkpt><trkpt lat="44.0344573" lon="12.5371595"><ele>55.99999999999999</ele><time>2026-04-10T11:08:11.858Z</time></trkpt><trkpt lat="44.0343748" lon="12.5371196"><ele>56.0</ele><time>2026-04-10T11:08:12.857Z</time></trkpt><trkpt lat="44.034279" lon="12.537072"><ele>56.0</ele><time>2026-04-10T11:08:13.856Z</time></trkpt><trkpt lat="44.0341804" lon="12.5370205"><ele>56.0</ele><time>2026-04-10T11:08:14.857Z</time></trkpt><trkpt lat="44.0340737" lon="12.5369704"><ele>56.0</ele><time>2026-04-10T11:08:15.857Z</time></trkpt><trkpt lat="44.0339647" lon="12.5369148"><ele>56.0</ele><time>2026-04-10T11:08:16.857Z</time></trkpt><trkpt lat="44.0338575" lon="12.5368636"><ele>56.0</ele><time>2026-04-10T11:08:17.858Z</time></trkpt><trkpt lat="44.0337473" lon="12.5368183"><ele>56.0</ele><time>2026-04-10T11:08:18.857Z</time></trkpt><trkpt lat="44.0336401" lon="12.5367643"><ele>55.99999999999999</ele><time>2026-04-10T11:08:19.857Z</time></trkpt><trkpt lat="44.0335337" lon="12.5367217"><ele>55.99999999999999</ele><time>2026-04-10T11:08:20.857Z</time></trkpt><trkpt lat="44.0334317" lon="12.536679"><ele>56.0</ele><time>2026-04-10T11:08:21.858Z</time></trkpt><trkpt lat="44.033331" lon="12.5366568"><ele>56.0</ele><time>2026-04-10T11:08:22.857Z</time></trkpt><trkpt lat="44.0332286" lon="12.5366421"><ele>56.599999999999994</ele><time>2026-04-10T11:08:23.857Z</time></trkpt><trkpt lat="44.0331208" lon="12.5366301"><ele>57.199999999999996</ele><time>2026-04-10T11:08:24.858Z</time></trkpt><trkpt lat="44.0330082" lon="12.5366454"><ele>57.800000000000004</ele><time>2026-04-10T11:08:25.857Z</time></trkpt><trkpt lat="44.0328998" lon="12.5366611"><ele>58.400000000000006</ele><time>2026-04-10T11:08:26.856Z</time></trkpt><trkpt lat="44.032794" lon="12.5366913"><ele>59.0</ele><time>2026-04-10T11:08:27.858Z</time></trkpt><trkpt lat="44.0326933" lon="12.5367012"><ele>59.0</ele><time>2026-04-10T11:08:28.856Z</time></trkpt><trkpt lat="44.032601" lon="12.5366945"><ele>59.00000000000001</ele><time>2026-04-10T11:08:29.856Z</time></trkpt><trkpt lat="44.0325291" lon="12.5366337"><ele>59.00000000000001</ele><time>2026-04-10T11:08:30.858Z</time></trkpt><trkpt lat="44.0324723" lon="12.536545"><ele>59.0</ele><time>2026-04-10T11:08:31.857Z</time></trkpt><trkpt lat="44.032426" lon="12.5364297"><ele>59.0</ele><time>2026-04-10T11:08:32.859Z</time></trkpt><trkpt lat="44.0323785" lon="12.5363074"><ele>58.5</ele><time>2026-04-10T11:08:33.858Z</time></trkpt><trkpt lat="44.0323398" lon="12.5361694"><ele>58.0</ele><time>2026-04-10T11:08:34.858Z</time></trkpt><trkpt lat="44.0322987" lon="12.53601"><ele>57.5</ele><time>2026-04-10T11:08:35.856Z</time></trkpt><trkpt lat="44.0322553" lon="12.5358592"><ele>57.0</ele><time>2026-04-10T11:08:36.858Z</time></trkpt><trkpt lat="44.0322107" lon="12.5357129"><ele>57.0</ele><time>2026-04-10T11:08:37.857Z</time></trkpt><trkpt lat="44.0321509" lon="12.5355589"><ele>57.0</ele><time>2026-04-10T11:08:38.858Z</time></trkpt><trkpt lat="44.032087" lon="12.5354164"><ele>57.0</ele><time>2026-04-10T11:08:39.858Z</time></trkpt><trkpt lat="44.0320243" lon="12.5352755"><ele>57.0</ele><time>2026-04-10T11:08:40.858Z</time></trkpt><trkpt lat="44.0319505" lon="12.5351489"><ele>56.6</ele><time>2026-04-10T11:08:41.857Z</time></trkpt><trkpt lat="44.0318718" lon="12.5350225"><ele>56.2</ele><time>2026-04-10T11:08:42.856Z</time></trkpt><trkpt lat="44.031801" lon="12.5349139"><ele>55.8</ele><time>2026-04-10T11:08:43.858Z</time></trkpt><trkpt lat="44.0317396" lon="12.5348265"><ele>55.4</ele><time>2026-04-10T11:08:44.857Z</time></trkpt><trkpt lat="44.0316838" lon="12.5347356"><ele>55.0</ele><time>2026-04-10T11:08:45.858Z</time></trkpt><trkpt lat="44.0316355" lon="12.5346581"><ele>54.6</ele><time>2026-04-10T11:08:46.857Z</time></trkpt><trkpt lat="44.0316059" lon="12.5345714"><ele>54.2</ele><time>2026-04-10T11:08:47.857Z</time></trkpt><trkpt lat="44.0316279" lon="12.534488"><ele>53.8</ele><time>2026-04-10T11:08:48.857Z</time></trkpt><trkpt lat="44.0316835" lon="12.5343556"><ele>53.4</ele><time>2026-04-10T11:08:50.857Z</time></trkpt><trkpt lat="44.0318164" lon="12.5342455"><ele>53.0</ele><time>2026-04-10T11:08:52.858Z</time></trkpt><trkpt lat="44.0318811" lon="12.5341731"><ele>53.00000000000001</ele><time>2026-04-10T11:08:53.856Z</time></trkpt><trkpt lat="44.0319493" lon="12.5340903"><ele>53.0</ele><time>2026-04-10T11:08:54.858Z</time></trkpt><trkpt lat="44.0319993" lon="12.5339739"><ele>53.0</ele><time>2026-04-10T11:08:55.857Z</time></trkpt><trkpt lat="44.0320254" lon="12.5338728"><ele>53.0</ele><time>2026-04-10T11:08:56.857Z</time></trkpt><trkpt lat="44.0320678" lon="12.5337596"><ele>53.00000000000001</ele><time>2026-04-10T11:08:57.858Z</time></trkpt><trkpt lat="44.0321071" lon="12.5336487"><ele>53.0</ele><time>2026-04-10T11:08:58.857Z</time></trkpt><trkpt lat="44.0321401" lon="12.5335473"><ele>53.66666666666667</ele><time>2026-04-10T11:08:59.857Z</time></trkpt><trkpt lat="44.0321693" lon="12.5334382"><ele>54.333333333333336</ele><time>2026-04-10T11:09:00.856Z</time></trkpt><trkpt lat="44.0321857" lon="12.5333447"><ele>55.0</ele><time>2026-04-10T11:09:01.858Z</time></trkpt><trkpt lat="44.0321794" lon="12.5332558"><ele>55.66666666666667</ele><time>2026-04-10T11:09:02.856Z</time></trkpt><trkpt lat="44.03216" lon="12.5331694"><ele>56.333333333333336</ele><time>2026-04-10T11:09:03.857Z</time></trkpt><trkpt lat="44.0321237" lon="12.5330779"><ele>57.0</ele><time>2026-04-10T11:09:04.857Z</time></trkpt><trkpt lat="44.0320685" lon="12.5329707"><ele>58.25</ele><time>2026-04-10T11:09:05.857Z</time></trkpt><trkpt lat="44.0319997" lon="12.5328523"><ele>59.5</ele><time>2026-04-10T11:09:06.858Z</time></trkpt><trkpt lat="44.0319265" lon="12.532711"><ele>60.75</ele><time>2026-04-10T11:09:07.857Z</time></trkpt><trkpt lat="44.0318495" lon="12.53256"><ele>62.0</ele><time>2026-04-10T11:09:08.856Z</time></trkpt><trkpt lat="44.0317747" lon="12.532416"><ele>62.0</ele><time>2026-04-10T11:09:09.858Z</time></trkpt><trkpt lat="44.0317252" lon="12.5322955"><ele>62.0</ele><time>2026-04-10T11:09:10.857Z</time></trkpt><trkpt lat="44.0316895" lon="12.5321623"><ele>62.0</ele><time>2026-04-10T11:09:11.857Z</time></trkpt><trkpt lat="44.031671" lon="12.5320426"><ele>62.0</ele><time>2026-04-10T11:09:12.856Z</time></trkpt><trkpt lat="44.0316515" lon="12.531906"><ele>62.0</ele><time>2026-04-10T11:09:13.858Z</time></trkpt><trkpt lat="44.0316257" lon="12.5317693"><ele>64.4</ele><time>2026-04-10T11:09:14.859Z</time></trkpt><trkpt lat="44.0315928" lon="12.5316242"><ele>66.80000000000001</ele><time>2026-04-10T11:09:15.857Z</time></trkpt><trkpt lat="44.0315545" lon="12.5314822"><ele>69.2</ele><time>2026-04-10T11:09:16.857Z</time></trkpt><trkpt lat="44.0315039" lon="12.5313611"><ele>71.60000000000001</ele><time>2026-04-10T11:09:17.857Z</time></trkpt><trkpt lat="44.0314483" lon="12.5312385"><ele>74.0</ele><time>2026-04-10T11:09:18.857Z</time></trkpt><trkpt lat="44.0313852" lon="12.5311134"><ele>74.0</ele><time>2026-04-10T11:09:19.857Z</time></trkpt><trkpt lat="44.0313175" lon="12.5309923"><ele>74.0</ele><time>2026-04-10T11:09:20.858Z</time></trkpt><trkpt lat="44.0312441" lon="12.5308784"><ele>74.0</ele><time>2026-04-10T11:09:21.858Z</time></trkpt><trkpt lat="44.0311603" lon="12.5307674"><ele>74.0</ele><time>2026-04-10T11:09:22.857Z</time></trkpt><trkpt lat="44.0310868" lon="12.5306624"><ele>74.0</ele><time>2026-04-10T11:09:23.857Z</time></trkpt><trkpt lat="44.0310115" lon="12.5305598"><ele>74.0</ele><time>2026-04-10T11:09:24.858Z</time></trkpt><trkpt lat="44.0309465" lon="12.5304584"><ele>74.0</ele><time>2026-04-10T11:09:25.858Z</time></trkpt><trkpt lat="44.0308909" lon="12.5303609"><ele>74.0</ele><time>2026-04-10T11:09:26.857Z</time></trkpt><trkpt lat="44.0308315" lon="12.5302818"><ele>74.0</ele><time>2026-04-10T11:09:27.857Z</time></trkpt><trkpt lat="44.0307881" lon="12.5302157"><ele>74.0</ele><time>2026-04-10T11:09:28.857Z</time></trkpt><trkpt lat="44.03075" lon="12.5301027"><ele>74.0</ele><time>2026-04-10T11:09:30.857Z</time></trkpt><trkpt lat="44.0308246" lon="12.5299672"><ele>73.0</ele><time>2026-04-10T11:09:32.858Z</time></trkpt><trkpt lat="44.0308844" lon="12.5298597"><ele>72.0</ele><time>2026-04-10T11:09:33.857Z</time></trkpt><trkpt lat="44.0309379" lon="12.529753"><ele>71.0</ele><time>2026-04-10T11:09:34.856Z</time></trkpt><trkpt lat="44.0309748" lon="12.5296511"><ele>70.0</ele><time>2026-04-10T11:09:35.856Z</time></trkpt><trkpt lat="44.0310111" lon="12.5295427"><ele>69.0</ele><time>2026-04-10T11:09:36.857Z</time></trkpt><trkpt lat="44.0310548" lon="12.5294328"><ele>67.2</ele><time>2026-04-10T11:09:37.857Z</time></trkpt><trkpt lat="44.0310957" lon="12.5293227"><ele>65.4</ele><time>2026-04-10T11:09:38.857Z</time></trkpt><trkpt lat="44.031144" lon="12.5292066"><ele>63.6</ele><time>2026-04-10T11:09:39.858Z</time></trkpt><trkpt lat="44.031213" lon="12.5291017"><ele>61.8</ele><time>2026-04-10T11:09:40.857Z</time></trkpt><trkpt lat="44.0312924" lon="12.5289844"><ele>60.0</ele><time>2026-04-10T11:09:41.857Z</time></trkpt><trkpt lat="44.0313794" lon="12.5288682"><ele>60.0</ele><time>2026-04-10T11:09:42.856Z</time></trkpt><trkpt lat="44.0314824" lon="12.5287486"><ele>60.0</ele><time>2026-04-10T11:09:43.857Z</time></trkpt><trkpt lat="44.0315755" lon="12.5286326"><ele>60.0</ele><time>2026-04-10T11:09:44.857Z</time></trkpt><trkpt lat="44.0316565" lon="12.528535"><ele>60.0</ele><time>2026-04-10T11:09:45.857Z</time></trkpt><trkpt lat="44.0317267" lon="12.5284543"><ele>58.833333333333336</ele><time>2026-04-10T11:09:46.857Z</time></trkpt><trkpt lat="44.0317965" lon="12.5283954"><ele>57.66666666666667</ele><time>2026-04-10T11:09:47.856Z</time></trkpt><trkpt lat="44.031856" lon="12.5283385"><ele>56.5</ele><time>2026-04-10T11:09:48.858Z</time></trkpt><trkpt lat="44.0319107" lon="12.5282699"><ele>55.333333333333336</ele><time>2026-04-10T11:09:49.858Z</time></trkpt><trkpt lat="44.0319734" lon="12.5282081"><ele>54.16666666666667</ele><time>2026-04-10T11:09:50.857Z</time></trkpt><trkpt lat="44.0320362" lon="12.5281456"><ele>53.0</ele><time>2026-04-10T11:09:51.857Z</time></trkpt><trkpt lat="44.0321036" lon="12.5280801"><ele>53.00000000000001</ele><time>2026-04-10T11:09:52.858Z</time></trkpt><trkpt lat="44.0321662" lon="12.5280189"><ele>53.0</ele><time>2026-04-10T11:09:53.856Z</time></trkpt><trkpt lat="44.0322396" lon="12.5279481"><ele>53.0</ele><time>2026-04-10T11:09:54.857Z</time></trkpt><trkpt lat="44.0323052" lon="12.5278847"><ele>53.0</ele><time>2026-04-10T11:09:55.857Z</time></trkpt><trkpt lat="44.032373" lon="12.5278185"><ele>53.00000000000001</ele><time>2026-04-10T11:09:56.857Z</time></trkpt><trkpt lat="44.0324368" lon="12.5277423"><ele>53.0</ele><time>2026-04-10T11:09:57.857Z</time></trkpt><trkpt lat="44.0325137" lon="12.5276735"><ele>51.0</ele><time>2026-04-10T11:09:58.857Z</time></trkpt><trkpt lat="44.0325981" lon="12.5275865"><ele>49.0</ele><time>2026-04-10T11:09:59.858Z</time></trkpt><trkpt lat="44.032684" lon="12.5275066"><ele>47.0</ele><time>2026-04-10T11:10:00.859Z</time></trkpt><trkpt lat="44.0327633" lon="12.5274425"><ele>45.0</ele><time>2026-04-10T11:10:01.858Z</time></trkpt><trkpt lat="44.0328368" lon="12.5273739"><ele>43.0</ele><time>2026-04-10T11:10:02.857Z</time></trkpt><trkpt lat="44.032906" lon="12.5273039"><ele>43.0</ele><time>2026-04-10T11:10:03.856Z</time></trkpt><trkpt lat="44.0329797" lon="12.5272286"><ele>43.0</ele><time>2026-04-10T11:10:04.856Z</time></trkpt><trkpt lat="44.0330448" lon="12.5271632"><ele>43.0</ele><time>2026-04-10T11:10:05.857Z</time></trkpt><trkpt lat="44.0331143" lon="12.527104"><ele>43.0</ele><time>2026-04-10T11:10:06.857Z</time></trkpt><trkpt lat="44.0331814" lon="12.5270564"><ele>43.0</ele><time>2026-04-10T11:10:07.857Z</time></trkpt><trkpt lat="44.0332462" lon="12.5269999"><ele>43.0</ele><time>2026-04-10T11:10:08.856Z</time></trkpt><trkpt lat="44.0332967" lon="12.5269397"><ele>41.57142857142858</ele><time>2026-04-10T11:10:09.857Z</time></trkpt><trkpt lat="44.0333357" lon="12.5268581"><ele>40.142857142857146</ele><time>2026-04-10T11:10:10.857Z</time></trkpt><trkpt lat="44.0333649" lon="12.5267778"><ele>38.714285714285715</ele><time>2026-04-10T11:10:11.857Z</time></trkpt><trkpt lat="44.0333845" lon="12.5266614"><ele>37.28571428571429</ele><time>2026-04-10T11:10:12.858Z</time></trkpt><trkpt lat="44.0334051" lon="12.526563"><ele>35.85714285714286</ele><time>2026-04-10T11:10:13.857Z</time></trkpt><trkpt lat="44.0334277" lon="12.5264639"><ele>34.42857142857143</ele><time>2026-04-10T11:10:14.857Z</time></trkpt><trkpt lat="44.0334418" lon="12.5263707"><ele>33.0</ele><time>2026-04-10T11:10:15.857Z</time></trkpt><trkpt lat="44.0334518" lon="12.5262809"><ele>32.166666666666664</ele><time>2026-04-10T11:10:16.858Z</time></trkpt><trkpt lat="44.0334779" lon="12.5261921"><ele>31.333333333333336</ele><time>2026-04-10T11:10:17.858Z</time></trkpt><trkpt lat="44.0335167" lon="12.526109"><ele>30.5</ele><time>2026-04-10T11:10:18.857Z</time></trkpt><trkpt lat="44.0335612" lon="12.5260254"><ele>29.666666666666668</ele><time>2026-04-10T11:10:19.858Z</time></trkpt><trkpt lat="44.033617" lon="12.5259386"><ele>28.833333333333336</ele><time>2026-04-10T11:10:20.857Z</time></trkpt><trkpt lat="44.033683" lon="12.5258575"><ele>28.0</ele><time>2026-04-10T11:10:21.858Z</time></trkpt><trkpt lat="44.0337363" lon="12.5257585"><ele>28.000000000000004</ele><time>2026-04-10T11:10:22.857Z</time></trkpt><trkpt lat="44.0337947" lon="12.5256648"><ele>28.0</ele><time>2026-04-10T11:10:23.858Z</time></trkpt><trkpt lat="44.033855" lon="12.5255713"><ele>28.0</ele><time>2026-04-10T11:10:24.857Z</time></trkpt><trkpt lat="44.0339211" lon="12.5254758"><ele>28.0</ele><time>2026-04-10T11:10:25.858Z</time></trkpt><trkpt lat="44.0339802" lon="12.5253908"><ele>28.000000000000004</ele><time>2026-04-10T11:10:26.857Z</time></trkpt><trkpt lat="44.0340336" lon="12.5253203"><ele>28.0</ele><time>2026-04-10T11:10:27.858Z</time></trkpt><trkpt lat="44.034081" lon="12.5252482"><ele>27.000000000000004</ele><time>2026-04-10T11:10:28.856Z</time></trkpt><trkpt lat="44.0341141" lon="12.5251548"><ele>26.0</ele><time>2026-04-10T11:10:30.858Z</time></trkpt><trkpt lat="44.0340785" lon="12.5250462"><ele>25.0</ele><time>2026-04-10T11:10:33.856Z</time></trkpt><trkpt lat="44.0340268" lon="12.524951"><ele>24.0</ele><time>2026-04-10T11:10:36.857Z</time></trkpt><trkpt lat="44.03398" lon="12.5248608"><ele>23.0</ele><time>2026-04-10T11:10:39.858Z</time></trkpt><trkpt lat="44.0339386" lon="12.5247882"><ele>22.0</ele><time>2026-04-10T11:10:51.856Z</time></trkpt><trkpt lat="44.0338503" lon="12.5246825"><ele>22.0</ele><time>2026-04-10T11:10:53.857Z</time></trkpt><trkpt lat="44.033782" lon="12.5246045"><ele>22.0</ele><time>2026-04-10T11:10:54.856Z</time></trkpt><trkpt lat="44.0337215" lon="12.5245243"><ele>22.0</ele><time>2026-04-10T11:10:55.856Z</time></trkpt><trkpt lat="44.0336511" lon="12.5244415"><ele>22.0</ele><time>2026-04-10T11:10:56.856Z</time></trkpt><trkpt lat="44.0335769" lon="12.5243574"><ele>22.0</ele><time>2026-04-10T11:10:57.857Z</time></trkpt><trkpt lat="44.0335036" lon="12.5242667"><ele>21.8</ele><time>2026-04-10T11:10:58.857Z</time></trkpt><trkpt lat="44.0334341" lon="12.5241827"><ele>21.6</ele><time>2026-04-10T11:10:59.856Z</time></trkpt><trkpt lat="44.0333602" lon="12.5240897"><ele>21.400000000000002</ele><time>2026-04-10T11:11:00.857Z</time></trkpt><trkpt lat="44.0332857" lon="12.5240026"><ele>21.200000000000003</ele><time>2026-04-10T11:11:01.857Z</time></trkpt><trkpt lat="44.0332164" lon="12.5239138"><ele>21.0</ele><time>2026-04-10T11:11:02.856Z</time></trkpt><trkpt lat="44.033141" lon="12.5238238"><ele>21.0</ele><time>2026-04-10T11:11:03.858Z</time></trkpt><trkpt lat="44.0330636" lon="12.523737"><ele>21.0</ele><time>2026-04-10T11:11:04.856Z</time></trkpt><trkpt lat="44.0329809" lon="12.523649"><ele>21.0</ele><time>2026-04-10T11:11:05.856Z</time></trkpt><trkpt lat="44.0328985" lon="12.5235523"><ele>21.0</ele><time>2026-04-10T11:11:06.857Z</time></trkpt><trkpt lat="44.0328105" lon="12.5234589"><ele>21.0</ele><time>2026-04-10T11:11:07.858Z</time></trkpt><trkpt lat="44.0327188" lon="12.5233742"><ele>20.6</ele><time>2026-04-10T11:11:08.857Z</time></trkpt><trkpt lat="44.0326183" lon="12.5232871"><ele>20.200000000000003</ele><time>2026-04-10T11:11:09.857Z</time></trkpt><trkpt lat="44.0325224" lon="12.5232113"><ele>19.799999999999997</ele><time>2026-04-10T11:11:10.857Z</time></trkpt><trkpt lat="44.0324379" lon="12.5231481"><ele>19.4</ele><time>2026-04-10T11:11:11.857Z</time></trkpt><trkpt lat="44.0323435" lon="12.5230713"><ele>19.0</ele><time>2026-04-10T11:11:13.857Z</time></trkpt><trkpt lat="44.0322739" lon="12.5230762"><ele>19.0</ele><time>2026-04-10T11:11:15.857Z</time></trkpt><trkpt lat="44.0321898" lon="12.5231703"><ele>19.0</ele><time>2026-04-10T11:11:17.858Z</time></trkpt><trkpt lat="44.032146" lon="12.5232353"><ele>19.0</ele><time>2026-04-10T11:11:18.858Z</time></trkpt><trkpt lat="44.0320929" lon="12.5233191"><ele>19.0</ele><time>2026-04-10T11:11:19.858Z</time></trkpt><trkpt lat="44.0320353" lon="12.5233782"><ele>19.0</ele><time>2026-04-10T11:11:20.858Z</time></trkpt><trkpt lat="44.0319708" lon="12.5234117"><ele>19.0</ele><time>2026-04-10T11:11:21.857Z</time></trkpt><trkpt lat="44.0318948" lon="12.5234098"><ele>19.0</ele><time>2026-04-10T11:11:22.857Z</time></trkpt><trkpt lat="44.0318191" lon="12.5233896"><ele>19.0</ele><time>2026-04-10T11:11:23.858Z</time></trkpt><trkpt lat="44.0317467" lon="12.5233273"><ele>19.0</ele><time>2026-04-10T11:11:24.858Z</time></trkpt><trkpt lat="44.031661" lon="12.523273"><ele>19.0</ele><time>2026-04-10T11:11:25.857Z</time></trkpt><trkpt lat="44.0315704" lon="12.5232358"><ele>19.0</ele><time>2026-04-10T11:11:26.857Z</time></trkpt><trkpt lat="44.0314761" lon="12.5232122"><ele>19.0</ele><time>2026-04-10T11:11:27.857Z</time></trkpt><trkpt lat="44.0313666" lon="12.5232021"><ele>19.25</ele><time>2026-04-10T11:11:28.856Z</time></trkpt><trkpt lat="44.0312309" lon="12.5232003"><ele>19.5</ele><time>2026-04-10T11:11:29.856Z</time></trkpt><trkpt lat="44.0311057" lon="12.5232049"><ele>19.75</ele><time>2026-04-10T11:11:30.856Z</time></trkpt><trkpt lat="44.0309697" lon="12.523216"><ele>20.0</ele><time>2026-04-10T11:11:31.858Z</time></trkpt><trkpt lat="44.0308485" lon="12.5232168"><ele>20.5</ele><time>2026-04-10T11:11:32.857Z</time></trkpt><trkpt lat="44.0307407" lon="12.5231949"><ele>21.0</ele><time>2026-04-10T11:11:33.857Z</time></trkpt><trkpt lat="44.0306328" lon="12.5231539"><ele>21.5</ele><time>2026-04-10T11:11:34.858Z</time></trkpt><trkpt lat="44.0305272" lon="12.5230898"><ele>22.0</ele><time>2026-04-10T11:11:35.858Z</time></trkpt><trkpt lat="44.0304193" lon="12.5229879"><ele>21.75</ele><time>2026-04-10T11:11:36.857Z</time></trkpt><trkpt lat="44.0303032" lon="12.5228742"><ele>21.5</ele><time>2026-04-10T11:11:37.857Z</time></trkpt><trkpt lat="44.0301833" lon="12.5227469"><ele>21.25</ele><time>2026-04-10T11:11:38.857Z</time></trkpt><trkpt lat="44.0300614" lon="12.5226174"><ele>21.0</ele><time>2026-04-10T11:11:39.858Z</time></trkpt><trkpt lat="44.0299345" lon="12.5224791"><ele>21.0</ele><time>2026-04-10T11:11:40.856Z</time></trkpt><trkpt lat="44.0297997" lon="12.5223402"><ele>21.0</ele><time>2026-04-10T11:11:41.857Z</time></trkpt><trkpt lat="44.0296577" lon="12.5222035"><ele>21.0</ele><time>2026-04-10T11:11:42.856Z</time></trkpt><trkpt lat="44.0295031" lon="12.5220755"><ele>20.666666666666668</ele><time>2026-04-10T11:11:43.857Z</time></trkpt><trkpt lat="44.0293468" lon="12.5219404"><ele>20.333333333333336</ele><time>2026-04-10T11:11:44.857Z</time></trkpt><trkpt lat="44.0291964" lon="12.5218065"><ele>20.0</ele><time>2026-04-10T11:11:45.856Z</time></trkpt><trkpt lat="44.0290584" lon="12.5216694"><ele>20.666666666666668</ele><time>2026-04-10T11:11:46.857Z</time></trkpt><trkpt lat="44.0289269" lon="12.5215487"><ele>21.333333333333332</ele><time>2026-04-10T11:11:47.858Z</time></trkpt><trkpt lat="44.0287945" lon="12.5214307"><ele>22.0</ele><time>2026-04-10T11:11:48.857Z</time></trkpt><trkpt lat="44.0286685" lon="12.5213236"><ele>22.25</ele><time>2026-04-10T11:11:49.858Z</time></trkpt><trkpt lat="44.0285408" lon="12.5212284"><ele>22.5</ele><time>2026-04-10T11:11:50.858Z</time></trkpt><trkpt lat="44.0284032" lon="12.5211545"><ele>22.75</ele><time>2026-04-10T11:11:51.858Z</time></trkpt><trkpt lat="44.0282632" lon="12.5211137"><ele>23.0</ele><time>2026-04-10T11:11:52.856Z</time></trkpt><trkpt lat="44.0281145" lon="12.521101"><ele>23.666666666666668</ele><time>2026-04-10T11:11:53.857Z</time></trkpt><trkpt lat="44.0279474" lon="12.5211033"><ele>24.333333333333336</ele><time>2026-04-10T11:11:54.857Z</time></trkpt><trkpt lat="44.0277549" lon="12.5211039"><ele>25.0</ele><time>2026-04-10T11:11:55.856Z</time></trkpt><trkpt lat="44.0275461" lon="12.5211093"><ele>25.0</ele><time>2026-04-10T11:11:56.857Z</time></trkpt><trkpt lat="44.0273297" lon="12.5211179"><ele>25.0</ele><time>2026-04-10T11:11:57.858Z</time></trkpt><trkpt lat="44.0271074" lon="12.5211293"><ele>25.0</ele><time>2026-04-10T11:11:58.856Z</time></trkpt><trkpt lat="44.0268882" lon="12.5211317"><ele>25.0</ele><time>2026-04-10T11:11:59.856Z</time></trkpt><trkpt lat="44.0266808" lon="12.5211323"><ele>25.0</ele><time>2026-04-10T11:12:00.857Z</time></trkpt><trkpt lat="44.0264807" lon="12.5211345"><ele>25.0</ele><time>2026-04-10T11:12:01.857Z</time></trkpt><trkpt lat="44.0263064" lon="12.5211382"><ele>25.5</ele><time>2026-04-10T11:12:02.858Z</time></trkpt><trkpt lat="44.0261466" lon="12.5211443"><ele>26.0</ele><time>2026-04-10T11:12:03.857Z</time></trkpt><trkpt lat="44.0260038" lon="12.5211511"><ele>26.5</ele><time>2026-04-10T11:12:04.857Z</time></trkpt><trkpt lat="44.0258676" lon="12.5211585"><ele>27.0</ele><time>2026-04-10T11:12:05.857Z</time></trkpt><trkpt lat="44.0257426" lon="12.5211662"><ele>27.75</ele><time>2026-04-10T11:12:06.856Z</time></trkpt><trkpt lat="44.0256247" lon="12.5211589"><ele>28.5</ele><time>2026-04-10T11:12:07.856Z</time></trkpt><trkpt lat="44.0255119" lon="12.5211339"><ele>29.25</ele><time>2026-04-10T11:12:08.858Z</time></trkpt><trkpt lat="44.0254059" lon="12.5210789"><ele>30.0</ele><time>2026-04-10T11:12:09.856Z</time></trkpt><trkpt lat="44.025298" lon="12.5209949"><ele>30.0</ele><time>2026-04-10T11:12:10.857Z</time></trkpt><trkpt lat="44.0251753" lon="12.5208979"><ele>30.0</ele><time>2026-04-10T11:12:11.857Z</time></trkpt><trkpt lat="44.0250484" lon="12.5208002"><ele>30.0</ele><time>2026-04-10T11:12:12.856Z</time></trkpt><trkpt lat="44.0249242" lon="12.5206909"><ele>30.0</ele><time>2026-04-10T11:12:13.857Z</time></trkpt><trkpt lat="44.0248019" lon="12.5205794"><ele>30.75</ele><time>2026-04-10T11:12:14.858Z</time></trkpt><trkpt lat="44.0246818" lon="12.5204736"><ele>31.5</ele><time>2026-04-10T11:12:15.856Z</time></trkpt><trkpt lat="44.0245602" lon="12.5203687"><ele>32.25</ele><time>2026-04-10T11:12:16.857Z</time></trkpt><trkpt lat="44.0244435" lon="12.5202931"><ele>33.0</ele><time>2026-04-10T11:12:17.858Z</time></trkpt><trkpt lat="44.0243224" lon="12.5202331"><ele>33.0</ele><time>2026-04-10T11:12:18.857Z</time></trkpt><trkpt lat="44.0242003" lon="12.5201892"><ele>33.0</ele><time>2026-04-10T11:12:19.859Z</time></trkpt><trkpt lat="44.0240841" lon="12.520159"><ele>33.0</ele><time>2026-04-10T11:12:20.857Z</time></trkpt><trkpt lat="44.0239776" lon="12.520141"><ele>33.0</ele><time>2026-04-10T11:12:21.857Z</time></trkpt><trkpt lat="44.0238767" lon="12.5201222"><ele>33.166666666666664</ele><time>2026-04-10T11:12:22.856Z</time></trkpt><trkpt lat="44.0238122" lon="12.5200836"><ele>33.333333333333336</ele><time>2026-04-10T11:12:23.857Z</time></trkpt><trkpt lat="44.0237544" lon="12.5200313"><ele>33.5</ele><time>2026-04-10T11:12:24.857Z</time></trkpt><trkpt lat="44.0237052" lon="12.5199503"><ele>33.66666666666667</ele><time>2026-04-10T11:12:25.856Z</time></trkpt><trkpt lat="44.0236497" lon="12.5198465"><ele>33.833333333333336</ele><time>2026-04-10T11:12:26.857Z</time></trkpt><trkpt lat="44.0235606" lon="12.5197083"><ele>34.0</ele><time>2026-04-10T11:12:27.857Z</time></trkpt><trkpt lat="44.0234731" lon="12.5195821"><ele>34.0</ele><time>2026-04-10T11:12:28.858Z</time></trkpt><trkpt lat="44.0233881" lon="12.5194667"><ele>34.0</ele><time>2026-04-10T11:12:29.857Z</time></trkpt><trkpt lat="44.0232978" lon="12.5193619"><ele>34.0</ele><time>2026-04-10T11:12:30.858Z</time></trkpt><trkpt lat="44.0232069" lon="12.5192567"><ele>34.0</ele><time>2026-04-10T11:12:31.858Z</time></trkpt><trkpt lat="44.0231095" lon="12.5191517"><ele>34.5</ele><time>2026-04-10T11:12:32.857Z</time></trkpt><trkpt lat="44.0229994" lon="12.5190422"><ele>35.0</ele><time>2026-04-10T11:12:33.857Z</time></trkpt><trkpt lat="44.0228763" lon="12.5189373"><ele>35.5</ele><time>2026-04-10T11:12:34.858Z</time></trkpt><trkpt lat="44.0227524" lon="12.5188312"><ele>36.0</ele><time>2026-04-10T11:12:35.857Z</time></trkpt><trkpt lat="44.0226289" lon="12.5187288"><ele>37.0</ele><time>2026-04-10T11:12:36.858Z</time></trkpt><trkpt lat="44.0225137" lon="12.5186237"><ele>38.0</ele><time>2026-04-10T11:12:37.858Z</time></trkpt><trkpt lat="44.0224175" lon="12.5185065"><ele>39.0</ele><time>2026-04-10T11:12:38.856Z</time></trkpt><trkpt lat="44.0223202" lon="12.518382"><ele>40.0</ele><time>2026-04-10T11:12:39.857Z</time></trkpt><trkpt lat="44.0222135" lon="12.5182472"><ele>42.25</ele><time>2026-04-10T11:12:40.857Z</time></trkpt><trkpt lat="44.0221085" lon="12.5181069"><ele>44.5</ele><time>2026-04-10T11:12:41.856Z</time></trkpt><trkpt lat="44.0220074" lon="12.5179628"><ele>46.75</ele><time>2026-04-10T11:12:42.856Z</time></trkpt><trkpt lat="44.0219113" lon="12.5178256"><ele>49.0</ele><time>2026-04-10T11:12:43.856Z</time></trkpt><trkpt lat="44.0218191" lon="12.5176834"><ele>50.0</ele><time>2026-04-10T11:12:44.857Z</time></trkpt><trkpt lat="44.0217297" lon="12.5175382"><ele>51.0</ele><time>2026-04-10T11:12:45.857Z</time></trkpt><trkpt lat="44.0216417" lon="12.5173928"><ele>52.0</ele><time>2026-04-10T11:12:46.857Z</time></trkpt><trkpt lat="44.0215586" lon="12.5172454"><ele>53.0</ele><time>2026-04-10T11:12:47.856Z</time></trkpt><trkpt lat="44.0214704" lon="12.5170904"><ele>58.0</ele><time>2026-04-10T11:12:48.859Z</time></trkpt><trkpt lat="44.0213826" lon="12.5169252"><ele>63.0</ele><time>2026-04-10T11:12:49.857Z</time></trkpt><trkpt lat="44.0212911" lon="12.5167496"><ele>68.0</ele><time>2026-04-10T11:12:50.858Z</time></trkpt><trkpt lat="44.0211917" lon="12.5165612"><ele>68.0</ele><time>2026-04-10T11:12:51.856Z</time></trkpt><trkpt lat="44.0211002" lon="12.5163914"><ele>68.0</ele><time>2026-04-10T11:12:52.857Z</time></trkpt><trkpt lat="44.0210102" lon="12.5162303"><ele>68.0</ele><time>2026-04-10T11:12:53.857Z</time></trkpt><trkpt lat="44.0209443" lon="12.5161056"><ele>68.0</ele><time>2026-04-10T11:12:54.857Z</time></trkpt><trkpt lat="44.0208851" lon="12.5159908"><ele>69.16666666666667</ele><time>2026-04-10T11:12:55.856Z</time></trkpt><trkpt lat="44.0208306" lon="12.5158805"><ele>70.33333333333334</ele><time>2026-04-10T11:12:56.858Z</time></trkpt><trkpt lat="44.0207885" lon="12.5158002"><ele>71.5</ele><time>2026-04-10T11:12:57.858Z</time></trkpt><trkpt lat="44.0207484" lon="12.5157134"><ele>72.66666666666667</ele><time>2026-04-10T11:12:58.856Z</time></trkpt><trkpt lat="44.0206971" lon="12.5155966"><ele>73.83333333333333</ele><time>2026-04-10T11:13:00.857Z</time></trkpt><trkpt lat="44.0207344" lon="12.5155179"><ele>75.0</ele><time>2026-04-10T11:13:02.857Z</time></trkpt><trkpt lat="44.0207984" lon="12.5154479"><ele>75.6</ele><time>2026-04-10T11:13:03.857Z</time></trkpt><trkpt lat="44.020867" lon="12.5153736"><ele>76.2</ele><time>2026-04-10T11:13:04.857Z</time></trkpt><trkpt lat="44.0209541" lon="12.5152853"><ele>76.8</ele><time>2026-04-10T11:13:05.856Z</time></trkpt><trkpt lat="44.021032" lon="12.5152084"><ele>77.4</ele><time>2026-04-10T11:13:06.858Z</time></trkpt><trkpt lat="44.0210906" lon="12.5151344"><ele>78.0</ele><time>2026-04-10T11:13:07.857Z</time></trkpt><trkpt lat="44.0211209" lon="12.515014"><ele>78.0</ele><time>2026-04-10T11:13:09.858Z</time></trkpt><trkpt lat="44.0211735" lon="12.5149329"><ele>78.0</ele><time>2026-04-10T11:13:11.856Z</time></trkpt><trkpt lat="44.0212379" lon="12.5148904"><ele>78.0</ele><time>2026-04-10T11:13:12.857Z</time></trkpt><trkpt lat="44.0213252" lon="12.5148264"><ele>78.0</ele><time>2026-04-10T11:13:13.856Z</time></trkpt><trkpt lat="44.0214023" lon="12.5147697"><ele>78.0</ele><time>2026-04-10T11:13:14.857Z</time></trkpt><trkpt lat="44.0214681" lon="12.5147171"><ele>78.0</ele><time>2026-04-10T11:13:15.858Z</time></trkpt><trkpt lat="44.0215344" lon="12.5145916"><ele>78.16666666666667</ele><time>2026-04-10T11:13:17.857Z</time></trkpt><trkpt lat="44.02149" lon="12.5144378"><ele>78.33333333333333</ele><time>2026-04-10T11:13:19.857Z</time></trkpt><trkpt lat="44.0214496" lon="12.5143519"><ele>78.5</ele><time>2026-04-10T11:13:20.857Z</time></trkpt><trkpt lat="44.0214153" lon="12.51427"><ele>78.66666666666666</ele><time>2026-04-10T11:13:21.857Z</time></trkpt><trkpt lat="44.0213798" lon="12.5141796"><ele>78.83333333333333</ele><time>2026-04-10T11:13:22.857Z</time></trkpt><trkpt lat="44.0213428" lon="12.5140936"><ele>79.0</ele><time>2026-04-10T11:13:23.858Z</time></trkpt><trkpt lat="44.021307" lon="12.5140133"><ele>79.0</ele><time>2026-04-10T11:13:24.857Z</time></trkpt><trkpt lat="44.0212714" lon="12.5139356"><ele>79.0</ele><time>2026-04-10T11:13:25.857Z</time></trkpt><trkpt lat="44.0212451" lon="12.5138514"><ele>79.0</ele><time>2026-04-10T11:13:26.857Z</time></trkpt><trkpt lat="44.0212024" lon="12.5137564"><ele>79.0</ele><time>2026-04-10T11:13:27.857Z</time></trkpt><trkpt lat="44.0211461" lon="12.5136522"><ele>79.0</ele><time>2026-04-10T11:13:28.857Z</time></trkpt><trkpt lat="44.0210876" lon="12.5135561"><ele>79.0</ele><time>2026-04-10T11:13:29.856Z</time></trkpt><trkpt lat="44.0210342" lon="12.5134567"><ele>78.33333333333333</ele><time>2026-04-10T11:13:30.857Z</time></trkpt><trkpt lat="44.0209812" lon="12.5133621"><ele>77.66666666666666</ele><time>2026-04-10T11:13:31.856Z</time></trkpt><trkpt lat="44.0209298" lon="12.5132739"><ele>77.0</ele><time>2026-04-10T11:13:32.857Z</time></trkpt><trkpt lat="44.0208686" lon="12.5131805"><ele>76.33333333333333</ele><time>2026-04-10T11:13:33.857Z</time></trkpt><trkpt lat="44.0208103" lon="12.5130794"><ele>75.66666666666667</ele><time>2026-04-10T11:13:34.856Z</time></trkpt><trkpt lat="44.0207501" lon="12.5129757"><ele>75.0</ele><time>2026-04-10T11:13:35.859Z</time></trkpt><trkpt lat="44.0206896" lon="12.512883"><ele>73.16666666666667</ele><time>2026-04-10T11:13:36.857Z</time></trkpt><trkpt lat="44.0206287" lon="12.5127916"><ele>71.33333333333333</ele><time>2026-04-10T11:13:37.856Z</time></trkpt><trkpt lat="44.0205698" lon="12.5127064"><ele>69.5</ele><time>2026-04-10T11:13:38.856Z</time></trkpt><trkpt lat="44.0205081" lon="12.5126164"><ele>67.66666666666666</ele><time>2026-04-10T11:13:39.857Z</time></trkpt><trkpt lat="44.0204472" lon="12.5125256"><ele>65.83333333333333</ele><time>2026-04-10T11:13:40.857Z</time></trkpt><trkpt lat="44.0203918" lon="12.5124416"><ele>64.0</ele><time>2026-04-10T11:13:41.856Z</time></trkpt><trkpt lat="44.0203425" lon="12.5123754"><ele>64.0</ele><time>2026-04-10T11:13:42.857Z</time></trkpt><trkpt lat="44.0203118" lon="12.5122635"><ele>64.0</ele><time>2026-04-10T11:13:44.858Z</time></trkpt><trkpt lat="44.0203786" lon="12.5121704"><ele>64.0</ele><time>2026-04-10T11:13:46.857Z</time></trkpt><trkpt lat="44.0204334" lon="12.5120452"><ele>64.0</ele><time>2026-04-10T11:13:48.857Z</time></trkpt><trkpt lat="44.0204862" lon="12.5119485"><ele>64.0</ele><time>2026-04-10T11:13:50.857Z</time></trkpt><trkpt lat="44.0205828" lon="12.5118737"><ele>64.4</ele><time>2026-04-10T11:13:52.856Z</time></trkpt><trkpt lat="44.0206547" lon="12.5117929"><ele>64.80000000000001</ele><time>2026-04-10T11:13:54.857Z</time></trkpt><trkpt lat="44.0206706" lon="12.5116723"><ele>65.19999999999999</ele><time>2026-04-10T11:13:56.858Z</time></trkpt><trkpt lat="44.0206658" lon="12.5114957"><ele>65.6</ele><time>2026-04-10T11:13:58.857Z</time></trkpt><trkpt lat="44.0206583" lon="12.5114006"><ele>66.0</ele><time>2026-04-10T11:13:59.857Z</time></trkpt><trkpt lat="44.0206537" lon="12.5112938"><ele>67.33333333333333</ele><time>2026-04-10T11:14:00.857Z</time></trkpt><trkpt lat="44.0206474" lon="12.5111913"><ele>68.66666666666667</ele><time>2026-04-10T11:14:01.856Z</time></trkpt><trkpt lat="44.020639" lon="12.5110748"><ele>70.0</ele><time>2026-04-10T11:14:02.858Z</time></trkpt><trkpt lat="44.0206325" lon="12.5109642"><ele>71.33333333333334</ele><time>2026-04-10T11:14:03.856Z</time></trkpt><trkpt lat="44.0206224" lon="12.5108551"><ele>72.66666666666667</ele><time>2026-04-10T11:14:04.856Z</time></trkpt><trkpt lat="44.0206145" lon="12.5107451"><ele>74.0</ele><time>2026-04-10T11:14:05.856Z</time></trkpt><trkpt lat="44.0206006" lon="12.5106326"><ele>74.0</ele><time>2026-04-10T11:14:06.857Z</time></trkpt><trkpt lat="44.0205743" lon="12.5105188"><ele>74.0</ele><time>2026-04-10T11:14:07.858Z</time></trkpt><trkpt lat="44.0205348" lon="12.5104109"><ele>74.0</ele><time>2026-04-10T11:14:08.857Z</time></trkpt><trkpt lat="44.0204619" lon="12.5103427"><ele>74.0</ele><time>2026-04-10T11:14:09.857Z</time></trkpt><trkpt lat="44.0203881" lon="12.5102861"><ele>74.0</ele><time>2026-04-10T11:14:10.856Z</time></trkpt><trkpt lat="44.0203153" lon="12.5102274"><ele>74.0</ele><time>2026-04-10T11:14:11.856Z</time></trkpt><trkpt lat="44.020246" lon="12.5101577"><ele>76.16666666666667</ele><time>2026-04-10T11:14:12.857Z</time></trkpt><trkpt lat="44.020173" lon="12.5100774"><ele>78.33333333333334</ele><time>2026-04-10T11:14:13.857Z</time></trkpt><trkpt lat="44.0201114" lon="12.5099986"><ele>80.5</ele><time>2026-04-10T11:14:14.857Z</time></trkpt><trkpt lat="44.0200564" lon="12.5099125"><ele>82.66666666666667</ele><time>2026-04-10T11:14:15.857Z</time></trkpt><trkpt lat="44.020004" lon="12.5098229"><ele>84.83333333333333</ele><time>2026-04-10T11:14:16.858Z</time></trkpt><trkpt lat="44.0199575" lon="12.5097202"><ele>87.0</ele><time>2026-04-10T11:14:17.857Z</time></trkpt><trkpt lat="44.0199142" lon="12.5096062"><ele>88.66666666666667</ele><time>2026-04-10T11:14:18.858Z</time></trkpt><trkpt lat="44.0198881" lon="12.5095023"><ele>90.33333333333334</ele><time>2026-04-10T11:14:19.856Z</time></trkpt><trkpt lat="44.0198601" lon="12.5093637"><ele>92.0</ele><time>2026-04-10T11:14:21.857Z</time></trkpt><trkpt lat="44.0198015" lon="12.5093187"><ele>93.66666666666667</ele><time>2026-04-10T11:14:24.859Z</time></trkpt><trkpt lat="44.0197279" lon="12.5093396"><ele>95.33333333333334</ele><time>2026-04-10T11:14:38.858Z</time></trkpt><trkpt lat="44.0196395" lon="12.5093646"><ele>97.0</ele><time>2026-04-10T11:14:41.856Z</time></trkpt><trkpt lat="44.0195689" lon="12.5093837"><ele>97.0</ele><time>2026-04-10T11:14:43.857Z</time></trkpt><trkpt lat="44.019487" lon="12.509421"><ele>97.0</ele><time>2026-04-10T11:14:45.856Z</time></trkpt><trkpt lat="44.0193855" lon="12.5094577"><ele>97.0</ele><time>2026-04-10T11:14:47.858Z</time></trkpt><trkpt lat="44.0192708" lon="12.5095068"><ele>97.0</ele><time>2026-04-10T11:14:49.857Z</time></trkpt><trkpt lat="44.0191918" lon="12.5095381"><ele>97.0</ele><time>2026-04-10T11:14:50.857Z</time></trkpt><trkpt lat="44.0191128" lon="12.509573"><ele>95.66666666666667</ele><time>2026-04-10T11:14:51.857Z</time></trkpt><trkpt lat="44.019027" lon="12.5096023"><ele>94.33333333333334</ele><time>2026-04-10T11:14:52.857Z</time></trkpt><trkpt lat="44.0189602" lon="12.5096288"><ele>93.0</ele><time>2026-04-10T11:14:53.856Z</time></trkpt><trkpt lat="44.0188868" lon="12.5096514"><ele>91.66666666666667</ele><time>2026-04-10T11:14:54.857Z</time></trkpt><trkpt lat="44.018813" lon="12.5096837"><ele>90.33333333333334</ele><time>2026-04-10T11:14:55.858Z</time></trkpt><trkpt lat="44.0187438" lon="12.5097139"><ele>89.0</ele><time>2026-04-10T11:14:56.858Z</time></trkpt><trkpt lat="44.0186338" lon="12.5097545"><ele>89.0</ele><time>2026-04-10T11:14:58.856Z</time></trkpt><trkpt lat="44.0185526" lon="12.509785"><ele>89.0</ele><time>2026-04-10T11:15:00.857Z</time></trkpt><trkpt lat="44.0185213" lon="12.5098943"><ele>89.0</ele><time>2026-04-10T11:15:02.856Z</time></trkpt><trkpt lat="44.0185149" lon="12.5100491"><ele>89.0</ele><time>2026-04-10T11:15:04.856Z</time></trkpt><trkpt lat="44.0185054" lon="12.5101457"><ele>89.0</ele><time>2026-04-10T11:15:05.857Z</time></trkpt><trkpt lat="44.0184983" lon="12.5102483"><ele>89.0</ele><time>2026-04-10T11:15:06.856Z</time></trkpt><trkpt lat="44.01849" lon="12.5103495"><ele>87.16666666666667</ele><time>2026-04-10T11:15:07.856Z</time></trkpt><trkpt lat="44.0184791" lon="12.510457"><ele>85.33333333333334</ele><time>2026-04-10T11:15:08.857Z</time></trkpt><trkpt lat="44.0184657" lon="12.5105683"><ele>83.5</ele><time>2026-04-10T11:15:09.857Z</time></trkpt><trkpt lat="44.0184515" lon="12.5106877"><ele>81.66666666666667</ele><time>2026-04-10T11:15:10.857Z</time></trkpt><trkpt lat="44.0184434" lon="12.5108054"><ele>79.83333333333333</ele><time>2026-04-10T11:15:11.857Z</time></trkpt><trkpt lat="44.0184316" lon="12.5109196"><ele>78.0</ele><time>2026-04-10T11:15:12.856Z</time></trkpt><trkpt lat="44.0184206" lon="12.5110486"><ele>78.0</ele><time>2026-04-10T11:15:13.858Z</time></trkpt><trkpt lat="44.0184133" lon="12.5111705"><ele>78.0</ele><time>2026-04-10T11:15:14.857Z</time></trkpt><trkpt lat="44.0184038" lon="12.511293"><ele>78.0</ele><time>2026-04-10T11:15:15.858Z</time></trkpt><trkpt lat="44.0183921" lon="12.5114276"><ele>78.0</ele><time>2026-04-10T11:15:16.857Z</time></trkpt><trkpt lat="44.0183852" lon="12.5115673"><ele>78.0</ele><time>2026-04-10T11:15:17.856Z</time></trkpt><trkpt lat="44.0183806" lon="12.5116902"><ele>75.83333333333333</ele><time>2026-04-10T11:15:18.857Z</time></trkpt><trkpt lat="44.0183747" lon="12.5118142"><ele>73.66666666666667</ele><time>2026-04-10T11:15:19.858Z</time></trkpt><trkpt lat="44.0183652" lon="12.5119395"><ele>71.5</ele><time>2026-04-10T11:15:20.856Z</time></trkpt><trkpt lat="44.0183601" lon="12.5120498"><ele>69.33333333333334</ele><time>2026-04-10T11:15:21.858Z</time></trkpt><trkpt lat="44.0183552" lon="12.5121612"><ele>67.16666666666667</ele><time>2026-04-10T11:15:22.857Z</time></trkpt><trkpt lat="44.0183578" lon="12.5122708"><ele>65.0</ele><time>2026-04-10T11:15:23.857Z</time></trkpt><trkpt lat="44.0183601" lon="12.5123839"><ele>64.00000000000001</ele><time>2026-04-10T11:15:24.856Z</time></trkpt><trkpt lat="44.0183637" lon="12.5124766"><ele>63.0</ele><time>2026-04-10T11:15:25.857Z</time></trkpt><trkpt lat="44.0183682" lon="12.5125958"><ele>62.00000000000001</ele><time>2026-04-10T11:15:26.857Z</time></trkpt><trkpt lat="44.0183779" lon="12.5126846"><ele>61.00000000000001</ele><time>2026-04-10T11:15:27.857Z</time></trkpt><trkpt lat="44.0183646" lon="12.5127971"><ele>60.0</ele><time>2026-04-10T11:15:29.858Z</time></trkpt><trkpt lat="44.0182874" lon="12.5128193"><ele>59.00000000000001</ele><time>2026-04-10T11:15:31.857Z</time></trkpt><trkpt lat="44.0182242" lon="12.512825"><ele>58.00000000000001</ele><time>2026-04-10T11:15:32.856Z</time></trkpt><trkpt lat="44.0181482" lon="12.5128345"><ele>57.666666666666664</ele><time>2026-04-10T11:15:33.856Z</time></trkpt><trkpt lat="44.0180654" lon="12.5128342"><ele>57.33333333333333</ele><time>2026-04-10T11:15:34.858Z</time></trkpt><trkpt lat="44.0179825" lon="12.5128356"><ele>57.0</ele><time>2026-04-10T11:15:35.856Z</time></trkpt><trkpt lat="44.017905" lon="12.5128377"><ele>56.66666666666667</ele><time>2026-04-10T11:15:36.858Z</time></trkpt><trkpt lat="44.0178237" lon="12.5128348"><ele>56.333333333333336</ele><time>2026-04-10T11:15:37.856Z</time></trkpt><trkpt lat="44.0177497" lon="12.5128368"><ele>56.0</ele><time>2026-04-10T11:15:38.856Z</time></trkpt><trkpt lat="44.0176746" lon="12.5128281"><ele>56.0</ele><time>2026-04-10T11:15:39.857Z</time></trkpt><trkpt lat="44.0176029" lon="12.5128073"><ele>56.0</ele><time>2026-04-10T11:15:40.858Z</time></trkpt><trkpt lat="44.0175322" lon="12.5127861"><ele>56.0</ele><time>2026-04-10T11:15:41.858Z</time></trkpt><trkpt lat="44.0174715" lon="12.5127551"><ele>56.0</ele><time>2026-04-10T11:15:42.859Z</time></trkpt><trkpt lat="44.0173896" lon="12.5127539"><ele>56.0</ele><time>2026-04-10T11:15:44.857Z</time></trkpt><trkpt lat="44.0173633" lon="12.5128498"><ele>56.0</ele><time>2026-04-10T11:15:47.858Z</time></trkpt><trkpt lat="44.0173626" lon="12.5129549"><ele>56.0</ele><time>2026-04-10T11:15:57.857Z</time></trkpt><trkpt lat="44.0173743" lon="12.5131023"><ele>55.833333333333336</ele><time>2026-04-10T11:15:59.858Z</time></trkpt><trkpt lat="44.0173894" lon="12.5132489"><ele>55.66666666666667</ele><time>2026-04-10T11:16:01.857Z</time></trkpt><trkpt lat="44.0173463" lon="12.5133329"><ele>55.5</ele><time>2026-04-10T11:16:03.857Z</time></trkpt><trkpt lat="44.0172448" lon="12.5133027"><ele>55.33333333333333</ele><time>2026-04-10T11:16:05.857Z</time></trkpt><trkpt lat="44.0171685" lon="12.5133036"><ele>55.166666666666664</ele><time>2026-04-10T11:16:06.858Z</time></trkpt><trkpt lat="44.0170838" lon="12.5133022"><ele>55.0</ele><time>2026-04-10T11:16:07.857Z</time></trkpt><trkpt lat="44.0169952" lon="12.5132993"><ele>54.99999999999999</ele><time>2026-04-10T11:16:08.857Z</time></trkpt><trkpt lat="44.0168933" lon="12.5132993"><ele>55.0</ele><time>2026-04-10T11:16:09.858Z</time></trkpt><trkpt lat="44.0168029" lon="12.5133037"><ele>55.0</ele><time>2026-04-10T11:16:10.857Z</time></trkpt><trkpt lat="44.0167287" lon="12.5133186"><ele>55.0</ele><time>2026-04-10T11:16:11.856Z</time></trkpt><trkpt lat="44.0166491" lon="12.5133848"><ele>54.99999999999999</ele><time>2026-04-10T11:16:13.857Z</time></trkpt><trkpt lat="44.0166244" lon="12.5134986"><ele>55.0</ele><time>2026-04-10T11:16:15.858Z</time></trkpt><trkpt lat="44.0166307" lon="12.5136509"><ele>55.99999999999999</ele><time>2026-04-10T11:16:17.857Z</time></trkpt><trkpt lat="44.0166356" lon="12.5137392"><ele>57.0</ele><time>2026-04-10T11:16:18.856Z</time></trkpt><trkpt lat="44.0166455" lon="12.5138346"><ele>58.0</ele><time>2026-04-10T11:16:19.856Z</time></trkpt><trkpt lat="44.0166648" lon="12.5139267"><ele>59.0</ele><time>2026-04-10T11:16:20.856Z</time></trkpt><trkpt lat="44.016692" lon="12.5140166"><ele>59.99999999999999</ele><time>2026-04-10T11:16:21.858Z</time></trkpt><trkpt lat="44.0167616" lon="12.5141576"><ele>61.0</ele><time>2026-04-10T11:16:23.857Z</time></trkpt><trkpt lat="44.016812" lon="12.5142276"><ele>61.0</ele><time>2026-04-10T11:16:24.858Z</time></trkpt><trkpt lat="44.0168562" lon="12.5142994"><ele>60.99999999999999</ele><time>2026-04-10T11:16:25.857Z</time></trkpt><trkpt lat="44.0168852" lon="12.5144567"><ele>60.99999999999999</ele><time>2026-04-10T11:16:27.857Z</time></trkpt><trkpt lat="44.0168458" lon="12.5145939"><ele>61.0</ele><time>2026-04-10T11:16:29.857Z</time></trkpt><trkpt lat="44.0167907" lon="12.5147093"><ele>61.0</ele><time>2026-04-10T11:16:31.856Z</time></trkpt><trkpt lat="44.0167236" lon="12.5148151"><ele>62.199999999999996</ele><time>2026-04-10T11:16:33.858Z</time></trkpt><trkpt lat="44.016669" lon="12.5149249"><ele>63.39999999999999</ele><time>2026-04-10T11:16:35.857Z</time></trkpt><trkpt lat="44.0166496" lon="12.5150686"><ele>64.6</ele><time>2026-04-10T11:16:37.858Z</time></trkpt><trkpt lat="44.0166476" lon="12.515157"><ele>65.8</ele><time>2026-04-10T11:16:38.857Z</time></trkpt><trkpt lat="44.0166567" lon="12.5152498"><ele>67.0</ele><time>2026-04-10T11:16:39.858Z</time></trkpt><trkpt lat="44.0166835" lon="12.5154293"><ele>68.5</ele><time>2026-04-10T11:16:41.856Z</time></trkpt><trkpt lat="44.0166965" lon="12.5155282"><ele>70.0</ele><time>2026-04-10T11:16:42.856Z</time></trkpt><trkpt lat="44.0167144" lon="12.5156303"><ele>71.5</ele><time>2026-04-10T11:16:43.857Z</time></trkpt><trkpt lat="44.0167263" lon="12.5157323"><ele>73.0</ele><time>2026-04-10T11:16:44.857Z</time></trkpt><trkpt lat="44.0167458" lon="12.5158329"><ele>74.5</ele><time>2026-04-10T11:16:45.857Z</time></trkpt><trkpt lat="44.0167649" lon="12.5159293"><ele>76.0</ele><time>2026-04-10T11:16:46.856Z</time></trkpt><trkpt lat="44.0167903" lon="12.5160645"><ele>76.0</ele><time>2026-04-10T11:16:48.859Z</time></trkpt><trkpt lat="44.0168347" lon="12.5161981"><ele>76.0</ele><time>2026-04-10T11:16:50.856Z</time></trkpt><trkpt lat="44.0168784" lon="12.516292"><ele>76.0</ele><time>2026-04-10T11:16:52.857Z</time></trkpt><trkpt lat="44.0169648" lon="12.5163669"><ele>76.0</ele><time>2026-04-10T11:16:54.856Z</time></trkpt><trkpt lat="44.0170294" lon="12.5164108"><ele>76.0</ele><time>2026-04-10T11:16:55.857Z</time></trkpt><trkpt lat="44.0170996" lon="12.5164598"><ele>76.0</ele><time>2026-04-10T11:16:56.856Z</time></trkpt><trkpt lat="44.0171589" lon="12.5165044"><ele>77.0</ele><time>2026-04-10T11:16:57.856Z</time></trkpt><trkpt lat="44.0172264" lon="12.5165418"><ele>78.0</ele><time>2026-04-10T11:16:58.857Z</time></trkpt><trkpt lat="44.0172917" lon="12.516577"><ele>79.0</ele><time>2026-04-10T11:16:59.856Z</time></trkpt><trkpt lat="44.0173539" lon="12.5165957"><ele>80.0</ele><time>2026-04-10T11:17:00.856Z</time></trkpt><trkpt lat="44.017451" lon="12.5165965"><ele>81.0</ele><time>2026-04-10T11:17:02.858Z</time></trkpt><trkpt lat="44.017494" lon="12.5166792"><ele>82.0</ele><time>2026-04-10T11:17:05.858Z</time></trkpt><trkpt lat="44.0174635" lon="12.5167745"><ele>82.16666666666666</ele><time>2026-04-10T11:17:07.859Z</time></trkpt><trkpt lat="44.0174244" lon="12.5168656"><ele>82.33333333333333</ele><time>2026-04-10T11:17:09.858Z</time></trkpt><trkpt lat="44.0173835" lon="12.5169776"><ele>82.5</ele><time>2026-04-10T11:17:11.858Z</time></trkpt><trkpt lat="44.0173502" lon="12.5171161"><ele>82.66666666666667</ele><time>2026-04-10T11:17:13.857Z</time></trkpt><trkpt lat="44.0173667" lon="12.5172338"><ele>82.83333333333334</ele><time>2026-04-10T11:17:15.858Z</time></trkpt><trkpt lat="44.0174411" lon="12.5172892"><ele>83.0</ele><time>2026-04-10T11:17:17.857Z</time></trkpt><trkpt lat="44.0175459" lon="12.5173655"><ele>83.71428571428571</ele><time>2026-04-10T11:17:19.858Z</time></trkpt><trkpt lat="44.0176039" lon="12.5174075"><ele>84.42857142857143</ele><time>2026-04-10T11:17:20.858Z</time></trkpt><trkpt lat="44.01767" lon="12.5174557"><ele>85.14285714285714</ele><time>2026-04-10T11:17:21.856Z</time></trkpt><trkpt lat="44.017737" lon="12.5175059"><ele>85.85714285714286</ele><time>2026-04-10T11:17:22.856Z</time></trkpt><trkpt lat="44.0178004" lon="12.5175506"><ele>86.57142857142857</ele><time>2026-04-10T11:17:23.858Z</time></trkpt><trkpt lat="44.0178724" lon="12.517596"><ele>87.28571428571429</ele><time>2026-04-10T11:17:24.856Z</time></trkpt><trkpt lat="44.0179458" lon="12.5176396"><ele>88.0</ele><time>2026-04-10T11:17:25.857Z</time></trkpt><trkpt lat="44.0180141" lon="12.5176781"><ele>88.0</ele><time>2026-04-10T11:17:26.856Z</time></trkpt><trkpt lat="44.0181235" lon="12.5177637"><ele>88.0</ele><time>2026-04-10T11:17:28.857Z</time></trkpt><trkpt lat="44.0181826" lon="12.5177977"><ele>88.0</ele><time>2026-04-10T11:17:29.857Z</time></trkpt><trkpt lat="44.0182691" lon="12.517849"><ele>88.0</ele><time>2026-04-10T11:17:31.857Z</time></trkpt><trkpt lat="44.0182395" lon="12.5179414"><ele>88.0</ele><time>2026-04-10T11:17:36.856Z</time></trkpt><trkpt lat="44.0181847" lon="12.5179911"><ele>88.0</ele><time>2026-04-10T11:17:38.856Z</time></trkpt><trkpt lat="44.0181204" lon="12.5180435"><ele>89.60000000000001</ele><time>2026-04-10T11:17:40.858Z</time></trkpt><trkpt lat="44.0180606" lon="12.5181006"><ele>91.2</ele><time>2026-04-10T11:17:42.857Z</time></trkpt><trkpt lat="44.0179838" lon="12.5181667"><ele>92.8</ele><time>2026-04-10T11:17:44.857Z</time></trkpt><trkpt lat="44.0178832" lon="12.5182345"><ele>94.4</ele><time>2026-04-10T11:17:46.858Z</time></trkpt><trkpt lat="44.017778" lon="12.5183269"><ele>96.0</ele><time>2026-04-10T11:17:48.856Z</time></trkpt><trkpt lat="44.0176748" lon="12.5184234"><ele>96.0</ele><time>2026-04-10T11:17:50.859Z</time></trkpt><trkpt lat="44.0175621" lon="12.5185184"><ele>96.0</ele><time>2026-04-10T11:17:52.856Z</time></trkpt><trkpt lat="44.017466" lon="12.5186062"><ele>96.0</ele><time>2026-04-10T11:17:54.857Z</time></trkpt><trkpt lat="44.0173871" lon="12.5186941"><ele>96.0</ele><time>2026-04-10T11:17:56.858Z</time></trkpt><trkpt lat="44.0173506" lon="12.5187814"><ele>96.0</ele><time>2026-04-10T11:18:12.858Z</time></trkpt><trkpt lat="44.0173041" lon="12.5188756"><ele>96.16666666666667</ele><time>2026-04-10T11:18:17.857Z</time></trkpt><trkpt lat="44.0173044" lon="12.519011"><ele>96.33333333333334</ele><time>2026-04-10T11:18:20.856Z</time></trkpt><trkpt lat="44.0173546" lon="12.5191688"><ele>96.5</ele><time>2026-04-10T11:18:22.858Z</time></trkpt><trkpt lat="44.0173863" lon="12.5192659"><ele>96.66666666666667</ele><time>2026-04-10T11:18:23.856Z</time></trkpt><trkpt lat="44.0174191" lon="12.519362"><ele>96.83333333333334</ele><time>2026-04-10T11:18:24.856Z</time></trkpt><trkpt lat="44.0174536" lon="12.5194496"><ele>97.0</ele><time>2026-04-10T11:18:25.857Z</time></trkpt><trkpt lat="44.0174871" lon="12.5195526"><ele>96.16666666666667</ele><time>2026-04-10T11:18:26.856Z</time></trkpt><trkpt lat="44.0175208" lon="12.5196654"><ele>95.33333333333334</ele><time>2026-04-10T11:18:27.856Z</time></trkpt><trkpt lat="44.0175608" lon="12.5197775"><ele>94.5</ele><time>2026-04-10T11:18:28.857Z</time></trkpt><trkpt lat="44.0175976" lon="12.5198829"><ele>93.66666666666667</ele><time>2026-04-10T11:18:29.857Z</time></trkpt><trkpt lat="44.0176276" lon="12.5199891"><ele>92.83333333333334</ele><time>2026-04-10T11:18:30.857Z</time></trkpt><trkpt lat="44.0176608" lon="12.5200924"><ele>92.0</ele><time>2026-04-10T11:18:31.858Z</time></trkpt><trkpt lat="44.017689" lon="12.5201879"><ele>92.0</ele><time>2026-04-10T11:18:32.858Z</time></trkpt><trkpt lat="44.0177234" lon="12.5202809"><ele>92.0</ele><time>2026-04-10T11:18:33.857Z</time></trkpt><trkpt lat="44.0177585" lon="12.5203716"><ele>92.0</ele><time>2026-04-10T11:18:34.857Z</time></trkpt><trkpt lat="44.017797" lon="12.5204989"><ele>92.0</ele><time>2026-04-10T11:18:35.856Z</time></trkpt><trkpt lat="44.0178518" lon="12.5206545"><ele>92.0</ele><time>2026-04-10T11:18:36.857Z</time></trkpt><trkpt lat="44.0179148" lon="12.5208439"><ele>90.5</ele><time>2026-04-10T11:18:37.856Z</time></trkpt><trkpt lat="44.0179889" lon="12.5210264"><ele>89.0</ele><time>2026-04-10T11:18:38.857Z</time></trkpt><trkpt lat="44.0180569" lon="12.5211851"><ele>87.5</ele><time>2026-04-10T11:18:39.856Z</time></trkpt><trkpt lat="44.0181161" lon="12.5213209"><ele>86.0</ele><time>2026-04-10T11:18:40.856Z</time></trkpt><trkpt lat="44.0181619" lon="12.5214321"><ele>84.2</ele><time>2026-04-10T11:18:41.857Z</time></trkpt><trkpt lat="44.0181833" lon="12.5215688"><ele>82.39999999999999</ele><time>2026-04-10T11:18:43.856Z</time></trkpt><trkpt lat="44.0181309" lon="12.5217203"><ele>80.6</ele><time>2026-04-10T11:18:45.856Z</time></trkpt><trkpt lat="44.0180986" lon="12.5218137"><ele>78.8</ele><time>2026-04-10T11:18:46.857Z</time></trkpt><trkpt lat="44.0180694" lon="12.521929"><ele>77.0</ele><time>2026-04-10T11:18:47.856Z</time></trkpt><trkpt lat="44.0180481" lon="12.5220534"><ele>75.8</ele><time>2026-04-10T11:18:48.856Z</time></trkpt><trkpt lat="44.0180263" lon="12.5221746"><ele>74.6</ele><time>2026-04-10T11:18:49.856Z</time></trkpt><trkpt lat="44.0180136" lon="12.5223063"><ele>73.39999999999999</ele><time>2026-04-10T11:18:50.856Z</time></trkpt><trkpt lat="44.0180057" lon="12.5224411"><ele>72.2</ele><time>2026-04-10T11:18:51.857Z</time></trkpt><trkpt lat="44.0180036" lon="12.5225817"><ele>71.0</ele><time>2026-04-10T11:18:52.858Z</time></trkpt><trkpt lat="44.0180002" lon="12.5227314"><ele>71.0</ele><time>2026-04-10T11:18:53.858Z</time></trkpt><trkpt lat="44.0179923" lon="12.5228721"><ele>71.0</ele><time>2026-04-10T11:18:54.857Z</time></trkpt><trkpt lat="44.0179852" lon="12.5230176"><ele>71.0</ele><time>2026-04-10T11:18:55.857Z</time></trkpt><trkpt lat="44.0179808" lon="12.5231554"><ele>71.0</ele><time>2026-04-10T11:18:56.856Z</time></trkpt><trkpt lat="44.0179636" lon="12.5232764"><ele>71.0</ele><time>2026-04-10T11:18:57.856Z</time></trkpt><trkpt lat="44.017941" lon="12.5233771"><ele>70.83333333333334</ele><time>2026-04-10T11:18:58.857Z</time></trkpt><trkpt lat="44.0179043" lon="12.5234583"><ele>70.66666666666667</ele><time>2026-04-10T11:18:59.857Z</time></trkpt><trkpt lat="44.0178608" lon="12.5235385"><ele>70.5</ele><time>2026-04-10T11:19:00.856Z</time></trkpt><trkpt lat="44.0178099" lon="12.52361"><ele>70.33333333333333</ele><time>2026-04-10T11:19:01.857Z</time></trkpt><trkpt lat="44.0177505" lon="12.523692"><ele>70.16666666666666</ele><time>2026-04-10T11:19:02.856Z</time></trkpt><trkpt lat="44.0176855" lon="12.5237718"><ele>70.0</ele><time>2026-04-10T11:19:03.857Z</time></trkpt><trkpt lat="44.017621" lon="12.5238525"><ele>69.33333333333333</ele><time>2026-04-10T11:19:04.858Z</time></trkpt><trkpt lat="44.017554" lon="12.5239308"><ele>68.66666666666666</ele><time>2026-04-10T11:19:05.858Z</time></trkpt><trkpt lat="44.0174887" lon="12.5240017"><ele>68.0</ele><time>2026-04-10T11:19:06.857Z</time></trkpt><trkpt lat="44.0174267" lon="12.5240716"><ele>67.33333333333333</ele><time>2026-04-10T11:19:07.857Z</time></trkpt><trkpt lat="44.0173635" lon="12.5241535"><ele>66.66666666666667</ele><time>2026-04-10T11:19:08.857Z</time></trkpt><trkpt lat="44.0173105" lon="12.5242395"><ele>66.0</ele><time>2026-04-10T11:19:09.858Z</time></trkpt><trkpt lat="44.017253" lon="12.524314"><ele>66.0</ele><time>2026-04-10T11:19:10.858Z</time></trkpt><trkpt lat="44.0171962" lon="12.5244066"><ele>66.0</ele><time>2026-04-10T11:19:11.856Z</time></trkpt><trkpt lat="44.0171364" lon="12.5245013"><ele>66.0</ele><time>2026-04-10T11:19:12.857Z</time></trkpt><trkpt lat="44.0170801" lon="12.5245873"><ele>66.0</ele><time>2026-04-10T11:19:13.857Z</time></trkpt><trkpt lat="44.0170086" lon="12.5246632"><ele>66.0</ele><time>2026-04-10T11:19:14.857Z</time></trkpt><trkpt lat="44.0169387" lon="12.5247509"><ele>66.0</ele><time>2026-04-10T11:19:15.856Z</time></trkpt><trkpt lat="44.0168696" lon="12.5248426"><ele>66.8</ele><time>2026-04-10T11:19:16.857Z</time></trkpt><trkpt lat="44.0168048" lon="12.524942"><ele>67.6</ele><time>2026-04-10T11:19:17.858Z</time></trkpt><trkpt lat="44.0167323" lon="12.5250526"><ele>68.4</ele><time>2026-04-10T11:19:18.856Z</time></trkpt><trkpt lat="44.0166738" lon="12.5251631"><ele>69.2</ele><time>2026-04-10T11:19:19.857Z</time></trkpt><trkpt lat="44.0166202" lon="12.5252723"><ele>70.0</ele><time>2026-04-10T11:19:20.858Z</time></trkpt><trkpt lat="44.0165627" lon="12.5253776"><ele>70.83333333333333</ele><time>2026-04-10T11:19:21.857Z</time></trkpt><trkpt lat="44.0165006" lon="12.5254859"><ele>71.66666666666666</ele><time>2026-04-10T11:19:22.856Z</time></trkpt><trkpt lat="44.0164474" lon="12.5255917"><ele>72.5</ele><time>2026-04-10T11:19:23.857Z</time></trkpt><trkpt lat="44.0163969" lon="12.5256904"><ele>73.33333333333333</ele><time>2026-04-10T11:19:24.857Z</time></trkpt><trkpt lat="44.016355" lon="12.5257754"><ele>74.16666666666667</ele><time>2026-04-10T11:19:25.858Z</time></trkpt><trkpt lat="44.0163102" lon="12.5258664"><ele>75.0</ele><time>2026-04-10T11:19:26.856Z</time></trkpt><trkpt lat="44.0162709" lon="12.5259587"><ele>75.0</ele><time>2026-04-10T11:19:27.856Z</time></trkpt><trkpt lat="44.0162289" lon="12.526061"><ele>75.0</ele><time>2026-04-10T11:19:28.856Z</time></trkpt><trkpt lat="44.0161805" lon="12.5261788"><ele>75.0</ele><time>2026-04-10T11:19:29.856Z</time></trkpt><trkpt lat="44.0161299" lon="12.5262886"><ele>75.0</ele><time>2026-04-10T11:19:30.857Z</time></trkpt><trkpt lat="44.0160847" lon="12.5263988"><ele>75.0</ele><time>2026-04-10T11:19:31.856Z</time></trkpt><trkpt lat="44.0160412" lon="12.5265025"><ele>75.0</ele><time>2026-04-10T11:19:32.856Z</time></trkpt><trkpt lat="44.0160086" lon="12.5266018"><ele>75.0</ele><time>2026-04-10T11:19:33.858Z</time></trkpt><trkpt lat="44.0159773" lon="12.5266981"><ele>75.0</ele><time>2026-04-10T11:19:34.856Z</time></trkpt><trkpt lat="44.0159468" lon="12.5267873"><ele>75.0</ele><time>2026-04-10T11:19:35.859Z</time></trkpt><trkpt lat="44.0159179" lon="12.5268686"><ele>75.0</ele><time>2026-04-10T11:19:36.857Z</time></trkpt><trkpt lat="44.0158827" lon="12.5269459"><ele>75.0</ele><time>2026-04-10T11:19:37.857Z</time></trkpt><trkpt lat="44.0158042" lon="12.5270639"><ele>74.6</ele><time>2026-04-10T11:19:39.857Z</time></trkpt><trkpt lat="44.0157577" lon="12.5271301"><ele>74.2</ele><time>2026-04-10T11:19:40.856Z</time></trkpt><trkpt lat="44.0156937" lon="12.5272177"><ele>73.8</ele><time>2026-04-10T11:19:41.856Z</time></trkpt><trkpt lat="44.0156261" lon="12.5273111"><ele>73.4</ele><time>2026-04-10T11:19:42.856Z</time></trkpt><trkpt lat="44.0155549" lon="12.5274118"><ele>73.0</ele><time>2026-04-10T11:19:43.857Z</time></trkpt><trkpt lat="44.0154828" lon="12.5275213"><ele>73.0</ele><time>2026-04-10T11:19:44.856Z</time></trkpt><trkpt lat="44.0154036" lon="12.527634"><ele>73.0</ele><time>2026-04-10T11:19:45.857Z</time></trkpt><trkpt lat="44.0153308" lon="12.5277459"><ele>73.0</ele><time>2026-04-10T11:19:46.857Z</time></trkpt><trkpt lat="44.0152471" lon="12.5278588"><ele>73.0</ele><time>2026-04-10T11:19:47.857Z</time></trkpt><trkpt lat="44.0151571" lon="12.5279765"><ele>73.25</ele><time>2026-04-10T11:19:48.858Z</time></trkpt><trkpt lat="44.0150639" lon="12.5280946"><ele>73.5</ele><time>2026-04-10T11:19:49.857Z</time></trkpt><trkpt lat="44.0149613" lon="12.5282296"><ele>73.75</ele><time>2026-04-10T11:19:50.857Z</time></trkpt><trkpt lat="44.014854" lon="12.5283691"><ele>74.0</ele><time>2026-04-10T11:19:51.857Z</time></trkpt><trkpt lat="44.0147457" lon="12.5285067"><ele>72.5</ele><time>2026-04-10T11:19:52.858Z</time></trkpt><trkpt lat="44.0146384" lon="12.5286425"><ele>71.0</ele><time>2026-04-10T11:19:53.856Z</time></trkpt><trkpt lat="44.0145364" lon="12.5287758"><ele>69.5</ele><time>2026-04-10T11:19:54.857Z</time></trkpt><trkpt lat="44.0144432" lon="12.5289014"><ele>68.0</ele><time>2026-04-10T11:19:55.857Z</time></trkpt><trkpt lat="44.0143481" lon="12.5290272"><ele>68.0</ele><time>2026-04-10T11:19:56.857Z</time></trkpt><trkpt lat="44.014259" lon="12.529132"><ele>68.0</ele><time>2026-04-10T11:19:57.856Z</time></trkpt><trkpt lat="44.0141665" lon="12.5292387"><ele>68.0</ele><time>2026-04-10T11:19:58.858Z</time></trkpt><trkpt lat="44.014072" lon="12.5293273"><ele>68.0</ele><time>2026-04-10T11:19:59.856Z</time></trkpt><trkpt lat="44.0139725" lon="12.5293915"><ele>68.0</ele><time>2026-04-10T11:20:00.856Z</time></trkpt><trkpt lat="44.0138668" lon="12.5294427"><ele>68.0</ele><time>2026-04-10T11:20:01.856Z</time></trkpt><trkpt lat="44.0137624" lon="12.5294581"><ele>68.0</ele><time>2026-04-10T11:20:02.856Z</time></trkpt><trkpt lat="44.0136699" lon="12.5294465"><ele>68.0</ele><time>2026-04-10T11:20:03.857Z</time></trkpt><trkpt lat="44.0135729" lon="12.5294041"><ele>68.0</ele><time>2026-04-10T11:20:04.858Z</time></trkpt><trkpt lat="44.0134802" lon="12.5293405"><ele>68.0</ele><time>2026-04-10T11:20:05.856Z</time></trkpt><trkpt lat="44.0133766" lon="12.5292582"><ele>68.0</ele><time>2026-04-10T11:20:06.856Z</time></trkpt><trkpt lat="44.0132788" lon="12.5291717"><ele>68.0</ele><time>2026-04-10T11:20:07.856Z</time></trkpt><trkpt lat="44.013176" lon="12.5290892"><ele>68.0</ele><time>2026-04-10T11:20:08.858Z</time></trkpt><trkpt lat="44.0130693" lon="12.529009"><ele>68.75</ele><time>2026-04-10T11:20:09.857Z</time></trkpt><trkpt lat="44.012957" lon="12.5289281"><ele>69.5</ele><time>2026-04-10T11:20:10.856Z</time></trkpt><trkpt lat="44.0128447" lon="12.5288469"><ele>70.25</ele><time>2026-04-10T11:20:11.858Z</time></trkpt><trkpt lat="44.0127267" lon="12.5287731"><ele>71.0</ele><time>2026-04-10T11:20:12.857Z</time></trkpt><trkpt lat="44.012607" lon="12.5287102"><ele>73.25</ele><time>2026-04-10T11:20:13.859Z</time></trkpt><trkpt lat="44.0124853" lon="12.5286637"><ele>75.5</ele><time>2026-04-10T11:20:14.857Z</time></trkpt><trkpt lat="44.0123607" lon="12.5286122"><ele>77.75</ele><time>2026-04-10T11:20:15.856Z</time></trkpt><trkpt lat="44.0122333" lon="12.5285671"><ele>80.0</ele><time>2026-04-10T11:20:16.856Z</time></trkpt><trkpt lat="44.0121034" lon="12.5285409"><ele>80.0</ele><time>2026-04-10T11:20:17.857Z</time></trkpt><trkpt lat="44.0119675" lon="12.5285347"><ele>80.0</ele><time>2026-04-10T11:20:18.856Z</time></trkpt><trkpt lat="44.0118257" lon="12.5285381"><ele>80.0</ele><time>2026-04-10T11:20:19.858Z</time></trkpt><trkpt lat="44.0116806" lon="12.5285469"><ele>80.0</ele><time>2026-04-10T11:20:20.856Z</time></trkpt><trkpt lat="44.0115394" lon="12.5285516"><ele>82.5</ele><time>2026-04-10T11:20:21.857Z</time></trkpt><trkpt lat="44.0114016" lon="12.5285676"><ele>85.0</ele><time>2026-04-10T11:20:22.857Z</time></trkpt><trkpt lat="44.0112719" lon="12.5285796"><ele>87.5</ele><time>2026-04-10T11:20:23.856Z</time></trkpt><trkpt lat="44.0111429" lon="12.5285921"><ele>90.0</ele><time>2026-04-10T11:20:24.858Z</time></trkpt><trkpt lat="44.0110277" lon="12.5286064"><ele>90.0</ele><time>2026-04-10T11:20:25.857Z</time></trkpt><trkpt lat="44.0109132" lon="12.5286102"><ele>90.0</ele><time>2026-04-10T11:20:26.856Z</time></trkpt><trkpt lat="44.0107989" lon="12.5286018"><ele>90.0</ele><time>2026-04-10T11:20:27.858Z</time></trkpt><trkpt lat="44.0106782" lon="12.5285751"><ele>90.0</ele><time>2026-04-10T11:20:28.858Z</time></trkpt><trkpt lat="44.0105595" lon="12.5285302"><ele>90.0</ele><time>2026-04-10T11:20:29.857Z</time></trkpt><trkpt lat="44.0104382" lon="12.5284744"><ele>90.0</ele><time>2026-04-10T11:20:30.856Z</time></trkpt><trkpt lat="44.0103133" lon="12.5284088"><ele>90.0</ele><time>2026-04-10T11:20:31.857Z</time></trkpt><trkpt lat="44.0101938" lon="12.5283275"><ele>90.0</ele><time>2026-04-10T11:20:32.856Z</time></trkpt><trkpt lat="44.0100771" lon="12.5282431"><ele>88.0</ele><time>2026-04-10T11:20:33.857Z</time></trkpt><trkpt lat="44.009954" lon="12.5281605"><ele>86.0</ele><time>2026-04-10T11:20:34.856Z</time></trkpt><trkpt lat="44.0098363" lon="12.528085"><ele>84.0</ele><time>2026-04-10T11:20:35.858Z</time></trkpt><trkpt lat="44.0097289" lon="12.5280173"><ele>82.0</ele><time>2026-04-10T11:20:36.858Z</time></trkpt><trkpt lat="44.0096174" lon="12.5279497"><ele>82.5</ele><time>2026-04-10T11:20:37.856Z</time></trkpt><trkpt lat="44.009505" lon="12.5278803"><ele>83.0</ele><time>2026-04-10T11:20:38.856Z</time></trkpt><trkpt lat="44.0093972" lon="12.5278005"><ele>83.5</ele><time>2026-04-10T11:20:39.856Z</time></trkpt><trkpt lat="44.0092955" lon="12.5276983"><ele>84.0</ele><time>2026-04-10T11:20:40.857Z</time></trkpt><trkpt lat="44.0092015" lon="12.5275851"><ele>81.25</ele><time>2026-04-10T11:20:41.856Z</time></trkpt><trkpt lat="44.0091159" lon="12.5274547"><ele>78.5</ele><time>2026-04-10T11:20:42.857Z</time></trkpt><trkpt lat="44.0090353" lon="12.527318"><ele>75.75</ele><time>2026-04-10T11:20:43.857Z</time></trkpt><trkpt lat="44.0089548" lon="12.5271923"><ele>73.0</ele><time>2026-04-10T11:20:44.856Z</time></trkpt><trkpt lat="44.0088727" lon="12.5270633"><ele>73.0</ele><time>2026-04-10T11:20:45.857Z</time></trkpt><trkpt lat="44.0087912" lon="12.5269343"><ele>73.0</ele><time>2026-04-10T11:20:46.857Z</time></trkpt><trkpt lat="44.0087173" lon="12.5268192"><ele>73.0</ele><time>2026-04-10T11:20:47.857Z</time></trkpt><trkpt lat="44.0086509" lon="12.5267181"><ele>73.0</ele><time>2026-04-10T11:20:48.858Z</time></trkpt><trkpt lat="44.0085882" lon="12.5266145"><ele>73.0</ele><time>2026-04-10T11:20:49.857Z</time></trkpt><trkpt lat="44.0085298" lon="12.5265131"><ele>73.0</ele><time>2026-04-10T11:20:50.857Z</time></trkpt><trkpt lat="44.0084708" lon="12.5264075"><ele>73.0</ele><time>2026-04-10T11:20:51.857Z</time></trkpt><trkpt lat="44.0084199" lon="12.5263103"><ele>73.0</ele><time>2026-04-10T11:20:52.856Z</time></trkpt><trkpt lat="44.0083663" lon="12.5262182"><ele>73.0</ele><time>2026-04-10T11:20:53.857Z</time></trkpt><trkpt lat="44.0083141" lon="12.5261279"><ele>73.0</ele><time>2026-04-10T11:20:54.856Z</time></trkpt><trkpt lat="44.0082533" lon="12.5260502"><ele>73.0</ele><time>2026-04-10T11:20:55.856Z</time></trkpt><trkpt lat="44.0081929" lon="12.5259767"><ele>71.4</ele><time>2026-04-10T11:20:56.856Z</time></trkpt><trkpt lat="44.0081337" lon="12.5259025"><ele>69.8</ele><time>2026-04-10T11:20:57.856Z</time></trkpt><trkpt lat="44.008065" lon="12.5258157"><ele>68.2</ele><time>2026-04-10T11:20:58.856Z</time></trkpt><trkpt lat="44.0080011" lon="12.5257276"><ele>66.6</ele><time>2026-04-10T11:20:59.856Z</time></trkpt><trkpt lat="44.0079386" lon="12.5256319"><ele>65.0</ele><time>2026-04-10T11:21:00.857Z</time></trkpt><trkpt lat="44.0078801" lon="12.5255277"><ele>65.0</ele><time>2026-04-10T11:21:01.859Z</time></trkpt><trkpt lat="44.0078205" lon="12.5254276"><ele>65.0</ele><time>2026-04-10T11:21:02.856Z</time></trkpt><trkpt lat="44.0077552" lon="12.5253201"><ele>65.0</ele><time>2026-04-10T11:21:03.857Z</time></trkpt><trkpt lat="44.0076932" lon="12.5252178"><ele>65.0</ele><time>2026-04-10T11:21:04.856Z</time></trkpt><trkpt lat="44.0076423" lon="12.5251153"><ele>65.0</ele><time>2026-04-10T11:21:05.856Z</time></trkpt><trkpt lat="44.007595" lon="12.5250102"><ele>65.6</ele><time>2026-04-10T11:21:06.856Z</time></trkpt><trkpt lat="44.0075401" lon="12.524899"><ele>66.2</ele><time>2026-04-10T11:21:07.857Z</time></trkpt><trkpt lat="44.0074771" lon="12.5247778"><ele>66.8</ele><time>2026-04-10T11:21:08.857Z</time></trkpt><trkpt lat="44.0074084" lon="12.5246637"><ele>67.4</ele><time>2026-04-10T11:21:09.856Z</time></trkpt><trkpt lat="44.007339" lon="12.524556"><ele>68.0</ele><time>2026-04-10T11:21:10.856Z</time></trkpt><trkpt lat="44.0072703" lon="12.5244422"><ele>68.6</ele><time>2026-04-10T11:21:11.857Z</time></trkpt><trkpt lat="44.0072028" lon="12.5243379"><ele>69.19999999999999</ele><time>2026-04-10T11:21:12.856Z</time></trkpt><trkpt lat="44.0071403" lon="12.5242291"><ele>69.8</ele><time>2026-04-10T11:21:13.856Z</time></trkpt><trkpt lat="44.0070638" lon="12.5241097"><ele>70.39999999999999</ele><time>2026-04-10T11:21:14.857Z</time></trkpt><trkpt lat="44.0069866" lon="12.5239873"><ele>71.0</ele><time>2026-04-10T11:21:15.856Z</time></trkpt><trkpt lat="44.0069188" lon="12.5238826"><ele>71.0</ele><time>2026-04-10T11:21:16.857Z</time></trkpt><trkpt lat="44.0068479" lon="12.5237682"><ele>71.0</ele><time>2026-04-10T11:21:17.857Z</time></trkpt><trkpt lat="44.0067792" lon="12.5236577"><ele>71.0</ele><time>2026-04-10T11:21:18.857Z</time></trkpt><trkpt lat="44.0067076" lon="12.523538"><ele>71.0</ele><time>2026-04-10T11:21:19.856Z</time></trkpt><trkpt lat="44.0066373" lon="12.5234325"><ele>71.0</ele><time>2026-04-10T11:21:20.857Z</time></trkpt><trkpt lat="44.0065516" lon="12.5233264"><ele>70.39999999999999</ele><time>2026-04-10T11:21:21.857Z</time></trkpt><trkpt lat="44.006461" lon="12.5232372"><ele>69.8</ele><time>2026-04-10T11:21:22.859Z</time></trkpt><trkpt lat="44.006364" lon="12.5231526"><ele>69.19999999999999</ele><time>2026-04-10T11:21:23.857Z</time></trkpt><trkpt lat="44.0062695" lon="12.5230867"><ele>68.6</ele><time>2026-04-10T11:21:24.856Z</time></trkpt><trkpt lat="44.0061755" lon="12.5230471"><ele>68.0</ele><time>2026-04-10T11:21:25.857Z</time></trkpt><trkpt lat="44.006085" lon="12.5230235"><ele>68.0</ele><time>2026-04-10T11:21:26.856Z</time></trkpt><trkpt lat="44.0059998" lon="12.5230459"><ele>68.0</ele><time>2026-04-10T11:21:27.856Z</time></trkpt><trkpt lat="44.0059207" lon="12.5230873"><ele>68.0</ele><time>2026-04-10T11:21:28.857Z</time></trkpt><trkpt lat="44.0058459" lon="12.5231216"><ele>68.0</ele><time>2026-04-10T11:21:29.857Z</time></trkpt><trkpt lat="44.0057702" lon="12.5231291"><ele>68.0</ele><time>2026-04-10T11:21:30.856Z</time></trkpt><trkpt lat="44.005695" lon="12.5231294"><ele>68.0</ele><time>2026-04-10T11:21:31.857Z</time></trkpt><trkpt lat="44.0056165" lon="12.5231266"><ele>66.5</ele><time>2026-04-10T11:21:32.857Z</time></trkpt><trkpt lat="44.0055391" lon="12.523128"><ele>65.0</ele><time>2026-04-10T11:21:33.857Z</time></trkpt><trkpt lat="44.0054599" lon="12.523131"><ele>63.5</ele><time>2026-04-10T11:21:34.856Z</time></trkpt><trkpt lat="44.0053823" lon="12.5231363"><ele>62.0</ele><time>2026-04-10T11:21:35.857Z</time></trkpt><trkpt lat="44.0053091" lon="12.5231439"><ele>60.50000000000001</ele><time>2026-04-10T11:21:36.857Z</time></trkpt><trkpt lat="44.0052284" lon="12.5231456"><ele>59.0</ele><time>2026-04-10T11:21:37.857Z</time></trkpt><trkpt lat="44.0051436" lon="12.5231562"><ele>59.0</ele><time>2026-04-10T11:21:38.857Z</time></trkpt><trkpt lat="44.0050539" lon="12.5231935"><ele>59.00000000000001</ele><time>2026-04-10T11:21:39.858Z</time></trkpt><trkpt lat="44.0049643" lon="12.5232446"><ele>59.00000000000001</ele><time>2026-04-10T11:21:40.857Z</time></trkpt><trkpt lat="44.0048806" lon="12.5232871"><ele>59.0</ele><time>2026-04-10T11:21:41.857Z</time></trkpt><trkpt lat="44.0047885" lon="12.5233299"><ele>59.0</ele><time>2026-04-10T11:21:42.856Z</time></trkpt><trkpt lat="44.0046945" lon="12.5233684"><ele>55.6</ele><time>2026-04-10T11:21:43.857Z</time></trkpt><trkpt lat="44.0045967" lon="12.5234085"><ele>52.2</ele><time>2026-04-10T11:21:44.858Z</time></trkpt><trkpt lat="44.0044989" lon="12.523447"><ele>48.800000000000004</ele><time>2026-04-10T11:21:45.856Z</time></trkpt><trkpt lat="44.0043995" lon="12.5234839"><ele>45.400000000000006</ele><time>2026-04-10T11:21:46.858Z</time></trkpt><trkpt lat="44.0042962" lon="12.5235368"><ele>42.0</ele><time>2026-04-10T11:21:47.857Z</time></trkpt><trkpt lat="44.0041948" lon="12.5235766"><ele>40.25</ele><time>2026-04-10T11:21:48.856Z</time></trkpt><trkpt lat="44.0040811" lon="12.5236234"><ele>38.5</ele><time>2026-04-10T11:21:49.857Z</time></trkpt><trkpt lat="44.0039535" lon="12.5236755"><ele>36.75</ele><time>2026-04-10T11:21:50.856Z</time></trkpt><trkpt lat="44.0038314" lon="12.5237228"><ele>35.0</ele><time>2026-04-10T11:21:51.857Z</time></trkpt><trkpt lat="44.0037092" lon="12.5237764"><ele>35.0</ele><time>2026-04-10T11:21:52.856Z</time></trkpt><trkpt lat="44.003597" lon="12.5238272"><ele>35.0</ele><time>2026-04-10T11:21:53.856Z</time></trkpt><trkpt lat="44.0034908" lon="12.5238757"><ele>35.0</ele><time>2026-04-10T11:21:54.856Z</time></trkpt><trkpt lat="44.0033917" lon="12.5239246"><ele>35.0</ele><time>2026-04-10T11:21:55.856Z</time></trkpt><trkpt lat="44.0033019" lon="12.5239691"><ele>35.0</ele><time>2026-04-10T11:21:56.856Z</time></trkpt><trkpt lat="44.0032257" lon="12.5239876"><ele>35.0</ele><time>2026-04-10T11:21:57.857Z</time></trkpt><trkpt lat="44.003134" lon="12.5239423"><ele>35.0</ele><time>2026-04-10T11:21:59.858Z</time></trkpt><trkpt lat="44.0031509" lon="12.5238399"><ele>35.0</ele><time>2026-04-10T11:22:01.856Z</time></trkpt><trkpt lat="44.0032319" lon="12.5237126"><ele>35.0</ele><time>2026-04-10T11:22:03.858Z</time></trkpt><trkpt lat="44.0032739" lon="12.5236335"><ele>35.0</ele><time>2026-04-10T11:22:04.857Z</time></trkpt><trkpt lat="44.0033206" lon="12.5235443"><ele>35.0</ele><time>2026-04-10T11:22:05.857Z</time></trkpt><trkpt lat="44.0033787" lon="12.5234567"><ele>34.83333333333333</ele><time>2026-04-10T11:22:06.857Z</time></trkpt><trkpt lat="44.0034316" lon="12.5233775"><ele>34.666666666666664</ele><time>2026-04-10T11:22:07.856Z</time></trkpt><trkpt lat="44.0034898" lon="12.5233019"><ele>34.5</ele><time>2026-04-10T11:22:08.857Z</time></trkpt><trkpt lat="44.0035522" lon="12.5232244"><ele>34.333333333333336</ele><time>2026-04-10T11:22:09.857Z</time></trkpt><trkpt lat="44.0036174" lon="12.5231476"><ele>34.16666666666667</ele><time>2026-04-10T11:22:10.856Z</time></trkpt><trkpt lat="44.0036808" lon="12.5230644"><ele>34.0</ele><time>2026-04-10T11:22:11.857Z</time></trkpt><trkpt lat="44.0037433" lon="12.5229885"><ele>34.0</ele><time>2026-04-10T11:22:12.856Z</time></trkpt><trkpt lat="44.0038023" lon="12.5229038"><ele>34.0</ele><time>2026-04-10T11:22:13.858Z</time></trkpt><trkpt lat="44.0038509" lon="12.5228065"><ele>34.0</ele><time>2026-04-10T11:22:14.858Z</time></trkpt><trkpt lat="44.0038923" lon="12.5227118"><ele>34.0</ele><time>2026-04-10T11:22:15.857Z</time></trkpt><trkpt lat="44.0039318" lon="12.5226073"><ele>34.0</ele><time>2026-04-10T11:22:16.856Z</time></trkpt><trkpt lat="44.0039696" lon="12.5224978"><ele>34.0</ele><time>2026-04-10T11:22:17.858Z</time></trkpt><trkpt lat="44.0039906" lon="12.5224084"><ele>34.0</ele><time>2026-04-10T11:22:18.856Z</time></trkpt><trkpt lat="44.0040117" lon="12.5223181"><ele>34.0</ele><time>2026-04-10T11:22:19.856Z</time></trkpt><trkpt lat="44.0040218" lon="12.5222278"><ele>34.0</ele><time>2026-04-10T11:22:20.856Z</time></trkpt><trkpt lat="44.0039918" lon="12.5220888"><ele>34.0</ele><time>2026-04-10T11:22:22.856Z</time></trkpt><trkpt lat="44.0039232" lon="12.5219399"><ele>34.0</ele><time>2026-04-10T11:22:24.858Z</time></trkpt><trkpt lat="44.0038841" lon="12.5218564"><ele>34.0</ele><time>2026-04-10T11:22:25.856Z</time></trkpt><trkpt lat="44.0038416" lon="12.5217669"><ele>34.16666666666667</ele><time>2026-04-10T11:22:26.857Z</time></trkpt><trkpt lat="44.0037981" lon="12.5216592"><ele>34.333333333333336</ele><time>2026-04-10T11:22:27.857Z</time></trkpt><trkpt lat="44.0037634" lon="12.5215493"><ele>34.5</ele><time>2026-04-10T11:22:28.857Z</time></trkpt><trkpt lat="44.0037372" lon="12.521425"><ele>34.666666666666664</ele><time>2026-04-10T11:22:29.856Z</time></trkpt><trkpt lat="44.003725" lon="12.5213102"><ele>34.83333333333333</ele><time>2026-04-10T11:22:30.857Z</time></trkpt><trkpt lat="44.0037241" lon="12.5212047"><ele>35.0</ele><time>2026-04-10T11:22:31.857Z</time></trkpt><trkpt lat="44.0037495" lon="12.5210917"><ele>35.2</ele><time>2026-04-10T11:22:32.857Z</time></trkpt><trkpt lat="44.0037799" lon="12.5209743"><ele>35.4</ele><time>2026-04-10T11:22:33.857Z</time></trkpt><trkpt lat="44.0038125" lon="12.5208509"><ele>35.6</ele><time>2026-04-10T11:22:34.856Z</time></trkpt><trkpt lat="44.0038541" lon="12.5207235"><ele>35.8</ele><time>2026-04-10T11:22:35.857Z</time></trkpt><trkpt lat="44.0038871" lon="12.5205805"><ele>36.0</ele><time>2026-04-10T11:22:36.857Z</time></trkpt><trkpt lat="44.0039294" lon="12.5204362"><ele>36.2</ele><time>2026-04-10T11:22:37.857Z</time></trkpt><trkpt lat="44.0039647" lon="12.5202842"><ele>36.400000000000006</ele><time>2026-04-10T11:22:38.857Z</time></trkpt><trkpt lat="44.004002" lon="12.5201429"><ele>36.6</ele><time>2026-04-10T11:22:39.857Z</time></trkpt><trkpt lat="44.0040332" lon="12.5200146"><ele>36.800000000000004</ele><time>2026-04-10T11:22:40.856Z</time></trkpt><trkpt lat="44.0040651" lon="12.5198902"><ele>37.0</ele><time>2026-04-10T11:22:41.857Z</time></trkpt><trkpt lat="44.0040997" lon="12.5197623"><ele>37.0</ele><time>2026-04-10T11:22:42.856Z</time></trkpt><trkpt lat="44.004131" lon="12.519649"><ele>37.0</ele><time>2026-04-10T11:22:43.857Z</time></trkpt><trkpt lat="44.0041575" lon="12.5195442"><ele>37.0</ele><time>2026-04-10T11:22:44.856Z</time></trkpt><trkpt lat="44.0041506" lon="12.5194364"><ele>37.0</ele><time>2026-04-10T11:22:46.856Z</time></trkpt><trkpt lat="44.0040673" lon="12.5193476"><ele>37.0</ele><time>2026-04-10T11:22:48.857Z</time></trkpt><trkpt lat="44.0040057" lon="12.5192888"><ele>37.0</ele><time>2026-04-10T11:22:49.857Z</time></trkpt><trkpt lat="44.0039341" lon="12.5191926"><ele>37.2</ele><time>2026-04-10T11:22:50.857Z</time></trkpt><trkpt lat="44.0038479" lon="12.5190764"><ele>37.400000000000006</ele><time>2026-04-10T11:22:51.857Z</time></trkpt><trkpt lat="44.0037638" lon="12.5189682"><ele>37.599999999999994</ele><time>2026-04-10T11:22:52.856Z</time></trkpt><trkpt lat="44.0036862" lon="12.5189099"><ele>37.8</ele><time>2026-04-10T11:22:53.856Z</time></trkpt><trkpt lat="44.0036046" lon="12.5188682"><ele>38.0</ele><time>2026-04-10T11:22:54.856Z</time></trkpt><trkpt lat="44.0035269" lon="12.5188336"><ele>38.0</ele><time>2026-04-10T11:22:55.858Z</time></trkpt><trkpt lat="44.0034507" lon="12.5187881"><ele>38.0</ele><time>2026-04-10T11:22:56.857Z</time></trkpt><trkpt lat="44.0033816" lon="12.5187359"><ele>38.0</ele><time>2026-04-10T11:22:57.856Z</time></trkpt><trkpt lat="44.0033186" lon="12.5186778"><ele>38.0</ele><time>2026-04-10T11:22:58.857Z</time></trkpt><trkpt lat="44.0032646" lon="12.51862"><ele>38.0</ele><time>2026-04-10T11:22:59.857Z</time></trkpt><trkpt lat="44.0031805" lon="12.5185125"><ele>38.0</ele><time>2026-04-10T11:23:01.857Z</time></trkpt><trkpt lat="44.0031206" lon="12.5184354"><ele>38.8</ele><time>2026-04-10T11:23:03.857Z</time></trkpt><trkpt lat="44.0030619" lon="12.5183972"><ele>39.599999999999994</ele><time>2026-04-10T11:23:06.857Z</time></trkpt><trkpt lat="44.0030061" lon="12.5184695"><ele>40.400000000000006</ele><time>2026-04-10T11:23:09.857Z</time></trkpt><trkpt lat="44.0029634" lon="12.5185897"><ele>41.2</ele><time>2026-04-10T11:23:11.857Z</time></trkpt><trkpt lat="44.002932" lon="12.5187448"><ele>42.0</ele><time>2026-04-10T11:23:13.857Z</time></trkpt><trkpt lat="44.0028969" lon="12.5189268"><ele>42.0</ele><time>2026-04-10T11:23:15.856Z</time></trkpt><trkpt lat="44.0028716" lon="12.5190452"><ele>42.0</ele><time>2026-04-10T11:23:16.856Z</time></trkpt><trkpt lat="44.0028506" lon="12.5191566"><ele>42.0</ele><time>2026-04-10T11:23:17.857Z</time></trkpt><trkpt lat="44.0028318" lon="12.5192548"><ele>42.0</ele><time>2026-04-10T11:23:18.857Z</time></trkpt><trkpt lat="44.0028083" lon="12.5193606"><ele>42.0</ele><time>2026-04-10T11:23:19.856Z</time></trkpt><trkpt lat="44.0027851" lon="12.5194726"><ele>42.0</ele><time>2026-04-10T11:23:20.856Z</time></trkpt><trkpt lat="44.002762" lon="12.5196"><ele>42.0</ele><time>2026-04-10T11:23:21.856Z</time></trkpt><trkpt lat="44.0027348" lon="12.5197333"><ele>42.0</ele><time>2026-04-10T11:23:22.856Z</time></trkpt><trkpt lat="44.0027074" lon="12.5198891"><ele>42.0</ele><time>2026-04-10T11:23:23.856Z</time></trkpt><trkpt lat="44.0026754" lon="12.5200498"><ele>42.0</ele><time>2026-04-10T11:23:24.856Z</time></trkpt><trkpt lat="44.0026461" lon="12.5202049"><ele>42.0</ele><time>2026-04-10T11:23:25.856Z</time></trkpt><trkpt lat="44.0026117" lon="12.5203634"><ele>42.0</ele><time>2026-04-10T11:23:26.857Z</time></trkpt><trkpt lat="44.0025796" lon="12.5205209"><ele>42.0</ele><time>2026-04-10T11:23:27.856Z</time></trkpt><trkpt lat="44.0025405" lon="12.5206571"><ele>42.0</ele><time>2026-04-10T11:23:28.856Z</time></trkpt><trkpt lat="44.0024945" lon="12.5208002"><ele>42.0</ele><time>2026-04-10T11:23:29.857Z</time></trkpt><trkpt lat="44.0024511" lon="12.5209167"><ele>42.0</ele><time>2026-04-10T11:23:30.856Z</time></trkpt><trkpt lat="44.0023991" lon="12.5210106"><ele>42.0</ele><time>2026-04-10T11:23:31.856Z</time></trkpt><trkpt lat="44.002346" lon="12.5211"><ele>42.0</ele><time>2026-04-10T11:23:32.857Z</time></trkpt><trkpt lat="44.0022936" lon="12.5211842"><ele>42.0</ele><time>2026-04-10T11:23:33.858Z</time></trkpt><trkpt lat="44.0022526" lon="12.5212589"><ele>42.0</ele><time>2026-04-10T11:23:34.856Z</time></trkpt><trkpt lat="44.0021846" lon="12.5213358"><ele>42.0</ele><time>2026-04-10T11:23:36.857Z</time></trkpt><trkpt lat="44.0020905" lon="12.5212436"><ele>42.0</ele><time>2026-04-10T11:23:39.858Z</time></trkpt><trkpt lat="44.0020568" lon="12.5211596"><ele>42.0</ele><time>2026-04-10T11:23:40.856Z</time></trkpt><trkpt lat="44.0020022" lon="12.5210491"><ele>42.0</ele><time>2026-04-10T11:23:41.858Z</time></trkpt><trkpt lat="44.0019426" lon="12.5209198"><ele>42.0</ele><time>2026-04-10T11:23:42.856Z</time></trkpt><trkpt lat="44.0018711" lon="12.5207698"><ele>43.25</ele><time>2026-04-10T11:23:43.856Z</time></trkpt><trkpt lat="44.0017884" lon="12.5206002"><ele>44.5</ele><time>2026-04-10T11:23:44.857Z</time></trkpt><trkpt lat="44.0016996" lon="12.5204223"><ele>45.75</ele><time>2026-04-10T11:23:45.856Z</time></trkpt><trkpt lat="44.0016247" lon="12.5202789"><ele>47.0</ele><time>2026-04-10T11:23:46.857Z</time></trkpt><trkpt lat="44.001563" lon="12.5201651"><ele>49.166666666666664</ele><time>2026-04-10T11:23:47.857Z</time></trkpt><trkpt lat="44.0015064" lon="12.520074"><ele>51.33333333333333</ele><time>2026-04-10T11:23:48.856Z</time></trkpt><trkpt lat="44.0014407" lon="12.5199991"><ele>53.5</ele><time>2026-04-10T11:23:49.858Z</time></trkpt><trkpt lat="44.0013715" lon="12.5199496"><ele>55.666666666666664</ele><time>2026-04-10T11:23:50.856Z</time></trkpt><trkpt lat="44.0012965" lon="12.5199192"><ele>57.833333333333336</ele><time>2026-04-10T11:23:51.856Z</time></trkpt><trkpt lat="44.0012163" lon="12.5199223"><ele>60.0</ele><time>2026-04-10T11:23:52.857Z</time></trkpt><trkpt lat="44.001123" lon="12.5199411"><ele>60.0</ele><time>2026-04-10T11:23:53.856Z</time></trkpt><trkpt lat="44.0010255" lon="12.5199565"><ele>60.0</ele><time>2026-04-10T11:23:54.857Z</time></trkpt><trkpt lat="44.000939" lon="12.5199514"><ele>60.0</ele><time>2026-04-10T11:23:55.856Z</time></trkpt><trkpt lat="44.0008546" lon="12.5199229"><ele>60.0</ele><time>2026-04-10T11:23:56.857Z</time></trkpt><trkpt lat="44.0007657" lon="12.5198786"><ele>60.0</ele><time>2026-04-10T11:23:57.857Z</time></trkpt><trkpt lat="44.0006862" lon="12.5198121"><ele>60.6</ele><time>2026-04-10T11:23:58.857Z</time></trkpt><trkpt lat="44.0006157" lon="12.5197285"><ele>61.2</ele><time>2026-04-10T11:23:59.858Z</time></trkpt><trkpt lat="44.0005575" lon="12.5196407"><ele>61.8</ele><time>2026-04-10T11:24:00.856Z</time></trkpt><trkpt lat="44.0005065" lon="12.5195279"><ele>62.4</ele><time>2026-04-10T11:24:01.856Z</time></trkpt><trkpt lat="44.0004528" lon="12.5194132"><ele>63.0</ele><time>2026-04-10T11:24:02.857Z</time></trkpt><trkpt lat="44.0004027" lon="12.519289"><ele>63.0</ele><time>2026-04-10T11:24:03.856Z</time></trkpt><trkpt lat="44.0003562" lon="12.5191533"><ele>63.0</ele><time>2026-04-10T11:24:04.856Z</time></trkpt><trkpt lat="44.000315" lon="12.5189967"><ele>63.0</ele><time>2026-04-10T11:24:05.857Z</time></trkpt><trkpt lat="44.000276" lon="12.5188263"><ele>63.0</ele><time>2026-04-10T11:24:06.858Z</time></trkpt><trkpt lat="44.0002445" lon="12.5186537"><ele>64.75</ele><time>2026-04-10T11:24:07.856Z</time></trkpt><trkpt lat="44.0002213" lon="12.5184852"><ele>66.5</ele><time>2026-04-10T11:24:08.858Z</time></trkpt><trkpt lat="44.0001988" lon="12.5183291"><ele>68.25</ele><time>2026-04-10T11:24:09.856Z</time></trkpt><trkpt lat="44.0001798" lon="12.5181663"><ele>70.0</ele><time>2026-04-10T11:24:10.857Z</time></trkpt><trkpt lat="44.0001655" lon="12.5180021"><ele>71.0</ele><time>2026-04-10T11:24:11.857Z</time></trkpt><trkpt lat="44.0001479" lon="12.5178298"><ele>72.0</ele><time>2026-04-10T11:24:12.857Z</time></trkpt><trkpt lat="44.0001266" lon="12.5176486"><ele>73.0</ele><time>2026-04-10T11:24:13.856Z</time></trkpt><trkpt lat="44.0001122" lon="12.517473"><ele>74.0</ele><time>2026-04-10T11:24:14.857Z</time></trkpt><trkpt lat="44.0001058" lon="12.5172973"><ele>74.0</ele><time>2026-04-10T11:24:15.856Z</time></trkpt><trkpt lat="44.0001024" lon="12.5171097"><ele>74.0</ele><time>2026-04-10T11:24:16.856Z</time></trkpt><trkpt lat="44.0000936" lon="12.5169127"><ele>74.0</ele><time>2026-04-10T11:24:17.856Z</time></trkpt><trkpt lat="44.0000743" lon="12.5166843"><ele>74.0</ele><time>2026-04-10T11:24:18.856Z</time></trkpt><trkpt lat="44.0000511" lon="12.5164624"><ele>74.25</ele><time>2026-04-10T11:24:19.857Z</time></trkpt><trkpt lat="44.0000303" lon="12.516253"><ele>74.5</ele><time>2026-04-10T11:24:20.856Z</time></trkpt><trkpt lat="44.0000119" lon="12.5160549"><ele>74.75</ele><time>2026-04-10T11:24:21.856Z</time></trkpt><trkpt lat="43.9999912" lon="12.5158712"><ele>75.0</ele><time>2026-04-10T11:24:22.856Z</time></trkpt><trkpt lat="43.9999589" lon="12.5157042"><ele>76.25</ele><time>2026-04-10T11:24:23.857Z</time></trkpt><trkpt lat="43.9999199" lon="12.5155441"><ele>77.5</ele><time>2026-04-10T11:24:24.858Z</time></trkpt><trkpt lat="43.9998618" lon="12.5153937"><ele>78.75</ele><time>2026-04-10T11:24:25.856Z</time></trkpt><trkpt lat="43.9998099" lon="12.5152446"><ele>80.0</ele><time>2026-04-10T11:24:26.856Z</time></trkpt><trkpt lat="43.9997593" lon="12.5150683"><ele>81.4</ele><time>2026-04-10T11:24:27.857Z</time></trkpt><trkpt lat="43.9997248" lon="12.514923"><ele>82.8</ele><time>2026-04-10T11:24:28.858Z</time></trkpt><trkpt lat="43.999686" lon="12.514777"><ele>84.19999999999999</ele><time>2026-04-10T11:24:29.858Z</time></trkpt><trkpt lat="43.9996438" lon="12.5146272"><ele>85.6</ele><time>2026-04-10T11:24:30.858Z</time></trkpt><trkpt lat="43.9996129" lon="12.5144811"><ele>87.0</ele><time>2026-04-10T11:24:31.857Z</time></trkpt><trkpt lat="43.9995867" lon="12.5143304"><ele>88.25</ele><time>2026-04-10T11:24:32.858Z</time></trkpt><trkpt lat="43.9995616" lon="12.5141756"><ele>89.5</ele><time>2026-04-10T11:24:33.857Z</time></trkpt><trkpt lat="43.9995329" lon="12.5139922"><ele>90.75</ele><time>2026-04-10T11:24:34.858Z</time></trkpt><trkpt lat="43.9995036" lon="12.5138261"><ele>92.0</ele><time>2026-04-10T11:24:35.856Z</time></trkpt><trkpt lat="43.9994768" lon="12.5136853"><ele>92.6</ele><time>2026-04-10T11:24:36.856Z</time></trkpt><trkpt lat="43.9994471" lon="12.5135745"><ele>93.19999999999999</ele><time>2026-04-10T11:24:37.856Z</time></trkpt><trkpt lat="43.9994086" lon="12.513504"><ele>93.8</ele><time>2026-04-10T11:24:38.857Z</time></trkpt><trkpt lat="43.9992835" lon="12.5134786"><ele>94.4</ele><time>2026-04-10T11:24:40.857Z</time></trkpt><trkpt lat="43.9992021" lon="12.5135058"><ele>95.0</ele><time>2026-04-10T11:24:41.857Z</time></trkpt><trkpt lat="43.9991138" lon="12.5135414"><ele>95.6</ele><time>2026-04-10T11:24:42.858Z</time></trkpt><trkpt lat="43.999028" lon="12.5135682"><ele>96.2</ele><time>2026-04-10T11:24:43.856Z</time></trkpt><trkpt lat="43.9989357" lon="12.5136033"><ele>96.80000000000001</ele><time>2026-04-10T11:24:44.856Z</time></trkpt><trkpt lat="43.9988469" lon="12.5136377"><ele>97.4</ele><time>2026-04-10T11:24:45.856Z</time></trkpt><trkpt lat="43.9987544" lon="12.5136776"><ele>98.0</ele><time>2026-04-10T11:24:46.857Z</time></trkpt><trkpt lat="43.9986678" lon="12.5137117"><ele>96.66666666666666</ele><time>2026-04-10T11:24:47.858Z</time></trkpt><trkpt lat="43.9985888" lon="12.5137444"><ele>95.33333333333333</ele><time>2026-04-10T11:24:48.857Z</time></trkpt><trkpt lat="43.9985113" lon="12.5137765"><ele>94.0</ele><time>2026-04-10T11:24:49.857Z</time></trkpt><trkpt lat="43.9984416" lon="12.5138197"><ele>92.66666666666666</ele><time>2026-04-10T11:24:50.856Z</time></trkpt><trkpt lat="43.9983628" lon="12.5138551"><ele>91.33333333333333</ele><time>2026-04-10T11:24:51.856Z</time></trkpt><trkpt lat="43.9982887" lon="12.5138775"><ele>90.0</ele><time>2026-04-10T11:24:52.856Z</time></trkpt><trkpt lat="43.9982221" lon="12.5138864"><ele>90.0</ele><time>2026-04-10T11:24:53.856Z</time></trkpt><trkpt lat="43.9981431" lon="12.5139049"><ele>90.0</ele><time>2026-04-10T11:24:54.856Z</time></trkpt><trkpt lat="43.9980612" lon="12.5139352"><ele>90.0</ele><time>2026-04-10T11:24:55.857Z</time></trkpt><trkpt lat="43.9979651" lon="12.5139753"><ele>90.0</ele><time>2026-04-10T11:24:56.857Z</time></trkpt><trkpt lat="43.99787" lon="12.5140137"><ele>90.0</ele><time>2026-04-10T11:24:57.857Z</time></trkpt><trkpt lat="43.9977824" lon="12.5140402"><ele>90.0</ele><time>2026-04-10T11:24:58.857Z</time></trkpt><trkpt lat="43.9977144" lon="12.5140565"><ele>90.0</ele><time>2026-04-10T11:24:59.857Z</time></trkpt><trkpt lat="43.9976412" lon="12.5140726"><ele>90.0</ele><time>2026-04-10T11:25:00.857Z</time></trkpt><trkpt lat="43.9975678" lon="12.5140797"><ele>90.0</ele><time>2026-04-10T11:25:01.856Z</time></trkpt><trkpt lat="43.9974924" lon="12.5141018"><ele>90.0</ele><time>2026-04-10T11:25:02.857Z</time></trkpt><trkpt lat="43.9974178" lon="12.5141293"><ele>90.0</ele><time>2026-04-10T11:25:03.856Z</time></trkpt><trkpt lat="43.9973394" lon="12.5141656"><ele>91.4</ele><time>2026-04-10T11:25:04.858Z</time></trkpt><trkpt lat="43.9972597" lon="12.514205"><ele>92.8</ele><time>2026-04-10T11:25:05.858Z</time></trkpt><trkpt lat="43.9971699" lon="12.5142352"><ele>94.19999999999999</ele><time>2026-04-10T11:25:06.856Z</time></trkpt><trkpt lat="43.9970749" lon="12.5142645"><ele>95.6</ele><time>2026-04-10T11:25:07.856Z</time></trkpt><trkpt lat="43.9969799" lon="12.5142996"><ele>97.0</ele><time>2026-04-10T11:25:08.856Z</time></trkpt><trkpt lat="43.9968866" lon="12.5143267"><ele>97.00000000000001</ele><time>2026-04-10T11:25:09.858Z</time></trkpt><trkpt lat="43.9967964" lon="12.5143603"><ele>97.0</ele><time>2026-04-10T11:25:10.857Z</time></trkpt><trkpt lat="43.9967045" lon="12.5143868"><ele>97.0</ele><time>2026-04-10T11:25:11.856Z</time></trkpt><trkpt lat="43.996624" lon="12.5144114"><ele>97.0</ele><time>2026-04-10T11:25:12.857Z</time></trkpt><trkpt lat="43.9965522" lon="12.5144584"><ele>97.00000000000001</ele><time>2026-04-10T11:25:13.856Z</time></trkpt><trkpt lat="43.9964768" lon="12.5144951"><ele>97.0</ele><time>2026-04-10T11:25:14.857Z</time></trkpt><trkpt lat="43.9964025" lon="12.5145239"><ele>96.33333333333334</ele><time>2026-04-10T11:25:15.857Z</time></trkpt><trkpt lat="43.9963293" lon="12.5145521"><ele>95.66666666666667</ele><time>2026-04-10T11:25:16.858Z</time></trkpt><trkpt lat="43.9962633" lon="12.51457"><ele>95.0</ele><time>2026-04-10T11:25:17.857Z</time></trkpt><trkpt lat="43.9961575" lon="12.5145866"><ele>94.33333333333334</ele><time>2026-04-10T11:25:19.857Z</time></trkpt><trkpt lat="43.9960846" lon="12.5145376"><ele>93.66666666666667</ele><time>2026-04-10T11:25:21.856Z</time></trkpt><trkpt lat="43.9960635" lon="12.5144502"><ele>93.0</ele><time>2026-04-10T11:25:23.857Z</time></trkpt><trkpt lat="43.9960375" lon="12.5143126"><ele>94.5</ele><time>2026-04-10T11:25:25.857Z</time></trkpt><trkpt lat="43.9960015" lon="12.5141696"><ele>96.0</ele><time>2026-04-10T11:25:27.856Z</time></trkpt><trkpt lat="43.9960142" lon="12.5140379"><ele>97.5</ele><time>2026-04-10T11:25:30.856Z</time></trkpt><trkpt lat="43.9960801" lon="12.5139656"><ele>99.0</ele><time>2026-04-10T11:25:31.856Z</time></trkpt><trkpt lat="43.9961463" lon="12.5138949"><ele>100.5</ele><time>2026-04-10T11:25:32.859Z</time></trkpt><trkpt lat="43.9962085" lon="12.5138307"><ele>102.0</ele><time>2026-04-10T11:25:33.857Z</time></trkpt><trkpt lat="43.9962817" lon="12.5137608"><ele>102.83333333333333</ele><time>2026-04-10T11:25:34.857Z</time></trkpt><trkpt lat="43.9963484" lon="12.5137064"><ele>103.66666666666666</ele><time>2026-04-10T11:25:35.857Z</time></trkpt><trkpt lat="43.9964071" lon="12.5136518"><ele>104.5</ele><time>2026-04-10T11:25:36.857Z</time></trkpt><trkpt lat="43.9964665" lon="12.5135984"><ele>105.33333333333333</ele><time>2026-04-10T11:25:38.856Z</time></trkpt><trkpt lat="43.9965668" lon="12.5135531"><ele>106.16666666666666</ele><time>2026-04-10T11:25:50.856Z</time></trkpt><trkpt lat="43.9966487" lon="12.5134886"><ele>107.0</ele><time>2026-04-10T11:25:52.856Z</time></trkpt><trkpt lat="43.9967539" lon="12.5134059"><ele>107.19999999999999</ele><time>2026-04-10T11:25:54.857Z</time></trkpt><trkpt lat="43.9968793" lon="12.5133432"><ele>107.39999999999999</ele><time>2026-04-10T11:25:56.856Z</time></trkpt><trkpt lat="43.996951" lon="12.5133185"><ele>107.60000000000001</ele><time>2026-04-10T11:25:57.856Z</time></trkpt><trkpt lat="43.99703" lon="12.5132745"><ele>107.80000000000001</ele><time>2026-04-10T11:25:58.856Z</time></trkpt><trkpt lat="43.9971114" lon="12.5132329"><ele>108.0</ele><time>2026-04-10T11:25:59.856Z</time></trkpt><trkpt lat="43.9971998" lon="12.5131842"><ele>108.0</ele><time>2026-04-10T11:26:00.858Z</time></trkpt><trkpt lat="43.9972836" lon="12.5131299"><ele>108.00000000000001</ele><time>2026-04-10T11:26:01.857Z</time></trkpt><trkpt lat="43.9973765" lon="12.5130826"><ele>108.00000000000001</ele><time>2026-04-10T11:26:02.857Z</time></trkpt><trkpt lat="43.9974608" lon="12.5130278"><ele>108.0</ele><time>2026-04-10T11:26:03.856Z</time></trkpt><trkpt lat="43.9975523" lon="12.512971"><ele>108.0</ele><time>2026-04-10T11:26:04.856Z</time></trkpt><trkpt lat="43.997641" lon="12.5128896"><ele>108.60000000000001</ele><time>2026-04-10T11:26:05.856Z</time></trkpt><trkpt lat="43.9977197" lon="12.5127864"><ele>109.20000000000002</ele><time>2026-04-10T11:26:06.857Z</time></trkpt><trkpt lat="43.9977937" lon="12.51267"><ele>109.8</ele><time>2026-04-10T11:26:07.856Z</time></trkpt><trkpt lat="43.9978552" lon="12.5125427"><ele>110.4</ele><time>2026-04-10T11:26:08.856Z</time></trkpt><trkpt lat="43.9978934" lon="12.5124051"><ele>111.0</ele><time>2026-04-10T11:26:09.857Z</time></trkpt><trkpt lat="43.9979268" lon="12.5122556"><ele>111.0</ele><time>2026-04-10T11:26:10.857Z</time></trkpt><trkpt lat="43.9979622" lon="12.5121074"><ele>111.0</ele><time>2026-04-10T11:26:11.856Z</time></trkpt><trkpt lat="43.9980011" lon="12.5119737"><ele>111.0</ele><time>2026-04-10T11:26:12.856Z</time></trkpt><trkpt lat="43.99804" lon="12.5118425"><ele>111.0</ele><time>2026-04-10T11:26:13.856Z</time></trkpt><trkpt lat="43.9981002" lon="12.5117027"><ele>111.0</ele><time>2026-04-10T11:26:14.856Z</time></trkpt><trkpt lat="43.9981508" lon="12.5115702"><ele>112.5</ele><time>2026-04-10T11:26:15.856Z</time></trkpt><trkpt lat="43.9982072" lon="12.5114402"><ele>114.0</ele><time>2026-04-10T11:26:16.857Z</time></trkpt><trkpt lat="43.9982638" lon="12.511301"><ele>115.5</ele><time>2026-04-10T11:26:17.856Z</time></trkpt><trkpt lat="43.9983107" lon="12.5111543"><ele>117.0</ele><time>2026-04-10T11:26:18.858Z</time></trkpt><trkpt lat="43.9983511" lon="12.5110025"><ele>117.0</ele><time>2026-04-10T11:26:19.856Z</time></trkpt><trkpt lat="43.9983885" lon="12.5108371"><ele>117.0</ele><time>2026-04-10T11:26:20.856Z</time></trkpt><trkpt lat="43.998425" lon="12.5106798"><ele>117.0</ele><time>2026-04-10T11:26:21.856Z</time></trkpt><trkpt lat="43.9984478" lon="12.5105057"><ele>117.0</ele><time>2026-04-10T11:26:22.856Z</time></trkpt><trkpt lat="43.9984806" lon="12.5103292"><ele>118.0</ele><time>2026-04-10T11:26:23.857Z</time></trkpt><trkpt lat="43.9985102" lon="12.5101487"><ele>119.0</ele><time>2026-04-10T11:26:24.856Z</time></trkpt><trkpt lat="43.9985367" lon="12.5099771"><ele>120.0</ele><time>2026-04-10T11:26:25.856Z</time></trkpt><trkpt lat="43.9985609" lon="12.5098229"><ele>121.0</ele><time>2026-04-10T11:26:26.856Z</time></trkpt><trkpt lat="43.9985844" lon="12.5096962"><ele>121.00000000000001</ele><time>2026-04-10T11:26:27.858Z</time></trkpt><trkpt lat="43.9986072" lon="12.5095811"><ele>121.0</ele><time>2026-04-10T11:26:28.856Z</time></trkpt><trkpt lat="43.9986393" lon="12.5094883"><ele>121.0</ele><time>2026-04-10T11:26:29.857Z</time></trkpt><trkpt lat="43.9986809" lon="12.5094097"><ele>121.0</ele><time>2026-04-10T11:26:30.857Z</time></trkpt><trkpt lat="43.9987315" lon="12.5093297"><ele>121.00000000000001</ele><time>2026-04-10T11:26:31.856Z</time></trkpt><trkpt lat="43.9987839" lon="12.5092555"><ele>121.0</ele><time>2026-04-10T11:26:32.856Z</time></trkpt><trkpt lat="43.9988404" lon="12.5091803"><ele>121.33333333333334</ele><time>2026-04-10T11:26:33.857Z</time></trkpt><trkpt lat="43.9988891" lon="12.509111"><ele>121.66666666666667</ele><time>2026-04-10T11:26:34.857Z</time></trkpt><trkpt lat="43.9989598" lon="12.5090037"><ele>122.0</ele><time>2026-04-10T11:26:36.857Z</time></trkpt><trkpt lat="43.9990202" lon="12.5089215"><ele>122.33333333333334</ele><time>2026-04-10T11:26:38.857Z</time></trkpt><trkpt lat="43.9990851" lon="12.5088461"><ele>122.66666666666667</ele><time>2026-04-10T11:26:40.857Z</time></trkpt><trkpt lat="43.9991297" lon="12.508777"><ele>123.0</ele><time>2026-04-10T11:26:43.857Z</time></trkpt><trkpt lat="43.9991607" lon="12.5086916"><ele>121.4</ele><time>2026-04-10T11:26:45.856Z</time></trkpt><trkpt lat="43.9992018" lon="12.5085986"><ele>119.80000000000001</ele><time>2026-04-10T11:26:47.856Z</time></trkpt><trkpt lat="43.9992464" lon="12.5084591"><ele>118.2</ele><time>2026-04-10T11:26:50.858Z</time></trkpt><trkpt lat="43.999288" lon="12.5083166"><ele>116.6</ele><time>2026-04-10T11:26:52.856Z</time></trkpt><trkpt lat="43.9993188" lon="12.5082156"><ele>115.0</ele><time>2026-04-10T11:26:54.857Z</time></trkpt><trkpt lat="43.9993442" lon="12.5081011"><ele>115.00000000000001</ele><time>2026-04-10T11:26:57.857Z</time></trkpt><trkpt lat="43.9993662" lon="12.5079984"><ele>115.0</ele><time>2026-04-10T11:27:06.857Z</time></trkpt><trkpt lat="43.9993728" lon="12.5079025"><ele>115.0</ele><time>2026-04-10T11:27:08.857Z</time></trkpt><trkpt lat="43.9993825" lon="12.5078025"><ele>115.0</ele><time>2026-04-10T11:27:11.857Z</time></trkpt><trkpt lat="43.9993908" lon="12.5076854"><ele>115.00000000000001</ele><time>2026-04-10T11:27:13.858Z</time></trkpt><trkpt lat="43.9993938" lon="12.5075635"><ele>115.0</ele><time>2026-04-10T11:27:15.857Z</time></trkpt><trkpt lat="43.9994022" lon="12.507459"><ele>115.66666666666667</ele><time>2026-04-10T11:27:17.856Z</time></trkpt><trkpt lat="43.9994192" lon="12.5073373"><ele>116.33333333333334</ele><time>2026-04-10T11:27:20.856Z</time></trkpt><trkpt lat="43.9994392" lon="12.5072277"><ele>117.0</ele><time>2026-04-10T11:27:22.857Z</time></trkpt><trkpt lat="43.9994441" lon="12.5071052"><ele>117.66666666666666</ele><time>2026-04-10T11:27:24.857Z</time></trkpt><trkpt lat="43.9994616" lon="12.5070032"><ele>118.33333333333333</ele><time>2026-04-10T11:27:26.857Z</time></trkpt><trkpt lat="43.9994763" lon="12.5068756"><ele>119.0</ele><time>2026-04-10T11:27:28.857Z</time></trkpt><trkpt lat="43.9994915" lon="12.506774"><ele>119.33333333333333</ele><time>2026-04-10T11:27:30.856Z</time></trkpt><trkpt lat="43.9995056" lon="12.5066844"><ele>119.66666666666666</ele><time>2026-04-10T11:27:32.857Z</time></trkpt><trkpt lat="43.9995107" lon="12.5065935"><ele>120.0</ele><time>2026-04-10T11:27:34.857Z</time></trkpt><trkpt lat="43.9995235" lon="12.5064851"><ele>120.33333333333334</ele><time>2026-04-10T11:27:37.857Z</time></trkpt><trkpt lat="43.9995483" lon="12.5063773"><ele>120.66666666666667</ele><time>2026-04-10T11:27:40.856Z</time></trkpt><trkpt lat="43.9995726" lon="12.5062582"><ele>121.0</ele><time>2026-04-10T11:27:43.857Z</time></trkpt><trkpt lat="43.9996133" lon="12.5061617"><ele>121.00000000000001</ele><time>2026-04-10T11:27:46.856Z</time></trkpt><trkpt lat="43.9996391" lon="12.5060688"><ele>121.0</ele><time>2026-04-10T11:27:49.857Z</time></trkpt><trkpt lat="43.9996263" lon="12.5059668"><ele>121.0</ele><time>2026-04-10T11:27:54.856Z</time></trkpt><trkpt lat="43.9996185" lon="12.5058607"><ele>121.0</ele><time>2026-04-10T11:27:56.856Z</time></trkpt><trkpt lat="43.9996078" lon="12.50574"><ele>121.00000000000001</ele><time>2026-04-10T11:27:58.857Z</time></trkpt><trkpt lat="43.9995832" lon="12.5056025"><ele>121.0</ele><time>2026-04-10T11:28:00.856Z</time></trkpt><trkpt lat="43.9995531" lon="12.5054686"><ele>119.0</ele><time>2026-04-10T11:28:02.856Z</time></trkpt><trkpt lat="43.9995174" lon="12.5053234"><ele>117.0</ele><time>2026-04-10T11:28:04.857Z</time></trkpt><trkpt lat="43.999473" lon="12.5051828"><ele>115.0</ele><time>2026-04-10T11:28:06.857Z</time></trkpt><trkpt lat="43.9994153" lon="12.5050435"><ele>113.0</ele><time>2026-04-10T11:28:08.857Z</time></trkpt><trkpt lat="43.9993401" lon="12.5049072"><ele>112.99999999999999</ele><time>2026-04-10T11:28:10.857Z</time></trkpt><trkpt lat="43.9992603" lon="12.5047796"><ele>113.0</ele><time>2026-04-10T11:28:12.857Z</time></trkpt><trkpt lat="43.9991891" lon="12.5046497"><ele>113.0</ele><time>2026-04-10T11:28:14.857Z</time></trkpt><trkpt lat="43.999152" lon="12.5045776"><ele>113.0</ele><time>2026-04-10T11:28:15.856Z</time></trkpt><trkpt lat="43.9991155" lon="12.5045005"><ele>112.99999999999999</ele><time>2026-04-10T11:28:16.856Z</time></trkpt><trkpt lat="43.9990783" lon="12.5044269"><ele>113.0</ele><time>2026-04-10T11:28:17.856Z</time></trkpt><trkpt lat="43.9990471" lon="12.5043415"><ele>112.49999999999999</ele><time>2026-04-10T11:28:18.857Z</time></trkpt><trkpt lat="43.9990249" lon="12.5042497"><ele>112.0</ele><time>2026-04-10T11:28:19.857Z</time></trkpt><trkpt lat="43.9990067" lon="12.5041519"><ele>111.5</ele><time>2026-04-10T11:28:20.856Z</time></trkpt><trkpt lat="43.9989917" lon="12.5040516"><ele>111.0</ele><time>2026-04-10T11:28:21.856Z</time></trkpt><trkpt lat="43.9989766" lon="12.5039421"><ele>110.49999999999999</ele><time>2026-04-10T11:28:22.856Z</time></trkpt><trkpt lat="43.9989633" lon="12.5038315"><ele>110.0</ele><time>2026-04-10T11:28:23.856Z</time></trkpt><trkpt lat="43.9989515" lon="12.5037222"><ele>109.8</ele><time>2026-04-10T11:28:24.857Z</time></trkpt><trkpt lat="43.998937" lon="12.5036162"><ele>109.6</ele><time>2026-04-10T11:28:25.857Z</time></trkpt><trkpt lat="43.9989282" lon="12.503508"><ele>109.4</ele><time>2026-04-10T11:28:26.856Z</time></trkpt><trkpt lat="43.9989202" lon="12.5033725"><ele>109.2</ele><time>2026-04-10T11:28:27.856Z</time></trkpt><trkpt lat="43.9989157" lon="12.5032103"><ele>109.0</ele><time>2026-04-10T11:28:28.856Z</time></trkpt><trkpt lat="43.9988998" lon="12.5030408"><ele>108.75</ele><time>2026-04-10T11:28:29.856Z</time></trkpt><trkpt lat="43.998881" lon="12.5028663"><ele>108.5</ele><time>2026-04-10T11:28:30.856Z</time></trkpt><trkpt lat="43.9988602" lon="12.5026978"><ele>108.25</ele><time>2026-04-10T11:28:31.857Z</time></trkpt><trkpt lat="43.998846" lon="12.5025506"><ele>108.0</ele><time>2026-04-10T11:28:32.856Z</time></trkpt><trkpt lat="43.9988328" lon="12.5024065"><ele>108.0</ele><time>2026-04-10T11:28:33.856Z</time></trkpt><trkpt lat="43.9988237" lon="12.5022658"><ele>108.00000000000001</ele><time>2026-04-10T11:28:34.856Z</time></trkpt><trkpt lat="43.9988115" lon="12.5021301"><ele>108.00000000000001</ele><time>2026-04-10T11:28:35.856Z</time></trkpt><trkpt lat="43.9987988" lon="12.5019864"><ele>108.0</ele><time>2026-04-10T11:28:36.856Z</time></trkpt><trkpt lat="43.9987825" lon="12.5018178"><ele>108.0</ele><time>2026-04-10T11:28:37.857Z</time></trkpt><trkpt lat="43.9987689" lon="12.5016486"><ele>108.5</ele><time>2026-04-10T11:28:38.857Z</time></trkpt><trkpt lat="43.9987513" lon="12.5014714"><ele>109.0</ele><time>2026-04-10T11:28:39.856Z</time></trkpt><trkpt lat="43.9987398" lon="12.501288"><ele>109.5</ele><time>2026-04-10T11:28:40.856Z</time></trkpt><trkpt lat="43.998739" lon="12.5011138"><ele>110.0</ele><time>2026-04-10T11:28:41.857Z</time></trkpt><trkpt lat="43.9987274" lon="12.5009406"><ele>110.2</ele><time>2026-04-10T11:28:42.856Z</time></trkpt><trkpt lat="43.9987219" lon="12.5007866"><ele>110.4</ele><time>2026-04-10T11:28:43.857Z</time></trkpt><trkpt lat="43.9987137" lon="12.5006437"><ele>110.6</ele><time>2026-04-10T11:28:44.856Z</time></trkpt><trkpt lat="43.9987049" lon="12.5005077"><ele>110.8</ele><time>2026-04-10T11:28:45.856Z</time></trkpt><trkpt lat="43.9986862" lon="12.5003976"><ele>111.0</ele><time>2026-04-10T11:28:46.858Z</time></trkpt><trkpt lat="43.9986474" lon="12.5003098"><ele>111.14285714285714</ele><time>2026-04-10T11:28:47.856Z</time></trkpt><trkpt lat="43.9985999" lon="12.5002474"><ele>111.28571428571429</ele><time>2026-04-10T11:28:48.857Z</time></trkpt><trkpt lat="43.9985386" lon="12.5002082"><ele>111.42857142857143</ele><time>2026-04-10T11:28:49.857Z</time></trkpt><trkpt lat="43.9984732" lon="12.5001636"><ele>111.57142857142857</ele><time>2026-04-10T11:28:50.856Z</time></trkpt><trkpt lat="43.9984039" lon="12.5001122"><ele>111.71428571428572</ele><time>2026-04-10T11:28:51.857Z</time></trkpt><trkpt lat="43.9983329" lon="12.5000671"><ele>111.85714285714286</ele><time>2026-04-10T11:28:52.856Z</time></trkpt><trkpt lat="43.9982564" lon="12.5000239"><ele>112.0</ele><time>2026-04-10T11:28:53.856Z</time></trkpt><trkpt lat="43.9981693" lon="12.4999844"><ele>113.39999999999999</ele><time>2026-04-10T11:28:54.857Z</time></trkpt><trkpt lat="43.9980769" lon="12.4999285"><ele>114.79999999999998</ele><time>2026-04-10T11:28:55.857Z</time></trkpt><trkpt lat="43.9979847" lon="12.4998665"><ele>116.2</ele><time>2026-04-10T11:28:56.856Z</time></trkpt><trkpt lat="43.9978902" lon="12.4998144"><ele>117.6</ele><time>2026-04-10T11:28:57.856Z</time></trkpt><trkpt lat="43.9978072" lon="12.499778"><ele>119.0</ele><time>2026-04-10T11:28:58.856Z</time></trkpt><trkpt lat="43.9977315" lon="12.4997338"><ele>119.0</ele><time>2026-04-10T11:28:59.856Z</time></trkpt><trkpt lat="43.9976731" lon="12.4996738"><ele>119.0</ele><time>2026-04-10T11:29:00.857Z</time></trkpt><trkpt lat="43.9976305" lon="12.4995103"><ele>119.0</ele><time>2026-04-10T11:29:02.857Z</time></trkpt><trkpt lat="43.9976291" lon="12.4994083"><ele>119.0</ele><time>2026-04-10T11:29:03.856Z</time></trkpt><trkpt lat="43.9976733" lon="12.4992312"><ele>119.0</ele><time>2026-04-10T11:29:05.856Z</time></trkpt><trkpt lat="43.9976958" lon="12.4991178"><ele>118.80000000000001</ele><time>2026-04-10T11:29:06.857Z</time></trkpt><trkpt lat="43.9977275" lon="12.4989934"><ele>118.60000000000001</ele><time>2026-04-10T11:29:07.856Z</time></trkpt><trkpt lat="43.997765" lon="12.4988755"><ele>118.4</ele><time>2026-04-10T11:29:08.856Z</time></trkpt><trkpt lat="43.9978087" lon="12.498756"><ele>118.2</ele><time>2026-04-10T11:29:09.857Z</time></trkpt><trkpt lat="43.9978582" lon="12.4986554"><ele>118.0</ele><time>2026-04-10T11:29:10.856Z</time></trkpt><trkpt lat="43.9979156" lon="12.4985602"><ele>118.66666666666667</ele><time>2026-04-10T11:29:11.856Z</time></trkpt><trkpt lat="43.997967" lon="12.4984665"><ele>119.33333333333334</ele><time>2026-04-10T11:29:12.856Z</time></trkpt><trkpt lat="43.998017" lon="12.4983778"><ele>120.0</ele><time>2026-04-10T11:29:13.857Z</time></trkpt><trkpt lat="43.9980666" lon="12.4982867"><ele>120.66666666666666</ele><time>2026-04-10T11:29:14.856Z</time></trkpt><trkpt lat="43.9981194" lon="12.4981994"><ele>121.33333333333333</ele><time>2026-04-10T11:29:15.856Z</time></trkpt><trkpt lat="43.9981667" lon="12.4981055"><ele>122.0</ele><time>2026-04-10T11:29:16.857Z</time></trkpt><trkpt lat="43.9981983" lon="12.4979934"><ele>122.16666666666666</ele><time>2026-04-10T11:29:17.857Z</time></trkpt><trkpt lat="43.9982152" lon="12.4978871"><ele>122.33333333333333</ele><time>2026-04-10T11:29:18.857Z</time></trkpt><trkpt lat="43.9982184" lon="12.4977807"><ele>122.5</ele><time>2026-04-10T11:29:19.857Z</time></trkpt><trkpt lat="43.9982094" lon="12.4976693"><ele>122.66666666666666</ele><time>2026-04-10T11:29:20.858Z</time></trkpt><trkpt lat="43.9982063" lon="12.4975438"><ele>122.83333333333333</ele><time>2026-04-10T11:29:21.856Z</time></trkpt><trkpt lat="43.9982209" lon="12.4974333"><ele>123.0</ele><time>2026-04-10T11:29:22.856Z</time></trkpt><trkpt lat="43.9982449" lon="12.4973285"><ele>123.0</ele><time>2026-04-10T11:29:23.856Z</time></trkpt><trkpt lat="43.9982674" lon="12.4972193"><ele>123.0</ele><time>2026-04-10T11:29:24.857Z</time></trkpt><trkpt lat="43.9982907" lon="12.497122"><ele>123.0</ele><time>2026-04-10T11:29:25.856Z</time></trkpt><trkpt lat="43.9983265" lon="12.4969675"><ele>123.0</ele><time>2026-04-10T11:29:27.856Z</time></trkpt><trkpt lat="43.9984068" lon="12.496874"><ele>123.0</ele><time>2026-04-10T11:29:29.857Z</time></trkpt><trkpt lat="43.9984659" lon="12.4968382"><ele>123.0</ele><time>2026-04-10T11:29:30.857Z</time></trkpt><trkpt lat="43.9985351" lon="12.4967826"><ele>122.0</ele><time>2026-04-10T11:29:31.856Z</time></trkpt><trkpt lat="43.9986076" lon="12.4967052"><ele>121.00000000000001</ele><time>2026-04-10T11:29:32.857Z</time></trkpt><trkpt lat="43.9986831" lon="12.4966008"><ele>120.00000000000001</ele><time>2026-04-10T11:29:33.857Z</time></trkpt><trkpt lat="43.9987571" lon="12.4964847"><ele>119.0</ele><time>2026-04-10T11:29:34.856Z</time></trkpt><trkpt lat="43.9988178" lon="12.4963541"><ele>118.0</ele><time>2026-04-10T11:29:35.856Z</time></trkpt><trkpt lat="43.9988687" lon="12.496206"><ele>118.0</ele><time>2026-04-10T11:29:36.856Z</time></trkpt><trkpt lat="43.9989143" lon="12.4960453"><ele>118.0</ele><time>2026-04-10T11:29:37.856Z</time></trkpt><trkpt lat="43.9989618" lon="12.4958755"><ele>118.0</ele><time>2026-04-10T11:29:38.856Z</time></trkpt><trkpt lat="43.9990082" lon="12.4956956"><ele>118.0</ele><time>2026-04-10T11:29:39.857Z</time></trkpt><trkpt lat="43.9990615" lon="12.4955083"><ele>117.0</ele><time>2026-04-10T11:29:40.857Z</time></trkpt><trkpt lat="43.9991257" lon="12.4953131"><ele>116.0</ele><time>2026-04-10T11:29:41.857Z</time></trkpt><trkpt lat="43.999199" lon="12.4951147"><ele>115.0</ele><time>2026-04-10T11:29:42.857Z</time></trkpt><trkpt lat="43.9992822" lon="12.4949106"><ele>115.0</ele><time>2026-04-10T11:29:43.858Z</time></trkpt><trkpt lat="43.9993894" lon="12.4946748"><ele>115.0</ele><time>2026-04-10T11:29:44.856Z</time></trkpt><trkpt lat="43.9995009" lon="12.4944575"><ele>115.0</ele><time>2026-04-10T11:29:45.857Z</time></trkpt><trkpt lat="43.9996213" lon="12.4942773"><ele>118.33333333333334</ele><time>2026-04-10T11:29:46.858Z</time></trkpt><trkpt lat="43.9997511" lon="12.4941366"><ele>121.66666666666666</ele><time>2026-04-10T11:29:47.857Z</time></trkpt><trkpt lat="43.9998891" lon="12.4940105"><ele>125.0</ele><time>2026-04-10T11:29:48.857Z</time></trkpt><trkpt lat="44.0000316" lon="12.4938857"><ele>125.0</ele><time>2026-04-10T11:29:49.856Z</time></trkpt><trkpt lat="44.0001725" lon="12.4937589"><ele>125.0</ele><time>2026-04-10T11:29:50.857Z</time></trkpt><trkpt lat="44.0003114" lon="12.4936285"><ele>125.0</ele><time>2026-04-10T11:29:51.857Z</time></trkpt><trkpt lat="44.0004525" lon="12.4935"><ele>126.0</ele><time>2026-04-10T11:29:52.857Z</time></trkpt><trkpt lat="44.0005937" lon="12.4933735"><ele>127.0</ele><time>2026-04-10T11:29:53.856Z</time></trkpt><trkpt lat="44.000734" lon="12.4932454"><ele>128.0</ele><time>2026-04-10T11:29:54.856Z</time></trkpt><trkpt lat="44.0008731" lon="12.4931063"><ele>128.0</ele><time>2026-04-10T11:29:55.857Z</time></trkpt><trkpt lat="44.0010097" lon="12.49296"><ele>128.0</ele><time>2026-04-10T11:29:56.857Z</time></trkpt><trkpt lat="44.0011479" lon="12.4928033"><ele>128.0</ele><time>2026-04-10T11:29:57.858Z</time></trkpt><trkpt lat="44.0012845" lon="12.4926404"><ele>128.66666666666666</ele><time>2026-04-10T11:29:58.857Z</time></trkpt><trkpt lat="44.0014199" lon="12.4924825"><ele>129.33333333333334</ele><time>2026-04-10T11:29:59.856Z</time></trkpt><trkpt lat="44.0015541" lon="12.4923333"><ele>130.0</ele><time>2026-04-10T11:30:00.856Z</time></trkpt><trkpt lat="44.0016855" lon="12.4921887"><ele>127.33333333333334</ele><time>2026-04-10T11:30:01.857Z</time></trkpt><trkpt lat="44.0018131" lon="12.4920465"><ele>124.66666666666666</ele><time>2026-04-10T11:30:02.856Z</time></trkpt><trkpt lat="44.0019354" lon="12.4919069"><ele>122.0</ele><time>2026-04-10T11:30:03.858Z</time></trkpt><trkpt lat="44.0020501" lon="12.4917791"><ele>122.0</ele><time>2026-04-10T11:30:04.857Z</time></trkpt><trkpt lat="44.0021616" lon="12.4916531"><ele>122.0</ele><time>2026-04-10T11:30:05.857Z</time></trkpt><trkpt lat="44.0022687" lon="12.4915309"><ele>122.0</ele><time>2026-04-10T11:30:06.856Z</time></trkpt><trkpt lat="44.0023586" lon="12.4914251"><ele>122.0</ele><time>2026-04-10T11:30:07.857Z</time></trkpt><trkpt lat="44.002436" lon="12.4913395"><ele>122.66666666666666</ele><time>2026-04-10T11:30:08.857Z</time></trkpt><trkpt lat="44.0025059" lon="12.4912708"><ele>123.33333333333333</ele><time>2026-04-10T11:30:09.856Z</time></trkpt><trkpt lat="44.0025688" lon="12.491211"><ele>124.0</ele><time>2026-04-10T11:30:10.857Z</time></trkpt><trkpt lat="44.0026203" lon="12.4911536"><ele>124.66666666666666</ele><time>2026-04-10T11:30:11.857Z</time></trkpt><trkpt lat="44.0027113" lon="12.4910622"><ele>125.33333333333333</ele><time>2026-04-10T11:30:13.857Z</time></trkpt><trkpt lat="44.00277" lon="12.4910159"><ele>126.0</ele><time>2026-04-10T11:30:15.857Z</time></trkpt><trkpt lat="44.0027417" lon="12.4909317"><ele>126.0</ele><time>2026-04-10T11:30:21.858Z</time></trkpt><trkpt lat="44.0026777" lon="12.4909243"><ele>126.0</ele><time>2026-04-10T11:30:23.857Z</time></trkpt><trkpt lat="44.0026137" lon="12.4909568"><ele>126.0</ele><time>2026-04-10T11:42:51.855Z</time></trkpt><trkpt lat="44.0025386" lon="12.4908931"><ele>126.0</ele><time>2026-04-10T11:42:55.856Z</time></trkpt><trkpt lat="44.0024988" lon="12.4907795"><ele>126.0</ele><time>2026-04-10T11:42:58.856Z</time></trkpt><trkpt lat="44.0024524" lon="12.4906755"><ele>126.0</ele><time>2026-04-10T11:43:00.855Z</time></trkpt><trkpt lat="44.0023934" lon="12.4905395"><ele>123.83333333333333</ele><time>2026-04-10T11:43:02.855Z</time></trkpt><trkpt lat="44.0023293" lon="12.4904061"><ele>121.66666666666666</ele><time>2026-04-10T11:43:04.855Z</time></trkpt><trkpt lat="44.0022622" lon="12.4902605"><ele>119.5</ele><time>2026-04-10T11:43:06.856Z</time></trkpt><trkpt lat="44.0022262" lon="12.4901762"><ele>117.33333333333333</ele><time>2026-04-10T11:43:07.855Z</time></trkpt><trkpt lat="44.002193" lon="12.4900977"><ele>115.16666666666666</ele><time>2026-04-10T11:43:08.856Z</time></trkpt><trkpt lat="44.0021572" lon="12.4900129"><ele>113.0</ele><time>2026-04-10T11:43:09.855Z</time></trkpt><trkpt lat="44.002121" lon="12.4899232"><ele>113.0</ele><time>2026-04-10T11:43:10.855Z</time></trkpt><trkpt lat="44.0020877" lon="12.4898341"><ele>113.0</ele><time>2026-04-10T11:43:11.855Z</time></trkpt><trkpt lat="44.0020594" lon="12.4897467"><ele>113.0</ele><time>2026-04-10T11:43:12.855Z</time></trkpt><trkpt lat="44.0020261" lon="12.4896641"><ele>113.0</ele><time>2026-04-10T11:43:13.855Z</time></trkpt><trkpt lat="44.0019934" lon="12.4895774"><ele>113.0</ele><time>2026-04-10T11:43:14.856Z</time></trkpt><trkpt lat="44.0019694" lon="12.4894884"><ele>113.0</ele><time>2026-04-10T11:43:15.854Z</time></trkpt><trkpt lat="44.0019478" lon="12.4893904"><ele>113.0</ele><time>2026-04-10T11:43:16.856Z</time></trkpt><trkpt lat="44.0019288" lon="12.4892894"><ele>112.99999999999999</ele><time>2026-04-10T11:43:17.855Z</time></trkpt><trkpt lat="44.0019166" lon="12.4891937"><ele>113.0</ele><time>2026-04-10T11:43:18.856Z</time></trkpt><trkpt lat="44.00191" lon="12.4890918"><ele>113.0</ele><time>2026-04-10T11:43:19.855Z</time></trkpt><trkpt lat="44.0019112" lon="12.488985"><ele>113.0</ele><time>2026-04-10T11:43:20.855Z</time></trkpt><trkpt lat="44.0019165" lon="12.4888772"><ele>112.99999999999999</ele><time>2026-04-10T11:43:21.856Z</time></trkpt><trkpt lat="44.0019215" lon="12.4887662"><ele>113.0</ele><time>2026-04-10T11:43:22.855Z</time></trkpt><trkpt lat="44.0019315" lon="12.4886513"><ele>111.16666666666666</ele><time>2026-04-10T11:43:23.856Z</time></trkpt><trkpt lat="44.0019426" lon="12.4885413"><ele>109.33333333333333</ele><time>2026-04-10T11:43:24.855Z</time></trkpt><trkpt lat="44.0019511" lon="12.488427"><ele>107.5</ele><time>2026-04-10T11:43:25.855Z</time></trkpt><trkpt lat="44.0019659" lon="12.4882985"><ele>105.66666666666666</ele><time>2026-04-10T11:43:26.856Z</time></trkpt><trkpt lat="44.0019819" lon="12.4881735"><ele>103.83333333333333</ele><time>2026-04-10T11:43:27.856Z</time></trkpt><trkpt lat="44.0019977" lon="12.4880456"><ele>102.0</ele><time>2026-04-10T11:43:28.856Z</time></trkpt><trkpt lat="44.0020062" lon="12.487918"><ele>100.6</ele><time>2026-04-10T11:43:29.856Z</time></trkpt><trkpt lat="44.0020156" lon="12.4878029"><ele>99.19999999999999</ele><time>2026-04-10T11:43:30.856Z</time></trkpt><trkpt lat="44.0020175" lon="12.487662"><ele>97.8</ele><time>2026-04-10T11:43:31.854Z</time></trkpt><trkpt lat="44.0020151" lon="12.4875281"><ele>96.4</ele><time>2026-04-10T11:43:32.856Z</time></trkpt><trkpt lat="44.0020169" lon="12.4874036"><ele>95.0</ele><time>2026-04-10T11:43:33.855Z</time></trkpt><trkpt lat="44.0020097" lon="12.4872846"><ele>95.0</ele><time>2026-04-10T11:43:34.855Z</time></trkpt><trkpt lat="44.0019897" lon="12.4871731"><ele>95.0</ele><time>2026-04-10T11:43:35.855Z</time></trkpt><trkpt lat="44.0019652" lon="12.4870567"><ele>95.0</ele><time>2026-04-10T11:43:36.855Z</time></trkpt><trkpt lat="44.0019265" lon="12.4869401"><ele>95.0</ele><time>2026-04-10T11:43:37.855Z</time></trkpt><trkpt lat="44.0018851" lon="12.48683"><ele>95.0</ele><time>2026-04-10T11:43:38.855Z</time></trkpt><trkpt lat="44.0018471" lon="12.4867126"><ele>95.0</ele><time>2026-04-10T11:43:39.856Z</time></trkpt><trkpt lat="44.0018053" lon="12.4865917"><ele>95.66666666666667</ele><time>2026-04-10T11:43:40.856Z</time></trkpt><trkpt lat="44.0017646" lon="12.4864841"><ele>96.33333333333334</ele><time>2026-04-10T11:43:41.856Z</time></trkpt><trkpt lat="44.0017322" lon="12.4863783"><ele>97.0</ele><time>2026-04-10T11:43:42.856Z</time></trkpt><trkpt lat="44.001703" lon="12.4862598"><ele>97.66666666666667</ele><time>2026-04-10T11:43:43.856Z</time></trkpt><trkpt lat="44.0016785" lon="12.486147"><ele>98.33333333333333</ele><time>2026-04-10T11:43:44.856Z</time></trkpt><trkpt lat="44.0016617" lon="12.48603"><ele>99.0</ele><time>2026-04-10T11:43:45.856Z</time></trkpt><trkpt lat="44.0016446" lon="12.4859075"><ele>101.2</ele><time>2026-04-10T11:43:46.855Z</time></trkpt><trkpt lat="44.0016392" lon="12.4857854"><ele>103.4</ele><time>2026-04-10T11:43:47.857Z</time></trkpt><trkpt lat="44.0016282" lon="12.4856695"><ele>105.6</ele><time>2026-04-10T11:43:48.855Z</time></trkpt><trkpt lat="44.0016211" lon="12.48554"><ele>107.8</ele><time>2026-04-10T11:43:49.855Z</time></trkpt><trkpt lat="44.001613" lon="12.4854042"><ele>110.0</ele><time>2026-04-10T11:43:50.856Z</time></trkpt><trkpt lat="44.0016006" lon="12.485267"><ele>112.33333333333333</ele><time>2026-04-10T11:43:51.855Z</time></trkpt><trkpt lat="44.0015881" lon="12.4851461"><ele>114.66666666666666</ele><time>2026-04-10T11:43:52.855Z</time></trkpt><trkpt lat="44.0015823" lon="12.4850408"><ele>117.0</ele><time>2026-04-10T11:43:53.856Z</time></trkpt><trkpt lat="44.0015702" lon="12.4849315"><ele>119.33333333333334</ele><time>2026-04-10T11:43:54.855Z</time></trkpt><trkpt lat="44.0015506" lon="12.4848272"><ele>121.66666666666667</ele><time>2026-04-10T11:43:55.855Z</time></trkpt><trkpt lat="44.0015486" lon="12.484675"><ele>124.0</ele><time>2026-04-10T11:43:57.856Z</time></trkpt><trkpt lat="44.0015524" lon="12.4845596"><ele>124.80000000000001</ele><time>2026-04-10T11:43:59.854Z</time></trkpt><trkpt lat="44.0016227" lon="12.4845066"><ele>125.60000000000001</ele><time>2026-04-10T11:44:01.856Z</time></trkpt><trkpt lat="44.0017286" lon="12.4844759"><ele>126.4</ele><time>2026-04-10T11:44:03.856Z</time></trkpt><trkpt lat="44.0018556" lon="12.48443"><ele>127.2</ele><time>2026-04-10T11:44:05.855Z</time></trkpt><trkpt lat="44.0019203" lon="12.4844094"><ele>128.0</ele><time>2026-04-10T11:44:06.855Z</time></trkpt><trkpt lat="44.0019854" lon="12.4843953"><ele>128.0</ele><time>2026-04-10T11:44:07.855Z</time></trkpt><trkpt lat="44.0020536" lon="12.4843729"><ele>127.99999999999999</ele><time>2026-04-10T11:44:08.856Z</time></trkpt><trkpt lat="44.0021242" lon="12.4843603"><ele>128.0</ele><time>2026-04-10T11:44:09.856Z</time></trkpt><trkpt lat="44.0021987" lon="12.4843582"><ele>128.0</ele><time>2026-04-10T11:44:10.857Z</time></trkpt><trkpt lat="44.0022778" lon="12.4843507"><ele>127.99999999999999</ele><time>2026-04-10T11:44:11.855Z</time></trkpt><trkpt lat="44.0023427" lon="12.4843424"><ele>128.0</ele><time>2026-04-10T11:44:12.856Z</time></trkpt><trkpt lat="44.0024152" lon="12.4843369"><ele>128.0</ele><time>2026-04-10T11:44:13.855Z</time></trkpt><trkpt lat="44.0024888" lon="12.4843202"><ele>128.0</ele><time>2026-04-10T11:44:14.856Z</time></trkpt><trkpt lat="44.0025582" lon="12.4843094"><ele>127.99999999999999</ele><time>2026-04-10T11:44:15.855Z</time></trkpt><trkpt lat="44.0026237" lon="12.4842949"><ele>128.0</ele><time>2026-04-10T11:44:16.855Z</time></trkpt><trkpt lat="44.0026975" lon="12.4842798"><ele>128.0</ele><time>2026-04-10T11:44:17.854Z</time></trkpt><trkpt lat="44.0027613" lon="12.4842701"><ele>127.99999999999999</ele><time>2026-04-10T11:44:18.855Z</time></trkpt><trkpt lat="44.0028505" lon="12.4842191"><ele>128.0</ele><time>2026-04-10T11:44:20.856Z</time></trkpt><trkpt lat="44.0028918" lon="12.484148"><ele>128.0</ele><time>2026-04-10T11:44:22.855Z</time></trkpt><trkpt lat="44.0028906" lon="12.4840462"><ele>128.0</ele><time>2026-04-10T11:44:24.855Z</time></trkpt><trkpt lat="44.0028923" lon="12.4839154"><ele>128.0</ele><time>2026-04-10T11:44:26.855Z</time></trkpt><trkpt lat="44.0028936" lon="12.4837553"><ele>128.0</ele><time>2026-04-10T11:44:28.855Z</time></trkpt><trkpt lat="44.0028949" lon="12.4835865"><ele>128.0</ele><time>2026-04-10T11:44:30.855Z</time></trkpt><trkpt lat="44.0029004" lon="12.4834088"><ele>129.6</ele><time>2026-04-10T11:44:32.856Z</time></trkpt><trkpt lat="44.0029015" lon="12.4833172"><ele>131.20000000000002</ele><time>2026-04-10T11:44:33.857Z</time></trkpt><trkpt lat="44.0029142" lon="12.4831479"><ele>132.8</ele><time>2026-04-10T11:44:35.855Z</time></trkpt><trkpt lat="44.0029294" lon="12.4829859"><ele>134.4</ele><time>2026-04-10T11:44:37.855Z</time></trkpt><trkpt lat="44.0029743" lon="12.482875"><ele>136.0</ele><time>2026-04-10T11:44:39.855Z</time></trkpt><trkpt lat="44.0030839" lon="12.4827691"><ele>138.0</ele><time>2026-04-10T11:44:41.855Z</time></trkpt><trkpt lat="44.0031497" lon="12.482666"><ele>140.0</ele><time>2026-04-10T11:44:43.856Z</time></trkpt><trkpt lat="44.0031427" lon="12.4825344"><ele>142.0</ele><time>2026-04-10T11:44:45.857Z</time></trkpt><trkpt lat="44.0031406" lon="12.4823961"><ele>144.0</ele><time>2026-04-10T11:44:47.855Z</time></trkpt><trkpt lat="44.0031325" lon="12.4822685"><ele>146.0</ele><time>2026-04-10T11:44:49.856Z</time></trkpt><trkpt lat="44.00312" lon="12.4821352"><ele>147.66666666666666</ele><time>2026-04-10T11:44:51.855Z</time></trkpt><trkpt lat="44.0031135" lon="12.4819921"><ele>149.33333333333331</ele><time>2026-04-10T11:44:53.855Z</time></trkpt><trkpt lat="44.0031085" lon="12.4818409"><ele>151.0</ele><time>2026-04-10T11:44:55.856Z</time></trkpt><trkpt lat="44.0031293" lon="12.4817432"><ele>152.66666666666666</ele><time>2026-04-10T11:44:57.854Z</time></trkpt><trkpt lat="44.0031822" lon="12.481672"><ele>154.33333333333334</ele><time>2026-04-10T11:45:00.855Z</time></trkpt><trkpt lat="44.0032419" lon="12.4815901"><ele>156.0</ele><time>2026-04-10T11:45:03.857Z</time></trkpt><trkpt lat="44.0033144" lon="12.4815187"><ele>155.2</ele><time>2026-04-10T11:45:06.855Z</time></trkpt><trkpt lat="44.003398" lon="12.4814502"><ele>154.39999999999998</ele><time>2026-04-10T11:45:09.856Z</time></trkpt><trkpt lat="44.0034627" lon="12.4814"><ele>153.6</ele><time>2026-04-10T11:45:11.856Z</time></trkpt><trkpt lat="44.0035639" lon="12.4814016"><ele>152.79999999999998</ele><time>2026-04-10T11:45:16.855Z</time></trkpt><trkpt lat="44.0036798" lon="12.4814873"><ele>152.0</ele><time>2026-04-10T11:45:18.855Z</time></trkpt><trkpt lat="44.0037542" lon="12.4815469"><ele>152.0</ele><time>2026-04-10T11:45:19.855Z</time></trkpt><trkpt lat="44.003832" lon="12.4816145"><ele>152.0</ele><time>2026-04-10T11:45:20.856Z</time></trkpt><trkpt lat="44.003909" lon="12.4816859"><ele>152.0</ele><time>2026-04-10T11:45:21.855Z</time></trkpt><trkpt lat="44.0039858" lon="12.4817709"><ele>152.0</ele><time>2026-04-10T11:45:22.856Z</time></trkpt><trkpt lat="44.0040619" lon="12.4818665"><ele>152.0</ele><time>2026-04-10T11:45:23.855Z</time></trkpt><trkpt lat="44.0041366" lon="12.4819731"><ele>151.6</ele><time>2026-04-10T11:45:24.854Z</time></trkpt><trkpt lat="44.0042132" lon="12.4820784"><ele>151.2</ele><time>2026-04-10T11:45:25.855Z</time></trkpt><trkpt lat="44.0042816" lon="12.4821841"><ele>150.8</ele><time>2026-04-10T11:45:26.855Z</time></trkpt><trkpt lat="44.0043529" lon="12.4822902"><ele>150.4</ele><time>2026-04-10T11:45:27.855Z</time></trkpt><trkpt lat="44.0044248" lon="12.4823992"><ele>150.0</ele><time>2026-04-10T11:45:28.855Z</time></trkpt><trkpt lat="44.0044982" lon="12.4825125"><ele>149.0</ele><time>2026-04-10T11:45:29.855Z</time></trkpt><trkpt lat="44.0045703" lon="12.48263"><ele>148.0</ele><time>2026-04-10T11:45:30.854Z</time></trkpt><trkpt lat="44.0046449" lon="12.4827454"><ele>147.0</ele><time>2026-04-10T11:45:31.855Z</time></trkpt><trkpt lat="44.004715" lon="12.4828506"><ele>146.0</ele><time>2026-04-10T11:45:32.855Z</time></trkpt><trkpt lat="44.0047827" lon="12.482956"><ele>145.0</ele><time>2026-04-10T11:45:33.856Z</time></trkpt><trkpt lat="44.0048552" lon="12.4830638"><ele>144.4</ele><time>2026-04-10T11:45:34.856Z</time></trkpt><trkpt lat="44.0049232" lon="12.4831715"><ele>143.8</ele><time>2026-04-10T11:45:35.855Z</time></trkpt><trkpt lat="44.0049921" lon="12.4832754"><ele>143.2</ele><time>2026-04-10T11:45:36.855Z</time></trkpt><trkpt lat="44.0050584" lon="12.4833662"><ele>142.6</ele><time>2026-04-10T11:45:37.856Z</time></trkpt><trkpt lat="44.005126" lon="12.4834522"><ele>142.0</ele><time>2026-04-10T11:45:38.855Z</time></trkpt><trkpt lat="44.0051819" lon="12.4835132"><ele>142.0</ele><time>2026-04-10T11:45:39.855Z</time></trkpt><trkpt lat="44.0052669" lon="12.4835303"><ele>142.0</ele><time>2026-04-10T11:45:41.855Z</time></trkpt><trkpt lat="44.0052943" lon="12.4834152"><ele>142.0</ele><time>2026-04-10T11:45:44.856Z</time></trkpt><trkpt lat="44.0052936" lon="12.4833051"><ele>142.0</ele><time>2026-04-10T11:45:46.854Z</time></trkpt><trkpt lat="44.0052829" lon="12.4831608"><ele>142.0</ele><time>2026-04-10T11:45:48.854Z</time></trkpt><trkpt lat="44.0052782" lon="12.482986"><ele>143.0</ele><time>2026-04-10T11:45:50.855Z</time></trkpt><trkpt lat="44.0052758" lon="12.4828917"><ele>144.0</ele><time>2026-04-10T11:45:51.855Z</time></trkpt><trkpt lat="44.0052761" lon="12.482802"><ele>145.0</ele><time>2026-04-10T11:45:52.855Z</time></trkpt><trkpt lat="44.0052837" lon="12.4826895"><ele>146.0</ele><time>2026-04-10T11:45:53.856Z</time></trkpt><trkpt lat="44.0052999" lon="12.4825788"><ele>147.0</ele><time>2026-04-10T11:45:54.854Z</time></trkpt><trkpt lat="44.0053298" lon="12.4824742"><ele>148.0</ele><time>2026-04-10T11:45:55.855Z</time></trkpt><trkpt lat="44.005371" lon="12.4823588"><ele>148.0</ele><time>2026-04-10T11:45:56.856Z</time></trkpt><trkpt lat="44.0054342" lon="12.4822113"><ele>148.0</ele><time>2026-04-10T11:45:57.855Z</time></trkpt><trkpt lat="44.0055049" lon="12.4820455"><ele>148.0</ele><time>2026-04-10T11:45:58.854Z</time></trkpt><trkpt lat="44.0055719" lon="12.4818857"><ele>148.0</ele><time>2026-04-10T11:45:59.856Z</time></trkpt><trkpt lat="44.0056276" lon="12.4817374"><ele>148.0</ele><time>2026-04-10T11:46:00.855Z</time></trkpt><trkpt lat="44.0056881" lon="12.4815953"><ele>148.0</ele><time>2026-04-10T11:46:01.855Z</time></trkpt><trkpt lat="44.0057449" lon="12.4814492"><ele>148.0</ele><time>2026-04-10T11:46:02.854Z</time></trkpt><trkpt lat="44.0058066" lon="12.4813143"><ele>148.0</ele><time>2026-04-10T11:46:03.855Z</time></trkpt><trkpt lat="44.0058715" lon="12.4811775"><ele>145.4</ele><time>2026-04-10T11:46:04.855Z</time></trkpt><trkpt lat="44.0059331" lon="12.4810517"><ele>142.8</ele><time>2026-04-10T11:46:05.854Z</time></trkpt><trkpt lat="44.0059962" lon="12.4809262"><ele>140.2</ele><time>2026-04-10T11:46:06.854Z</time></trkpt><trkpt lat="44.0060644" lon="12.4808068"><ele>137.6</ele><time>2026-04-10T11:46:07.854Z</time></trkpt><trkpt lat="44.0061371" lon="12.4806995"><ele>135.0</ele><time>2026-04-10T11:46:08.856Z</time></trkpt><trkpt lat="44.006219" lon="12.4805963"><ele>135.0</ele><time>2026-04-10T11:46:09.855Z</time></trkpt><trkpt lat="44.0063039" lon="12.4805088"><ele>135.0</ele><time>2026-04-10T11:46:10.856Z</time></trkpt><trkpt lat="44.0064006" lon="12.4804201"><ele>135.0</ele><time>2026-04-10T11:46:11.854Z</time></trkpt><trkpt lat="44.006495" lon="12.4803385"><ele>135.0</ele><time>2026-04-10T11:46:12.855Z</time></trkpt><trkpt lat="44.0065901" lon="12.4802539"><ele>135.0</ele><time>2026-04-10T11:46:13.856Z</time></trkpt><trkpt lat="44.0066861" lon="12.4801667"><ele>133.0</ele><time>2026-04-10T11:46:14.855Z</time></trkpt><trkpt lat="44.0067632" lon="12.4800715"><ele>131.0</ele><time>2026-04-10T11:46:15.854Z</time></trkpt><trkpt lat="44.0068406" lon="12.4799605"><ele>129.0</ele><time>2026-04-10T11:46:16.855Z</time></trkpt><trkpt lat="44.0069029" lon="12.4798491"><ele>127.0</ele><time>2026-04-10T11:46:17.854Z</time></trkpt><trkpt lat="44.0069768" lon="12.4797386"><ele>125.0</ele><time>2026-04-10T11:46:18.855Z</time></trkpt><trkpt lat="44.0070537" lon="12.4796396"><ele>123.4</ele><time>2026-04-10T11:46:19.855Z</time></trkpt><trkpt lat="44.0071352" lon="12.4795455"><ele>121.8</ele><time>2026-04-10T11:46:20.855Z</time></trkpt><trkpt lat="44.007221" lon="12.4794545"><ele>120.19999999999999</ele><time>2026-04-10T11:46:21.855Z</time></trkpt><trkpt lat="44.007314" lon="12.4793687"><ele>118.6</ele><time>2026-04-10T11:46:22.855Z</time></trkpt><trkpt lat="44.0074011" lon="12.4792876"><ele>117.0</ele><time>2026-04-10T11:46:23.855Z</time></trkpt><trkpt lat="44.0074829" lon="12.4792135"><ele>116.6</ele><time>2026-04-10T11:46:24.855Z</time></trkpt><trkpt lat="44.0075725" lon="12.4791247"><ele>116.19999999999999</ele><time>2026-04-10T11:46:25.856Z</time></trkpt><trkpt lat="44.0076606" lon="12.4790424"><ele>115.8</ele><time>2026-04-10T11:46:26.856Z</time></trkpt><trkpt lat="44.0077533" lon="12.4789611"><ele>115.4</ele><time>2026-04-10T11:46:27.855Z</time></trkpt><trkpt lat="44.00784" lon="12.4788885"><ele>115.0</ele><time>2026-04-10T11:46:28.854Z</time></trkpt><trkpt lat="44.0079259" lon="12.478826"><ele>115.00000000000001</ele><time>2026-04-10T11:46:29.855Z</time></trkpt><trkpt lat="44.008011" lon="12.4787749"><ele>115.0</ele><time>2026-04-10T11:46:30.855Z</time></trkpt><trkpt lat="44.0081016" lon="12.4787371"><ele>115.0</ele><time>2026-04-10T11:46:31.854Z</time></trkpt><trkpt lat="44.0081908" lon="12.4787095"><ele>115.0</ele><time>2026-04-10T11:46:32.854Z</time></trkpt><trkpt lat="44.0082768" lon="12.4786858"><ele>115.00000000000001</ele><time>2026-04-10T11:46:33.855Z</time></trkpt><trkpt lat="44.0083542" lon="12.4786608"><ele>115.0</ele><time>2026-04-10T11:46:34.856Z</time></trkpt><trkpt lat="44.0084399" lon="12.4786401"><ele>111.8</ele><time>2026-04-10T11:46:35.855Z</time></trkpt><trkpt lat="44.0085247" lon="12.4786224"><ele>108.6</ele><time>2026-04-10T11:46:36.856Z</time></trkpt><trkpt lat="44.0086056" lon="12.478618"><ele>105.4</ele><time>2026-04-10T11:46:37.855Z</time></trkpt><trkpt lat="44.0086954" lon="12.4786196"><ele>102.2</ele><time>2026-04-10T11:46:38.855Z</time></trkpt><trkpt lat="44.0088015" lon="12.4786307"><ele>99.0</ele><time>2026-04-10T11:46:39.854Z</time></trkpt><trkpt lat="44.0089216" lon="12.4786352"><ele>99.0</ele><time>2026-04-10T11:46:40.855Z</time></trkpt><trkpt lat="44.0090547" lon="12.4786441"><ele>99.0</ele><time>2026-04-10T11:46:41.856Z</time></trkpt><trkpt lat="44.0091756" lon="12.4786446"><ele>99.0</ele><time>2026-04-10T11:46:42.855Z</time></trkpt><trkpt lat="44.0092925" lon="12.4786493"><ele>99.0</ele><time>2026-04-10T11:46:43.857Z</time></trkpt><trkpt lat="44.0094017" lon="12.4786589"><ele>98.0</ele><time>2026-04-10T11:46:44.857Z</time></trkpt><trkpt lat="44.0094975" lon="12.4786645"><ele>97.0</ele><time>2026-04-10T11:46:45.855Z</time></trkpt><trkpt lat="44.0095834" lon="12.4786623"><ele>96.0</ele><time>2026-04-10T11:46:46.856Z</time></trkpt><trkpt lat="44.0096536" lon="12.478633"><ele>95.0</ele><time>2026-04-10T11:46:47.855Z</time></trkpt><trkpt lat="44.0097212" lon="12.4785791"><ele>94.0</ele><time>2026-04-10T11:46:48.856Z</time></trkpt><trkpt lat="44.0097987" lon="12.4785327"><ele>93.0</ele><time>2026-04-10T11:46:49.855Z</time></trkpt><trkpt lat="44.0098712" lon="12.4784904"><ele>93.0</ele><time>2026-04-10T11:46:50.854Z</time></trkpt><trkpt lat="44.0099568" lon="12.4784667"><ele>93.0</ele><time>2026-04-10T11:46:51.857Z</time></trkpt><trkpt lat="44.0100364" lon="12.4784625"><ele>93.0</ele><time>2026-04-10T11:46:52.855Z</time></trkpt><trkpt lat="44.0101164" lon="12.4784588"><ele>93.0</ele><time>2026-04-10T11:46:53.857Z</time></trkpt><trkpt lat="44.0101893" lon="12.4784385"><ele>93.0</ele><time>2026-04-10T11:46:54.855Z</time></trkpt><trkpt lat="44.0102558" lon="12.4784059"><ele>93.0</ele><time>2026-04-10T11:46:55.855Z</time></trkpt><trkpt lat="44.010317" lon="12.4783618"><ele>91.66666666666667</ele><time>2026-04-10T11:46:56.856Z</time></trkpt><trkpt lat="44.0103624" lon="12.4783002"><ele>90.33333333333333</ele><time>2026-04-10T11:46:57.854Z</time></trkpt><trkpt lat="44.0104039" lon="12.4782224"><ele>89.0</ele><time>2026-04-10T11:46:58.855Z</time></trkpt><trkpt lat="44.0104331" lon="12.4781368"><ele>87.66666666666666</ele><time>2026-04-10T11:46:59.854Z</time></trkpt><trkpt lat="44.0104626" lon="12.4780554"><ele>86.33333333333333</ele><time>2026-04-10T11:47:00.854Z</time></trkpt><trkpt lat="44.0105058" lon="12.4779031"><ele>85.0</ele><time>2026-04-10T11:47:02.855Z</time></trkpt><trkpt lat="44.0105352" lon="12.4778139"><ele>83.2</ele><time>2026-04-10T11:47:03.855Z</time></trkpt><trkpt lat="44.0105487" lon="12.4777279"><ele>81.4</ele><time>2026-04-10T11:47:04.855Z</time></trkpt><trkpt lat="44.0105216" lon="12.4775837"><ele>79.6</ele><time>2026-04-10T11:47:06.855Z</time></trkpt><trkpt lat="44.0104446" lon="12.4774672"><ele>77.8</ele><time>2026-04-10T11:47:08.854Z</time></trkpt><trkpt lat="44.0104165" lon="12.4773331"><ele>76.0</ele><time>2026-04-10T11:47:10.854Z</time></trkpt><trkpt lat="44.0104438" lon="12.4771806"><ele>75.83333333333333</ele><time>2026-04-10T11:47:12.855Z</time></trkpt><trkpt lat="44.0104658" lon="12.4770941"><ele>75.66666666666666</ele><time>2026-04-10T11:47:13.856Z</time></trkpt><trkpt lat="44.0104907" lon="12.4769956"><ele>75.5</ele><time>2026-04-10T11:47:14.856Z</time></trkpt><trkpt lat="44.0105137" lon="12.4768955"><ele>75.33333333333333</ele><time>2026-04-10T11:47:15.855Z</time></trkpt><trkpt lat="44.0105382" lon="12.4767972"><ele>75.16666666666667</ele><time>2026-04-10T11:47:16.854Z</time></trkpt><trkpt lat="44.0105695" lon="12.4766921"><ele>75.0</ele><time>2026-04-10T11:47:17.855Z</time></trkpt><trkpt lat="44.0106004" lon="12.4765888"><ele>75.0</ele><time>2026-04-10T11:47:18.855Z</time></trkpt><trkpt lat="44.0106301" lon="12.4764744"><ele>75.0</ele><time>2026-04-10T11:47:19.854Z</time></trkpt><trkpt lat="44.0106589" lon="12.4763591"><ele>75.0</ele><time>2026-04-10T11:47:20.854Z</time></trkpt><trkpt lat="44.0106939" lon="12.4762403"><ele>75.0</ele><time>2026-04-10T11:47:21.856Z</time></trkpt><trkpt lat="44.0107248" lon="12.4761195"><ele>75.0</ele><time>2026-04-10T11:47:22.855Z</time></trkpt><trkpt lat="44.0107495" lon="12.475995"><ele>76.0</ele><time>2026-04-10T11:47:23.856Z</time></trkpt><trkpt lat="44.0107723" lon="12.4758683"><ele>77.0</ele><time>2026-04-10T11:47:24.855Z</time></trkpt><trkpt lat="44.0108004" lon="12.4757458"><ele>78.0</ele><time>2026-04-10T11:47:25.854Z</time></trkpt><trkpt lat="44.0108216" lon="12.4756177"><ele>79.0</ele><time>2026-04-10T11:47:26.855Z</time></trkpt><trkpt lat="44.0108451" lon="12.475501"><ele>80.0</ele><time>2026-04-10T11:47:27.854Z</time></trkpt><trkpt lat="44.0108682" lon="12.4753862"><ele>82.0</ele><time>2026-04-10T11:47:28.855Z</time></trkpt><trkpt lat="44.0108841" lon="12.4752705"><ele>84.0</ele><time>2026-04-10T11:47:29.854Z</time></trkpt><trkpt lat="44.0109001" lon="12.4751544"><ele>86.0</ele><time>2026-04-10T11:47:30.854Z</time></trkpt><trkpt lat="44.0109128" lon="12.4750411"><ele>88.0</ele><time>2026-04-10T11:47:31.856Z</time></trkpt><trkpt lat="44.0109233" lon="12.4749237"><ele>90.0</ele><time>2026-04-10T11:47:32.856Z</time></trkpt><trkpt lat="44.0109364" lon="12.4748157"><ele>92.0</ele><time>2026-04-10T11:47:33.856Z</time></trkpt><trkpt lat="44.0109454" lon="12.4746919"><ele>93.5</ele><time>2026-04-10T11:47:34.855Z</time></trkpt><trkpt lat="44.0109565" lon="12.4745692"><ele>95.0</ele><time>2026-04-10T11:47:35.854Z</time></trkpt><trkpt lat="44.0109668" lon="12.4744458"><ele>96.5</ele><time>2026-04-10T11:47:36.855Z</time></trkpt><trkpt lat="44.0109761" lon="12.4743188"><ele>98.0</ele><time>2026-04-10T11:47:37.855Z</time></trkpt><trkpt lat="44.0109873" lon="12.4742138"><ele>99.49999999999999</ele><time>2026-04-10T11:47:38.856Z</time></trkpt><trkpt lat="44.010999" lon="12.4741064"><ele>101.0</ele><time>2026-04-10T11:47:39.856Z</time></trkpt><trkpt lat="44.0110112" lon="12.4739993"><ele>100.99999999999999</ele><time>2026-04-10T11:47:40.854Z</time></trkpt><trkpt lat="44.0110245" lon="12.4738865"><ele>101.0</ele><time>2026-04-10T11:47:41.855Z</time></trkpt><trkpt lat="44.0110434" lon="12.4737821"><ele>101.0</ele><time>2026-04-10T11:47:42.856Z</time></trkpt><trkpt lat="44.0110676" lon="12.4736659"><ele>101.0</ele><time>2026-04-10T11:47:43.856Z</time></trkpt><trkpt lat="44.0110928" lon="12.4735473"><ele>100.99999999999999</ele><time>2026-04-10T11:47:44.855Z</time></trkpt><trkpt lat="44.011121" lon="12.4734355"><ele>101.0</ele><time>2026-04-10T11:47:45.855Z</time></trkpt><trkpt lat="44.0111412" lon="12.4733172"><ele>102.66666666666666</ele><time>2026-04-10T11:47:46.855Z</time></trkpt><trkpt lat="44.0111577" lon="12.4732016"><ele>104.33333333333333</ele><time>2026-04-10T11:47:47.854Z</time></trkpt><trkpt lat="44.0111724" lon="12.4730906"><ele>106.0</ele><time>2026-04-10T11:47:48.855Z</time></trkpt><trkpt lat="44.011175" lon="12.4729709"><ele>107.66666666666666</ele><time>2026-04-10T11:47:49.854Z</time></trkpt><trkpt lat="44.0111722" lon="12.4728479"><ele>109.33333333333333</ele><time>2026-04-10T11:47:50.855Z</time></trkpt><trkpt lat="44.0111686" lon="12.4727409"><ele>111.0</ele><time>2026-04-10T11:47:51.854Z</time></trkpt><trkpt lat="44.0111572" lon="12.4726285"><ele>112.0</ele><time>2026-04-10T11:47:52.855Z</time></trkpt><trkpt lat="44.0111474" lon="12.4725173"><ele>113.0</ele><time>2026-04-10T11:47:53.855Z</time></trkpt><trkpt lat="44.0111385" lon="12.472404"><ele>114.0</ele><time>2026-04-10T11:47:54.855Z</time></trkpt><trkpt lat="44.0111236" lon="12.4722853"><ele>115.0</ele><time>2026-04-10T11:47:55.856Z</time></trkpt><trkpt lat="44.0111077" lon="12.4721642"><ele>116.0</ele><time>2026-04-10T11:47:56.855Z</time></trkpt><trkpt lat="44.0110876" lon="12.4720452"><ele>117.0</ele><time>2026-04-10T11:47:57.855Z</time></trkpt><trkpt lat="44.0110575" lon="12.4719346"><ele>117.85714285714286</ele><time>2026-04-10T11:47:58.856Z</time></trkpt><trkpt lat="44.0110201" lon="12.4718539"><ele>118.71428571428572</ele><time>2026-04-10T11:47:59.854Z</time></trkpt><trkpt lat="44.0109762" lon="12.4717848"><ele>119.57142857142858</ele><time>2026-04-10T11:48:00.855Z</time></trkpt><trkpt lat="44.0109386" lon="12.4717045"><ele>120.42857142857144</ele><time>2026-04-10T11:48:01.854Z</time></trkpt><trkpt lat="44.0109071" lon="12.471606"><ele>121.28571428571429</ele><time>2026-04-10T11:48:02.855Z</time></trkpt><trkpt lat="44.0108787" lon="12.4715026"><ele>122.14285714285717</ele><time>2026-04-10T11:48:03.855Z</time></trkpt><trkpt lat="44.0108542" lon="12.471401"><ele>123.00000000000001</ele><time>2026-04-10T11:48:04.855Z</time></trkpt><trkpt lat="44.0108357" lon="12.471299"><ele>123.0</ele><time>2026-04-10T11:48:05.854Z</time></trkpt><trkpt lat="44.0108116" lon="12.4711459"><ele>123.00000000000001</ele><time>2026-04-10T11:48:07.854Z</time></trkpt><trkpt lat="44.0107688" lon="12.4710447"><ele>123.00000000000001</ele><time>2026-04-10T11:48:09.854Z</time></trkpt><trkpt lat="44.0106856" lon="12.471038"><ele>123.0</ele><time>2026-04-10T11:48:11.855Z</time></trkpt><trkpt lat="44.0105618" lon="12.4710043"><ele>123.0</ele><time>2026-04-10T11:48:13.855Z</time></trkpt><trkpt lat="44.0104983" lon="12.4709834"><ele>123.0</ele><time>2026-04-10T11:48:14.855Z</time></trkpt><trkpt lat="44.0104311" lon="12.4709556"><ele>123.0</ele><time>2026-04-10T11:48:15.854Z</time></trkpt><trkpt lat="44.0103628" lon="12.4709314"><ele>123.0</ele><time>2026-04-10T11:48:16.854Z</time></trkpt><trkpt lat="44.0102956" lon="12.4709019"><ele>123.0</ele><time>2026-04-10T11:48:17.855Z</time></trkpt><trkpt lat="44.0101762" lon="12.4708521"><ele>123.0</ele><time>2026-04-10T11:48:19.855Z</time></trkpt><trkpt lat="44.0100812" lon="12.4708448"><ele>123.0</ele><time>2026-04-10T11:48:21.854Z</time></trkpt><trkpt lat="44.0100387" lon="12.4709483"><ele>123.0</ele><time>2026-04-10T11:48:23.855Z</time></trkpt><trkpt lat="44.0100071" lon="12.4711124"><ele>123.0</ele><time>2026-04-10T11:48:25.855Z</time></trkpt><trkpt lat="44.0099914" lon="12.4711993"><ele>123.0</ele><time>2026-04-10T11:48:26.855Z</time></trkpt><trkpt lat="44.0099751" lon="12.4712857"><ele>123.0</ele><time>2026-04-10T11:48:27.856Z</time></trkpt><trkpt lat="44.009958" lon="12.4713762"><ele>123.0</ele><time>2026-04-10T11:48:28.856Z</time></trkpt><trkpt lat="44.009903" lon="12.471515"><ele>123.0</ele><time>2026-04-10T11:48:30.855Z</time></trkpt><trkpt lat="44.0098269" lon="12.4715767"><ele>120.33333333333333</ele><time>2026-04-10T11:48:33.855Z</time></trkpt><trkpt lat="44.0097386" lon="12.471582"><ele>117.66666666666666</ele><time>2026-04-10T11:48:35.854Z</time></trkpt><trkpt lat="44.0096309" lon="12.4715818"><ele>115.0</ele><time>2026-04-10T11:48:37.854Z</time></trkpt><trkpt lat="44.0095664" lon="12.4715816"><ele>112.33333333333333</ele><time>2026-04-10T11:48:38.855Z</time></trkpt><trkpt lat="44.0094965" lon="12.4715782"><ele>109.66666666666666</ele><time>2026-04-10T11:48:39.855Z</time></trkpt><trkpt lat="44.0094299" lon="12.4715851"><ele>107.0</ele><time>2026-04-10T11:48:40.854Z</time></trkpt><trkpt lat="44.0093654" lon="12.4716062"><ele>107.00000000000001</ele><time>2026-04-10T11:48:41.856Z</time></trkpt><trkpt lat="44.0092916" lon="12.4716307"><ele>107.0</ele><time>2026-04-10T11:48:42.854Z</time></trkpt><trkpt lat="44.009219" lon="12.4716691"><ele>107.0</ele><time>2026-04-10T11:48:43.855Z</time></trkpt><trkpt lat="44.0091555" lon="12.4717148"><ele>107.0</ele><time>2026-04-10T11:48:44.855Z</time></trkpt><trkpt lat="44.0091073" lon="12.4717717"><ele>107.0</ele><time>2026-04-10T11:48:45.856Z</time></trkpt><trkpt lat="44.009052" lon="12.4718247"><ele>107.00000000000001</ele><time>2026-04-10T11:48:46.854Z</time></trkpt><trkpt lat="44.0090025" lon="12.4718983"><ele>107.0</ele><time>2026-04-10T11:48:47.855Z</time></trkpt><trkpt lat="44.0089544" lon="12.4719729"><ele>106.85714285714286</ele><time>2026-04-10T11:48:48.855Z</time></trkpt><trkpt lat="44.0089086" lon="12.4720549"><ele>106.71428571428572</ele><time>2026-04-10T11:48:49.855Z</time></trkpt><trkpt lat="44.0088677" lon="12.4721376"><ele>106.57142857142858</ele><time>2026-04-10T11:48:50.854Z</time></trkpt><trkpt lat="44.0088312" lon="12.4722285"><ele>106.42857142857143</ele><time>2026-04-10T11:48:51.855Z</time></trkpt><trkpt lat="44.0088005" lon="12.4723232"><ele>106.28571428571428</ele><time>2026-04-10T11:48:52.855Z</time></trkpt><trkpt lat="44.0087717" lon="12.4724219"><ele>106.14285714285715</ele><time>2026-04-10T11:48:53.855Z</time></trkpt><trkpt lat="44.0087459" lon="12.4725045"><ele>106.0</ele><time>2026-04-10T11:48:54.855Z</time></trkpt><trkpt lat="44.0087091" lon="12.4726041"><ele>106.00000000000001</ele><time>2026-04-10T11:48:55.855Z</time></trkpt><trkpt lat="44.008674" lon="12.4727035"><ele>106.0</ele><time>2026-04-10T11:48:56.855Z</time></trkpt><trkpt lat="44.0086383" lon="12.4728041"><ele>106.0</ele><time>2026-04-10T11:48:57.855Z</time></trkpt><trkpt lat="44.0086122" lon="12.4729057"><ele>106.0</ele><time>2026-04-10T11:48:58.856Z</time></trkpt><trkpt lat="44.008593" lon="12.4729992"><ele>106.00000000000001</ele><time>2026-04-10T11:48:59.854Z</time></trkpt><trkpt lat="44.0085718" lon="12.4731554"><ele>106.0</ele><time>2026-04-10T11:49:01.854Z</time></trkpt><trkpt lat="44.0085159" lon="12.4732369"><ele>106.16666666666667</ele><time>2026-04-10T11:49:03.855Z</time></trkpt><trkpt lat="44.0084311" lon="12.4732613"><ele>106.33333333333334</ele><time>2026-04-10T11:49:05.855Z</time></trkpt><trkpt lat="44.0083214" lon="12.4733057"><ele>106.5</ele><time>2026-04-10T11:49:07.854Z</time></trkpt><trkpt lat="44.0082592" lon="12.4733431"><ele>106.66666666666666</ele><time>2026-04-10T11:49:08.856Z</time></trkpt><trkpt lat="44.0081939" lon="12.4733795"><ele>106.83333333333333</ele><time>2026-04-10T11:49:09.856Z</time></trkpt><trkpt lat="44.0081332" lon="12.4734144"><ele>107.0</ele><time>2026-04-10T11:49:10.855Z</time></trkpt><trkpt lat="44.0080724" lon="12.4734449"><ele>106.99999999999999</ele><time>2026-04-10T11:49:11.855Z</time></trkpt><trkpt lat="44.0080084" lon="12.4734827"><ele>107.0</ele><time>2026-04-10T11:49:12.854Z</time></trkpt><trkpt lat="44.0079401" lon="12.4735268"><ele>107.0</ele><time>2026-04-10T11:49:13.855Z</time></trkpt><trkpt lat="44.0078696" lon="12.4735716"><ele>107.0</ele><time>2026-04-10T11:49:14.855Z</time></trkpt><trkpt lat="44.0077943" lon="12.4736153"><ele>106.99999999999999</ele><time>2026-04-10T11:49:15.855Z</time></trkpt><trkpt lat="44.0077189" lon="12.4736616"><ele>107.0</ele><time>2026-04-10T11:49:16.855Z</time></trkpt><trkpt lat="44.0076482" lon="12.4737118"><ele>105.39999999999999</ele><time>2026-04-10T11:49:17.855Z</time></trkpt><trkpt lat="44.0075406" lon="12.4737888"><ele>103.79999999999998</ele><time>2026-04-10T11:49:19.856Z</time></trkpt><trkpt lat="44.007434" lon="12.4738404"><ele>102.2</ele><time>2026-04-10T11:49:21.854Z</time></trkpt><trkpt lat="44.007316" lon="12.4738509"><ele>100.6</ele><time>2026-04-10T11:49:23.855Z</time></trkpt><trkpt lat="44.0072489" lon="12.4738434"><ele>99.0</ele><time>2026-04-10T11:49:24.855Z</time></trkpt><trkpt lat="44.0071752" lon="12.4738189"><ele>99.0</ele><time>2026-04-10T11:49:25.856Z</time></trkpt><trkpt lat="44.0071071" lon="12.4738104"><ele>99.0</ele><time>2026-04-10T11:49:26.857Z</time></trkpt><trkpt lat="44.0070395" lon="12.4737924"><ele>99.0</ele><time>2026-04-10T11:49:27.857Z</time></trkpt><trkpt lat="44.0069692" lon="12.473785"><ele>99.0</ele><time>2026-04-10T11:49:28.855Z</time></trkpt><trkpt lat="44.0068929" lon="12.4737706"><ele>99.0</ele><time>2026-04-10T11:49:29.855Z</time></trkpt><trkpt lat="44.0068155" lon="12.4737529"><ele>99.0</ele><time>2026-04-10T11:49:30.855Z</time></trkpt><trkpt lat="44.0067348" lon="12.4737363"><ele>99.0</ele><time>2026-04-10T11:49:31.855Z</time></trkpt><trkpt lat="44.0066574" lon="12.47372"><ele>99.0</ele><time>2026-04-10T11:49:32.854Z</time></trkpt><trkpt lat="44.0065866" lon="12.4737086"><ele>99.0</ele><time>2026-04-10T11:49:33.854Z</time></trkpt><trkpt lat="44.0064654" lon="12.4736966"><ele>99.0</ele><time>2026-04-10T11:49:35.856Z</time></trkpt><trkpt lat="44.0063788" lon="12.4736551"><ele>99.0</ele><time>2026-04-10T11:49:37.855Z</time></trkpt><trkpt lat="44.0063392" lon="12.4735556"><ele>99.0</ele><time>2026-04-10T11:49:40.856Z</time></trkpt><trkpt lat="44.0063887" lon="12.4734208"><ele>99.0</ele><time>2026-04-10T11:49:42.855Z</time></trkpt><trkpt lat="44.0064552" lon="12.4732538"><ele>99.0</ele><time>2026-04-10T11:49:44.856Z</time></trkpt><trkpt lat="44.0064853" lon="12.4731659"><ele>99.0</ele><time>2026-04-10T11:49:45.855Z</time></trkpt><trkpt lat="44.0065202" lon="12.4730737"><ele>99.0</ele><time>2026-04-10T11:49:46.854Z</time></trkpt><trkpt lat="44.0065496" lon="12.4729743"><ele>99.0</ele><time>2026-04-10T11:49:47.854Z</time></trkpt><trkpt lat="44.0065773" lon="12.4728635"><ele>99.0</ele><time>2026-04-10T11:49:48.854Z</time></trkpt><trkpt lat="44.0066039" lon="12.4727501"><ele>101.4</ele><time>2026-04-10T11:49:49.854Z</time></trkpt><trkpt lat="44.0066267" lon="12.472628"><ele>103.80000000000001</ele><time>2026-04-10T11:49:50.856Z</time></trkpt><trkpt lat="44.0066507" lon="12.4725007"><ele>106.19999999999999</ele><time>2026-04-10T11:49:51.855Z</time></trkpt><trkpt lat="44.0066712" lon="12.4723742"><ele>108.6</ele><time>2026-04-10T11:49:52.854Z</time></trkpt><trkpt lat="44.0066872" lon="12.4722494"><ele>111.0</ele><time>2026-04-10T11:49:53.855Z</time></trkpt><trkpt lat="44.0067158" lon="12.4721266"><ele>113.5</ele><time>2026-04-10T11:49:54.855Z</time></trkpt><trkpt lat="44.0067403" lon="12.4720058"><ele>116.0</ele><time>2026-04-10T11:49:55.855Z</time></trkpt><trkpt lat="44.0067625" lon="12.4718916"><ele>118.5</ele><time>2026-04-10T11:49:56.856Z</time></trkpt><trkpt lat="44.0067879" lon="12.4717866"><ele>121.0</ele><time>2026-04-10T11:49:57.855Z</time></trkpt><trkpt lat="44.0068052" lon="12.471679"><ele>123.5</ele><time>2026-04-10T11:49:58.856Z</time></trkpt><trkpt lat="44.0068311" lon="12.4715942"><ele>126.0</ele><time>2026-04-10T11:49:59.856Z</time></trkpt><trkpt lat="44.0068963" lon="12.471486"><ele>126.0</ele><time>2026-04-10T11:50:01.855Z</time></trkpt><trkpt lat="44.0069589" lon="12.4714634"><ele>126.0</ele><time>2026-04-10T11:50:02.855Z</time></trkpt><trkpt lat="44.0070635" lon="12.4714027"><ele>126.0</ele><time>2026-04-10T11:50:04.854Z</time></trkpt><trkpt lat="44.0071243" lon="12.4713608"><ele>126.0</ele><time>2026-04-10T11:50:05.855Z</time></trkpt><trkpt lat="44.0071817" lon="12.4713147"><ele>126.0</ele><time>2026-04-10T11:50:06.855Z</time></trkpt><trkpt lat="44.0072365" lon="12.4712705"><ele>126.0</ele><time>2026-04-10T11:50:07.855Z</time></trkpt><trkpt lat="44.0072875" lon="12.4712171"><ele>126.0</ele><time>2026-04-10T11:50:08.857Z</time></trkpt><trkpt lat="44.0073474" lon="12.471157"><ele>127.0</ele><time>2026-04-10T11:50:09.855Z</time></trkpt><trkpt lat="44.0074115" lon="12.4710935"><ele>128.0</ele><time>2026-04-10T11:50:10.855Z</time></trkpt><trkpt lat="44.0074776" lon="12.4710457"><ele>129.0</ele><time>2026-04-10T11:50:11.855Z</time></trkpt><trkpt lat="44.0075349" lon="12.4709983"><ele>130.0</ele><time>2026-04-10T11:50:12.856Z</time></trkpt><trkpt lat="44.0075979" lon="12.4709624"><ele>131.0</ele><time>2026-04-10T11:50:13.854Z</time></trkpt><trkpt lat="44.0076672" lon="12.4709157"><ele>132.0</ele><time>2026-04-10T11:50:14.856Z</time></trkpt><trkpt lat="44.0077385" lon="12.4708637"><ele>133.0</ele><time>2026-04-10T11:50:15.856Z</time></trkpt><trkpt lat="44.0078106" lon="12.4708136"><ele>133.0</ele><time>2026-04-10T11:50:16.854Z</time></trkpt><trkpt lat="44.0078819" lon="12.4707613"><ele>133.0</ele><time>2026-04-10T11:50:17.854Z</time></trkpt><trkpt lat="44.0079476" lon="12.4707101"><ele>133.0</ele><time>2026-04-10T11:50:18.854Z</time></trkpt><trkpt lat="44.0080188" lon="12.4706459"><ele>133.0</ele><time>2026-04-10T11:50:19.855Z</time></trkpt><trkpt lat="44.0080779" lon="12.4705966"><ele>133.0</ele><time>2026-04-10T11:50:20.855Z</time></trkpt><trkpt lat="44.0081447" lon="12.4705593"><ele>133.0</ele><time>2026-04-10T11:50:21.856Z</time></trkpt><trkpt lat="44.008208" lon="12.4705153"><ele>133.0</ele><time>2026-04-10T11:50:22.854Z</time></trkpt><trkpt lat="44.0082848" lon="12.4704674"><ele>133.0</ele><time>2026-04-10T11:50:23.854Z</time></trkpt><trkpt lat="44.0083581" lon="12.4704352"><ele>133.0</ele><time>2026-04-10T11:50:24.856Z</time></trkpt><trkpt lat="44.0084318" lon="12.4704135"><ele>133.0</ele><time>2026-04-10T11:50:25.856Z</time></trkpt><trkpt lat="44.0085097" lon="12.4703941"><ele>133.0</ele><time>2026-04-10T11:50:26.856Z</time></trkpt><trkpt lat="44.0085726" lon="12.4703567"><ele>133.0</ele><time>2026-04-10T11:50:27.855Z</time></trkpt><trkpt lat="44.0086338" lon="12.4703144"><ele>133.0</ele><time>2026-04-10T11:50:28.854Z</time></trkpt><trkpt lat="44.0087045" lon="12.4702734"><ele>133.0</ele><time>2026-04-10T11:50:29.855Z</time></trkpt><trkpt lat="44.0087693" lon="12.4702279"><ele>133.0</ele><time>2026-04-10T11:50:30.856Z</time></trkpt><trkpt lat="44.0088303" lon="12.4701967"><ele>133.0</ele><time>2026-04-10T11:50:31.855Z</time></trkpt><trkpt lat="44.008896" lon="12.4701773"><ele>133.0</ele><time>2026-04-10T11:50:32.855Z</time></trkpt><trkpt lat="44.0089671" lon="12.470162"><ele>133.0</ele><time>2026-04-10T11:50:33.857Z</time></trkpt><trkpt lat="44.0090456" lon="12.4701528"><ele>133.0</ele><time>2026-04-10T11:50:34.855Z</time></trkpt><trkpt lat="44.0091278" lon="12.4701552"><ele>131.66666666666669</ele><time>2026-04-10T11:50:35.855Z</time></trkpt><trkpt lat="44.0092077" lon="12.4701712"><ele>130.33333333333334</ele><time>2026-04-10T11:50:36.854Z</time></trkpt><trkpt lat="44.00929" lon="12.4702089"><ele>129.0</ele><time>2026-04-10T11:50:37.855Z</time></trkpt><trkpt lat="44.0093666" lon="12.4702506"><ele>127.66666666666666</ele><time>2026-04-10T11:50:38.856Z</time></trkpt><trkpt lat="44.0094481" lon="12.4702984"><ele>126.33333333333333</ele><time>2026-04-10T11:50:39.854Z</time></trkpt><trkpt lat="44.0095282" lon="12.470352"><ele>125.0</ele><time>2026-04-10T11:50:40.855Z</time></trkpt><trkpt lat="44.0095942" lon="12.4704063"><ele>124.66666666666666</ele><time>2026-04-10T11:50:41.856Z</time></trkpt><trkpt lat="44.0096608" lon="12.4704614"><ele>124.33333333333333</ele><time>2026-04-10T11:50:42.855Z</time></trkpt><trkpt lat="44.0097201" lon="12.4705163"><ele>124.0</ele><time>2026-04-10T11:50:43.855Z</time></trkpt><trkpt lat="44.0097799" lon="12.4705681"><ele>123.66666666666666</ele><time>2026-04-10T11:50:44.855Z</time></trkpt><trkpt lat="44.0098505" lon="12.4706189"><ele>123.33333333333333</ele><time>2026-04-10T11:50:45.854Z</time></trkpt><trkpt lat="44.0099232" lon="12.4706732"><ele>123.0</ele><time>2026-04-10T11:50:46.856Z</time></trkpt><trkpt lat="44.0099957" lon="12.47072"><ele>123.0</ele><time>2026-04-10T11:50:47.854Z</time></trkpt><trkpt lat="44.0100599" lon="12.4707668"><ele>123.0</ele><time>2026-04-10T11:50:48.854Z</time></trkpt><trkpt lat="44.0101252" lon="12.4708044"><ele>123.0</ele><time>2026-04-10T11:50:49.854Z</time></trkpt><trkpt lat="44.0102" lon="12.4708392"><ele>123.0</ele><time>2026-04-10T11:50:50.854Z</time></trkpt><trkpt lat="44.0102765" lon="12.4708739"><ele>123.0</ele><time>2026-04-10T11:50:51.854Z</time></trkpt><trkpt lat="44.0103516" lon="12.4709163"><ele>123.0</ele><time>2026-04-10T11:50:52.855Z</time></trkpt><trkpt lat="44.0104278" lon="12.4709507"><ele>123.0</ele><time>2026-04-10T11:50:53.855Z</time></trkpt><trkpt lat="44.0104909" lon="12.4709771"><ele>123.00000000000001</ele><time>2026-04-10T11:50:54.855Z</time></trkpt><trkpt lat="44.0105999" lon="12.4710104"><ele>123.00000000000001</ele><time>2026-04-10T11:50:56.855Z</time></trkpt><trkpt lat="44.0107079" lon="12.4710349"><ele>123.0</ele><time>2026-04-10T11:50:58.856Z</time></trkpt><trkpt lat="44.0107902" lon="12.471042"><ele>123.0</ele><time>2026-04-10T11:51:00.856Z</time></trkpt><trkpt lat="44.0108276" lon="12.4709289"><ele>123.0</ele><time>2026-04-10T11:51:03.854Z</time></trkpt><trkpt lat="44.0108071" lon="12.4707867"><ele>123.0</ele><time>2026-04-10T11:51:05.855Z</time></trkpt><trkpt lat="44.0107918" lon="12.4706954"><ele>123.0</ele><time>2026-04-10T11:51:06.856Z</time></trkpt><trkpt lat="44.0107689" lon="12.4705944"><ele>123.0</ele><time>2026-04-10T11:51:07.855Z</time></trkpt><trkpt lat="44.0107628" lon="12.4704977"><ele>123.0</ele><time>2026-04-10T11:51:08.856Z</time></trkpt><trkpt lat="44.010759" lon="12.4703854"><ele>123.0</ele><time>2026-04-10T11:51:09.854Z</time></trkpt><trkpt lat="44.0107579" lon="12.4702691"><ele>124.33333333333333</ele><time>2026-04-10T11:51:10.854Z</time></trkpt><trkpt lat="44.0107571" lon="12.4701608"><ele>125.66666666666666</ele><time>2026-04-10T11:51:11.856Z</time></trkpt><trkpt lat="44.0107387" lon="12.4700564"><ele>127.0</ele><time>2026-04-10T11:51:12.855Z</time></trkpt><trkpt lat="44.0106944" lon="12.469967"><ele>128.33333333333331</ele><time>2026-04-10T11:51:13.856Z</time></trkpt><trkpt lat="44.0106156" lon="12.4698835"><ele>129.66666666666666</ele><time>2026-04-10T11:51:14.855Z</time></trkpt><trkpt lat="44.0105593" lon="12.4698091"><ele>131.0</ele><time>2026-04-10T11:51:15.855Z</time></trkpt><trkpt lat="44.0105063" lon="12.4697369"><ele>131.0</ele><time>2026-04-10T11:51:16.855Z</time></trkpt><trkpt lat="44.010464" lon="12.4696599"><ele>131.0</ele><time>2026-04-10T11:51:17.855Z</time></trkpt><trkpt lat="44.0104718" lon="12.4694909"><ele>131.0</ele><time>2026-04-10T11:51:19.856Z</time></trkpt><trkpt lat="44.0104977" lon="12.4694049"><ele>131.0</ele><time>2026-04-10T11:51:20.856Z</time></trkpt><trkpt lat="44.0105485" lon="12.4693046"><ele>131.0</ele><time>2026-04-10T11:51:21.855Z</time></trkpt><trkpt lat="44.0105937" lon="12.4691944"><ele>131.0</ele><time>2026-04-10T11:51:22.855Z</time></trkpt><trkpt lat="44.010643" lon="12.4690807"><ele>132.0</ele><time>2026-04-10T11:51:23.854Z</time></trkpt><trkpt lat="44.0106922" lon="12.4689635"><ele>133.0</ele><time>2026-04-10T11:51:24.855Z</time></trkpt><trkpt lat="44.0107347" lon="12.468856"><ele>134.0</ele><time>2026-04-10T11:51:25.856Z</time></trkpt><trkpt lat="44.0107751" lon="12.4687537"><ele>135.0</ele><time>2026-04-10T11:51:26.855Z</time></trkpt><trkpt lat="44.0108104" lon="12.4686565"><ele>136.0</ele><time>2026-04-10T11:51:27.855Z</time></trkpt><trkpt lat="44.0108484" lon="12.4685638"><ele>137.0</ele><time>2026-04-10T11:51:28.855Z</time></trkpt><trkpt lat="44.0108872" lon="12.4684537"><ele>137.0</ele><time>2026-04-10T11:51:29.856Z</time></trkpt><trkpt lat="44.0109286" lon="12.4683514"><ele>137.0</ele><time>2026-04-10T11:51:30.855Z</time></trkpt><trkpt lat="44.0109669" lon="12.4682444"><ele>137.0</ele><time>2026-04-10T11:51:31.856Z</time></trkpt><trkpt lat="44.011002" lon="12.4681488"><ele>137.0</ele><time>2026-04-10T11:51:32.854Z</time></trkpt><trkpt lat="44.0110313" lon="12.4680544"><ele>137.0</ele><time>2026-04-10T11:51:33.854Z</time></trkpt><trkpt lat="44.0110652" lon="12.4679661"><ele>137.0</ele><time>2026-04-10T11:51:34.854Z</time></trkpt><trkpt lat="44.0110965" lon="12.4678808"><ele>137.4</ele><time>2026-04-10T11:51:35.855Z</time></trkpt><trkpt lat="44.0111296" lon="12.4677986"><ele>137.79999999999998</ele><time>2026-04-10T11:51:36.854Z</time></trkpt><trkpt lat="44.0111669" lon="12.467721"><ele>138.2</ele><time>2026-04-10T11:51:37.855Z</time></trkpt><trkpt lat="44.0112414" lon="12.4676029"><ele>138.6</ele><time>2026-04-10T11:51:39.854Z</time></trkpt><trkpt lat="44.0113268" lon="12.4675141"><ele>139.0</ele><time>2026-04-10T11:51:41.854Z</time></trkpt><trkpt lat="44.0114213" lon="12.4674013"><ele>139.0</ele><time>2026-04-10T11:51:43.855Z</time></trkpt><trkpt lat="44.0114671" lon="12.4673247"><ele>139.0</ele><time>2026-04-10T11:51:44.855Z</time></trkpt><trkpt lat="44.0115083" lon="12.4672278"><ele>139.0</ele><time>2026-04-10T11:51:45.854Z</time></trkpt><trkpt lat="44.0115349" lon="12.4671257"><ele>139.0</ele><time>2026-04-10T11:51:46.856Z</time></trkpt><trkpt lat="44.0115545" lon="12.4670217"><ele>139.0</ele><time>2026-04-10T11:51:47.854Z</time></trkpt><trkpt lat="44.0115613" lon="12.4669179"><ele>139.0</ele><time>2026-04-10T11:51:48.855Z</time></trkpt><trkpt lat="44.0115614" lon="12.4668076"><ele>138.4</ele><time>2026-04-10T11:51:49.854Z</time></trkpt><trkpt lat="44.0115503" lon="12.4666965"><ele>137.8</ele><time>2026-04-10T11:51:50.854Z</time></trkpt><trkpt lat="44.011518" lon="12.4665771"><ele>137.2</ele><time>2026-04-10T11:51:51.856Z</time></trkpt><trkpt lat="44.0114835" lon="12.4664592"><ele>136.6</ele><time>2026-04-10T11:51:52.854Z</time></trkpt><trkpt lat="44.0114321" lon="12.4663361"><ele>136.0</ele><time>2026-04-10T11:51:53.856Z</time></trkpt><trkpt lat="44.0113605" lon="12.4661918"><ele>134.4</ele><time>2026-04-10T11:51:54.854Z</time></trkpt><trkpt lat="44.0113095" lon="12.4660483"><ele>132.8</ele><time>2026-04-10T11:51:55.856Z</time></trkpt><trkpt lat="44.0112627" lon="12.4659078"><ele>131.20000000000002</ele><time>2026-04-10T11:51:56.855Z</time></trkpt><trkpt lat="44.0112249" lon="12.4657774"><ele>129.6</ele><time>2026-04-10T11:51:57.857Z</time></trkpt><trkpt lat="44.0111924" lon="12.4656503"><ele>128.0</ele><time>2026-04-10T11:51:58.855Z</time></trkpt><trkpt lat="44.0111662" lon="12.4655244"><ele>126.99999999999999</ele><time>2026-04-10T11:51:59.854Z</time></trkpt><trkpt lat="44.0111416" lon="12.4653959"><ele>126.0</ele><time>2026-04-10T11:52:00.855Z</time></trkpt><trkpt lat="44.0111242" lon="12.4652742"><ele>125.0</ele><time>2026-04-10T11:52:01.855Z</time></trkpt><trkpt lat="44.011115" lon="12.4651577"><ele>124.0</ele><time>2026-04-10T11:52:02.855Z</time></trkpt><trkpt lat="44.0111144" lon="12.4650408"><ele>122.99999999999999</ele><time>2026-04-10T11:52:03.856Z</time></trkpt><trkpt lat="44.0111333" lon="12.4649226"><ele>122.0</ele><time>2026-04-10T11:52:04.854Z</time></trkpt><trkpt lat="44.0111482" lon="12.4647977"><ele>121.99999999999999</ele><time>2026-04-10T11:52:05.854Z</time></trkpt><trkpt lat="44.0111638" lon="12.4646671"><ele>122.0</ele><time>2026-04-10T11:52:06.855Z</time></trkpt><trkpt lat="44.0111689" lon="12.4645448"><ele>122.0</ele><time>2026-04-10T11:52:07.855Z</time></trkpt><trkpt lat="44.0111756" lon="12.4644221"><ele>122.0</ele><time>2026-04-10T11:52:08.855Z</time></trkpt><trkpt lat="44.0111519" lon="12.4643136"><ele>121.99999999999999</ele><time>2026-04-10T11:52:09.856Z</time></trkpt><trkpt lat="44.0111206" lon="12.4642109"><ele>122.0</ele><time>2026-04-10T11:52:10.854Z</time></trkpt><trkpt lat="44.0110753" lon="12.4641183"><ele>122.66666666666666</ele><time>2026-04-10T11:52:11.854Z</time></trkpt><trkpt lat="44.0110174" lon="12.4640333"><ele>123.33333333333333</ele><time>2026-04-10T11:52:12.855Z</time></trkpt><trkpt lat="44.0109706" lon="12.4639489"><ele>124.0</ele><time>2026-04-10T11:52:13.855Z</time></trkpt><trkpt lat="44.0109345" lon="12.4638741"><ele>124.66666666666666</ele><time>2026-04-10T11:52:14.855Z</time></trkpt><trkpt lat="44.0108715" lon="12.4637525"><ele>125.33333333333333</ele><time>2026-04-10T11:52:16.854Z</time></trkpt><trkpt lat="44.0107883" lon="12.4637115"><ele>126.0</ele><time>2026-04-10T11:52:18.854Z</time></trkpt><trkpt lat="44.010712" lon="12.4637346"><ele>124.85714285714286</ele><time>2026-04-10T11:52:20.854Z</time></trkpt><trkpt lat="44.0106529" lon="12.4637721"><ele>123.71428571428572</ele><time>2026-04-10T11:52:22.854Z</time></trkpt><trkpt lat="44.010616" lon="12.4636887"><ele>122.57142857142857</ele><time>2026-04-10T11:52:42.855Z</time></trkpt><trkpt lat="44.0105985" lon="12.4636025"><ele>121.42857142857143</ele><time>2026-04-10T11:52:44.854Z</time></trkpt><trkpt lat="44.010571" lon="12.4635193"><ele>120.28571428571429</ele><time>2026-04-10T11:52:46.854Z</time></trkpt><trkpt lat="44.0105452" lon="12.463415"><ele>119.14285714285714</ele><time>2026-04-10T11:52:48.854Z</time></trkpt><trkpt lat="44.0105088" lon="12.4633142"><ele>118.0</ele><time>2026-04-10T11:52:50.856Z</time></trkpt><trkpt lat="44.0104874" lon="12.4632139"><ele>118.00000000000001</ele><time>2026-04-10T11:52:52.854Z</time></trkpt><trkpt lat="44.0104676" lon="12.4630966"><ele>118.0</ele><time>2026-04-10T11:52:54.855Z</time></trkpt><trkpt lat="44.0104495" lon="12.4629876"><ele>118.0</ele><time>2026-04-10T11:52:56.854Z</time></trkpt><trkpt lat="44.0104427" lon="12.4628869"><ele>118.0</ele><time>2026-04-10T11:52:58.855Z</time></trkpt><trkpt lat="44.0104452" lon="12.4627804"><ele>118.00000000000001</ele><time>2026-04-10T11:53:00.854Z</time></trkpt><trkpt lat="44.0104795" lon="12.4626737"><ele>118.0</ele><time>2026-04-10T11:53:02.855Z</time></trkpt><trkpt lat="44.0105242" lon="12.4625962"><ele>117.83333333333334</ele><time>2026-04-10T11:53:04.855Z</time></trkpt><trkpt lat="44.0105869" lon="12.462564"><ele>117.66666666666667</ele><time>2026-04-10T11:53:07.855Z</time></trkpt><trkpt lat="44.0106421" lon="12.4625138"><ele>117.5</ele><time>2026-04-10T11:53:09.855Z</time></trkpt><trkpt lat="44.0106988" lon="12.4624308"><ele>117.33333333333334</ele><time>2026-04-10T11:53:11.855Z</time></trkpt><trkpt lat="44.0107562" lon="12.4623351"><ele>117.16666666666667</ele><time>2026-04-10T11:53:13.855Z</time></trkpt><trkpt lat="44.0108268" lon="12.4622284"><ele>117.0</ele><time>2026-04-10T11:53:15.854Z</time></trkpt><trkpt lat="44.0109066" lon="12.4621126"><ele>117.0</ele><time>2026-04-10T11:53:17.854Z</time></trkpt><trkpt lat="44.0109493" lon="12.4620403"><ele>117.0</ele><time>2026-04-10T11:53:18.856Z</time></trkpt><trkpt lat="44.0109922" lon="12.4619721"><ele>117.0</ele><time>2026-04-10T11:53:19.855Z</time></trkpt><trkpt lat="44.0110324" lon="12.4618887"><ele>117.0</ele><time>2026-04-10T11:53:20.855Z</time></trkpt><trkpt lat="44.0110757" lon="12.4617855"><ele>117.0</ele><time>2026-04-10T11:53:21.855Z</time></trkpt><trkpt lat="44.0111126" lon="12.4616794"><ele>117.0</ele><time>2026-04-10T11:53:22.854Z</time></trkpt><trkpt lat="44.0111469" lon="12.461574"><ele>117.0</ele><time>2026-04-10T11:53:23.855Z</time></trkpt><trkpt lat="44.0111726" lon="12.4614664"><ele>117.0</ele><time>2026-04-10T11:53:24.854Z</time></trkpt><trkpt lat="44.011187" lon="12.4613667"><ele>117.0</ele><time>2026-04-10T11:53:25.854Z</time></trkpt><trkpt lat="44.011172" lon="12.4612079"><ele>117.0</ele><time>2026-04-10T11:53:27.855Z</time></trkpt><trkpt lat="44.0111106" lon="12.4611499"><ele>117.0</ele><time>2026-04-10T11:53:29.855Z</time></trkpt><trkpt lat="44.01101" lon="12.4611726"><ele>117.0</ele><time>2026-04-10T11:53:31.854Z</time></trkpt><trkpt lat="44.010897" lon="12.4612144"><ele>115.33333333333333</ele><time>2026-04-10T11:53:33.856Z</time></trkpt><trkpt lat="44.010834" lon="12.4612366"><ele>113.66666666666666</ele><time>2026-04-10T11:53:34.854Z</time></trkpt><trkpt lat="44.0107592" lon="12.4612696"><ele>112.0</ele><time>2026-04-10T11:53:35.854Z</time></trkpt><trkpt lat="44.0106828" lon="12.4613054"><ele>110.33333333333333</ele><time>2026-04-10T11:53:36.854Z</time></trkpt><trkpt lat="44.0106054" lon="12.461342"><ele>108.66666666666666</ele><time>2026-04-10T11:53:37.854Z</time></trkpt><trkpt lat="44.0105359" lon="12.4613773"><ele>107.0</ele><time>2026-04-10T11:53:38.855Z</time></trkpt><trkpt lat="44.0104721" lon="12.4614204"><ele>106.49999999999999</ele><time>2026-04-10T11:53:39.855Z</time></trkpt><trkpt lat="44.0104022" lon="12.4614692"><ele>106.0</ele><time>2026-04-10T11:53:40.856Z</time></trkpt><trkpt lat="44.0103394" lon="12.4615307"><ele>105.5</ele><time>2026-04-10T11:53:41.857Z</time></trkpt><trkpt lat="44.0102785" lon="12.4616052"><ele>105.0</ele><time>2026-04-10T11:53:42.854Z</time></trkpt><trkpt lat="44.010218" lon="12.461697"><ele>104.49999999999999</ele><time>2026-04-10T11:53:43.855Z</time></trkpt><trkpt lat="44.0101589" lon="12.4617783"><ele>104.0</ele><time>2026-04-10T11:53:44.856Z</time></trkpt><trkpt lat="44.0100982" lon="12.4618802"><ele>104.0</ele><time>2026-04-10T11:53:45.855Z</time></trkpt><trkpt lat="44.0100358" lon="12.4619782"><ele>104.0</ele><time>2026-04-10T11:53:46.854Z</time></trkpt><trkpt lat="44.0099779" lon="12.4620884"><ele>104.0</ele><time>2026-04-10T11:53:47.855Z</time></trkpt><trkpt lat="44.0099159" lon="12.4621868"><ele>104.0</ele><time>2026-04-10T11:53:48.854Z</time></trkpt><trkpt lat="44.009857" lon="12.4622815"><ele>104.0</ele><time>2026-04-10T11:53:49.856Z</time></trkpt><trkpt lat="44.0097921" lon="12.4623737"><ele>103.16666666666666</ele><time>2026-04-10T11:53:50.856Z</time></trkpt><trkpt lat="44.0097356" lon="12.4624554"><ele>102.33333333333333</ele><time>2026-04-10T11:53:51.855Z</time></trkpt><trkpt lat="44.0096724" lon="12.462538"><ele>101.5</ele><time>2026-04-10T11:53:52.854Z</time></trkpt><trkpt lat="44.0096127" lon="12.4626125"><ele>100.66666666666666</ele><time>2026-04-10T11:53:53.855Z</time></trkpt><trkpt lat="44.0095489" lon="12.4626748"><ele>99.83333333333333</ele><time>2026-04-10T11:53:54.855Z</time></trkpt><trkpt lat="44.0094813" lon="12.462721"><ele>99.0</ele><time>2026-04-10T11:53:55.855Z</time></trkpt><trkpt lat="44.0094129" lon="12.4627462"><ele>99.0</ele><time>2026-04-10T11:53:56.854Z</time></trkpt><trkpt lat="44.0093312" lon="12.4627211"><ele>99.0</ele><time>2026-04-10T11:53:57.856Z</time></trkpt><trkpt lat="44.0092464" lon="12.4626836"><ele>99.0</ele><time>2026-04-10T11:53:58.855Z</time></trkpt><trkpt lat="44.0091601" lon="12.4626312"><ele>99.0</ele><time>2026-04-10T11:53:59.854Z</time></trkpt><trkpt lat="44.0090721" lon="12.4625498"><ele>99.0</ele><time>2026-04-10T11:54:00.856Z</time></trkpt><trkpt lat="44.0089833" lon="12.4624651"><ele>100.6</ele><time>2026-04-10T11:54:01.854Z</time></trkpt><trkpt lat="44.0089085" lon="12.4623605"><ele>102.2</ele><time>2026-04-10T11:54:02.855Z</time></trkpt><trkpt lat="44.0088357" lon="12.4622549"><ele>103.79999999999998</ele><time>2026-04-10T11:54:03.855Z</time></trkpt><trkpt lat="44.0087632" lon="12.4621508"><ele>105.39999999999999</ele><time>2026-04-10T11:54:04.856Z</time></trkpt><trkpt lat="44.00868" lon="12.4620651"><ele>107.0</ele><time>2026-04-10T11:54:05.854Z</time></trkpt><trkpt lat="44.008598" lon="12.4619829"><ele>107.5</ele><time>2026-04-10T11:54:06.855Z</time></trkpt><trkpt lat="44.0085056" lon="12.4619037"><ele>108.0</ele><time>2026-04-10T11:54:07.855Z</time></trkpt><trkpt lat="44.0084001" lon="12.4618147"><ele>108.5</ele><time>2026-04-10T11:54:08.855Z</time></trkpt><trkpt lat="44.0083028" lon="12.4617249"><ele>109.0</ele><time>2026-04-10T11:54:09.854Z</time></trkpt><trkpt lat="44.0082074" lon="12.461645"><ele>111.75</ele><time>2026-04-10T11:54:10.855Z</time></trkpt><trkpt lat="44.0081092" lon="12.4615558"><ele>114.5</ele><time>2026-04-10T11:54:11.855Z</time></trkpt><trkpt lat="44.0080179" lon="12.4614636"><ele>117.25</ele><time>2026-04-10T11:54:12.855Z</time></trkpt><trkpt lat="44.0079266" lon="12.4613668"><ele>120.0</ele><time>2026-04-10T11:54:13.855Z</time></trkpt><trkpt lat="44.0078306" lon="12.4612722"><ele>120.2</ele><time>2026-04-10T11:54:14.855Z</time></trkpt><trkpt lat="44.0077268" lon="12.461186"><ele>120.4</ele><time>2026-04-10T11:54:15.855Z</time></trkpt><trkpt lat="44.0076292" lon="12.4611075"><ele>120.6</ele><time>2026-04-10T11:54:16.854Z</time></trkpt><trkpt lat="44.0075431" lon="12.4610389"><ele>120.8</ele><time>2026-04-10T11:54:17.855Z</time></trkpt><trkpt lat="44.0074524" lon="12.4609596"><ele>121.0</ele><time>2026-04-10T11:54:18.856Z</time></trkpt><trkpt lat="44.0073652" lon="12.4608853"><ele>123.6</ele><time>2026-04-10T11:54:19.854Z</time></trkpt><trkpt lat="44.0072758" lon="12.460812"><ele>126.19999999999999</ele><time>2026-04-10T11:54:20.855Z</time></trkpt><trkpt lat="44.0071836" lon="12.460732"><ele>128.8</ele><time>2026-04-10T11:54:21.854Z</time></trkpt><trkpt lat="44.0070876" lon="12.4606486"><ele>131.4</ele><time>2026-04-10T11:54:22.855Z</time></trkpt><trkpt lat="44.0069993" lon="12.4605733"><ele>134.0</ele><time>2026-04-10T11:54:23.855Z</time></trkpt><trkpt lat="44.0069134" lon="12.4604965"><ele>134.0</ele><time>2026-04-10T11:54:24.855Z</time></trkpt><trkpt lat="44.006835" lon="12.4604344"><ele>134.0</ele><time>2026-04-10T11:54:25.855Z</time></trkpt><trkpt lat="44.0067634" lon="12.4603712"><ele>134.0</ele><time>2026-04-10T11:54:26.855Z</time></trkpt><trkpt lat="44.0066998" lon="12.4603112"><ele>134.0</ele><time>2026-04-10T11:54:27.854Z</time></trkpt><trkpt lat="44.0066401" lon="12.4602572"><ele>134.0</ele><time>2026-04-10T11:54:28.857Z</time></trkpt><trkpt lat="44.0065489" lon="12.4601899"><ele>134.0</ele><time>2026-04-10T11:54:30.856Z</time></trkpt><trkpt lat="44.0064657" lon="12.4600972"><ele>135.5</ele><time>2026-04-10T11:54:32.855Z</time></trkpt><trkpt lat="44.0063844" lon="12.4600094"><ele>137.0</ele><time>2026-04-10T11:54:34.855Z</time></trkpt><trkpt lat="44.0063025" lon="12.4600132"><ele>138.5</ele><time>2026-04-10T11:54:36.855Z</time></trkpt><trkpt lat="44.0062081" lon="12.4601019"><ele>140.0</ele><time>2026-04-10T11:54:38.854Z</time></trkpt><trkpt lat="44.0061586" lon="12.4601666"><ele>141.5</ele><time>2026-04-10T11:54:39.855Z</time></trkpt><trkpt lat="44.0061128" lon="12.4602334"><ele>143.0</ele><time>2026-04-10T11:54:40.854Z</time></trkpt><trkpt lat="44.00606" lon="12.4602981"><ele>143.0</ele><time>2026-04-10T11:54:41.854Z</time></trkpt><trkpt lat="44.0060023" lon="12.4603666"><ele>143.0</ele><time>2026-04-10T11:54:42.855Z</time></trkpt><trkpt lat="44.0059459" lon="12.460449"><ele>143.0</ele><time>2026-04-10T11:54:43.854Z</time></trkpt><trkpt lat="44.00589" lon="12.4605248"><ele>143.0</ele><time>2026-04-10T11:54:44.855Z</time></trkpt><trkpt lat="44.0058344" lon="12.4605967"><ele>143.0</ele><time>2026-04-10T11:54:45.856Z</time></trkpt><trkpt lat="44.0057283" lon="12.4606954"><ele>143.0</ele><time>2026-04-10T11:54:47.855Z</time></trkpt><trkpt lat="44.0056621" lon="12.4607392"><ele>144.5</ele><time>2026-04-10T11:54:48.854Z</time></trkpt><trkpt lat="44.0055942" lon="12.4607718"><ele>146.0</ele><time>2026-04-10T11:54:49.855Z</time></trkpt><trkpt lat="44.0055162" lon="12.4608126"><ele>147.5</ele><time>2026-04-10T11:54:50.855Z</time></trkpt><trkpt lat="44.0054451" lon="12.4608516"><ele>149.0</ele><time>2026-04-10T11:54:51.854Z</time></trkpt><trkpt lat="44.0053597" lon="12.4608901"><ele>150.5</ele><time>2026-04-10T11:54:52.854Z</time></trkpt><trkpt lat="44.0052812" lon="12.4609279"><ele>152.0</ele><time>2026-04-10T11:54:53.855Z</time></trkpt><trkpt lat="44.0052152" lon="12.4609617"><ele>152.0</ele><time>2026-04-10T11:54:54.854Z</time></trkpt><trkpt lat="44.0051388" lon="12.46099"><ele>152.0</ele><time>2026-04-10T11:54:55.854Z</time></trkpt><trkpt lat="44.0050683" lon="12.461016"><ele>152.0</ele><time>2026-04-10T11:54:56.855Z</time></trkpt><trkpt lat="44.0049914" lon="12.4610429"><ele>152.0</ele><time>2026-04-10T11:54:57.857Z</time></trkpt><trkpt lat="44.0049083" lon="12.46106"><ele>152.0</ele><time>2026-04-10T11:54:58.854Z</time></trkpt><trkpt lat="44.0048321" lon="12.4610831"><ele>152.0</ele><time>2026-04-10T11:54:59.855Z</time></trkpt><trkpt lat="44.0047499" lon="12.4611095"><ele>152.66666666666666</ele><time>2026-04-10T11:55:00.855Z</time></trkpt><trkpt lat="44.0046677" lon="12.46114"><ele>153.33333333333331</ele><time>2026-04-10T11:55:01.854Z</time></trkpt><trkpt lat="44.0045845" lon="12.4611787"><ele>154.0</ele><time>2026-04-10T11:55:02.855Z</time></trkpt><trkpt lat="44.0045017" lon="12.4612171"><ele>154.66666666666666</ele><time>2026-04-10T11:55:03.855Z</time></trkpt><trkpt lat="44.0044163" lon="12.4612582"><ele>155.33333333333334</ele><time>2026-04-10T11:55:04.854Z</time></trkpt><trkpt lat="44.0043367" lon="12.4612877"><ele>156.0</ele><time>2026-04-10T11:55:05.855Z</time></trkpt><trkpt lat="44.0042499" lon="12.4613222"><ele>159.6</ele><time>2026-04-10T11:55:06.855Z</time></trkpt><trkpt lat="44.0041607" lon="12.4613631"><ele>163.2</ele><time>2026-04-10T11:55:07.854Z</time></trkpt><trkpt lat="44.0040697" lon="12.4614021"><ele>166.79999999999998</ele><time>2026-04-10T11:55:08.854Z</time></trkpt><trkpt lat="44.0039773" lon="12.461436"><ele>170.39999999999998</ele><time>2026-04-10T11:55:09.855Z</time></trkpt><trkpt lat="44.0038848" lon="12.4614823"><ele>174.0</ele><time>2026-04-10T11:55:10.856Z</time></trkpt><trkpt lat="44.0037913" lon="12.461525"><ele>174.0</ele><time>2026-04-10T11:55:11.854Z</time></trkpt><trkpt lat="44.0036969" lon="12.4615682"><ele>174.0</ele><time>2026-04-10T11:55:12.854Z</time></trkpt><trkpt lat="44.0036098" lon="12.4616171"><ele>174.0</ele><time>2026-04-10T11:55:13.856Z</time></trkpt><trkpt lat="44.0035271" lon="12.4616725"><ele>174.0</ele><time>2026-04-10T11:55:14.854Z</time></trkpt><trkpt lat="44.0034577" lon="12.4617264"><ele>174.0</ele><time>2026-04-10T11:55:15.854Z</time></trkpt><trkpt lat="44.0033512" lon="12.4617534"><ele>176.16666666666666</ele><time>2026-04-10T11:55:17.855Z</time></trkpt><trkpt lat="44.0032591" lon="12.4616736"><ele>178.33333333333334</ele><time>2026-04-10T11:55:19.854Z</time></trkpt><trkpt lat="44.0032152" lon="12.4616085"><ele>180.5</ele><time>2026-04-10T11:55:20.855Z</time></trkpt><trkpt lat="44.0031248" lon="12.4614849"><ele>182.66666666666669</ele><time>2026-04-10T11:55:22.854Z</time></trkpt><trkpt lat="44.0030713" lon="12.461417"><ele>184.83333333333334</ele><time>2026-04-10T11:55:23.855Z</time></trkpt><trkpt lat="44.0030168" lon="12.4613555"><ele>187.0</ele><time>2026-04-10T11:55:24.854Z</time></trkpt><trkpt lat="44.0029618" lon="12.461299"><ele>186.33333333333334</ele><time>2026-04-10T11:55:25.854Z</time></trkpt><trkpt lat="44.0029067" lon="12.4612534"><ele>185.66666666666669</ele><time>2026-04-10T11:55:26.855Z</time></trkpt><trkpt lat="44.0028609" lon="12.4611638"><ele>185.0</ele><time>2026-04-10T11:55:28.854Z</time></trkpt><trkpt lat="44.0029002" lon="12.4610608"><ele>184.33333333333334</ele><time>2026-04-10T11:55:30.854Z</time></trkpt><trkpt lat="44.002959" lon="12.4609767"><ele>183.66666666666666</ele><time>2026-04-10T11:55:32.855Z</time></trkpt><trkpt lat="44.0030081" lon="12.4609006"><ele>183.0</ele><time>2026-04-10T11:55:34.855Z</time></trkpt><trkpt lat="44.0029948" lon="12.460797"><ele>183.0</ele><time>2026-04-10T11:55:37.855Z</time></trkpt><trkpt lat="44.0029423" lon="12.4607209"><ele>183.0</ele><time>2026-04-10T11:55:39.854Z</time></trkpt><trkpt lat="44.0028635" lon="12.4606174"><ele>183.0</ele><time>2026-04-10T11:55:41.855Z</time></trkpt><trkpt lat="44.0027916" lon="12.4605738"><ele>183.0</ele><time>2026-04-10T11:55:43.854Z</time></trkpt><trkpt lat="44.0027139" lon="12.4606263"><ele>183.0</ele><time>2026-04-10T11:55:46.855Z</time></trkpt><trkpt lat="44.0026549" lon="12.460691"><ele>183.0</ele><time>2026-04-10T11:55:48.855Z</time></trkpt><trkpt lat="44.0026001" lon="12.4607504"><ele>183.0</ele><time>2026-04-10T11:55:50.855Z</time></trkpt><trkpt lat="44.0025324" lon="12.4607899"><ele>183.0</ele><time>2026-04-10T11:55:53.856Z</time></trkpt><trkpt lat="44.002451" lon="12.4607283"><ele>183.0</ele><time>2026-04-10T11:56:01.855Z</time></trkpt><trkpt lat="44.0024191" lon="12.4606468"><ele>183.0</ele><time>2026-04-10T11:56:02.854Z</time></trkpt><trkpt lat="44.0023849" lon="12.4605526"><ele>183.0</ele><time>2026-04-10T11:56:03.854Z</time></trkpt><trkpt lat="44.0023514" lon="12.4604427"><ele>183.0</ele><time>2026-04-10T11:56:04.856Z</time></trkpt><trkpt lat="44.0023152" lon="12.4603279"><ele>183.0</ele><time>2026-04-10T11:56:05.855Z</time></trkpt><trkpt lat="44.0022865" lon="12.4602231"><ele>183.0</ele><time>2026-04-10T11:56:06.856Z</time></trkpt><trkpt lat="44.0022535" lon="12.4601301"><ele>183.0</ele><time>2026-04-10T11:56:07.855Z</time></trkpt><trkpt lat="44.0022124" lon="12.4600566"><ele>183.0</ele><time>2026-04-10T11:56:08.854Z</time></trkpt><trkpt lat="44.0021644" lon="12.4599894"><ele>183.0</ele><time>2026-04-10T11:56:09.857Z</time></trkpt><trkpt lat="44.0021116" lon="12.4599387"><ele>183.0</ele><time>2026-04-10T11:56:10.854Z</time></trkpt><trkpt lat="44.0019993" lon="12.4598993"><ele>183.0</ele><time>2026-04-10T11:56:12.854Z</time></trkpt><trkpt lat="44.0018935" lon="12.4599069"><ele>183.0</ele><time>2026-04-10T11:56:14.854Z</time></trkpt><trkpt lat="44.0018084" lon="12.4598711"><ele>183.0</ele><time>2026-04-10T11:56:16.854Z</time></trkpt><trkpt lat="44.0017619" lon="12.4597555"><ele>183.0</ele><time>2026-04-10T11:56:18.856Z</time></trkpt><trkpt lat="44.0017497" lon="12.459579"><ele>183.0</ele><time>2026-04-10T11:56:20.855Z</time></trkpt><trkpt lat="44.0017417" lon="12.4594846"><ele>182.66666666666666</ele><time>2026-04-10T11:56:21.855Z</time></trkpt><trkpt lat="44.0017309" lon="12.4593913"><ele>182.33333333333334</ele><time>2026-04-10T11:56:22.854Z</time></trkpt><trkpt lat="44.001719" lon="12.4592853"><ele>182.0</ele><time>2026-04-10T11:56:23.855Z</time></trkpt><trkpt lat="44.0017115" lon="12.4591769"><ele>181.66666666666669</ele><time>2026-04-10T11:56:24.855Z</time></trkpt><trkpt lat="44.001706" lon="12.4590712"><ele>181.33333333333334</ele><time>2026-04-10T11:56:25.854Z</time></trkpt><trkpt lat="44.0016961" lon="12.4589578"><ele>181.0</ele><time>2026-04-10T11:56:26.855Z</time></trkpt><trkpt lat="44.0016837" lon="12.4588361"><ele>181.0</ele><time>2026-04-10T11:56:27.855Z</time></trkpt><trkpt lat="44.0016693" lon="12.4587313"><ele>181.0</ele><time>2026-04-10T11:56:28.855Z</time></trkpt><trkpt lat="44.0016526" lon="12.4586243"><ele>181.0</ele><time>2026-04-10T11:56:29.854Z</time></trkpt><trkpt lat="44.0016428" lon="12.4585225"><ele>181.0</ele><time>2026-04-10T11:56:30.854Z</time></trkpt><trkpt lat="44.0016441" lon="12.4584323"><ele>181.0</ele><time>2026-04-10T11:56:31.854Z</time></trkpt><trkpt lat="44.0016361" lon="12.4582697"><ele>181.0</ele><time>2026-04-10T11:56:33.855Z</time></trkpt><trkpt lat="44.0016189" lon="12.458111"><ele>180.5</ele><time>2026-04-10T11:56:35.855Z</time></trkpt><trkpt lat="44.0015988" lon="12.4579839"><ele>180.0</ele><time>2026-04-10T11:56:37.855Z</time></trkpt><trkpt lat="44.0016011" lon="12.4578915"><ele>179.5</ele><time>2026-04-10T11:56:39.854Z</time></trkpt><trkpt lat="44.001599" lon="12.4577696"><ele>179.0</ele><time>2026-04-10T11:56:42.854Z</time></trkpt><trkpt lat="44.0015918" lon="12.4576593"><ele>178.5</ele><time>2026-04-10T11:56:44.855Z</time></trkpt><trkpt lat="44.0016013" lon="12.4575368"><ele>178.0</ele><time>2026-04-10T11:56:46.854Z</time></trkpt><trkpt lat="44.0016087" lon="12.4574433"><ele>179.33333333333334</ele><time>2026-04-10T11:56:48.854Z</time></trkpt><trkpt lat="44.0015441" lon="12.4574107"><ele>180.66666666666669</ele><time>2026-04-10T11:56:52.856Z</time></trkpt><trkpt lat="44.0015064" lon="12.4572981"><ele>182.0</ele><time>2026-04-10T11:56:56.855Z</time></trkpt><trkpt lat="44.0014851" lon="12.4571702"><ele>183.33333333333334</ele><time>2026-04-10T11:56:58.854Z</time></trkpt><trkpt lat="44.0014533" lon="12.4570711"><ele>184.66666666666666</ele><time>2026-04-10T11:57:00.856Z</time></trkpt><trkpt lat="44.0013826" lon="12.4569912"><ele>186.0</ele><time>2026-04-10T11:57:02.854Z</time></trkpt><trkpt lat="44.0013026" lon="12.456897"><ele>186.0</ele><time>2026-04-10T11:57:04.855Z</time></trkpt><trkpt lat="44.0012456" lon="12.4568472"><ele>186.0</ele><time>2026-04-10T11:57:05.854Z</time></trkpt><trkpt lat="44.0011883" lon="12.4568005"><ele>186.0</ele><time>2026-04-10T11:57:06.856Z</time></trkpt><trkpt lat="44.0010688" lon="12.4567744"><ele>186.0</ele><time>2026-04-10T11:57:08.854Z</time></trkpt><trkpt lat="44.0009984" lon="12.4567942"><ele>186.0</ele><time>2026-04-10T11:57:09.855Z</time></trkpt><trkpt lat="44.000931" lon="12.4568077"><ele>186.0</ele><time>2026-04-10T11:57:10.856Z</time></trkpt><trkpt lat="44.000861" lon="12.456821"><ele>185.33333333333334</ele><time>2026-04-10T11:57:11.855Z</time></trkpt><trkpt lat="44.000793" lon="12.4568176"><ele>184.66666666666666</ele><time>2026-04-10T11:57:12.856Z</time></trkpt><trkpt lat="44.0007251" lon="12.4568253"><ele>184.0</ele><time>2026-04-10T11:57:13.856Z</time></trkpt><trkpt lat="44.0006609" lon="12.4568337"><ele>183.33333333333331</ele><time>2026-04-10T11:57:14.855Z</time></trkpt><trkpt lat="44.0005429" lon="12.4568672"><ele>182.66666666666666</ele><time>2026-04-10T11:57:16.855Z</time></trkpt><trkpt lat="44.000467" lon="12.4568991"><ele>182.0</ele><time>2026-04-10T11:57:17.855Z</time></trkpt><trkpt lat="44.0003999" lon="12.4569361"><ele>182.0</ele><time>2026-04-10T11:57:18.855Z</time></trkpt><trkpt lat="44.0003358" lon="12.4569693"><ele>182.0</ele><time>2026-04-10T11:57:19.854Z</time></trkpt><trkpt lat="44.0002675" lon="12.4569962"><ele>182.0</ele><time>2026-04-10T11:57:20.856Z</time></trkpt><trkpt lat="44.0001991" lon="12.4570091"><ele>182.0</ele><time>2026-04-10T11:57:21.856Z</time></trkpt><trkpt lat="44.0001266" lon="12.4570084"><ele>182.0</ele><time>2026-04-10T11:57:22.855Z</time></trkpt><trkpt lat="44.0000495" lon="12.4570103"><ele>182.0</ele><time>2026-04-10T11:57:23.854Z</time></trkpt><trkpt lat="43.9999726" lon="12.4570032"><ele>182.0</ele><time>2026-04-10T11:57:24.854Z</time></trkpt><trkpt lat="43.9999009" lon="12.4569877"><ele>182.0</ele><time>2026-04-10T11:57:25.854Z</time></trkpt><trkpt lat="43.9998291" lon="12.4569823"><ele>182.0</ele><time>2026-04-10T11:57:26.856Z</time></trkpt><trkpt lat="43.9997579" lon="12.4569701"><ele>182.0</ele><time>2026-04-10T11:57:27.855Z</time></trkpt><trkpt lat="43.9996839" lon="12.456954"><ele>182.0</ele><time>2026-04-10T11:57:28.855Z</time></trkpt><trkpt lat="43.9996095" lon="12.456917"><ele>182.0</ele><time>2026-04-10T11:57:29.854Z</time></trkpt><trkpt lat="43.9995298" lon="12.4568756"><ele>182.0</ele><time>2026-04-10T11:57:30.854Z</time></trkpt><trkpt lat="43.9994539" lon="12.4568391"><ele>182.0</ele><time>2026-04-10T11:57:31.855Z</time></trkpt><trkpt lat="43.9993831" lon="12.4568021"><ele>182.0</ele><time>2026-04-10T11:57:32.854Z</time></trkpt><trkpt lat="43.9993114" lon="12.4567603"><ele>182.0</ele><time>2026-04-10T11:57:33.855Z</time></trkpt><trkpt lat="43.9992413" lon="12.4567204"><ele>182.0</ele><time>2026-04-10T11:57:34.855Z</time></trkpt><trkpt lat="43.9991728" lon="12.4566806"><ele>182.0</ele><time>2026-04-10T11:57:35.854Z</time></trkpt><trkpt lat="43.999057" lon="12.4566194"><ele>182.0</ele><time>2026-04-10T11:57:37.855Z</time></trkpt><trkpt lat="43.9989947" lon="12.4566013"><ele>180.71428571428572</ele><time>2026-04-10T11:57:38.854Z</time></trkpt><trkpt lat="43.9989358" lon="12.4565691"><ele>179.42857142857144</ele><time>2026-04-10T11:57:39.854Z</time></trkpt><trkpt lat="43.9988761" lon="12.4565345"><ele>178.14285714285714</ele><time>2026-04-10T11:57:40.855Z</time></trkpt><trkpt lat="43.9988161" lon="12.456496"><ele>176.85714285714286</ele><time>2026-04-10T11:57:41.856Z</time></trkpt><trkpt lat="43.9987477" lon="12.4564631"><ele>175.57142857142858</ele><time>2026-04-10T11:57:42.854Z</time></trkpt><trkpt lat="43.9986766" lon="12.4564301"><ele>174.28571428571428</ele><time>2026-04-10T11:57:43.854Z</time></trkpt><trkpt lat="43.9986042" lon="12.4564057"><ele>173.0</ele><time>2026-04-10T11:57:44.854Z</time></trkpt><trkpt lat="43.9985371" lon="12.4563751"><ele>173.0</ele><time>2026-04-10T11:57:45.854Z</time></trkpt><trkpt lat="43.9984255" lon="12.4563228"><ele>173.0</ele><time>2026-04-10T11:57:47.855Z</time></trkpt><trkpt lat="43.9983484" lon="12.4562903"><ele>173.0</ele><time>2026-04-10T11:57:49.855Z</time></trkpt><trkpt lat="43.9982829" lon="12.4562435"><ele>173.0</ele><time>2026-04-10T11:58:54.854Z</time></trkpt><trkpt lat="43.9982126" lon="12.4562027"><ele>173.0</ele><time>2026-04-10T11:59:35.854Z</time></trkpt><trkpt lat="43.998141" lon="12.456158"><ele>173.0</ele><time>2026-04-10T11:59:38.855Z</time></trkpt><trkpt lat="43.9980633" lon="12.4561243"><ele>171.42857142857142</ele><time>2026-04-10T11:59:41.854Z</time></trkpt><trkpt lat="43.9979981" lon="12.4560901"><ele>169.85714285714286</ele><time>2026-04-10T11:59:46.856Z</time></trkpt><trkpt lat="43.9979396" lon="12.4560497"><ele>168.28571428571428</ele><time>2026-04-10T11:59:51.855Z</time></trkpt><trkpt lat="43.9978723" lon="12.4560175"><ele>166.71428571428572</ele><time>2026-04-10T11:59:57.854Z</time></trkpt><trkpt lat="43.9978016" lon="12.4559721"><ele>165.14285714285714</ele><time>2026-04-10T12:00:07.854Z</time></trkpt><trkpt lat="43.9977338" lon="12.4559394"><ele>163.57142857142858</ele><time>2026-04-10T12:00:11.854Z</time></trkpt><trkpt lat="43.9976651" lon="12.4559157"><ele>162.0</ele><time>2026-04-10T12:00:15.855Z</time></trkpt><trkpt lat="43.9975912" lon="12.4558882"><ele>162.0</ele><time>2026-04-10T12:00:21.855Z</time></trkpt><trkpt lat="43.9975323" lon="12.455852"><ele>162.0</ele><time>2026-04-10T12:00:25.855Z</time></trkpt><trkpt lat="43.9974632" lon="12.4558182"><ele>162.0</ele><time>2026-04-10T12:00:30.854Z</time></trkpt><trkpt lat="43.9973984" lon="12.4558034"><ele>162.0</ele><time>2026-04-10T12:00:34.855Z</time></trkpt><trkpt lat="43.9973231" lon="12.4557501"><ele>162.0</ele><time>2026-04-10T12:00:37.854Z</time></trkpt><trkpt lat="43.9972445" lon="12.455717"><ele>162.0</ele><time>2026-04-10T12:00:40.855Z</time></trkpt><trkpt lat="43.9971769" lon="12.455691"><ele>162.0</ele><time>2026-04-10T12:00:43.854Z</time></trkpt><trkpt lat="43.9971144" lon="12.4556395"><ele>160.85714285714286</ele><time>2026-04-10T12:00:48.855Z</time></trkpt><trkpt lat="43.997052" lon="12.455602"><ele>159.71428571428572</ele><time>2026-04-10T12:01:00.854Z</time></trkpt><trkpt lat="43.9969769" lon="12.4555765"><ele>158.57142857142856</ele><time>2026-04-10T12:01:04.855Z</time></trkpt><trkpt lat="43.9969142" lon="12.4555602"><ele>157.42857142857144</ele><time>2026-04-10T12:01:09.855Z</time></trkpt><trkpt lat="43.9968535" lon="12.4555301"><ele>156.28571428571428</ele><time>2026-04-10T12:01:15.854Z</time></trkpt><trkpt lat="43.9967868" lon="12.4554971"><ele>155.14285714285714</ele><time>2026-04-10T12:02:17.854Z</time></trkpt><trkpt lat="43.9967151" lon="12.4554757"><ele>154.0</ele><time>2026-04-10T12:02:24.855Z</time></trkpt><trkpt lat="43.9966478" lon="12.4554313"><ele>150.66666666666669</ele><time>2026-04-10T12:02:27.854Z</time></trkpt><trkpt lat="43.9965692" lon="12.4553869"><ele>147.33333333333334</ele><time>2026-04-10T12:02:30.854Z</time></trkpt><trkpt lat="43.9965049" lon="12.455351"><ele>144.0</ele><time>2026-04-10T12:02:32.854Z</time></trkpt><trkpt lat="43.9964331" lon="12.4553187"><ele>140.66666666666666</ele><time>2026-04-10T12:02:35.855Z</time></trkpt><trkpt lat="43.9963609" lon="12.4552861"><ele>137.33333333333331</ele><time>2026-04-10T12:02:38.855Z</time></trkpt><trkpt lat="43.9962854" lon="12.4552002"><ele>134.0</ele><time>2026-04-10T12:02:41.854Z</time></trkpt><trkpt lat="43.9962253" lon="12.4551475"><ele>134.0</ele><time>2026-04-10T12:02:43.855Z</time></trkpt><trkpt lat="43.9961724" lon="12.4550927"><ele>134.0</ele><time>2026-04-10T12:02:45.854Z</time></trkpt><trkpt lat="43.9960972" lon="12.4550178"><ele>134.0</ele><time>2026-04-10T12:02:48.854Z</time></trkpt><trkpt lat="43.9960431" lon="12.4549634"><ele>134.0</ele><time>2026-04-10T12:02:50.855Z</time></trkpt><trkpt lat="43.9959812" lon="12.4548777"><ele>134.0</ele><time>2026-04-10T12:02:53.855Z</time></trkpt><trkpt lat="43.995918" lon="12.45478"><ele>134.0</ele><time>2026-04-10T12:02:56.854Z</time></trkpt><trkpt lat="43.9958625" lon="12.4546839"><ele>130.66666666666666</ele><time>2026-04-10T12:02:59.855Z</time></trkpt><trkpt lat="43.9958192" lon="12.4545758"><ele>127.33333333333333</ele><time>2026-04-10T12:03:02.855Z</time></trkpt><trkpt lat="43.9957914" lon="12.4544962"><ele>124.0</ele><time>2026-04-10T12:03:04.855Z</time></trkpt><trkpt lat="43.9957576" lon="12.4544037"><ele>120.66666666666666</ele><time>2026-04-10T12:03:06.855Z</time></trkpt><trkpt lat="43.9957158" lon="12.4543075"><ele>117.33333333333333</ele><time>2026-04-10T12:03:08.855Z</time></trkpt><trkpt lat="43.9956578" lon="12.4542229"><ele>114.0</ele><time>2026-04-10T12:03:10.855Z</time></trkpt><trkpt lat="43.9955985" lon="12.4541305"><ele>114.0</ele><time>2026-04-10T12:03:12.855Z</time></trkpt><trkpt lat="43.9955422" lon="12.4540598"><ele>114.0</ele><time>2026-04-10T12:03:14.854Z</time></trkpt><trkpt lat="43.9954833" lon="12.4539896"><ele>114.0</ele><time>2026-04-10T12:03:16.854Z</time></trkpt><trkpt lat="43.9954112" lon="12.4539399"><ele>114.0</ele><time>2026-04-10T12:03:18.854Z</time></trkpt><trkpt lat="43.9953349" lon="12.4539197"><ele>114.0</ele><time>2026-04-10T12:03:20.855Z</time></trkpt><trkpt lat="43.9952521" lon="12.4539225"><ele>114.0</ele><time>2026-04-10T12:03:22.855Z</time></trkpt><trkpt lat="43.9951766" lon="12.4539612"><ele>114.0</ele><time>2026-04-10T12:03:24.854Z</time></trkpt><trkpt lat="43.9951105" lon="12.4540282"><ele>114.0</ele><time>2026-04-10T12:03:26.855Z</time></trkpt><trkpt lat="43.9950523" lon="12.454108"><ele>114.0</ele><time>2026-04-10T12:03:28.855Z</time></trkpt><trkpt lat="43.9950011" lon="12.4541817"><ele>114.0</ele><time>2026-04-10T12:03:30.853Z</time></trkpt><trkpt lat="43.9949512" lon="12.4542601"><ele>114.0</ele><time>2026-04-10T12:03:32.855Z</time></trkpt><trkpt lat="43.9949018" lon="12.4543207"><ele>114.0</ele><time>2026-04-10T12:03:34.854Z</time></trkpt><trkpt lat="43.9948309" lon="12.4543371"><ele>112.0</ele><time>2026-04-10T12:03:37.855Z</time></trkpt><trkpt lat="43.9947683" lon="12.4542655"><ele>110.0</ele><time>2026-04-10T12:04:31.853Z</time></trkpt><trkpt lat="43.9946765" lon="12.4542337"><ele>108.0</ele><time>2026-04-10T12:04:34.853Z</time></trkpt><trkpt lat="43.9945807" lon="12.4542367"><ele>106.0</ele><time>2026-04-10T12:04:36.854Z</time></trkpt><trkpt lat="43.9944721" lon="12.4542279"><ele>104.0</ele><time>2026-04-10T12:04:38.854Z</time></trkpt><trkpt lat="43.9943479" lon="12.4542235"><ele>104.0</ele><time>2026-04-10T12:04:40.855Z</time></trkpt><trkpt lat="43.9942802" lon="12.4542256"><ele>104.0</ele><time>2026-04-10T12:04:41.854Z</time></trkpt><trkpt lat="43.9942109" lon="12.4542376"><ele>104.0</ele><time>2026-04-10T12:04:42.854Z</time></trkpt><trkpt lat="43.994135" lon="12.4542403"><ele>104.0</ele><time>2026-04-10T12:04:43.856Z</time></trkpt><trkpt lat="43.9940582" lon="12.4542496"><ele>104.0</ele><time>2026-04-10T12:04:44.855Z</time></trkpt><trkpt lat="43.9939815" lon="12.4542545"><ele>104.0</ele><time>2026-04-10T12:04:45.855Z</time></trkpt><trkpt lat="43.9939098" lon="12.4542446"><ele>104.0</ele><time>2026-04-10T12:04:46.853Z</time></trkpt><trkpt lat="43.9938465" lon="12.4542187"><ele>104.28571428571428</ele><time>2026-04-10T12:04:47.855Z</time></trkpt><trkpt lat="43.9937832" lon="12.454196"><ele>104.57142857142858</ele><time>2026-04-10T12:04:48.854Z</time></trkpt><trkpt lat="43.9937216" lon="12.4541605"><ele>104.85714285714286</ele><time>2026-04-10T12:04:49.854Z</time></trkpt><trkpt lat="43.9936536" lon="12.4541297"><ele>105.14285714285714</ele><time>2026-04-10T12:04:50.856Z</time></trkpt><trkpt lat="43.9935828" lon="12.4541135"><ele>105.42857142857142</ele><time>2026-04-10T12:04:51.855Z</time></trkpt><trkpt lat="43.9935172" lon="12.4541"><ele>105.71428571428572</ele><time>2026-04-10T12:04:52.855Z</time></trkpt><trkpt lat="43.9934464" lon="12.454103"><ele>106.0</ele><time>2026-04-10T12:04:53.856Z</time></trkpt><trkpt lat="43.9933701" lon="12.454123"><ele>106.33333333333334</ele><time>2026-04-10T12:04:54.853Z</time></trkpt><trkpt lat="43.9932998" lon="12.4541565"><ele>106.66666666666667</ele><time>2026-04-10T12:04:55.855Z</time></trkpt><trkpt lat="43.9932243" lon="12.4541957"><ele>107.0</ele><time>2026-04-10T12:04:56.853Z</time></trkpt><trkpt lat="43.9931502" lon="12.454232"><ele>107.33333333333334</ele><time>2026-04-10T12:04:57.854Z</time></trkpt><trkpt lat="43.9930758" lon="12.4542592"><ele>107.66666666666667</ele><time>2026-04-10T12:04:58.854Z</time></trkpt><trkpt lat="43.9929992" lon="12.4542786"><ele>108.0</ele><time>2026-04-10T12:04:59.853Z</time></trkpt><trkpt lat="43.9929316" lon="12.4543117"><ele>108.0</ele><time>2026-04-10T12:05:00.855Z</time></trkpt><trkpt lat="43.9928567" lon="12.4543425"><ele>108.0</ele><time>2026-04-10T12:05:01.855Z</time></trkpt><trkpt lat="43.9927791" lon="12.4543777"><ele>108.0</ele><time>2026-04-10T12:05:02.854Z</time></trkpt><trkpt lat="43.9927058" lon="12.4544068"><ele>108.0</ele><time>2026-04-10T12:05:03.855Z</time></trkpt><trkpt lat="43.9926358" lon="12.4544073"><ele>108.0</ele><time>2026-04-10T12:05:04.855Z</time></trkpt><trkpt lat="43.9925666" lon="12.4544029"><ele>108.0</ele><time>2026-04-10T12:05:05.854Z</time></trkpt><trkpt lat="43.9924933" lon="12.4543971"><ele>108.0</ele><time>2026-04-10T12:05:06.855Z</time></trkpt><trkpt lat="43.9924229" lon="12.4543937"><ele>108.0</ele><time>2026-04-10T12:05:07.854Z</time></trkpt><trkpt lat="43.9923592" lon="12.4543851"><ele>108.00000000000001</ele><time>2026-04-10T12:05:08.854Z</time></trkpt><trkpt lat="43.9922624" lon="12.4543325"><ele>108.00000000000001</ele><time>2026-04-10T12:05:10.854Z</time></trkpt><trkpt lat="43.9922168" lon="12.4542067"><ele>108.0</ele><time>2026-04-10T12:05:12.854Z</time></trkpt><trkpt lat="43.9922193" lon="12.4540638"><ele>108.0</ele><time>2026-04-10T12:05:14.854Z</time></trkpt><trkpt lat="43.9922265" lon="12.4538902"><ele>108.0</ele><time>2026-04-10T12:05:16.854Z</time></trkpt><trkpt lat="43.9922354" lon="12.4538018"><ele>108.00000000000001</ele><time>2026-04-10T12:05:17.855Z</time></trkpt><trkpt lat="43.9922416" lon="12.453653"><ele>108.00000000000001</ele><time>2026-04-10T12:05:19.855Z</time></trkpt><trkpt lat="43.9922744" lon="12.4534921"><ele>108.0</ele><time>2026-04-10T12:05:21.854Z</time></trkpt><trkpt lat="43.992312" lon="12.4533148"><ele>108.0</ele><time>2026-04-10T12:05:23.854Z</time></trkpt><trkpt lat="43.9923417" lon="12.4532228"><ele>109.33333333333333</ele><time>2026-04-10T12:05:24.854Z</time></trkpt><trkpt lat="43.9923729" lon="12.4531237"><ele>110.66666666666666</ele><time>2026-04-10T12:05:25.854Z</time></trkpt><trkpt lat="43.9924029" lon="12.4530214"><ele>112.0</ele><time>2026-04-10T12:05:26.854Z</time></trkpt><trkpt lat="43.9924352" lon="12.452923"><ele>113.33333333333333</ele><time>2026-04-10T12:05:27.854Z</time></trkpt><trkpt lat="43.9924649" lon="12.4528203"><ele>114.66666666666666</ele><time>2026-04-10T12:05:28.853Z</time></trkpt><trkpt lat="43.9924933" lon="12.4527153"><ele>116.0</ele><time>2026-04-10T12:05:29.854Z</time></trkpt><trkpt lat="43.9925232" lon="12.4526039"><ele>117.49999999999999</ele><time>2026-04-10T12:05:30.854Z</time></trkpt><trkpt lat="43.9925506" lon="12.4524989"><ele>119.0</ele><time>2026-04-10T12:05:31.854Z</time></trkpt><trkpt lat="43.9925824" lon="12.4523928"><ele>120.5</ele><time>2026-04-10T12:05:32.853Z</time></trkpt><trkpt lat="43.9926099" lon="12.4522929"><ele>122.0</ele><time>2026-04-10T12:05:33.853Z</time></trkpt><trkpt lat="43.9926405" lon="12.4521888"><ele>123.49999999999999</ele><time>2026-04-10T12:05:34.854Z</time></trkpt><trkpt lat="43.9926753" lon="12.4520902"><ele>125.0</ele><time>2026-04-10T12:05:35.854Z</time></trkpt><trkpt lat="43.9927072" lon="12.4519789"><ele>126.16666666666666</ele><time>2026-04-10T12:05:36.855Z</time></trkpt><trkpt lat="43.9927338" lon="12.4518727"><ele>127.33333333333333</ele><time>2026-04-10T12:05:37.853Z</time></trkpt><trkpt lat="43.992769" lon="12.4517668"><ele>128.5</ele><time>2026-04-10T12:05:38.854Z</time></trkpt><trkpt lat="43.9928049" lon="12.4516565"><ele>129.66666666666666</ele><time>2026-04-10T12:05:39.853Z</time></trkpt><trkpt lat="43.9928367" lon="12.4515383"><ele>130.83333333333334</ele><time>2026-04-10T12:05:40.854Z</time></trkpt><trkpt lat="43.9928715" lon="12.451424"><ele>132.0</ele><time>2026-04-10T12:05:41.854Z</time></trkpt><trkpt lat="43.9929112" lon="12.4513076"><ele>133.33333333333334</ele><time>2026-04-10T12:05:42.853Z</time></trkpt><trkpt lat="43.992948" lon="12.4511935"><ele>134.66666666666666</ele><time>2026-04-10T12:05:43.854Z</time></trkpt><trkpt lat="43.992981" lon="12.4510835"><ele>136.0</ele><time>2026-04-10T12:05:44.854Z</time></trkpt><trkpt lat="43.9930142" lon="12.450982"><ele>137.33333333333331</ele><time>2026-04-10T12:05:45.853Z</time></trkpt><trkpt lat="43.9930467" lon="12.4508866"><ele>138.66666666666666</ele><time>2026-04-10T12:05:46.854Z</time></trkpt><trkpt lat="43.9930835" lon="12.4507431"><ele>140.0</ele><time>2026-04-10T12:05:48.853Z</time></trkpt><trkpt lat="43.9930642" lon="12.4506505"><ele>140.0</ele><time>2026-04-10T12:05:50.854Z</time></trkpt><trkpt lat="43.9929719" lon="12.4505786"><ele>140.0</ele><time>2026-04-10T12:05:52.854Z</time></trkpt><trkpt lat="43.992909" lon="12.4505391"><ele>140.0</ele><time>2026-04-10T12:05:53.854Z</time></trkpt><trkpt lat="43.9928233" lon="12.4504477"><ele>140.0</ele><time>2026-04-10T12:05:55.855Z</time></trkpt><trkpt lat="43.9928139" lon="12.4503142"><ele>140.0</ele><time>2026-04-10T12:05:57.855Z</time></trkpt><trkpt lat="43.9928552" lon="12.4501852"><ele>141.2</ele><time>2026-04-10T12:05:59.854Z</time></trkpt><trkpt lat="43.9928218" lon="12.4500908"><ele>142.4</ele><time>2026-04-10T12:06:01.855Z</time></trkpt><trkpt lat="43.99273" lon="12.4500192"><ele>143.6</ele><time>2026-04-10T12:06:03.854Z</time></trkpt><trkpt lat="43.9926539" lon="12.4499368"><ele>144.8</ele><time>2026-04-10T12:06:05.855Z</time></trkpt><trkpt lat="43.9926559" lon="12.4498168"><ele>146.0</ele><time>2026-04-10T12:06:07.854Z</time></trkpt><trkpt lat="43.9926978" lon="12.4496608"><ele>146.28571428571428</ele><time>2026-04-10T12:06:09.854Z</time></trkpt><trkpt lat="43.9927243" lon="12.4495729"><ele>146.57142857142858</ele><time>2026-04-10T12:06:10.855Z</time></trkpt><trkpt lat="43.9927489" lon="12.4494825"><ele>146.85714285714286</ele><time>2026-04-10T12:06:11.853Z</time></trkpt><trkpt lat="43.9927772" lon="12.4493955"><ele>147.14285714285714</ele><time>2026-04-10T12:06:12.855Z</time></trkpt><trkpt lat="43.9928062" lon="12.4493099"><ele>147.42857142857142</ele><time>2026-04-10T12:06:13.854Z</time></trkpt><trkpt lat="43.9928334" lon="12.4492248"><ele>147.71428571428572</ele><time>2026-04-10T12:06:14.853Z</time></trkpt><trkpt lat="43.9928556" lon="12.4491422"><ele>148.0</ele><time>2026-04-10T12:06:15.856Z</time></trkpt><trkpt lat="43.9928595" lon="12.4490533"><ele>148.0</ele><time>2026-04-10T12:06:16.854Z</time></trkpt><trkpt lat="43.9928198" lon="12.4489209"><ele>148.0</ele><time>2026-04-10T12:06:18.855Z</time></trkpt><trkpt lat="43.9927232" lon="12.4487922"><ele>148.0</ele><time>2026-04-10T12:06:20.853Z</time></trkpt><trkpt lat="43.9926658" lon="12.4487251"><ele>148.0</ele><time>2026-04-10T12:06:21.854Z</time></trkpt><trkpt lat="43.9926071" lon="12.4486572"><ele>148.0</ele><time>2026-04-10T12:06:22.853Z</time></trkpt><trkpt lat="43.9925487" lon="12.4485918"><ele>151.0</ele><time>2026-04-10T12:06:23.854Z</time></trkpt><trkpt lat="43.9924858" lon="12.4485248"><ele>154.0</ele><time>2026-04-10T12:06:24.854Z</time></trkpt><trkpt lat="43.992421" lon="12.4484534"><ele>157.0</ele><time>2026-04-10T12:06:25.855Z</time></trkpt><trkpt lat="43.9923554" lon="12.4483758"><ele>160.0</ele><time>2026-04-10T12:06:26.854Z</time></trkpt><trkpt lat="43.992295" lon="12.4483021"><ele>163.0</ele><time>2026-04-10T12:06:27.855Z</time></trkpt><trkpt lat="43.992209" lon="12.4481785"><ele>163.0</ele><time>2026-04-10T12:06:29.853Z</time></trkpt><trkpt lat="43.9921783" lon="12.4480403"><ele>163.0</ele><time>2026-04-10T12:06:31.854Z</time></trkpt><trkpt lat="43.9922085" lon="12.4479063"><ele>163.0</ele><time>2026-04-10T12:06:33.854Z</time></trkpt><trkpt lat="43.9922716" lon="12.4477667"><ele>163.0</ele><time>2026-04-10T12:06:35.856Z</time></trkpt><trkpt lat="43.9923079" lon="12.4476939"><ele>163.0</ele><time>2026-04-10T12:06:36.855Z</time></trkpt><trkpt lat="43.9923459" lon="12.4476159"><ele>163.83333333333334</ele><time>2026-04-10T12:06:37.855Z</time></trkpt><trkpt lat="43.9923794" lon="12.4474582"><ele>164.66666666666669</ele><time>2026-04-10T12:06:39.854Z</time></trkpt><trkpt lat="43.992373" lon="12.4473014"><ele>165.5</ele><time>2026-04-10T12:06:41.855Z</time></trkpt><trkpt lat="43.9923479" lon="12.4472195"><ele>166.33333333333334</ele><time>2026-04-10T12:06:42.854Z</time></trkpt><trkpt lat="43.9923132" lon="12.4471359"><ele>167.16666666666666</ele><time>2026-04-10T12:06:43.853Z</time></trkpt><trkpt lat="43.9922759" lon="12.4470546"><ele>168.0</ele><time>2026-04-10T12:06:44.853Z</time></trkpt><trkpt lat="43.992243" lon="12.4469639"><ele>168.0</ele><time>2026-04-10T12:06:45.854Z</time></trkpt><trkpt lat="43.9922033" lon="12.4468896"><ele>168.0</ele><time>2026-04-10T12:06:46.854Z</time></trkpt><trkpt lat="43.992172" lon="12.4468122"><ele>168.0</ele><time>2026-04-10T12:06:47.856Z</time></trkpt><trkpt lat="43.9921349" lon="12.4467314"><ele>168.0</ele><time>2026-04-10T12:06:48.855Z</time></trkpt><trkpt lat="43.992075" lon="12.446601"><ele>168.0</ele><time>2026-04-10T12:06:50.854Z</time></trkpt><trkpt lat="43.9920251" lon="12.4464929"><ele>168.0</ele><time>2026-04-10T12:06:52.854Z</time></trkpt><trkpt lat="43.9919836" lon="12.4463992"><ele>168.0</ele><time>2026-04-10T12:06:54.854Z</time></trkpt><trkpt lat="43.991945" lon="12.4463148"><ele>168.0</ele><time>2026-04-10T12:06:56.856Z</time></trkpt><trkpt lat="43.9918898" lon="12.4462425"><ele>168.0</ele><time>2026-04-10T12:06:59.854Z</time></trkpt><trkpt lat="43.991909" lon="12.4461221"><ele>168.0</ele><time>2026-04-10T12:19:49.853Z</time></trkpt><trkpt lat="43.9919234" lon="12.4460325"><ele>168.0</ele><time>2026-04-10T12:19:51.853Z</time></trkpt><trkpt lat="43.9919479" lon="12.4459125"><ele>168.0</ele><time>2026-04-10T12:19:53.853Z</time></trkpt><trkpt lat="43.9919535" lon="12.4457783"><ele>168.16666666666666</ele><time>2026-04-10T12:19:55.853Z</time></trkpt><trkpt lat="43.9919451" lon="12.4456381"><ele>168.33333333333334</ele><time>2026-04-10T12:19:57.854Z</time></trkpt><trkpt lat="43.9919256" lon="12.4454766"><ele>168.5</ele><time>2026-04-10T12:19:59.853Z</time></trkpt><trkpt lat="43.9919051" lon="12.4453918"><ele>168.66666666666669</ele><time>2026-04-10T12:20:00.853Z</time></trkpt><trkpt lat="43.9918883" lon="12.4453015"><ele>168.83333333333334</ele><time>2026-04-10T12:20:01.852Z</time></trkpt><trkpt lat="43.9918633" lon="12.4452043"><ele>169.0</ele><time>2026-04-10T12:20:02.854Z</time></trkpt><trkpt lat="43.9918435" lon="12.4451088"><ele>169.66666666666669</ele><time>2026-04-10T12:20:03.852Z</time></trkpt><trkpt lat="43.9918137" lon="12.4450104"><ele>170.33333333333334</ele><time>2026-04-10T12:20:04.852Z</time></trkpt><trkpt lat="43.9917951" lon="12.4449013"><ele>171.0</ele><time>2026-04-10T12:20:05.852Z</time></trkpt><trkpt lat="43.9917765" lon="12.4447925"><ele>171.66666666666666</ele><time>2026-04-10T12:20:06.853Z</time></trkpt><trkpt lat="43.9917506" lon="12.4446879"><ele>172.33333333333331</ele><time>2026-04-10T12:20:07.853Z</time></trkpt><trkpt lat="43.9917244" lon="12.4445872"><ele>173.0</ele><time>2026-04-10T12:20:08.854Z</time></trkpt><trkpt lat="43.9916971" lon="12.4444858"><ele>175.16666666666666</ele><time>2026-04-10T12:20:09.853Z</time></trkpt><trkpt lat="43.9916706" lon="12.4443842"><ele>177.33333333333331</ele><time>2026-04-10T12:20:10.853Z</time></trkpt><trkpt lat="43.991641" lon="12.4442798"><ele>179.5</ele><time>2026-04-10T12:20:11.852Z</time></trkpt><trkpt lat="43.9916137" lon="12.4441755"><ele>181.66666666666666</ele><time>2026-04-10T12:20:12.853Z</time></trkpt><trkpt lat="43.9915915" lon="12.4440673"><ele>183.83333333333334</ele><time>2026-04-10T12:20:13.853Z</time></trkpt><trkpt lat="43.9915774" lon="12.4439708"><ele>186.0</ele><time>2026-04-10T12:20:14.854Z</time></trkpt><trkpt lat="43.9915627" lon="12.4438766"><ele>186.57142857142858</ele><time>2026-04-10T12:20:15.852Z</time></trkpt><trkpt lat="43.9915527" lon="12.4437813"><ele>187.14285714285714</ele><time>2026-04-10T12:20:16.852Z</time></trkpt><trkpt lat="43.9915467" lon="12.4436786"><ele>187.71428571428572</ele><time>2026-04-10T12:20:17.853Z</time></trkpt><trkpt lat="43.9915422" lon="12.4435744"><ele>188.28571428571428</ele><time>2026-04-10T12:20:18.853Z</time></trkpt><trkpt lat="43.9915444" lon="12.4434652"><ele>188.85714285714286</ele><time>2026-04-10T12:20:19.853Z</time></trkpt><trkpt lat="43.9915526" lon="12.4433705"><ele>189.42857142857144</ele><time>2026-04-10T12:20:20.852Z</time></trkpt><trkpt lat="43.9915595" lon="12.4432616"><ele>190.0</ele><time>2026-04-10T12:20:21.853Z</time></trkpt><trkpt lat="43.9915778" lon="12.4431258"><ele>190.0</ele><time>2026-04-10T12:20:22.852Z</time></trkpt><trkpt lat="43.9915936" lon="12.4429835"><ele>190.0</ele><time>2026-04-10T12:20:23.854Z</time></trkpt><trkpt lat="43.9916181" lon="12.4428377"><ele>190.0</ele><time>2026-04-10T12:20:24.854Z</time></trkpt><trkpt lat="43.9916375" lon="12.4427173"><ele>190.0</ele><time>2026-04-10T12:20:25.852Z</time></trkpt><trkpt lat="43.9916547" lon="12.4426048"><ele>190.0</ele><time>2026-04-10T12:20:26.853Z</time></trkpt><trkpt lat="43.9916811" lon="12.4424963"><ele>190.16666666666669</ele><time>2026-04-10T12:20:27.853Z</time></trkpt><trkpt lat="43.9917121" lon="12.4423991"><ele>190.33333333333334</ele><time>2026-04-10T12:20:28.854Z</time></trkpt><trkpt lat="43.991752" lon="12.4423"><ele>190.5</ele><time>2026-04-10T12:20:29.853Z</time></trkpt><trkpt lat="43.9917885" lon="12.4421949"><ele>190.66666666666666</ele><time>2026-04-10T12:20:30.854Z</time></trkpt><trkpt lat="43.991815" lon="12.4420975"><ele>190.83333333333331</ele><time>2026-04-10T12:20:31.854Z</time></trkpt><trkpt lat="43.9918154" lon="12.4419908"><ele>191.0</ele><time>2026-04-10T12:20:32.853Z</time></trkpt><trkpt lat="43.9917852" lon="12.4418772"><ele>191.66666666666666</ele><time>2026-04-10T12:20:33.854Z</time></trkpt><trkpt lat="43.9917624" lon="12.4417891"><ele>192.33333333333331</ele><time>2026-04-10T12:20:34.853Z</time></trkpt><trkpt lat="43.9917106" lon="12.441624"><ele>193.0</ele><time>2026-04-10T12:20:36.855Z</time></trkpt><trkpt lat="43.9916789" lon="12.441529"><ele>193.66666666666666</ele><time>2026-04-10T12:20:37.852Z</time></trkpt><trkpt lat="43.9916451" lon="12.4414245"><ele>194.33333333333334</ele><time>2026-04-10T12:20:38.852Z</time></trkpt><trkpt lat="43.9916048" lon="12.4413241"><ele>195.0</ele><time>2026-04-10T12:20:39.852Z</time></trkpt><trkpt lat="43.9915586" lon="12.4412361"><ele>195.66666666666666</ele><time>2026-04-10T12:20:40.853Z</time></trkpt><trkpt lat="43.9915142" lon="12.4411604"><ele>196.33333333333331</ele><time>2026-04-10T12:20:41.853Z</time></trkpt><trkpt lat="43.9914494" lon="12.441081"><ele>197.0</ele><time>2026-04-10T12:20:42.852Z</time></trkpt><trkpt lat="43.9913897" lon="12.4410097"><ele>197.66666666666666</ele><time>2026-04-10T12:20:43.853Z</time></trkpt><trkpt lat="43.9913387" lon="12.4409457"><ele>198.33333333333331</ele><time>2026-04-10T12:20:44.854Z</time></trkpt><trkpt lat="43.9912461" lon="12.4408398"><ele>199.0</ele><time>2026-04-10T12:20:46.852Z</time></trkpt><trkpt lat="43.9911795" lon="12.4407861"><ele>198.99999999999997</ele><time>2026-04-10T12:20:48.852Z</time></trkpt><trkpt lat="43.9911034" lon="12.4407404"><ele>199.0</ele><time>2026-04-10T12:20:51.853Z</time></trkpt><trkpt lat="43.9910409" lon="12.4406958"><ele>199.0</ele><time>2026-04-10T12:20:53.853Z</time></trkpt><trkpt lat="43.9909461" lon="12.4406078"><ele>199.0</ele><time>2026-04-10T12:20:55.854Z</time></trkpt><trkpt lat="43.9908868" lon="12.4405465"><ele>198.99999999999997</ele><time>2026-04-10T12:20:56.853Z</time></trkpt><trkpt lat="43.990827" lon="12.44049"><ele>199.0</ele><time>2026-04-10T12:20:57.852Z</time></trkpt><trkpt lat="43.9907646" lon="12.4404441"><ele>198.16666666666666</ele><time>2026-04-10T12:20:58.853Z</time></trkpt><trkpt lat="43.9906983" lon="12.4403869"><ele>197.33333333333331</ele><time>2026-04-10T12:20:59.853Z</time></trkpt><trkpt lat="43.9906239" lon="12.4403262"><ele>196.5</ele><time>2026-04-10T12:21:00.852Z</time></trkpt><trkpt lat="43.9905537" lon="12.4402525"><ele>195.66666666666669</ele><time>2026-04-10T12:21:01.853Z</time></trkpt><trkpt lat="43.9904743" lon="12.4401817"><ele>194.83333333333334</ele><time>2026-04-10T12:21:02.852Z</time></trkpt><trkpt lat="43.9903916" lon="12.4401061"><ele>194.0</ele><time>2026-04-10T12:21:03.852Z</time></trkpt><trkpt lat="43.9903067" lon="12.4400311"><ele>194.0</ele><time>2026-04-10T12:21:04.852Z</time></trkpt><trkpt lat="43.9902185" lon="12.439956"><ele>194.0</ele><time>2026-04-10T12:21:05.854Z</time></trkpt><trkpt lat="43.9901323" lon="12.439883"><ele>194.0</ele><time>2026-04-10T12:21:06.854Z</time></trkpt><trkpt lat="43.9900494" lon="12.4398124"><ele>194.0</ele><time>2026-04-10T12:21:07.852Z</time></trkpt><trkpt lat="43.9899579" lon="12.4397427"><ele>194.0</ele><time>2026-04-10T12:21:08.853Z</time></trkpt><trkpt lat="43.9898679" lon="12.4396789"><ele>193.39999999999998</ele><time>2026-04-10T12:21:09.854Z</time></trkpt><trkpt lat="43.9897809" lon="12.4396276"><ele>192.8</ele><time>2026-04-10T12:21:10.853Z</time></trkpt><trkpt lat="43.9897012" lon="12.4395821"><ele>192.2</ele><time>2026-04-10T12:21:11.852Z</time></trkpt><trkpt lat="43.9896231" lon="12.4395309"><ele>191.60000000000002</ele><time>2026-04-10T12:21:12.853Z</time></trkpt><trkpt lat="43.9895359" lon="12.4394749"><ele>191.0</ele><time>2026-04-10T12:21:13.852Z</time></trkpt><trkpt lat="43.9894386" lon="12.4394157"><ele>191.0</ele><time>2026-04-10T12:21:14.853Z</time></trkpt><trkpt lat="43.9893381" lon="12.4393557"><ele>191.0</ele><time>2026-04-10T12:21:15.852Z</time></trkpt><trkpt lat="43.9892302" lon="12.4392912"><ele>191.0</ele><time>2026-04-10T12:21:16.852Z</time></trkpt><trkpt lat="43.9891257" lon="12.4392215"><ele>191.0</ele><time>2026-04-10T12:21:17.853Z</time></trkpt><trkpt lat="43.9890222" lon="12.4391559"><ele>191.75</ele><time>2026-04-10T12:21:18.855Z</time></trkpt><trkpt lat="43.9889169" lon="12.4390899"><ele>192.5</ele><time>2026-04-10T12:21:19.853Z</time></trkpt><trkpt lat="43.9888171" lon="12.4390264"><ele>193.25</ele><time>2026-04-10T12:21:20.854Z</time></trkpt><trkpt lat="43.9887088" lon="12.4389637"><ele>194.0</ele><time>2026-04-10T12:21:21.854Z</time></trkpt><trkpt lat="43.9886013" lon="12.4389001"><ele>194.0</ele><time>2026-04-10T12:21:22.854Z</time></trkpt><trkpt lat="43.9884964" lon="12.4388329"><ele>194.0</ele><time>2026-04-10T12:21:23.852Z</time></trkpt><trkpt lat="43.9883858" lon="12.4387645"><ele>194.0</ele><time>2026-04-10T12:21:24.854Z</time></trkpt><trkpt lat="43.9882736" lon="12.4386964"><ele>194.0</ele><time>2026-04-10T12:21:25.853Z</time></trkpt><trkpt lat="43.988153" lon="12.438629"><ele>194.5</ele><time>2026-04-10T12:21:26.852Z</time></trkpt><trkpt lat="43.9880232" lon="12.438541"><ele>195.0</ele><time>2026-04-10T12:21:27.853Z</time></trkpt><trkpt lat="43.9878941" lon="12.4384554"><ele>195.5</ele><time>2026-04-10T12:21:28.854Z</time></trkpt><trkpt lat="43.987779" lon="12.4383743"><ele>196.0</ele><time>2026-04-10T12:21:29.853Z</time></trkpt><trkpt lat="43.9876647" lon="12.4383049"><ele>196.0</ele><time>2026-04-10T12:21:30.854Z</time></trkpt><trkpt lat="43.9875508" lon="12.4382486"><ele>196.0</ele><time>2026-04-10T12:21:31.853Z</time></trkpt><trkpt lat="43.9874317" lon="12.4382009"><ele>196.0</ele><time>2026-04-10T12:21:32.853Z</time></trkpt><trkpt lat="43.9873107" lon="12.4381602"><ele>196.0</ele><time>2026-04-10T12:21:33.853Z</time></trkpt><trkpt lat="43.9871857" lon="12.4381155"><ele>196.25</ele><time>2026-04-10T12:21:34.852Z</time></trkpt><trkpt lat="43.9870617" lon="12.4380692"><ele>196.5</ele><time>2026-04-10T12:21:35.852Z</time></trkpt><trkpt lat="43.9869414" lon="12.4380159"><ele>196.75</ele><time>2026-04-10T12:21:36.853Z</time></trkpt><trkpt lat="43.9868248" lon="12.4379464"><ele>197.0</ele><time>2026-04-10T12:21:37.853Z</time></trkpt><trkpt lat="43.9867066" lon="12.4378668"><ele>196.5</ele><time>2026-04-10T12:21:38.853Z</time></trkpt><trkpt lat="43.9865871" lon="12.4377823"><ele>196.0</ele><time>2026-04-10T12:21:39.852Z</time></trkpt><trkpt lat="43.9864664" lon="12.4376918"><ele>195.5</ele><time>2026-04-10T12:21:40.854Z</time></trkpt><trkpt lat="43.9863431" lon="12.4376023"><ele>195.0</ele><time>2026-04-10T12:21:41.854Z</time></trkpt><trkpt lat="43.9862235" lon="12.4375119"><ele>195.0</ele><time>2026-04-10T12:21:42.853Z</time></trkpt><trkpt lat="43.9861036" lon="12.4374278"><ele>195.0</ele><time>2026-04-10T12:21:43.853Z</time></trkpt><trkpt lat="43.9859813" lon="12.4373398"><ele>195.0</ele><time>2026-04-10T12:21:44.853Z</time></trkpt><trkpt lat="43.9858623" lon="12.4372536"><ele>195.0</ele><time>2026-04-10T12:21:45.852Z</time></trkpt><trkpt lat="43.9857456" lon="12.437162"><ele>195.0</ele><time>2026-04-10T12:21:46.852Z</time></trkpt><trkpt lat="43.9856329" lon="12.4370649"><ele>195.0</ele><time>2026-04-10T12:21:47.852Z</time></trkpt><trkpt lat="43.9855264" lon="12.4369576"><ele>195.0</ele><time>2026-04-10T12:21:48.853Z</time></trkpt><trkpt lat="43.9854238" lon="12.4368477"><ele>195.0</ele><time>2026-04-10T12:21:49.853Z</time></trkpt><trkpt lat="43.9853255" lon="12.436742"><ele>195.0</ele><time>2026-04-10T12:21:50.853Z</time></trkpt><trkpt lat="43.9852336" lon="12.4366477"><ele>195.0</ele><time>2026-04-10T12:21:51.852Z</time></trkpt><trkpt lat="43.9851505" lon="12.436584"><ele>195.0</ele><time>2026-04-10T12:21:52.855Z</time></trkpt><trkpt lat="43.9850678" lon="12.4365605"><ele>195.0</ele><time>2026-04-10T12:21:53.853Z</time></trkpt><trkpt lat="43.9849894" lon="12.4365809"><ele>195.0</ele><time>2026-04-10T12:21:54.853Z</time></trkpt><trkpt lat="43.9849156" lon="12.4366376"><ele>198.2</ele><time>2026-04-10T12:21:55.853Z</time></trkpt><trkpt lat="43.9848378" lon="12.4367204"><ele>201.4</ele><time>2026-04-10T12:21:56.854Z</time></trkpt><trkpt lat="43.9847555" lon="12.436817"><ele>204.60000000000002</ele><time>2026-04-10T12:21:57.853Z</time></trkpt><trkpt lat="43.9846665" lon="12.4369071"><ele>207.8</ele><time>2026-04-10T12:21:58.853Z</time></trkpt><trkpt lat="43.9845764" lon="12.4369749"><ele>211.0</ele><time>2026-04-10T12:21:59.853Z</time></trkpt><trkpt lat="43.984499" lon="12.4369937"><ele>210.99999999999997</ele><time>2026-04-10T12:22:00.852Z</time></trkpt><trkpt lat="43.9844379" lon="12.4369561"><ele>211.0</ele><time>2026-04-10T12:22:01.852Z</time></trkpt><trkpt lat="43.9843861" lon="12.4368873"><ele>211.0</ele><time>2026-04-10T12:22:02.853Z</time></trkpt><trkpt lat="43.9843322" lon="12.4368044"><ele>211.0</ele><time>2026-04-10T12:22:03.852Z</time></trkpt><trkpt lat="43.9842618" lon="12.4367026"><ele>210.99999999999997</ele><time>2026-04-10T12:22:04.853Z</time></trkpt><trkpt lat="43.984175" lon="12.4365815"><ele>211.0</ele><time>2026-04-10T12:22:05.853Z</time></trkpt><trkpt lat="43.9840829" lon="12.4364552"><ele>212.25</ele><time>2026-04-10T12:22:06.853Z</time></trkpt><trkpt lat="43.9839952" lon="12.4363368"><ele>213.5</ele><time>2026-04-10T12:22:07.852Z</time></trkpt><trkpt lat="43.9839097" lon="12.4362269"><ele>214.75</ele><time>2026-04-10T12:22:08.854Z</time></trkpt><trkpt lat="43.9838229" lon="12.4361207"><ele>216.0</ele><time>2026-04-10T12:22:09.852Z</time></trkpt><trkpt lat="43.9837367" lon="12.436012"><ele>216.0</ele><time>2026-04-10T12:22:10.854Z</time></trkpt><trkpt lat="43.9836487" lon="12.4359074"><ele>216.0</ele><time>2026-04-10T12:22:11.853Z</time></trkpt><trkpt lat="43.9835608" lon="12.4358078"><ele>216.0</ele><time>2026-04-10T12:22:12.853Z</time></trkpt><trkpt lat="43.9834745" lon="12.4357078"><ele>216.0</ele><time>2026-04-10T12:22:13.852Z</time></trkpt><trkpt lat="43.983386" lon="12.4356113"><ele>217.75</ele><time>2026-04-10T12:22:14.853Z</time></trkpt><trkpt lat="43.9832931" lon="12.435512"><ele>219.5</ele><time>2026-04-10T12:22:15.852Z</time></trkpt><trkpt lat="43.9831956" lon="12.4354134"><ele>221.25</ele><time>2026-04-10T12:22:16.852Z</time></trkpt><trkpt lat="43.9830953" lon="12.4353111"><ele>223.0</ele><time>2026-04-10T12:22:17.852Z</time></trkpt><trkpt lat="43.9829964" lon="12.4352059"><ele>223.0</ele><time>2026-04-10T12:22:18.853Z</time></trkpt><trkpt lat="43.9829042" lon="12.4351078"><ele>223.0</ele><time>2026-04-10T12:22:19.853Z</time></trkpt><trkpt lat="43.9828142" lon="12.4350171"><ele>223.0</ele><time>2026-04-10T12:22:20.853Z</time></trkpt><trkpt lat="43.9827234" lon="12.4349317"><ele>223.0</ele><time>2026-04-10T12:22:21.854Z</time></trkpt><trkpt lat="43.9826314" lon="12.4348479"><ele>223.0</ele><time>2026-04-10T12:22:22.853Z</time></trkpt><trkpt lat="43.982538" lon="12.4347651"><ele>224.0</ele><time>2026-04-10T12:22:23.853Z</time></trkpt><trkpt lat="43.9824444" lon="12.4346795"><ele>225.0</ele><time>2026-04-10T12:22:24.853Z</time></trkpt><trkpt lat="43.9823533" lon="12.4345892"><ele>226.0</ele><time>2026-04-10T12:22:25.854Z</time></trkpt><trkpt lat="43.9822686" lon="12.4344948"><ele>227.0</ele><time>2026-04-10T12:22:26.852Z</time></trkpt><trkpt lat="43.9821927" lon="12.4344086"><ele>228.0</ele><time>2026-04-10T12:22:27.853Z</time></trkpt><trkpt lat="43.9821158" lon="12.4343358"><ele>228.0</ele><time>2026-04-10T12:22:28.852Z</time></trkpt><trkpt lat="43.9820321" lon="12.4342924"><ele>228.0</ele><time>2026-04-10T12:22:29.853Z</time></trkpt><trkpt lat="43.9819404" lon="12.4342707"><ele>228.0</ele><time>2026-04-10T12:22:30.853Z</time></trkpt><trkpt lat="43.9818525" lon="12.4342502"><ele>228.0</ele><time>2026-04-10T12:22:31.853Z</time></trkpt><trkpt lat="43.9817777" lon="12.4342322"><ele>228.0</ele><time>2026-04-10T12:22:32.852Z</time></trkpt><trkpt lat="43.9817115" lon="12.4342125"><ele>228.0</ele><time>2026-04-10T12:22:33.853Z</time></trkpt><trkpt lat="43.981612" lon="12.434168"><ele>229.33333333333334</ele><time>2026-04-10T12:22:35.854Z</time></trkpt><trkpt lat="43.9815549" lon="12.4341299"><ele>230.66666666666669</ele><time>2026-04-10T12:22:37.853Z</time></trkpt><trkpt lat="43.9815024" lon="12.4342161"><ele>232.0</ele><time>2026-04-10T12:22:40.853Z</time></trkpt><trkpt lat="43.9814855" lon="12.434321"><ele>233.33333333333334</ele><time>2026-04-10T12:22:41.853Z</time></trkpt><trkpt lat="43.9814711" lon="12.4344425"><ele>234.66666666666669</ele><time>2026-04-10T12:22:42.853Z</time></trkpt><trkpt lat="43.9814592" lon="12.4345545"><ele>236.0</ele><time>2026-04-10T12:22:43.852Z</time></trkpt><trkpt lat="43.9814511" lon="12.4346683"><ele>237.00000000000003</ele><time>2026-04-10T12:22:44.852Z</time></trkpt><trkpt lat="43.9814439" lon="12.4347808"><ele>238.0</ele><time>2026-04-10T12:22:45.853Z</time></trkpt><trkpt lat="43.9814329" lon="12.4348965"><ele>239.0</ele><time>2026-04-10T12:22:46.853Z</time></trkpt><trkpt lat="43.9814238" lon="12.4350136"><ele>240.0</ele><time>2026-04-10T12:22:47.852Z</time></trkpt><trkpt lat="43.9814172" lon="12.4351317"><ele>241.00000000000003</ele><time>2026-04-10T12:22:48.853Z</time></trkpt><trkpt lat="43.9814123" lon="12.4352523"><ele>242.0</ele><time>2026-04-10T12:22:49.853Z</time></trkpt><trkpt lat="43.9814169" lon="12.4353827"><ele>241.6</ele><time>2026-04-10T12:22:50.853Z</time></trkpt><trkpt lat="43.9814429" lon="12.4355146"><ele>241.2</ele><time>2026-04-10T12:22:51.854Z</time></trkpt><trkpt lat="43.9814869" lon="12.4356444"><ele>240.8</ele><time>2026-04-10T12:22:52.853Z</time></trkpt><trkpt lat="43.9815361" lon="12.435778"><ele>240.4</ele><time>2026-04-10T12:22:53.853Z</time></trkpt><trkpt lat="43.9815793" lon="12.4359114"><ele>240.0</ele><time>2026-04-10T12:22:54.854Z</time></trkpt><trkpt lat="43.9816303" lon="12.4360517"><ele>240.0</ele><time>2026-04-10T12:22:55.852Z</time></trkpt><trkpt lat="43.9816797" lon="12.4361998"><ele>240.0</ele><time>2026-04-10T12:22:56.852Z</time></trkpt><trkpt lat="43.9817318" lon="12.4363489"><ele>240.0</ele><time>2026-04-10T12:22:57.852Z</time></trkpt><trkpt lat="43.981781" lon="12.4364955"><ele>240.0</ele><time>2026-04-10T12:22:58.854Z</time></trkpt><trkpt lat="43.9818321" lon="12.4366461"><ele>239.75</ele><time>2026-04-10T12:22:59.853Z</time></trkpt><trkpt lat="43.9818809" lon="12.4368099"><ele>239.5</ele><time>2026-04-10T12:23:00.852Z</time></trkpt><trkpt lat="43.9819208" lon="12.4369784"><ele>239.25</ele><time>2026-04-10T12:23:01.852Z</time></trkpt><trkpt lat="43.9819565" lon="12.4371412"><ele>239.0</ele><time>2026-04-10T12:23:02.852Z</time></trkpt><trkpt lat="43.9819898" lon="12.4372967"><ele>238.25</ele><time>2026-04-10T12:23:03.854Z</time></trkpt><trkpt lat="43.9820203" lon="12.4374512"><ele>237.5</ele><time>2026-04-10T12:23:04.853Z</time></trkpt><trkpt lat="43.9820459" lon="12.437603"><ele>236.75</ele><time>2026-04-10T12:23:05.854Z</time></trkpt><trkpt lat="43.9820665" lon="12.4377622"><ele>236.0</ele><time>2026-04-10T12:23:06.853Z</time></trkpt><trkpt lat="43.9820825" lon="12.4379242"><ele>235.0</ele><time>2026-04-10T12:23:07.854Z</time></trkpt><trkpt lat="43.9820952" lon="12.4380889"><ele>234.0</ele><time>2026-04-10T12:23:08.853Z</time></trkpt><trkpt lat="43.9821104" lon="12.438258"><ele>233.0</ele><time>2026-04-10T12:23:09.852Z</time></trkpt><trkpt lat="43.9821203" lon="12.4384278"><ele>232.0</ele><time>2026-04-10T12:23:10.852Z</time></trkpt><trkpt lat="43.9821344" lon="12.4385965"><ele>232.0</ele><time>2026-04-10T12:23:11.854Z</time></trkpt><trkpt lat="43.9821466" lon="12.4387682"><ele>232.0</ele><time>2026-04-10T12:23:12.852Z</time></trkpt><trkpt lat="43.9821523" lon="12.4389327"><ele>232.0</ele><time>2026-04-10T12:23:13.852Z</time></trkpt><trkpt lat="43.9821498" lon="12.439094"><ele>232.0</ele><time>2026-04-10T12:23:14.852Z</time></trkpt><trkpt lat="43.9821386" lon="12.4392579"><ele>231.0</ele><time>2026-04-10T12:23:15.853Z</time></trkpt><trkpt lat="43.9821169" lon="12.4394236"><ele>230.0</ele><time>2026-04-10T12:23:16.852Z</time></trkpt><trkpt lat="43.9820869" lon="12.439588"><ele>229.0</ele><time>2026-04-10T12:23:17.852Z</time></trkpt><trkpt lat="43.9820507" lon="12.4397534"><ele>228.0</ele><time>2026-04-10T12:23:18.854Z</time></trkpt><trkpt lat="43.9820076" lon="12.4399186"><ele>226.75</ele><time>2026-04-10T12:23:19.854Z</time></trkpt><trkpt lat="43.9819641" lon="12.4400782"><ele>225.5</ele><time>2026-04-10T12:23:20.852Z</time></trkpt><trkpt lat="43.9819206" lon="12.4402352"><ele>224.25</ele><time>2026-04-10T12:23:21.852Z</time></trkpt><trkpt lat="43.9818786" lon="12.4403947"><ele>223.0</ele><time>2026-04-10T12:23:22.853Z</time></trkpt><trkpt lat="43.981835" lon="12.4405551"><ele>221.25</ele><time>2026-04-10T12:23:23.853Z</time></trkpt><trkpt lat="43.9817917" lon="12.4407179"><ele>219.5</ele><time>2026-04-10T12:23:24.854Z</time></trkpt><trkpt lat="43.9817491" lon="12.4408784"><ele>217.75</ele><time>2026-04-10T12:23:25.853Z</time></trkpt><trkpt lat="43.9817035" lon="12.4410361"><ele>216.0</ele><time>2026-04-10T12:23:26.853Z</time></trkpt><trkpt lat="43.9816591" lon="12.4411916"><ele>219.0</ele><time>2026-04-10T12:23:27.853Z</time></trkpt><trkpt lat="43.9816161" lon="12.4413409"><ele>222.00000000000003</ele><time>2026-04-10T12:23:28.854Z</time></trkpt><trkpt lat="43.9815737" lon="12.4414807"><ele>225.00000000000003</ele><time>2026-04-10T12:23:29.854Z</time></trkpt><trkpt lat="43.9815343" lon="12.4416169"><ele>228.0</ele><time>2026-04-10T12:23:30.852Z</time></trkpt><trkpt lat="43.9814879" lon="12.4417614"><ele>231.0</ele><time>2026-04-10T12:23:31.853Z</time></trkpt><trkpt lat="43.9814376" lon="12.4418943"><ele>231.0</ele><time>2026-04-10T12:23:32.852Z</time></trkpt><trkpt lat="43.9813796" lon="12.4420078"><ele>231.00000000000003</ele><time>2026-04-10T12:23:33.852Z</time></trkpt><trkpt lat="43.9813087" lon="12.4421117"><ele>231.00000000000003</ele><time>2026-04-10T12:23:34.852Z</time></trkpt><trkpt lat="43.9812083" lon="12.4422044"><ele>231.0</ele><time>2026-04-10T12:23:35.853Z</time></trkpt><trkpt lat="43.9811067" lon="12.4422955"><ele>231.0</ele><time>2026-04-10T12:23:36.853Z</time></trkpt><trkpt lat="43.9810029" lon="12.4423806"><ele>231.75</ele><time>2026-04-10T12:23:37.853Z</time></trkpt><trkpt lat="43.9808984" lon="12.4424609"><ele>232.5</ele><time>2026-04-10T12:23:38.852Z</time></trkpt><trkpt lat="43.9807939" lon="12.4425458"><ele>233.25</ele><time>2026-04-10T12:23:39.852Z</time></trkpt><trkpt lat="43.9806874" lon="12.4426281"><ele>234.0</ele><time>2026-04-10T12:23:40.852Z</time></trkpt><trkpt lat="43.9805866" lon="12.4427143"><ele>234.0</ele><time>2026-04-10T12:23:41.852Z</time></trkpt><trkpt lat="43.9804857" lon="12.442809"><ele>234.0</ele><time>2026-04-10T12:23:42.853Z</time></trkpt><trkpt lat="43.9803907" lon="12.4429007"><ele>234.0</ele><time>2026-04-10T12:23:43.852Z</time></trkpt><trkpt lat="43.9802987" lon="12.4429881"><ele>234.0</ele><time>2026-04-10T12:23:44.852Z</time></trkpt><trkpt lat="43.9802095" lon="12.443076"><ele>233.0</ele><time>2026-04-10T12:23:45.853Z</time></trkpt><trkpt lat="43.980134" lon="12.4431595"><ele>231.99999999999997</ele><time>2026-04-10T12:23:46.853Z</time></trkpt><trkpt lat="43.9800587" lon="12.4432649"><ele>230.99999999999997</ele><time>2026-04-10T12:23:47.852Z</time></trkpt><trkpt lat="43.9799885" lon="12.4433939"><ele>230.0</ele><time>2026-04-10T12:23:48.853Z</time></trkpt><trkpt lat="43.9799201" lon="12.4435375"><ele>229.0</ele><time>2026-04-10T12:23:49.852Z</time></trkpt><trkpt lat="43.9798609" lon="12.443686"><ele>226.75</ele><time>2026-04-10T12:23:50.852Z</time></trkpt><trkpt lat="43.9798071" lon="12.4438341"><ele>224.5</ele><time>2026-04-10T12:23:51.852Z</time></trkpt><trkpt lat="43.97975" lon="12.4439726"><ele>222.25</ele><time>2026-04-10T12:23:52.853Z</time></trkpt><trkpt lat="43.9796947" lon="12.4441096"><ele>220.0</ele><time>2026-04-10T12:23:53.852Z</time></trkpt><trkpt lat="43.979645" lon="12.444247"><ele>220.0</ele><time>2026-04-10T12:23:54.852Z</time></trkpt><trkpt lat="43.9795994" lon="12.4443839"><ele>220.0</ele><time>2026-04-10T12:23:55.853Z</time></trkpt><trkpt lat="43.9795563" lon="12.4445092"><ele>220.0</ele><time>2026-04-10T12:23:56.853Z</time></trkpt><trkpt lat="43.9795104" lon="12.4446322"><ele>220.0</ele><time>2026-04-10T12:23:57.853Z</time></trkpt><trkpt lat="43.9794636" lon="12.4447585"><ele>220.0</ele><time>2026-04-10T12:23:58.853Z</time></trkpt><trkpt lat="43.9794164" lon="12.4449047"><ele>219.0</ele><time>2026-04-10T12:23:59.852Z</time></trkpt><trkpt lat="43.9793664" lon="12.4450584"><ele>218.0</ele><time>2026-04-10T12:24:00.854Z</time></trkpt><trkpt lat="43.9793043" lon="12.4452449"><ele>217.0</ele><time>2026-04-10T12:24:01.853Z</time></trkpt><trkpt lat="43.9792407" lon="12.445435"><ele>216.0</ele><time>2026-04-10T12:24:02.853Z</time></trkpt><trkpt lat="43.9791741" lon="12.445629"><ele>216.0</ele><time>2026-04-10T12:24:03.852Z</time></trkpt><trkpt lat="43.9791079" lon="12.4458124"><ele>216.0</ele><time>2026-04-10T12:24:04.853Z</time></trkpt><trkpt lat="43.9790411" lon="12.4460086"><ele>216.0</ele><time>2026-04-10T12:24:05.852Z</time></trkpt><trkpt lat="43.9789709" lon="12.4462053"><ele>214.33333333333331</ele><time>2026-04-10T12:24:06.853Z</time></trkpt><trkpt lat="43.9789031" lon="12.4464009"><ele>212.66666666666666</ele><time>2026-04-10T12:24:07.852Z</time></trkpt><trkpt lat="43.9788334" lon="12.4465981"><ele>211.0</ele><time>2026-04-10T12:24:08.853Z</time></trkpt><trkpt lat="43.9787644" lon="12.4467899"><ele>211.0</ele><time>2026-04-10T12:24:09.852Z</time></trkpt><trkpt lat="43.9786955" lon="12.4469817"><ele>211.0</ele><time>2026-04-10T12:24:10.852Z</time></trkpt><trkpt lat="43.978626" lon="12.4471763"><ele>211.0</ele><time>2026-04-10T12:24:11.852Z</time></trkpt><trkpt lat="43.9785687" lon="12.447364"><ele>209.75</ele><time>2026-04-10T12:24:12.854Z</time></trkpt><trkpt lat="43.9785103" lon="12.4475675"><ele>208.5</ele><time>2026-04-10T12:24:13.853Z</time></trkpt><trkpt lat="43.9784525" lon="12.4477608"><ele>207.25</ele><time>2026-04-10T12:24:14.853Z</time></trkpt><trkpt lat="43.9784012" lon="12.4479393"><ele>206.0</ele><time>2026-04-10T12:24:15.853Z</time></trkpt><trkpt lat="43.9783553" lon="12.4481074"><ele>206.75</ele><time>2026-04-10T12:24:16.852Z</time></trkpt><trkpt lat="43.9783088" lon="12.4482715"><ele>207.5</ele><time>2026-04-10T12:24:17.852Z</time></trkpt><trkpt lat="43.9782606" lon="12.4484316"><ele>208.25</ele><time>2026-04-10T12:24:18.853Z</time></trkpt><trkpt lat="43.9782238" lon="12.4485868"><ele>209.0</ele><time>2026-04-10T12:24:19.853Z</time></trkpt><trkpt lat="43.9781806" lon="12.4487358"><ele>208.6</ele><time>2026-04-10T12:24:20.852Z</time></trkpt><trkpt lat="43.9781367" lon="12.4488807"><ele>208.2</ele><time>2026-04-10T12:24:21.852Z</time></trkpt><trkpt lat="43.9780888" lon="12.44902"><ele>207.79999999999998</ele><time>2026-04-10T12:24:22.853Z</time></trkpt><trkpt lat="43.9780424" lon="12.4491405"><ele>207.39999999999998</ele><time>2026-04-10T12:24:23.853Z</time></trkpt><trkpt lat="43.9779937" lon="12.4492317"><ele>207.0</ele><time>2026-04-10T12:24:24.853Z</time></trkpt><trkpt lat="43.9779472" lon="12.4492909"><ele>207.00000000000003</ele><time>2026-04-10T12:24:25.852Z</time></trkpt><trkpt lat="43.9778605" lon="12.449322"><ele>207.0</ele><time>2026-04-10T12:24:27.852Z</time></trkpt><trkpt lat="43.9777896" lon="12.449315"><ele>207.0</ele><time>2026-04-10T12:24:29.852Z</time></trkpt><trkpt lat="43.9777172" lon="12.4492859"><ele>207.0</ele><time>2026-04-10T12:24:31.853Z</time></trkpt><trkpt lat="43.9776599" lon="12.4492354"><ele>207.0</ele><time>2026-04-10T12:24:33.854Z</time></trkpt><trkpt lat="43.9776171" lon="12.4491665"><ele>207.00000000000003</ele><time>2026-04-10T12:24:35.853Z</time></trkpt><trkpt lat="43.9775711" lon="12.4490963"><ele>207.0</ele><time>2026-04-10T12:24:37.853Z</time></trkpt><trkpt lat="43.9775026" lon="12.4490352"><ele>206.83333333333334</ele><time>2026-04-10T12:24:39.853Z</time></trkpt><trkpt lat="43.9774231" lon="12.4489588"><ele>206.66666666666669</ele><time>2026-04-10T12:24:41.852Z</time></trkpt><trkpt lat="43.9773237" lon="12.4488615"><ele>206.5</ele><time>2026-04-10T12:24:43.852Z</time></trkpt><trkpt lat="43.9772702" lon="12.4488097"><ele>206.33333333333334</ele><time>2026-04-10T12:24:44.853Z</time></trkpt><trkpt lat="43.9772118" lon="12.4487551"><ele>206.16666666666669</ele><time>2026-04-10T12:24:45.853Z</time></trkpt><trkpt lat="43.9771628" lon="12.4486991"><ele>206.0</ele><time>2026-04-10T12:24:46.852Z</time></trkpt><trkpt lat="43.9770752" lon="12.4486073"><ele>205.66666666666669</ele><time>2026-04-10T12:24:48.852Z</time></trkpt><trkpt lat="43.9770045" lon="12.4485561"><ele>205.33333333333334</ele><time>2026-04-10T12:24:50.853Z</time></trkpt><trkpt lat="43.9769417" lon="12.4485234"><ele>205.0</ele><time>2026-04-10T12:24:52.853Z</time></trkpt><trkpt lat="43.9768492" lon="12.4484694"><ele>204.66666666666669</ele><time>2026-04-10T12:24:55.853Z</time></trkpt><trkpt lat="43.9767471" lon="12.4483958"><ele>204.33333333333334</ele><time>2026-04-10T12:24:57.852Z</time></trkpt><trkpt lat="43.9766897" lon="12.4483506"><ele>204.0</ele><time>2026-04-10T12:24:58.852Z</time></trkpt><trkpt lat="43.9766289" lon="12.4482963"><ele>204.0</ele><time>2026-04-10T12:24:59.854Z</time></trkpt><trkpt lat="43.9765625" lon="12.4482461"><ele>204.0</ele><time>2026-04-10T12:25:00.852Z</time></trkpt><trkpt lat="43.976493" lon="12.4481928"><ele>204.0</ele><time>2026-04-10T12:25:01.853Z</time></trkpt><trkpt lat="43.9764214" lon="12.448142"><ele>204.0</ele><time>2026-04-10T12:25:02.854Z</time></trkpt><trkpt lat="43.9763458" lon="12.4480893"><ele>204.0</ele><time>2026-04-10T12:25:03.853Z</time></trkpt><trkpt lat="43.9762707" lon="12.4480344"><ele>204.0</ele><time>2026-04-10T12:25:04.852Z</time></trkpt><trkpt lat="43.9761964" lon="12.4479803"><ele>204.6</ele><time>2026-04-10T12:25:05.852Z</time></trkpt><trkpt lat="43.976115" lon="12.4479236"><ele>205.2</ele><time>2026-04-10T12:25:06.853Z</time></trkpt><trkpt lat="43.9760353" lon="12.4478649"><ele>205.79999999999998</ele><time>2026-04-10T12:25:07.852Z</time></trkpt><trkpt lat="43.9759539" lon="12.4478087"><ele>206.39999999999998</ele><time>2026-04-10T12:25:08.852Z</time></trkpt><trkpt lat="43.9758708" lon="12.4477511"><ele>207.0</ele><time>2026-04-10T12:25:09.854Z</time></trkpt><trkpt lat="43.9757878" lon="12.4476842"><ele>209.2</ele><time>2026-04-10T12:25:10.853Z</time></trkpt><trkpt lat="43.9757031" lon="12.4476268"><ele>211.39999999999998</ele><time>2026-04-10T12:25:11.854Z</time></trkpt><trkpt lat="43.9756203" lon="12.4475671"><ele>213.60000000000002</ele><time>2026-04-10T12:25:12.852Z</time></trkpt><trkpt lat="43.9755378" lon="12.4475099"><ele>215.8</ele><time>2026-04-10T12:25:13.853Z</time></trkpt><trkpt lat="43.9754565" lon="12.4474457"><ele>218.0</ele><time>2026-04-10T12:25:14.853Z</time></trkpt><trkpt lat="43.9753744" lon="12.44739"><ele>218.00000000000003</ele><time>2026-04-10T12:25:15.854Z</time></trkpt><trkpt lat="43.9753005" lon="12.4473388"><ele>218.0</ele><time>2026-04-10T12:25:16.853Z</time></trkpt><trkpt lat="43.9752245" lon="12.4472831"><ele>218.0</ele><time>2026-04-10T12:25:17.853Z</time></trkpt><trkpt lat="43.9751499" lon="12.4472279"><ele>218.0</ele><time>2026-04-10T12:25:18.852Z</time></trkpt><trkpt lat="43.9750724" lon="12.4471962"><ele>218.00000000000003</ele><time>2026-04-10T12:25:19.853Z</time></trkpt><trkpt lat="43.9749965" lon="12.4471696"><ele>218.0</ele><time>2026-04-10T12:25:20.852Z</time></trkpt><trkpt lat="43.9749228" lon="12.4471538"><ele>219.66666666666669</ele><time>2026-04-10T12:25:21.852Z</time></trkpt><trkpt lat="43.9748439" lon="12.4471454"><ele>221.33333333333334</ele><time>2026-04-10T12:25:22.853Z</time></trkpt><trkpt lat="43.9747682" lon="12.4471481"><ele>223.0</ele><time>2026-04-10T12:25:23.852Z</time></trkpt><trkpt lat="43.9746897" lon="12.4471579"><ele>224.66666666666669</ele><time>2026-04-10T12:25:24.853Z</time></trkpt><trkpt lat="43.9746117" lon="12.4471585"><ele>226.33333333333334</ele><time>2026-04-10T12:25:25.852Z</time></trkpt><trkpt lat="43.9745338" lon="12.4471354"><ele>228.0</ele><time>2026-04-10T12:25:26.853Z</time></trkpt><trkpt lat="43.9744619" lon="12.4470993"><ele>228.0</ele><time>2026-04-10T12:25:27.853Z</time></trkpt><trkpt lat="43.9743928" lon="12.4470534"><ele>228.0</ele><time>2026-04-10T12:25:28.853Z</time></trkpt><trkpt lat="43.974318" lon="12.4470064"><ele>228.0</ele><time>2026-04-10T12:25:29.852Z</time></trkpt><trkpt lat="43.9742418" lon="12.446953"><ele>228.0</ele><time>2026-04-10T12:25:30.853Z</time></trkpt><trkpt lat="43.9741633" lon="12.4469042"><ele>228.0</ele><time>2026-04-10T12:25:31.852Z</time></trkpt><trkpt lat="43.9740847" lon="12.4468549"><ele>228.0</ele><time>2026-04-10T12:25:32.852Z</time></trkpt><trkpt lat="43.9740047" lon="12.4468053"><ele>230.33333333333334</ele><time>2026-04-10T12:25:33.852Z</time></trkpt><trkpt lat="43.9739265" lon="12.446754"><ele>232.66666666666669</ele><time>2026-04-10T12:25:34.853Z</time></trkpt><trkpt lat="43.9738484" lon="12.4467053"><ele>235.0</ele><time>2026-04-10T12:25:35.852Z</time></trkpt><trkpt lat="43.9737726" lon="12.4466579"><ele>237.33333333333334</ele><time>2026-04-10T12:25:36.852Z</time></trkpt><trkpt lat="43.9736956" lon="12.4466124"><ele>239.66666666666669</ele><time>2026-04-10T12:25:37.852Z</time></trkpt><trkpt lat="43.9736198" lon="12.446563"><ele>242.0</ele><time>2026-04-10T12:25:38.852Z</time></trkpt><trkpt lat="43.9735431" lon="12.4465132"><ele>242.00000000000003</ele><time>2026-04-10T12:25:39.853Z</time></trkpt><trkpt lat="43.9734614" lon="12.446465"><ele>242.0</ele><time>2026-04-10T12:25:40.853Z</time></trkpt><trkpt lat="43.9733802" lon="12.446415"><ele>242.0</ele><time>2026-04-10T12:25:41.854Z</time></trkpt><trkpt lat="43.9733008" lon="12.4463675"><ele>242.0</ele><time>2026-04-10T12:25:42.853Z</time></trkpt><trkpt lat="43.973222" lon="12.4463186"><ele>242.00000000000003</ele><time>2026-04-10T12:25:43.853Z</time></trkpt><trkpt lat="43.9731395" lon="12.4462774"><ele>242.0</ele><time>2026-04-10T12:25:44.852Z</time></trkpt><trkpt lat="43.9730574" lon="12.4462233"><ele>243.33333333333334</ele><time>2026-04-10T12:25:45.853Z</time></trkpt><trkpt lat="43.9729748" lon="12.4461722"><ele>244.66666666666669</ele><time>2026-04-10T12:25:46.853Z</time></trkpt><trkpt lat="43.9728896" lon="12.4461131"><ele>246.0</ele><time>2026-04-10T12:25:47.852Z</time></trkpt><trkpt lat="43.972808" lon="12.4460568"><ele>247.33333333333331</ele><time>2026-04-10T12:25:48.853Z</time></trkpt><trkpt lat="43.972739" lon="12.4460069"><ele>248.66666666666666</ele><time>2026-04-10T12:25:49.854Z</time></trkpt><trkpt lat="43.972668" lon="12.4459546"><ele>250.0</ele><time>2026-04-10T12:25:50.854Z</time></trkpt><trkpt lat="43.9725925" lon="12.445914"><ele>250.0</ele><time>2026-04-10T12:25:51.852Z</time></trkpt><trkpt lat="43.9725239" lon="12.4458798"><ele>250.0</ele><time>2026-04-10T12:25:52.852Z</time></trkpt><trkpt lat="43.9724587" lon="12.4458438"><ele>250.0</ele><time>2026-04-10T12:25:53.852Z</time></trkpt><trkpt lat="43.9723902" lon="12.4457996"><ele>250.0</ele><time>2026-04-10T12:25:54.852Z</time></trkpt><trkpt lat="43.9723235" lon="12.4457563"><ele>250.0</ele><time>2026-04-10T12:25:55.853Z</time></trkpt><trkpt lat="43.9722611" lon="12.4457113"><ele>250.0</ele><time>2026-04-10T12:25:56.853Z</time></trkpt><trkpt lat="43.9722002" lon="12.4456664"><ele>250.0</ele><time>2026-04-10T12:25:57.853Z</time></trkpt><trkpt lat="43.9721393" lon="12.4456229"><ele>251.71428571428572</ele><time>2026-04-10T12:25:58.853Z</time></trkpt><trkpt lat="43.9720772" lon="12.4455834"><ele>253.42857142857144</ele><time>2026-04-10T12:25:59.853Z</time></trkpt><trkpt lat="43.9720182" lon="12.445541"><ele>255.14285714285717</ele><time>2026-04-10T12:26:00.854Z</time></trkpt><trkpt lat="43.9719606" lon="12.4455048"><ele>256.8571428571429</ele><time>2026-04-10T12:26:01.853Z</time></trkpt><trkpt lat="43.9718949" lon="12.4454738"><ele>258.5714285714286</ele><time>2026-04-10T12:26:02.852Z</time></trkpt><trkpt lat="43.971821" lon="12.4454335"><ele>260.2857142857143</ele><time>2026-04-10T12:26:03.852Z</time></trkpt><trkpt lat="43.9717475" lon="12.44539"><ele>262.0</ele><time>2026-04-10T12:26:04.852Z</time></trkpt><trkpt lat="43.9716715" lon="12.445342"><ele>264.6</ele><time>2026-04-10T12:26:05.853Z</time></trkpt><trkpt lat="43.971595" lon="12.4452891"><ele>267.2</ele><time>2026-04-10T12:26:06.853Z</time></trkpt><trkpt lat="43.9715185" lon="12.4452244"><ele>269.8</ele><time>2026-04-10T12:26:07.852Z</time></trkpt><trkpt lat="43.9714413" lon="12.4451507"><ele>272.4</ele><time>2026-04-10T12:26:08.852Z</time></trkpt><trkpt lat="43.9713637" lon="12.4450666"><ele>275.0</ele><time>2026-04-10T12:26:09.852Z</time></trkpt><trkpt lat="43.971287" lon="12.4449782"><ele>275.0</ele><time>2026-04-10T12:26:10.852Z</time></trkpt><trkpt lat="43.9712148" lon="12.4448865"><ele>275.0</ele><time>2026-04-10T12:26:11.852Z</time></trkpt><trkpt lat="43.9711307" lon="12.4447889"><ele>275.0</ele><time>2026-04-10T12:26:12.853Z</time></trkpt><trkpt lat="43.9710558" lon="12.4446967"><ele>275.0</ele><time>2026-04-10T12:26:13.852Z</time></trkpt><trkpt lat="43.9709786" lon="12.4445957"><ele>275.0</ele><time>2026-04-10T12:26:14.852Z</time></trkpt><trkpt lat="43.9708965" lon="12.4445006"><ele>277.2</ele><time>2026-04-10T12:26:15.852Z</time></trkpt><trkpt lat="43.9708168" lon="12.4444068"><ele>279.4</ele><time>2026-04-10T12:26:16.852Z</time></trkpt><trkpt lat="43.9707316" lon="12.4443199"><ele>281.6</ele><time>2026-04-10T12:26:17.854Z</time></trkpt><trkpt lat="43.9706492" lon="12.4442337"><ele>283.8</ele><time>2026-04-10T12:26:18.852Z</time></trkpt><trkpt lat="43.9705646" lon="12.444156"><ele>286.0</ele><time>2026-04-10T12:26:19.853Z</time></trkpt><trkpt lat="43.9704787" lon="12.4440773"><ele>286.0</ele><time>2026-04-10T12:26:20.852Z</time></trkpt><trkpt lat="43.9703973" lon="12.4440055"><ele>286.0</ele><time>2026-04-10T12:26:21.852Z</time></trkpt><trkpt lat="43.9703351" lon="12.4439565"><ele>286.0</ele><time>2026-04-10T12:26:22.853Z</time></trkpt><trkpt lat="43.9702599" lon="12.4439123"><ele>286.0</ele><time>2026-04-10T12:26:23.853Z</time></trkpt><trkpt lat="43.9701853" lon="12.4438856"><ele>286.0</ele><time>2026-04-10T12:26:24.852Z</time></trkpt><trkpt lat="43.9701171" lon="12.4438678"><ele>286.0</ele><time>2026-04-10T12:26:25.852Z</time></trkpt><trkpt lat="43.9700257" lon="12.4438437"><ele>287.3333333333333</ele><time>2026-04-10T12:26:27.853Z</time></trkpt><trkpt lat="43.9699643" lon="12.443822"><ele>288.66666666666663</ele><time>2026-04-10T12:26:30.855Z</time></trkpt><trkpt lat="43.9698704" lon="12.4437888"><ele>290.0</ele><time>2026-04-10T12:26:32.852Z</time></trkpt><trkpt lat="43.9698011" lon="12.4437379"><ele>291.3333333333333</ele><time>2026-04-10T12:26:34.853Z</time></trkpt><trkpt lat="43.9697522" lon="12.4436723"><ele>292.6666666666667</ele><time>2026-04-10T12:26:37.852Z</time></trkpt><trkpt lat="43.9697521" lon="12.4435825"><ele>294.0</ele><time>2026-04-10T12:26:40.852Z</time></trkpt><trkpt lat="43.9698098" lon="12.4434859"><ele>294.0</ele><time>2026-04-10T12:26:42.853Z</time></trkpt><trkpt lat="43.9698683" lon="12.4433856"><ele>294.0</ele><time>2026-04-10T12:26:44.852Z</time></trkpt><trkpt lat="43.9699408" lon="12.4432713"><ele>294.0</ele><time>2026-04-10T12:26:46.852Z</time></trkpt><trkpt lat="43.9700181" lon="12.44314"><ele>294.0</ele><time>2026-04-10T12:26:48.852Z</time></trkpt><trkpt lat="43.9700633" lon="12.4430694"><ele>294.0</ele><time>2026-04-10T12:26:49.852Z</time></trkpt><trkpt lat="43.9701071" lon="12.4429983"><ele>291.8333333333333</ele><time>2026-04-10T12:26:50.853Z</time></trkpt><trkpt lat="43.970155" lon="12.4429227"><ele>289.6666666666667</ele><time>2026-04-10T12:26:51.853Z</time></trkpt><trkpt lat="43.9702024" lon="12.44284"><ele>287.5</ele><time>2026-04-10T12:26:52.853Z</time></trkpt><trkpt lat="43.9702532" lon="12.4427572"><ele>285.33333333333337</ele><time>2026-04-10T12:26:53.854Z</time></trkpt><trkpt lat="43.9703029" lon="12.4426732"><ele>283.1666666666667</ele><time>2026-04-10T12:26:54.852Z</time></trkpt><trkpt lat="43.9703534" lon="12.4425944"><ele>281.0</ele><time>2026-04-10T12:26:55.853Z</time></trkpt><trkpt lat="43.970411" lon="12.4425232"><ele>281.0</ele><time>2026-04-10T12:26:56.853Z</time></trkpt><trkpt lat="43.9704845" lon="12.4424458"><ele>281.0</ele><time>2026-04-10T12:26:57.852Z</time></trkpt><trkpt lat="43.9705743" lon="12.4423761"><ele>281.0</ele><time>2026-04-10T12:26:58.853Z</time></trkpt><trkpt lat="43.9706688" lon="12.4423133"><ele>281.0</ele><time>2026-04-10T12:26:59.852Z</time></trkpt><trkpt lat="43.9707722" lon="12.44225"><ele>281.0</ele><time>2026-04-10T12:27:00.852Z</time></trkpt><trkpt lat="43.9708927" lon="12.4421824"><ele>279.25</ele><time>2026-04-10T12:27:01.852Z</time></trkpt><trkpt lat="43.9710302" lon="12.4420988"><ele>277.5</ele><time>2026-04-10T12:27:02.853Z</time></trkpt><trkpt lat="43.9711614" lon="12.4420251"><ele>275.75</ele><time>2026-04-10T12:27:03.852Z</time></trkpt><trkpt lat="43.9712972" lon="12.4419603"><ele>274.0</ele><time>2026-04-10T12:27:04.852Z</time></trkpt><trkpt lat="43.9714157" lon="12.4419048"><ele>274.0</ele><time>2026-04-10T12:27:05.852Z</time></trkpt><trkpt lat="43.97154" lon="12.4418619"><ele>274.0</ele><time>2026-04-10T12:27:06.853Z</time></trkpt><trkpt lat="43.9716496" lon="12.4418259"><ele>274.0</ele><time>2026-04-10T12:27:07.853Z</time></trkpt><trkpt lat="43.9717605" lon="12.4417787"><ele>274.0</ele><time>2026-04-10T12:27:08.853Z</time></trkpt><trkpt lat="43.9718671" lon="12.4417206"><ele>274.8</ele><time>2026-04-10T12:27:09.853Z</time></trkpt><trkpt lat="43.9719579" lon="12.4416441"><ele>275.59999999999997</ele><time>2026-04-10T12:27:10.852Z</time></trkpt><trkpt lat="43.9720427" lon="12.4415488"><ele>276.4</ele><time>2026-04-10T12:27:11.853Z</time></trkpt><trkpt lat="43.9721027" lon="12.4414409"><ele>277.2</ele><time>2026-04-10T12:27:12.854Z</time></trkpt><trkpt lat="43.9721558" lon="12.4413476"><ele>278.0</ele><time>2026-04-10T12:27:13.853Z</time></trkpt><trkpt lat="43.9722164" lon="12.4412613"><ele>278.6</ele><time>2026-04-10T12:27:14.852Z</time></trkpt><trkpt lat="43.9722766" lon="12.4411658"><ele>279.20000000000005</ele><time>2026-04-10T12:27:15.852Z</time></trkpt><trkpt lat="43.97234" lon="12.441057"><ele>279.8</ele><time>2026-04-10T12:27:16.852Z</time></trkpt><trkpt lat="43.9724272" lon="12.4409129"><ele>280.40000000000003</ele><time>2026-04-10T12:27:17.854Z</time></trkpt><trkpt lat="43.972484" lon="12.4407927"><ele>281.0</ele><time>2026-04-10T12:27:18.853Z</time></trkpt><trkpt lat="43.9725141" lon="12.4406924"><ele>280.8</ele><time>2026-04-10T12:27:19.852Z</time></trkpt><trkpt lat="43.9725304" lon="12.4406016"><ele>280.6</ele><time>2026-04-10T12:27:20.853Z</time></trkpt><trkpt lat="43.9725288" lon="12.4405118"><ele>280.4</ele><time>2026-04-10T12:27:21.853Z</time></trkpt><trkpt lat="43.9725125" lon="12.440343"><ele>280.2</ele><time>2026-04-10T12:27:23.852Z</time></trkpt><trkpt lat="43.9725" lon="12.4401741"><ele>280.0</ele><time>2026-04-10T12:27:25.852Z</time></trkpt><trkpt lat="43.9724841" lon="12.4400014"><ele>280.0</ele><time>2026-04-10T12:27:27.853Z</time></trkpt><trkpt lat="43.9724726" lon="12.4398326"><ele>280.0</ele><time>2026-04-10T12:27:29.852Z</time></trkpt><trkpt lat="43.9724532" lon="12.4396668"><ele>280.0</ele><time>2026-04-10T12:27:31.852Z</time></trkpt><trkpt lat="43.9724399" lon="12.4395076"><ele>280.0</ele><time>2026-04-10T12:27:33.852Z</time></trkpt><trkpt lat="43.9724467" lon="12.4393484"><ele>279.0</ele><time>2026-04-10T12:27:35.852Z</time></trkpt><trkpt lat="43.9724504" lon="12.4391933"><ele>278.0</ele><time>2026-04-10T12:27:37.852Z</time></trkpt><trkpt lat="43.9724666" lon="12.4390361"><ele>277.0</ele><time>2026-04-10T12:27:39.853Z</time></trkpt><trkpt lat="43.9724697" lon="12.4389457"><ele>276.0</ele><time>2026-04-10T12:27:40.852Z</time></trkpt><trkpt lat="43.9724728" lon="12.4388464"><ele>275.0</ele><time>2026-04-10T12:27:41.852Z</time></trkpt><trkpt lat="43.9724737" lon="12.4387493"><ele>274.0</ele><time>2026-04-10T12:27:42.853Z</time></trkpt><trkpt lat="43.9724758" lon="12.4386482"><ele>273.0</ele><time>2026-04-10T12:27:43.853Z</time></trkpt><trkpt lat="43.9724789" lon="12.4385573"><ele>272.0</ele><time>2026-04-10T12:27:44.852Z</time></trkpt><trkpt lat="43.9724817" lon="12.4383836"><ele>271.0</ele><time>2026-04-10T12:27:46.852Z</time></trkpt><trkpt lat="43.9724844" lon="12.4382921"><ele>270.0</ele><time>2026-04-10T12:27:47.852Z</time></trkpt><trkpt lat="43.9724759" lon="12.4381286"><ele>269.0</ele><time>2026-04-10T12:27:49.852Z</time></trkpt><trkpt lat="43.9724644" lon="12.4379707"><ele>268.0</ele><time>2026-04-10T12:27:51.852Z</time></trkpt><trkpt lat="43.9724486" lon="12.4378118"><ele>267.0</ele><time>2026-04-10T12:27:53.852Z</time></trkpt><trkpt lat="43.9724342" lon="12.4376574"><ele>266.0</ele><time>2026-04-10T12:27:55.854Z</time></trkpt><trkpt lat="43.9724111" lon="12.4374986"><ele>265.0</ele><time>2026-04-10T12:27:57.853Z</time></trkpt><trkpt lat="43.9723817" lon="12.43733"><ele>265.0</ele><time>2026-04-10T12:27:59.853Z</time></trkpt><trkpt lat="43.9723577" lon="12.437165"><ele>265.0</ele><time>2026-04-10T12:28:01.852Z</time></trkpt><trkpt lat="43.9723378" lon="12.4370145"><ele>265.0</ele><time>2026-04-10T12:28:03.854Z</time></trkpt><trkpt lat="43.9723062" lon="12.4368658"><ele>265.0</ele><time>2026-04-10T12:28:05.852Z</time></trkpt><trkpt lat="43.9722736" lon="12.4367249"><ele>265.0</ele><time>2026-04-10T12:28:07.853Z</time></trkpt><trkpt lat="43.9722315" lon="12.4365981"><ele>263.99999999999994</ele><time>2026-04-10T12:28:09.852Z</time></trkpt><trkpt lat="43.9721805" lon="12.4365049"><ele>263.0</ele><time>2026-04-10T12:28:11.853Z</time></trkpt><trkpt lat="43.9721308" lon="12.4364295"><ele>262.0</ele><time>2026-04-10T12:28:13.853Z</time></trkpt><trkpt lat="43.9720981" lon="12.4363517"><ele>261.0</ele><time>2026-04-10T12:28:15.853Z</time></trkpt><trkpt lat="43.9721231" lon="12.4362632"><ele>260.0</ele><time>2026-04-10T12:28:43.852Z</time></trkpt><trkpt lat="43.9721484" lon="12.4361637"><ele>258.99999999999994</ele><time>2026-04-10T12:28:46.852Z</time></trkpt><trkpt lat="43.9721712" lon="12.4360647"><ele>258.0</ele><time>2026-04-10T12:28:49.854Z</time></trkpt><trkpt lat="43.9721849" lon="12.4359519"><ele>256.8</ele><time>2026-04-10T12:28:52.853Z</time></trkpt><trkpt lat="43.9721848" lon="12.4358338"><ele>255.60000000000002</ele><time>2026-04-10T12:28:55.853Z</time></trkpt><trkpt lat="43.9721778" lon="12.4357007"><ele>254.39999999999998</ele><time>2026-04-10T12:28:57.852Z</time></trkpt><trkpt lat="43.9721779" lon="12.4355558"><ele>253.2</ele><time>2026-04-10T12:28:59.854Z</time></trkpt><trkpt lat="43.9721847" lon="12.4354263"><ele>252.0</ele><time>2026-04-10T12:29:01.853Z</time></trkpt><trkpt lat="43.9721864" lon="12.4353024"><ele>250.71428571428572</ele><time>2026-04-10T12:29:03.853Z</time></trkpt><trkpt lat="43.9721977" lon="12.4352116"><ele>249.42857142857144</ele><time>2026-04-10T12:29:05.853Z</time></trkpt><trkpt lat="43.9722242" lon="12.4351058"><ele>248.14285714285714</ele><time>2026-04-10T12:29:09.853Z</time></trkpt><trkpt lat="43.9722478" lon="12.4350158"><ele>246.85714285714286</ele><time>2026-04-10T12:29:12.852Z</time></trkpt><trkpt lat="43.972223" lon="12.434933"><ele>245.57142857142858</ele><time>2026-04-10T12:29:14.852Z</time></trkpt><trkpt lat="43.972165" lon="12.4348572"><ele>244.28571428571428</ele><time>2026-04-10T12:29:17.853Z</time></trkpt><trkpt lat="43.9721105" lon="12.4347833"><ele>243.0</ele><time>2026-04-10T12:29:20.854Z</time></trkpt><trkpt lat="43.97207" lon="12.4347163"><ele>243.0</ele><time>2026-04-10T12:29:23.853Z</time></trkpt><trkpt lat="43.972024" lon="12.4346438"><ele>243.0</ele><time>2026-04-10T12:29:26.852Z</time></trkpt><trkpt lat="43.9719853" lon="12.4345716"><ele>243.0</ele><time>2026-04-10T12:29:28.852Z</time></trkpt><trkpt lat="43.9719137" lon="12.4344909"><ele>243.0</ele><time>2026-04-10T12:29:30.853Z</time></trkpt><trkpt lat="43.9718954" lon="12.4344061"><ele>243.0</ele><time>2026-04-10T12:29:32.853Z</time></trkpt><trkpt lat="43.9719413" lon="12.4343415"><ele>243.0</ele><time>2026-04-10T12:29:36.853Z</time></trkpt><trkpt lat="43.9720015" lon="12.4343046"><ele>243.0</ele><time>2026-04-10T12:29:38.852Z</time></trkpt><trkpt lat="43.9720656" lon="12.4342534"><ele>240.33333333333334</ele><time>2026-04-10T12:29:40.853Z</time></trkpt><trkpt lat="43.9721266" lon="12.4342127"><ele>237.66666666666669</ele><time>2026-04-10T12:29:42.852Z</time></trkpt><trkpt lat="43.9721718" lon="12.4341121"><ele>235.0</ele><time>2026-04-10T12:29:45.852Z</time></trkpt><trkpt lat="43.9721959" lon="12.4339865"><ele>232.33333333333334</ele><time>2026-04-10T12:29:47.852Z</time></trkpt><trkpt lat="43.9722306" lon="12.4338997"><ele>229.66666666666669</ele><time>2026-04-10T12:29:49.852Z</time></trkpt><trkpt lat="43.9722712" lon="12.4338158"><ele>227.0</ele><time>2026-04-10T12:29:51.852Z</time></trkpt><trkpt lat="43.9723261" lon="12.4337255"><ele>224.50000000000003</ele><time>2026-04-10T12:29:54.854Z</time></trkpt><trkpt lat="43.9723747" lon="12.4336563"><ele>222.0</ele><time>2026-04-10T12:29:58.852Z</time></trkpt><trkpt lat="43.9724296" lon="12.4335607"><ele>219.5</ele><time>2026-04-10T12:30:01.853Z</time></trkpt><trkpt lat="43.9724654" lon="12.4334839"><ele>217.0</ele><time>2026-04-10T12:30:03.853Z</time></trkpt><trkpt lat="43.9724998" lon="12.4333554"><ele>214.50000000000003</ele><time>2026-04-10T12:30:06.852Z</time></trkpt><trkpt lat="43.972541" lon="12.433272"><ele>212.0</ele><time>2026-04-10T12:30:08.852Z</time></trkpt><trkpt lat="43.9725836" lon="12.4332024"><ele>210.66666666666669</ele><time>2026-04-10T12:30:10.853Z</time></trkpt><trkpt lat="43.9726418" lon="12.4331244"><ele>209.33333333333334</ele><time>2026-04-10T12:30:13.852Z</time></trkpt><trkpt lat="43.9726596" lon="12.4330018"><ele>208.0</ele><time>2026-04-10T12:30:16.854Z</time></trkpt><trkpt lat="43.9726401" lon="12.4329033"><ele>206.66666666666669</ele><time>2026-04-10T12:30:18.853Z</time></trkpt><trkpt lat="43.9726497" lon="12.4327686"><ele>205.33333333333334</ele><time>2026-04-10T12:30:21.853Z</time></trkpt><trkpt lat="43.9726648" lon="12.4326727"><ele>204.0</ele><time>2026-04-10T12:30:23.852Z</time></trkpt><trkpt lat="43.972668" lon="12.43258"><ele>201.57142857142858</ele><time>2026-04-10T12:30:25.853Z</time></trkpt><trkpt lat="43.9726797" lon="12.4324879"><ele>199.14285714285717</ele><time>2026-04-10T12:30:27.853Z</time></trkpt><trkpt lat="43.9726438" lon="12.432381"><ele>196.71428571428572</ele><time>2026-04-10T12:30:30.853Z</time></trkpt><trkpt lat="43.9726191" lon="12.4322991"><ele>194.28571428571428</ele><time>2026-04-10T12:30:32.852Z</time></trkpt><trkpt lat="43.9726124" lon="12.4322091"><ele>191.85714285714286</ele><time>2026-04-10T12:30:34.852Z</time></trkpt><trkpt lat="43.9726054" lon="12.4321071"><ele>189.42857142857142</ele><time>2026-04-10T12:30:36.852Z</time></trkpt><trkpt lat="43.9725681" lon="12.4319873"><ele>187.0</ele><time>2026-04-10T12:30:38.852Z</time></trkpt><trkpt lat="43.9725533" lon="12.4318895"><ele>184.33333333333334</ele><time>2026-04-10T12:30:40.852Z</time></trkpt><trkpt lat="43.9725481" lon="12.4317884"><ele>181.66666666666669</ele><time>2026-04-10T12:30:42.852Z</time></trkpt><trkpt lat="43.972548" lon="12.4316914"><ele>179.0</ele><time>2026-04-10T12:30:44.853Z</time></trkpt><trkpt lat="43.9725448" lon="12.4315941"><ele>176.33333333333334</ele><time>2026-04-10T12:30:46.852Z</time></trkpt><trkpt lat="43.9725321" lon="12.4314803"><ele>173.66666666666666</ele><time>2026-04-10T12:30:48.852Z</time></trkpt><trkpt lat="43.972535" lon="12.4313754"><ele>171.0</ele><time>2026-04-10T12:30:50.852Z</time></trkpt><trkpt lat="43.9725338" lon="12.4312467"><ele>170.85714285714283</ele><time>2026-04-10T12:30:53.853Z</time></trkpt><trkpt lat="43.9725309" lon="12.431151"><ele>170.71428571428572</ele><time>2026-04-10T12:30:55.854Z</time></trkpt><trkpt lat="43.972523" lon="12.4310442"><ele>170.57142857142856</ele><time>2026-04-10T12:30:57.853Z</time></trkpt><trkpt lat="43.9725147" lon="12.4309425"><ele>170.42857142857142</ele><time>2026-04-10T12:30:59.853Z</time></trkpt><trkpt lat="43.9725027" lon="12.430836"><ele>170.28571428571428</ele><time>2026-04-10T12:31:02.852Z</time></trkpt><trkpt lat="43.9724904" lon="12.4307433"><ele>170.14285714285714</ele><time>2026-04-10T12:31:05.852Z</time></trkpt><trkpt lat="43.9724791" lon="12.4306398"><ele>170.0</ele><time>2026-04-10T12:31:08.853Z</time></trkpt><trkpt lat="43.9724517" lon="12.4305498"><ele>169.57142857142858</ele><time>2026-04-10T12:31:11.853Z</time></trkpt><trkpt lat="43.9723981" lon="12.4304823"><ele>169.14285714285714</ele><time>2026-04-10T12:31:13.853Z</time></trkpt><trkpt lat="43.9723445" lon="12.4304261"><ele>168.71428571428572</ele><time>2026-04-10T12:31:15.852Z</time></trkpt><trkpt lat="43.9722708" lon="12.4303835"><ele>168.28571428571428</ele><time>2026-04-10T12:31:17.853Z</time></trkpt><trkpt lat="43.9722021" lon="12.4303864"><ele>167.85714285714286</ele><time>2026-04-10T12:31:19.853Z</time></trkpt><trkpt lat="43.9721308" lon="12.4303212"><ele>167.42857142857142</ele><time>2026-04-10T12:31:22.853Z</time></trkpt><trkpt lat="43.9720743" lon="12.4302613"><ele>167.0</ele><time>2026-04-10T12:31:24.853Z</time></trkpt><trkpt lat="43.9720136" lon="12.4301817"><ele>166.83333333333331</ele><time>2026-04-10T12:31:27.853Z</time></trkpt><trkpt lat="43.97197" lon="12.4301033"><ele>166.66666666666666</ele><time>2026-04-10T12:31:29.852Z</time></trkpt><trkpt lat="43.9719297" lon="12.4300336"><ele>166.5</ele><time>2026-04-10T12:31:31.852Z</time></trkpt><trkpt lat="43.9718956" lon="12.4299563"><ele>166.33333333333334</ele><time>2026-04-10T12:31:34.852Z</time></trkpt><trkpt lat="43.9719112" lon="12.4298698"><ele>166.16666666666669</ele><time>2026-04-10T12:33:19.853Z</time></trkpt><trkpt lat="43.9719548" lon="12.4297612"><ele>166.0</ele><time>2026-04-10T12:33:21.852Z</time></trkpt><trkpt lat="43.972033" lon="12.429658"><ele>167.8</ele><time>2026-04-10T12:33:23.853Z</time></trkpt><trkpt lat="43.9721188" lon="12.42956"><ele>169.60000000000002</ele><time>2026-04-10T12:33:25.853Z</time></trkpt><trkpt lat="43.9722115" lon="12.429488"><ele>171.4</ele><time>2026-04-10T12:33:27.852Z</time></trkpt><trkpt lat="43.9723072" lon="12.4294275"><ele>173.2</ele><time>2026-04-10T12:33:29.852Z</time></trkpt><trkpt lat="43.9723962" lon="12.4293655"><ele>175.0</ele><time>2026-04-10T12:33:31.853Z</time></trkpt><trkpt lat="43.9724585" lon="12.4292691"><ele>175.0</ele><time>2026-04-10T12:33:33.852Z</time></trkpt><trkpt lat="43.972499" lon="12.4290985"><ele>175.0</ele><time>2026-04-10T12:33:35.852Z</time></trkpt><trkpt lat="43.9725203" lon="12.4290083"><ele>175.0</ele><time>2026-04-10T12:33:36.854Z</time></trkpt><trkpt lat="43.9725499" lon="12.428918"><ele>175.0</ele><time>2026-04-10T12:33:37.852Z</time></trkpt><trkpt lat="43.9725864" lon="12.4288223"><ele>175.0</ele><time>2026-04-10T12:33:38.852Z</time></trkpt><trkpt lat="43.9726157" lon="12.4287168"><ele>175.0</ele><time>2026-04-10T12:33:39.852Z</time></trkpt><trkpt lat="43.9726392" lon="12.428608"><ele>178.0</ele><time>2026-04-10T12:33:40.853Z</time></trkpt><trkpt lat="43.9726519" lon="12.4285021"><ele>181.0</ele><time>2026-04-10T12:33:41.852Z</time></trkpt><trkpt lat="43.9726299" lon="12.4284194"><ele>184.0</ele><time>2026-04-10T12:33:42.852Z</time></trkpt><trkpt lat="43.9726175" lon="12.4283147"><ele>187.0</ele><time>2026-04-10T12:33:43.852Z</time></trkpt><trkpt lat="43.9726006" lon="12.4282079"><ele>189.99999999999997</ele><time>2026-04-10T12:33:44.854Z</time></trkpt><trkpt lat="43.972596" lon="12.4280984"><ele>193.0</ele><time>2026-04-10T12:33:45.852Z</time></trkpt><trkpt lat="43.9725945" lon="12.4279849"><ele>194.49999999999997</ele><time>2026-04-10T12:33:46.852Z</time></trkpt><trkpt lat="43.9726049" lon="12.427865"><ele>196.0</ele><time>2026-04-10T12:33:47.854Z</time></trkpt><trkpt lat="43.9726206" lon="12.427739"><ele>197.5</ele><time>2026-04-10T12:33:48.853Z</time></trkpt><trkpt lat="43.9726382" lon="12.4276195"><ele>199.0</ele><time>2026-04-10T12:33:49.852Z</time></trkpt><trkpt lat="43.9726606" lon="12.4275024"><ele>200.49999999999997</ele><time>2026-04-10T12:33:50.853Z</time></trkpt><trkpt lat="43.9726843" lon="12.4273937"><ele>202.0</ele><time>2026-04-10T12:33:51.852Z</time></trkpt><trkpt lat="43.9727088" lon="12.4272775"><ele>201.99999999999997</ele><time>2026-04-10T12:33:52.852Z</time></trkpt><trkpt lat="43.9727261" lon="12.4271656"><ele>202.0</ele><time>2026-04-10T12:33:53.852Z</time></trkpt><trkpt lat="43.9727427" lon="12.4270506"><ele>202.0</ele><time>2026-04-10T12:33:54.853Z</time></trkpt><trkpt lat="43.9727411" lon="12.426931"><ele>202.0</ele><time>2026-04-10T12:33:55.853Z</time></trkpt><trkpt lat="43.9727305" lon="12.4268037"><ele>201.99999999999997</ele><time>2026-04-10T12:33:56.851Z</time></trkpt><trkpt lat="43.9727218" lon="12.4266733"><ele>202.0</ele><time>2026-04-10T12:33:57.853Z</time></trkpt><trkpt lat="43.9727251" lon="12.4265363"><ele>203.33333333333331</ele><time>2026-04-10T12:33:58.853Z</time></trkpt><trkpt lat="43.9727302" lon="12.4264063"><ele>204.66666666666666</ele><time>2026-04-10T12:33:59.853Z</time></trkpt><trkpt lat="43.9727351" lon="12.4262874"><ele>206.0</ele><time>2026-04-10T12:34:00.853Z</time></trkpt><trkpt lat="43.9727366" lon="12.4261641"><ele>207.33333333333331</ele><time>2026-04-10T12:34:01.851Z</time></trkpt><trkpt lat="43.9727465" lon="12.4260532"><ele>208.66666666666666</ele><time>2026-04-10T12:34:02.853Z</time></trkpt><trkpt lat="43.9727543" lon="12.4259463"><ele>210.0</ele><time>2026-04-10T12:34:03.851Z</time></trkpt><trkpt lat="43.9727596" lon="12.4258434"><ele>209.33333333333334</ele><time>2026-04-10T12:34:04.851Z</time></trkpt><trkpt lat="43.9727628" lon="12.4257461"><ele>208.66666666666669</ele><time>2026-04-10T12:34:05.853Z</time></trkpt><trkpt lat="43.9727643" lon="12.4255578"><ele>208.0</ele><time>2026-04-10T12:34:07.852Z</time></trkpt><trkpt lat="43.9727583" lon="12.4254533"><ele>207.33333333333334</ele><time>2026-04-10T12:34:08.853Z</time></trkpt><trkpt lat="43.9727456" lon="12.4253486"><ele>206.66666666666669</ele><time>2026-04-10T12:34:09.852Z</time></trkpt><trkpt lat="43.9727523" lon="12.425239"><ele>206.0</ele><time>2026-04-10T12:34:10.853Z</time></trkpt><trkpt lat="43.9727732" lon="12.4251176"><ele>206.00000000000003</ele><time>2026-04-10T12:34:11.853Z</time></trkpt><trkpt lat="43.9727835" lon="12.4250066"><ele>206.0</ele><time>2026-04-10T12:34:12.852Z</time></trkpt><trkpt lat="43.9727958" lon="12.4248948"><ele>206.0</ele><time>2026-04-10T12:34:13.852Z</time></trkpt><trkpt lat="43.9727988" lon="12.4247709"><ele>206.0</ele><time>2026-04-10T12:34:14.852Z</time></trkpt><trkpt lat="43.9728019" lon="12.4246529"><ele>206.00000000000003</ele><time>2026-04-10T12:34:15.853Z</time></trkpt><trkpt lat="43.972806" lon="12.4245434"><ele>206.0</ele><time>2026-04-10T12:34:16.853Z</time></trkpt><trkpt lat="43.9728625" lon="12.4243863"><ele>204.83333333333334</ele><time>2026-04-10T12:34:18.852Z</time></trkpt><trkpt lat="43.9729502" lon="12.424263"><ele>203.66666666666669</ele><time>2026-04-10T12:34:20.852Z</time></trkpt><trkpt lat="43.9730045" lon="12.4242035"><ele>202.5</ele><time>2026-04-10T12:34:21.852Z</time></trkpt><trkpt lat="43.973062" lon="12.4241301"><ele>201.33333333333331</ele><time>2026-04-10T12:34:22.852Z</time></trkpt><trkpt lat="43.9731034" lon="12.4240408"><ele>200.16666666666666</ele><time>2026-04-10T12:34:23.852Z</time></trkpt><trkpt lat="43.9731475" lon="12.4239463"><ele>199.0</ele><time>2026-04-10T12:34:24.853Z</time></trkpt><trkpt lat="43.9731831" lon="12.4238277"><ele>198.83333333333331</ele><time>2026-04-10T12:34:25.852Z</time></trkpt><trkpt lat="43.9732238" lon="12.423726"><ele>198.66666666666666</ele><time>2026-04-10T12:34:26.852Z</time></trkpt><trkpt lat="43.9732765" lon="12.4236451"><ele>198.5</ele><time>2026-04-10T12:34:27.851Z</time></trkpt><trkpt lat="43.973336" lon="12.4236083"><ele>198.33333333333331</ele><time>2026-04-10T12:34:28.853Z</time></trkpt><trkpt lat="43.9734117" lon="12.423606"><ele>198.16666666666666</ele><time>2026-04-10T12:34:29.854Z</time></trkpt><trkpt lat="43.9734936" lon="12.4236253"><ele>198.0</ele><time>2026-04-10T12:34:30.851Z</time></trkpt><trkpt lat="43.9735751" lon="12.4236827"><ele>199.8</ele><time>2026-04-10T12:34:31.852Z</time></trkpt><trkpt lat="43.9736551" lon="12.4237356"><ele>201.60000000000002</ele><time>2026-04-10T12:34:32.852Z</time></trkpt><trkpt lat="43.97374" lon="12.4237904"><ele>203.39999999999998</ele><time>2026-04-10T12:34:33.853Z</time></trkpt><trkpt lat="43.9738408" lon="12.423823"><ele>205.2</ele><time>2026-04-10T12:34:34.852Z</time></trkpt><trkpt lat="43.9739302" lon="12.4238343"><ele>207.0</ele><time>2026-04-10T12:34:35.852Z</time></trkpt><trkpt lat="43.9740179" lon="12.4238127"><ele>207.0</ele><time>2026-04-10T12:34:36.853Z</time></trkpt><trkpt lat="43.9740919" lon="12.4237512"><ele>207.0</ele><time>2026-04-10T12:34:37.852Z</time></trkpt><trkpt lat="43.9741495" lon="12.423655"><ele>207.0</ele><time>2026-04-10T12:34:38.852Z</time></trkpt><trkpt lat="43.9741816" lon="12.4235443"><ele>207.0</ele><time>2026-04-10T12:34:39.851Z</time></trkpt><trkpt lat="43.9742079" lon="12.4234378"><ele>207.0</ele><time>2026-04-10T12:34:40.853Z</time></trkpt><trkpt lat="43.9742355" lon="12.4233574"><ele>207.0</ele><time>2026-04-10T12:34:41.853Z</time></trkpt><trkpt lat="43.9743509" lon="12.4233099"><ele>209.83333333333334</ele><time>2026-04-10T12:34:43.852Z</time></trkpt><trkpt lat="43.9744181" lon="12.4233381"><ele>212.66666666666669</ele><time>2026-04-10T12:34:44.851Z</time></trkpt><trkpt lat="43.9744798" lon="12.4233958"><ele>215.5</ele><time>2026-04-10T12:34:45.851Z</time></trkpt><trkpt lat="43.974524" lon="12.4234847"><ele>218.33333333333334</ele><time>2026-04-10T12:34:46.853Z</time></trkpt><trkpt lat="43.974562" lon="12.4235874"><ele>221.16666666666669</ele><time>2026-04-10T12:34:47.853Z</time></trkpt><trkpt lat="43.9746034" lon="12.4237059"><ele>224.0</ele><time>2026-04-10T12:34:48.852Z</time></trkpt><trkpt lat="43.9746383" lon="12.4238262"><ele>225.2</ele><time>2026-04-10T12:34:49.852Z</time></trkpt><trkpt lat="43.9746772" lon="12.423945"><ele>226.39999999999998</ele><time>2026-04-10T12:34:50.853Z</time></trkpt><trkpt lat="43.9747141" lon="12.4240702"><ele>227.6</ele><time>2026-04-10T12:34:51.852Z</time></trkpt><trkpt lat="43.9747569" lon="12.4241893"><ele>228.8</ele><time>2026-04-10T12:34:52.852Z</time></trkpt><trkpt lat="43.9748006" lon="12.4243105"><ele>230.0</ele><time>2026-04-10T12:34:53.852Z</time></trkpt><trkpt lat="43.9748441" lon="12.4244313"><ele>230.0</ele><time>2026-04-10T12:34:54.852Z</time></trkpt><trkpt lat="43.9748841" lon="12.4245466"><ele>230.0</ele><time>2026-04-10T12:34:55.852Z</time></trkpt><trkpt lat="43.9749182" lon="12.4246996"><ele>230.0</ele><time>2026-04-10T12:34:56.853Z</time></trkpt><trkpt lat="43.9749476" lon="12.4248544"><ele>230.0</ele><time>2026-04-10T12:34:57.853Z</time></trkpt><trkpt lat="43.9749675" lon="12.4250032"><ele>230.0</ele><time>2026-04-10T12:34:58.852Z</time></trkpt><trkpt lat="43.9749808" lon="12.4251511"><ele>231.2</ele><time>2026-04-10T12:34:59.852Z</time></trkpt><trkpt lat="43.9749951" lon="12.4252935"><ele>232.4</ele><time>2026-04-10T12:35:00.852Z</time></trkpt><trkpt lat="43.9750108" lon="12.42543"><ele>233.60000000000002</ele><time>2026-04-10T12:35:01.852Z</time></trkpt><trkpt lat="43.9750285" lon="12.4255663"><ele>234.8</ele><time>2026-04-10T12:35:02.852Z</time></trkpt><trkpt lat="43.9750701" lon="12.4256917"><ele>236.0</ele><time>2026-04-10T12:35:03.853Z</time></trkpt><trkpt lat="43.9751206" lon="12.425816"><ele>240.8</ele><time>2026-04-10T12:35:04.851Z</time></trkpt><trkpt lat="43.9751854" lon="12.4259272"><ele>245.60000000000002</ele><time>2026-04-10T12:35:05.852Z</time></trkpt><trkpt lat="43.9752581" lon="12.4260294"><ele>250.4</ele><time>2026-04-10T12:35:06.852Z</time></trkpt><trkpt lat="43.9753364" lon="12.4261297"><ele>255.2</ele><time>2026-04-10T12:35:07.851Z</time></trkpt><trkpt lat="43.9754121" lon="12.4262316"><ele>260.0</ele><time>2026-04-10T12:35:08.853Z</time></trkpt><trkpt lat="43.9754796" lon="12.4263318"><ele>260.2</ele><time>2026-04-10T12:35:09.852Z</time></trkpt><trkpt lat="43.9755138" lon="12.4264732"><ele>260.4</ele><time>2026-04-10T12:35:10.852Z</time></trkpt><trkpt lat="43.9755423" lon="12.4266187"><ele>260.6</ele><time>2026-04-10T12:35:11.851Z</time></trkpt><trkpt lat="43.9755576" lon="12.4267734"><ele>260.8</ele><time>2026-04-10T12:35:12.851Z</time></trkpt><trkpt lat="43.9755643" lon="12.4269279"><ele>261.0</ele><time>2026-04-10T12:35:13.853Z</time></trkpt><trkpt lat="43.9755875" lon="12.4270718"><ele>260.6</ele><time>2026-04-10T12:35:14.852Z</time></trkpt><trkpt lat="43.9756321" lon="12.4271999"><ele>260.20000000000005</ele><time>2026-04-10T12:35:15.852Z</time></trkpt><trkpt lat="43.9756939" lon="12.4273104"><ele>259.79999999999995</ele><time>2026-04-10T12:35:16.851Z</time></trkpt><trkpt lat="43.9757611" lon="12.4274091"><ele>259.4</ele><time>2026-04-10T12:35:17.853Z</time></trkpt><trkpt lat="43.975836" lon="12.4274967"><ele>259.0</ele><time>2026-04-10T12:35:18.852Z</time></trkpt><trkpt lat="43.9759065" lon="12.4275871"><ele>258.0</ele><time>2026-04-10T12:35:19.852Z</time></trkpt><trkpt lat="43.9759819" lon="12.4276864"><ele>257.0</ele><time>2026-04-10T12:35:20.851Z</time></trkpt><trkpt lat="43.9760439" lon="12.4277705"><ele>255.99999999999997</ele><time>2026-04-10T12:35:21.854Z</time></trkpt><trkpt lat="43.9761108" lon="12.4278487"><ele>255.0</ele><time>2026-04-10T12:35:22.852Z</time></trkpt><trkpt lat="43.9761945" lon="12.4279196"><ele>254.0</ele><time>2026-04-10T12:35:23.852Z</time></trkpt><trkpt lat="43.976281" lon="12.4279905"><ele>254.0</ele><time>2026-04-10T12:35:24.852Z</time></trkpt><trkpt lat="43.9763743" lon="12.4280334"><ele>253.99999999999997</ele><time>2026-04-10T12:35:25.851Z</time></trkpt><trkpt lat="43.9764785" lon="12.4280428"><ele>253.99999999999997</ele><time>2026-04-10T12:35:26.853Z</time></trkpt><trkpt lat="43.9765918" lon="12.4280311"><ele>254.0</ele><time>2026-04-10T12:35:27.852Z</time></trkpt><trkpt lat="43.9766956" lon="12.4280141"><ele>254.0</ele><time>2026-04-10T12:35:28.852Z</time></trkpt><trkpt lat="43.9768002" lon="12.4279637"><ele>257.8</ele><time>2026-04-10T12:35:29.852Z</time></trkpt><trkpt lat="43.97691" lon="12.4279141"><ele>261.59999999999997</ele><time>2026-04-10T12:35:30.853Z</time></trkpt><trkpt lat="43.9770065" lon="12.4278434"><ele>265.4</ele><time>2026-04-10T12:35:31.852Z</time></trkpt><trkpt lat="43.977097" lon="12.4278"><ele>269.2</ele><time>2026-04-10T12:35:32.853Z</time></trkpt><trkpt lat="43.9771891" lon="12.4277796"><ele>273.0</ele><time>2026-04-10T12:35:33.852Z</time></trkpt><trkpt lat="43.9772809" lon="12.4277846"><ele>273.0</ele><time>2026-04-10T12:35:34.853Z</time></trkpt><trkpt lat="43.9773741" lon="12.427788"><ele>273.0</ele><time>2026-04-10T12:35:35.851Z</time></trkpt><trkpt lat="43.9774674" lon="12.4277998"><ele>273.0</ele><time>2026-04-10T12:35:36.852Z</time></trkpt><trkpt lat="43.9775544" lon="12.4278212"><ele>273.0</ele><time>2026-04-10T12:35:37.854Z</time></trkpt><trkpt lat="43.9776555" lon="12.4278289"><ele>273.0</ele><time>2026-04-10T12:35:38.853Z</time></trkpt><trkpt lat="43.9777613" lon="12.4278404"><ele>272.2</ele><time>2026-04-10T12:35:39.853Z</time></trkpt><trkpt lat="43.9778611" lon="12.4278587"><ele>271.4</ele><time>2026-04-10T12:35:40.851Z</time></trkpt><trkpt lat="43.977962" lon="12.4278895"><ele>270.59999999999997</ele><time>2026-04-10T12:35:41.852Z</time></trkpt><trkpt lat="43.9780535" lon="12.4279285"><ele>269.8</ele><time>2026-04-10T12:35:42.852Z</time></trkpt><trkpt lat="43.9781308" lon="12.4279833"><ele>269.0</ele><time>2026-04-10T12:35:43.853Z</time></trkpt><trkpt lat="43.9781972" lon="12.428047"><ele>269.0</ele><time>2026-04-10T12:35:44.852Z</time></trkpt><trkpt lat="43.9782595" lon="12.4281232"><ele>269.0</ele><time>2026-04-10T12:35:45.851Z</time></trkpt><trkpt lat="43.9783104" lon="12.4282121"><ele>269.0</ele><time>2026-04-10T12:35:46.851Z</time></trkpt><trkpt lat="43.9783521" lon="12.4283235"><ele>269.0</ele><time>2026-04-10T12:35:47.854Z</time></trkpt><trkpt lat="43.9783905" lon="12.428437"><ele>269.0</ele><time>2026-04-10T12:35:48.853Z</time></trkpt><trkpt lat="43.9784314" lon="12.4285481"><ele>269.0</ele><time>2026-04-10T12:35:49.852Z</time></trkpt><trkpt lat="43.9784752" lon="12.4286639"><ele>269.4</ele><time>2026-04-10T12:35:50.852Z</time></trkpt><trkpt lat="43.9785274" lon="12.4287849"><ele>269.79999999999995</ele><time>2026-04-10T12:35:51.852Z</time></trkpt><trkpt lat="43.9785839" lon="12.4289188"><ele>270.20000000000005</ele><time>2026-04-10T12:35:52.851Z</time></trkpt><trkpt lat="43.9786423" lon="12.429056"><ele>270.6</ele><time>2026-04-10T12:35:53.852Z</time></trkpt><trkpt lat="43.9787023" lon="12.4291952"><ele>271.0</ele><time>2026-04-10T12:35:54.853Z</time></trkpt><trkpt lat="43.9787583" lon="12.4293306"><ele>271.0</ele><time>2026-04-10T12:35:55.852Z</time></trkpt><trkpt lat="43.9788153" lon="12.4294654"><ele>271.0</ele><time>2026-04-10T12:35:56.853Z</time></trkpt><trkpt lat="43.9788813" lon="12.4295892"><ele>271.0</ele><time>2026-04-10T12:35:57.851Z</time></trkpt><trkpt lat="43.9789555" lon="12.4297083"><ele>271.0</ele><time>2026-04-10T12:35:58.851Z</time></trkpt><trkpt lat="43.9790357" lon="12.4298077"><ele>271.0</ele><time>2026-04-10T12:35:59.851Z</time></trkpt><trkpt lat="43.9791407" lon="12.429854"><ele>265.5</ele><time>2026-04-10T12:36:00.851Z</time></trkpt><trkpt lat="43.9792458" lon="12.4298771"><ele>260.0</ele><time>2026-04-10T12:36:01.852Z</time></trkpt><trkpt lat="43.9793531" lon="12.4298638"><ele>254.5</ele><time>2026-04-10T12:36:02.852Z</time></trkpt><trkpt lat="43.9794675" lon="12.4298251"><ele>249.0</ele><time>2026-04-10T12:36:03.852Z</time></trkpt><trkpt lat="43.9795851" lon="12.4297793"><ele>249.0</ele><time>2026-04-10T12:36:04.853Z</time></trkpt><trkpt lat="43.9797073" lon="12.429733"><ele>249.0</ele><time>2026-04-10T12:36:05.851Z</time></trkpt><trkpt lat="43.979841" lon="12.4297089"><ele>249.0</ele><time>2026-04-10T12:36:06.852Z</time></trkpt><trkpt lat="43.9799749" lon="12.4296857"><ele>249.0</ele><time>2026-04-10T12:36:07.851Z</time></trkpt><trkpt lat="43.9801114" lon="12.4296655"><ele>249.5</ele><time>2026-04-10T12:36:08.853Z</time></trkpt><trkpt lat="43.9802419" lon="12.4296502"><ele>250.0</ele><time>2026-04-10T12:36:09.852Z</time></trkpt><trkpt lat="43.9803728" lon="12.4296457"><ele>250.5</ele><time>2026-04-10T12:36:10.852Z</time></trkpt><trkpt lat="43.980507" lon="12.4296685"><ele>251.0</ele><time>2026-04-10T12:36:11.853Z</time></trkpt><trkpt lat="43.9806345" lon="12.4297194"><ele>251.0</ele><time>2026-04-10T12:36:12.851Z</time></trkpt><trkpt lat="43.9807453" lon="12.4298084"><ele>251.0</ele><time>2026-04-10T12:36:13.852Z</time></trkpt><trkpt lat="43.9808447" lon="12.4299205"><ele>251.0</ele><time>2026-04-10T12:36:14.852Z</time></trkpt><trkpt lat="43.9809413" lon="12.4300492"><ele>251.0</ele><time>2026-04-10T12:36:15.853Z</time></trkpt><trkpt lat="43.9810383" lon="12.4301804"><ele>249.0</ele><time>2026-04-10T12:36:16.853Z</time></trkpt><trkpt lat="43.9811335" lon="12.4303129"><ele>247.0</ele><time>2026-04-10T12:36:17.853Z</time></trkpt><trkpt lat="43.9812302" lon="12.4304434"><ele>245.0</ele><time>2026-04-10T12:36:18.852Z</time></trkpt><trkpt lat="43.9813262" lon="12.4305776"><ele>243.0</ele><time>2026-04-10T12:36:19.853Z</time></trkpt><trkpt lat="43.9814193" lon="12.4307056"><ele>243.0</ele><time>2026-04-10T12:36:20.851Z</time></trkpt><trkpt lat="43.9815077" lon="12.4308362"><ele>243.0</ele><time>2026-04-10T12:36:21.852Z</time></trkpt><trkpt lat="43.9815827" lon="12.4309728"><ele>243.0</ele><time>2026-04-10T12:36:22.852Z</time></trkpt><trkpt lat="43.9816502" lon="12.4311135"><ele>243.0</ele><time>2026-04-10T12:36:23.853Z</time></trkpt><trkpt lat="43.981689" lon="12.4312713"><ele>239.5</ele><time>2026-04-10T12:36:24.852Z</time></trkpt><trkpt lat="43.9817057" lon="12.4314356"><ele>236.0</ele><time>2026-04-10T12:36:25.852Z</time></trkpt><trkpt lat="43.9817103" lon="12.4316071"><ele>232.5</ele><time>2026-04-10T12:36:26.853Z</time></trkpt><trkpt lat="43.9817062" lon="12.4317876"><ele>229.0</ele><time>2026-04-10T12:36:27.852Z</time></trkpt><trkpt lat="43.9816976" lon="12.4319703"><ele>228.0</ele><time>2026-04-10T12:36:28.853Z</time></trkpt><trkpt lat="43.981684" lon="12.4321501"><ele>227.0</ele><time>2026-04-10T12:36:29.851Z</time></trkpt><trkpt lat="43.9816692" lon="12.4323218"><ele>226.0</ele><time>2026-04-10T12:36:30.853Z</time></trkpt><trkpt lat="43.9816527" lon="12.4324917"><ele>225.0</ele><time>2026-04-10T12:36:31.853Z</time></trkpt><trkpt lat="43.9816369" lon="12.4326642"><ele>227.5</ele><time>2026-04-10T12:36:32.852Z</time></trkpt><trkpt lat="43.9816197" lon="12.4328344"><ele>230.0</ele><time>2026-04-10T12:36:33.852Z</time></trkpt><trkpt lat="43.981609" lon="12.4329943"><ele>232.5</ele><time>2026-04-10T12:36:34.851Z</time></trkpt><trkpt lat="43.9815985" lon="12.4331474"><ele>235.0</ele><time>2026-04-10T12:36:35.853Z</time></trkpt><trkpt lat="43.9815847" lon="12.4332895"><ele>234.99999999999997</ele><time>2026-04-10T12:36:36.852Z</time></trkpt><trkpt lat="43.9815707" lon="12.4334238"><ele>235.0</ele><time>2026-04-10T12:36:37.852Z</time></trkpt><trkpt lat="43.9815587" lon="12.433548"><ele>235.0</ele><time>2026-04-10T12:36:38.854Z</time></trkpt><trkpt lat="43.9815492" lon="12.43367"><ele>235.0</ele><time>2026-04-10T12:36:39.851Z</time></trkpt><trkpt lat="43.9815366" lon="12.4337783"><ele>234.99999999999997</ele><time>2026-04-10T12:36:40.853Z</time></trkpt><trkpt lat="43.9815297" lon="12.4338832"><ele>235.0</ele><time>2026-04-10T12:36:41.852Z</time></trkpt><trkpt lat="43.9815175" lon="12.4339813"><ele>235.2</ele><time>2026-04-10T12:36:42.853Z</time></trkpt><trkpt lat="43.9815064" lon="12.4340998"><ele>235.4</ele><time>2026-04-10T12:36:43.853Z</time></trkpt><trkpt lat="43.9814934" lon="12.4342294"><ele>235.60000000000002</ele><time>2026-04-10T12:36:44.852Z</time></trkpt><trkpt lat="43.9814806" lon="12.4343607"><ele>235.8</ele><time>2026-04-10T12:36:45.852Z</time></trkpt><trkpt lat="43.9814663" lon="12.4344998"><ele>236.0</ele><time>2026-04-10T12:36:46.851Z</time></trkpt><trkpt lat="43.9814542" lon="12.434641"><ele>237.20000000000002</ele><time>2026-04-10T12:36:47.852Z</time></trkpt><trkpt lat="43.9814413" lon="12.4347872"><ele>238.40000000000003</ele><time>2026-04-10T12:36:48.852Z</time></trkpt><trkpt lat="43.9814293" lon="12.4349443"><ele>239.6</ele><time>2026-04-10T12:36:49.852Z</time></trkpt><trkpt lat="43.9814239" lon="12.4351014"><ele>240.8</ele><time>2026-04-10T12:36:50.853Z</time></trkpt><trkpt lat="43.9814232" lon="12.4352599"><ele>242.0</ele><time>2026-04-10T12:36:51.852Z</time></trkpt><trkpt lat="43.9814375" lon="12.4354067"><ele>241.6</ele><time>2026-04-10T12:36:52.852Z</time></trkpt><trkpt lat="43.9814704" lon="12.435549"><ele>241.2</ele><time>2026-04-10T12:36:53.851Z</time></trkpt><trkpt lat="43.9815101" lon="12.4356871"><ele>240.8</ele><time>2026-04-10T12:36:54.852Z</time></trkpt><trkpt lat="43.9815609" lon="12.4358239"><ele>240.4</ele><time>2026-04-10T12:36:55.853Z</time></trkpt><trkpt lat="43.981608" lon="12.435958"><ele>240.0</ele><time>2026-04-10T12:36:56.852Z</time></trkpt><trkpt lat="43.9816518" lon="12.4360841"><ele>239.75</ele><time>2026-04-10T12:36:57.852Z</time></trkpt><trkpt lat="43.9816955" lon="12.4362143"><ele>239.5</ele><time>2026-04-10T12:36:58.852Z</time></trkpt><trkpt lat="43.9817439" lon="12.4363556"><ele>239.25</ele><time>2026-04-10T12:36:59.852Z</time></trkpt><trkpt lat="43.9817964" lon="12.4365062"><ele>239.0</ele><time>2026-04-10T12:37:00.854Z</time></trkpt><trkpt lat="43.9818453" lon="12.4366627"><ele>239.0</ele><time>2026-04-10T12:37:01.853Z</time></trkpt><trkpt lat="43.9818919" lon="12.4368298"><ele>239.0</ele><time>2026-04-10T12:37:02.851Z</time></trkpt><trkpt lat="43.981936" lon="12.4369992"><ele>239.0</ele><time>2026-04-10T12:37:03.852Z</time></trkpt><trkpt lat="43.9819705" lon="12.4371757"><ele>239.0</ele><time>2026-04-10T12:37:04.851Z</time></trkpt><trkpt lat="43.9820074" lon="12.4373517"><ele>238.25</ele><time>2026-04-10T12:37:05.851Z</time></trkpt><trkpt lat="43.982037" lon="12.4375312"><ele>237.5</ele><time>2026-04-10T12:37:06.851Z</time></trkpt><trkpt lat="43.9820657" lon="12.4377109"><ele>236.75</ele><time>2026-04-10T12:37:07.852Z</time></trkpt><trkpt lat="43.9820849" lon="12.4378927"><ele>236.0</ele><time>2026-04-10T12:37:08.851Z</time></trkpt><trkpt lat="43.982103" lon="12.4380625"><ele>235.0</ele><time>2026-04-10T12:37:09.852Z</time></trkpt><trkpt lat="43.9821144" lon="12.4382134"><ele>234.0</ele><time>2026-04-10T12:37:10.852Z</time></trkpt><trkpt lat="43.9821266" lon="12.4383608"><ele>233.0</ele><time>2026-04-10T12:37:11.853Z</time></trkpt><trkpt lat="43.982134" lon="12.4385213"><ele>232.0</ele><time>2026-04-10T12:37:12.853Z</time></trkpt><trkpt lat="43.9821468" lon="12.4386874"><ele>231.0</ele><time>2026-04-10T12:37:13.853Z</time></trkpt><trkpt lat="43.9821563" lon="12.4388674"><ele>230.0</ele><time>2026-04-10T12:37:14.851Z</time></trkpt><trkpt lat="43.9821558" lon="12.4390569"><ele>229.0</ele><time>2026-04-10T12:37:15.851Z</time></trkpt><trkpt lat="43.982146" lon="12.4392511"><ele>228.0</ele><time>2026-04-10T12:37:16.851Z</time></trkpt><trkpt lat="43.9821247" lon="12.4394505"><ele>226.33333333333331</ele><time>2026-04-10T12:37:17.852Z</time></trkpt><trkpt lat="43.982077" lon="12.4396519"><ele>224.66666666666666</ele><time>2026-04-10T12:37:18.852Z</time></trkpt><trkpt lat="43.9820274" lon="12.4398566"><ele>223.0</ele><time>2026-04-10T12:37:19.852Z</time></trkpt><trkpt lat="43.9819741" lon="12.4400622"><ele>223.0</ele><time>2026-04-10T12:37:20.852Z</time></trkpt><trkpt lat="43.9819018" lon="12.4403102"><ele>223.0</ele><time>2026-04-10T12:37:21.852Z</time></trkpt><trkpt lat="43.9818333" lon="12.440573"><ele>223.0</ele><time>2026-04-10T12:37:22.852Z</time></trkpt><trkpt lat="43.9817412" lon="12.4409049"><ele>225.33333333333331</ele><time>2026-04-10T12:37:23.852Z</time></trkpt><trkpt lat="43.9816675" lon="12.4411867"><ele>227.66666666666669</ele><time>2026-04-10T12:37:24.853Z</time></trkpt><trkpt lat="43.9815935" lon="12.4414444"><ele>230.0</ele><time>2026-04-10T12:37:25.853Z</time></trkpt><trkpt lat="43.9815221" lon="12.441681"><ele>230.25</ele><time>2026-04-10T12:37:26.851Z</time></trkpt><trkpt lat="43.9814523" lon="12.4418822"><ele>230.5</ele><time>2026-04-10T12:37:27.852Z</time></trkpt><trkpt lat="43.9813757" lon="12.4420216"><ele>230.75</ele><time>2026-04-10T12:37:28.851Z</time></trkpt><trkpt lat="43.9812896" lon="12.442143"><ele>231.0</ele><time>2026-04-10T12:37:29.852Z</time></trkpt><trkpt lat="43.9811945" lon="12.4422389"><ele>231.75</ele><time>2026-04-10T12:37:30.852Z</time></trkpt><trkpt lat="43.981096" lon="12.4423253"><ele>232.5</ele><time>2026-04-10T12:37:31.851Z</time></trkpt><trkpt lat="43.9809891" lon="12.4424066"><ele>233.25</ele><time>2026-04-10T12:37:32.852Z</time></trkpt><trkpt lat="43.9808854" lon="12.4424869"><ele>234.0</ele><time>2026-04-10T12:37:33.852Z</time></trkpt><trkpt lat="43.9807808" lon="12.4425723"><ele>234.0</ele><time>2026-04-10T12:37:34.851Z</time></trkpt><trkpt lat="43.980673" lon="12.4426603"><ele>234.0</ele><time>2026-04-10T12:37:35.852Z</time></trkpt><trkpt lat="43.9805668" lon="12.4427494"><ele>234.0</ele><time>2026-04-10T12:37:36.852Z</time></trkpt><trkpt lat="43.9804647" lon="12.4428456"><ele>234.0</ele><time>2026-04-10T12:37:37.852Z</time></trkpt><trkpt lat="43.9803553" lon="12.4429487"><ele>232.75</ele><time>2026-04-10T12:37:38.852Z</time></trkpt><trkpt lat="43.9802477" lon="12.4430519"><ele>231.5</ele><time>2026-04-10T12:37:39.853Z</time></trkpt><trkpt lat="43.9801447" lon="12.4431635"><ele>230.25</ele><time>2026-04-10T12:37:40.852Z</time></trkpt><trkpt lat="43.9800514" lon="12.4432855"><ele>229.0</ele><time>2026-04-10T12:37:41.852Z</time></trkpt><trkpt lat="43.9799751" lon="12.4434357"><ele>229.0</ele><time>2026-04-10T12:37:42.851Z</time></trkpt><trkpt lat="43.9799108" lon="12.4436013"><ele>229.0</ele><time>2026-04-10T12:37:43.852Z</time></trkpt><trkpt lat="43.9798419" lon="12.4437698"><ele>229.0</ele><time>2026-04-10T12:37:44.853Z</time></trkpt><trkpt lat="43.9797713" lon="12.4439471"><ele>229.0</ele><time>2026-04-10T12:37:45.851Z</time></trkpt><trkpt lat="43.9797008" lon="12.4441343"><ele>226.0</ele><time>2026-04-10T12:37:46.853Z</time></trkpt><trkpt lat="43.9796285" lon="12.4443244"><ele>223.0</ele><time>2026-04-10T12:37:47.852Z</time></trkpt><trkpt lat="43.9795585" lon="12.4445167"><ele>220.0</ele><time>2026-04-10T12:37:48.852Z</time></trkpt><trkpt lat="43.9794875" lon="12.4447161"><ele>217.66666666666666</ele><time>2026-04-10T12:37:49.852Z</time></trkpt><trkpt lat="43.9794156" lon="12.4449132"><ele>215.33333333333331</ele><time>2026-04-10T12:37:50.852Z</time></trkpt><trkpt lat="43.9793483" lon="12.4451122"><ele>213.0</ele><time>2026-04-10T12:37:51.852Z</time></trkpt><trkpt lat="43.9792779" lon="12.4453223"><ele>214.0</ele><time>2026-04-10T12:37:52.852Z</time></trkpt><trkpt lat="43.9792093" lon="12.4455297"><ele>215.0</ele><time>2026-04-10T12:37:53.853Z</time></trkpt><trkpt lat="43.9791364" lon="12.4457396"><ele>216.0</ele><time>2026-04-10T12:37:54.852Z</time></trkpt><trkpt lat="43.9790626" lon="12.445955"><ele>216.0</ele><time>2026-04-10T12:37:55.853Z</time></trkpt><trkpt lat="43.9789934" lon="12.4461591"><ele>216.0</ele><time>2026-04-10T12:37:56.851Z</time></trkpt><trkpt lat="43.9789191" lon="12.4463659"><ele>216.0</ele><time>2026-04-10T12:37:57.852Z</time></trkpt><trkpt lat="43.9788471" lon="12.4465679"><ele>214.33333333333331</ele><time>2026-04-10T12:37:58.851Z</time></trkpt><trkpt lat="43.9787759" lon="12.4467718"><ele>212.66666666666666</ele><time>2026-04-10T12:37:59.852Z</time></trkpt><trkpt lat="43.9787042" lon="12.4469723"><ele>211.0</ele><time>2026-04-10T12:38:00.852Z</time></trkpt><trkpt lat="43.978635" lon="12.4471778"><ele>209.33333333333331</ele><time>2026-04-10T12:38:01.852Z</time></trkpt><trkpt lat="43.9785691" lon="12.4473885"><ele>207.66666666666669</ele><time>2026-04-10T12:38:02.851Z</time></trkpt><trkpt lat="43.9785081" lon="12.447598"><ele>206.0</ele><time>2026-04-10T12:38:03.852Z</time></trkpt><trkpt lat="43.9784491" lon="12.4478087"><ele>207.0</ele><time>2026-04-10T12:38:04.852Z</time></trkpt><trkpt lat="43.9783918" lon="12.4480217"><ele>208.0</ele><time>2026-04-10T12:38:05.852Z</time></trkpt><trkpt lat="43.978332" lon="12.4482339"><ele>209.0</ele><time>2026-04-10T12:38:06.853Z</time></trkpt><trkpt lat="43.9782726" lon="12.4484448"><ele>209.0</ele><time>2026-04-10T12:38:07.851Z</time></trkpt><trkpt lat="43.9782116" lon="12.4486556"><ele>209.0</ele><time>2026-04-10T12:38:08.852Z</time></trkpt><trkpt lat="43.978152" lon="12.4488513"><ele>209.0</ele><time>2026-04-10T12:38:09.852Z</time></trkpt><trkpt lat="43.9780906" lon="12.4490381"><ele>208.5</ele><time>2026-04-10T12:38:10.853Z</time></trkpt><trkpt lat="43.9780153" lon="12.4492156"><ele>208.0</ele><time>2026-04-10T12:38:11.851Z</time></trkpt><trkpt lat="43.9779253" lon="12.4493734"><ele>207.5</ele><time>2026-04-10T12:38:12.852Z</time></trkpt><trkpt lat="43.9778181" lon="12.4495102"><ele>207.0</ele><time>2026-04-10T12:38:13.852Z</time></trkpt><trkpt lat="43.9777072" lon="12.4496334"><ele>206.25</ele><time>2026-04-10T12:38:14.852Z</time></trkpt><trkpt lat="43.977594" lon="12.4497559"><ele>205.5</ele><time>2026-04-10T12:38:15.853Z</time></trkpt><trkpt lat="43.9774824" lon="12.4498774"><ele>204.75</ele><time>2026-04-10T12:38:16.852Z</time></trkpt><trkpt lat="43.9773683" lon="12.4500039"><ele>204.0</ele><time>2026-04-10T12:38:17.852Z</time></trkpt><trkpt lat="43.9772508" lon="12.4501329"><ele>204.0</ele><time>2026-04-10T12:38:18.852Z</time></trkpt><trkpt lat="43.9771388" lon="12.4502672"><ele>204.0</ele><time>2026-04-10T12:38:19.851Z</time></trkpt><trkpt lat="43.9770377" lon="12.4503909"><ele>204.0</ele><time>2026-04-10T12:38:20.852Z</time></trkpt><trkpt lat="43.9769365" lon="12.4505174"><ele>204.0</ele><time>2026-04-10T12:38:21.853Z</time></trkpt><trkpt lat="43.9768335" lon="12.4506481"><ele>205.0</ele><time>2026-04-10T12:38:22.852Z</time></trkpt><trkpt lat="43.9767265" lon="12.4507801"><ele>206.0</ele><time>2026-04-10T12:38:23.851Z</time></trkpt><trkpt lat="43.9766194" lon="12.4509147"><ele>207.0</ele><time>2026-04-10T12:38:24.851Z</time></trkpt><trkpt lat="43.976517" lon="12.4510464"><ele>208.0</ele><time>2026-04-10T12:38:25.852Z</time></trkpt><trkpt lat="43.9764226" lon="12.4511633"><ele>208.0</ele><time>2026-04-10T12:38:26.853Z</time></trkpt><trkpt lat="43.9763251" lon="12.4512839"><ele>208.0</ele><time>2026-04-10T12:38:27.852Z</time></trkpt><trkpt lat="43.9762258" lon="12.4514038"><ele>208.0</ele><time>2026-04-10T12:38:28.852Z</time></trkpt><trkpt lat="43.9761222" lon="12.4515277"><ele>208.0</ele><time>2026-04-10T12:38:29.851Z</time></trkpt><trkpt lat="43.976013" lon="12.451653"><ele>208.0</ele><time>2026-04-10T12:38:30.853Z</time></trkpt><trkpt lat="43.975907" lon="12.4517777"><ele>208.0</ele><time>2026-04-10T12:38:31.851Z</time></trkpt><trkpt lat="43.9757968" lon="12.4519025"><ele>208.0</ele><time>2026-04-10T12:38:32.852Z</time></trkpt><trkpt lat="43.975685" lon="12.4520164"><ele>208.0</ele><time>2026-04-10T12:38:33.853Z</time></trkpt><trkpt lat="43.9755679" lon="12.4521298"><ele>208.25</ele><time>2026-04-10T12:38:34.854Z</time></trkpt><trkpt lat="43.9754498" lon="12.4522304"><ele>208.5</ele><time>2026-04-10T12:38:35.851Z</time></trkpt><trkpt lat="43.9753241" lon="12.4523058"><ele>208.75</ele><time>2026-04-10T12:38:36.851Z</time></trkpt><trkpt lat="43.9751899" lon="12.4523503"><ele>209.0</ele><time>2026-04-10T12:38:37.853Z</time></trkpt><trkpt lat="43.9750523" lon="12.4523663"><ele>210.0</ele><time>2026-04-10T12:38:38.852Z</time></trkpt><trkpt lat="43.9749089" lon="12.4523796"><ele>211.0</ele><time>2026-04-10T12:38:39.851Z</time></trkpt><trkpt lat="43.9747561" lon="12.4523873"><ele>212.0</ele><time>2026-04-10T12:38:40.852Z</time></trkpt><trkpt lat="43.9746031" lon="12.4523881"><ele>212.0</ele><time>2026-04-10T12:38:41.851Z</time></trkpt><trkpt lat="43.9744498" lon="12.4523902"><ele>212.0</ele><time>2026-04-10T12:38:42.852Z</time></trkpt><trkpt lat="43.9743076" lon="12.4523898"><ele>212.0</ele><time>2026-04-10T12:38:43.852Z</time></trkpt><trkpt lat="43.9741814" lon="12.4523994"><ele>212.0</ele><time>2026-04-10T12:38:44.852Z</time></trkpt><trkpt lat="43.9740541" lon="12.4523958"><ele>213.75</ele><time>2026-04-10T12:38:45.851Z</time></trkpt><trkpt lat="43.9739269" lon="12.4523673"><ele>215.5</ele><time>2026-04-10T12:38:46.852Z</time></trkpt><trkpt lat="43.973807" lon="12.4523095"><ele>217.25</ele><time>2026-04-10T12:38:47.852Z</time></trkpt><trkpt lat="43.9736856" lon="12.4522383"><ele>219.0</ele><time>2026-04-10T12:38:48.852Z</time></trkpt><trkpt lat="43.9735661" lon="12.452166"><ele>218.75</ele><time>2026-04-10T12:38:49.853Z</time></trkpt><trkpt lat="43.9734491" lon="12.4520971"><ele>218.5</ele><time>2026-04-10T12:38:50.852Z</time></trkpt><trkpt lat="43.973334" lon="12.4520484"><ele>218.25</ele><time>2026-04-10T12:38:51.853Z</time></trkpt><trkpt lat="43.9732185" lon="12.4520438"><ele>218.0</ele><time>2026-04-10T12:38:52.851Z</time></trkpt><trkpt lat="43.9731036" lon="12.4520383"><ele>219.0</ele><time>2026-04-10T12:38:53.853Z</time></trkpt><trkpt lat="43.9729858" lon="12.4520495"><ele>220.0</ele><time>2026-04-10T12:38:54.851Z</time></trkpt><trkpt lat="43.9728706" lon="12.4520582"><ele>221.0</ele><time>2026-04-10T12:38:55.853Z</time></trkpt><trkpt lat="43.9727549" lon="12.4520717"><ele>222.0</ele><time>2026-04-10T12:38:56.851Z</time></trkpt><trkpt lat="43.972635" lon="12.4520831"><ele>223.75</ele><time>2026-04-10T12:38:57.853Z</time></trkpt><trkpt lat="43.9725117" lon="12.4520923"><ele>225.5</ele><time>2026-04-10T12:38:58.852Z</time></trkpt><trkpt lat="43.9723957" lon="12.4520934"><ele>227.25</ele><time>2026-04-10T12:38:59.853Z</time></trkpt><trkpt lat="43.9722747" lon="12.4520932"><ele>229.0</ele><time>2026-04-10T12:39:00.851Z</time></trkpt><trkpt lat="43.972153" lon="12.4520925"><ele>229.0</ele><time>2026-04-10T12:39:01.853Z</time></trkpt><trkpt lat="43.9720453" lon="12.4520926"><ele>228.99999999999997</ele><time>2026-04-10T12:39:02.852Z</time></trkpt><trkpt lat="43.9719529" lon="12.4521116"><ele>228.99999999999997</ele><time>2026-04-10T12:39:03.851Z</time></trkpt><trkpt lat="43.9718765" lon="12.4521528"><ele>229.0</ele><time>2026-04-10T12:39:04.851Z</time></trkpt><trkpt lat="43.9718335" lon="12.4522247"><ele>229.0</ele><time>2026-04-10T12:39:05.852Z</time></trkpt><trkpt lat="43.9718687" lon="12.4523857"><ele>231.0</ele><time>2026-04-10T12:39:07.854Z</time></trkpt><trkpt lat="43.9719504" lon="12.4524442"><ele>233.0</ele><time>2026-04-10T12:39:08.852Z</time></trkpt><trkpt lat="43.9720633" lon="12.4525088"><ele>235.0</ele><time>2026-04-10T12:39:09.852Z</time></trkpt><trkpt lat="43.9721933" lon="12.4525703"><ele>237.0</ele><time>2026-04-10T12:39:10.852Z</time></trkpt><trkpt lat="43.972318" lon="12.4526347"><ele>237.0</ele><time>2026-04-10T12:39:11.852Z</time></trkpt><trkpt lat="43.9724378" lon="12.4527052"><ele>237.0</ele><time>2026-04-10T12:39:12.851Z</time></trkpt><trkpt lat="43.972546" lon="12.452789"><ele>237.0</ele><time>2026-04-10T12:39:13.851Z</time></trkpt><trkpt lat="43.9726381" lon="12.452887"><ele>237.0</ele><time>2026-04-10T12:39:14.852Z</time></trkpt><trkpt lat="43.9727101" lon="12.453006"><ele>234.6</ele><time>2026-04-10T12:39:15.852Z</time></trkpt><trkpt lat="43.9727425" lon="12.4531429"><ele>232.2</ele><time>2026-04-10T12:39:16.852Z</time></trkpt><trkpt lat="43.972753" lon="12.4532825"><ele>229.8</ele><time>2026-04-10T12:39:17.852Z</time></trkpt><trkpt lat="43.9727363" lon="12.4534212"><ele>227.4</ele><time>2026-04-10T12:39:18.852Z</time></trkpt><trkpt lat="43.9727" lon="12.453552"><ele>225.0</ele><time>2026-04-10T12:39:19.853Z</time></trkpt><trkpt lat="43.9726523" lon="12.4536814"><ele>223.6</ele><time>2026-04-10T12:39:20.851Z</time></trkpt><trkpt lat="43.9726047" lon="12.4538133"><ele>222.2</ele><time>2026-04-10T12:39:21.851Z</time></trkpt><trkpt lat="43.972544" lon="12.4539492"><ele>220.8</ele><time>2026-04-10T12:39:22.852Z</time></trkpt><trkpt lat="43.972493" lon="12.4540878"><ele>219.4</ele><time>2026-04-10T12:39:23.851Z</time></trkpt><trkpt lat="43.9724461" lon="12.4542316"><ele>218.0</ele><time>2026-04-10T12:39:24.851Z</time></trkpt><trkpt lat="43.9724239" lon="12.4543962"><ele>217.25</ele><time>2026-04-10T12:39:25.852Z</time></trkpt><trkpt lat="43.9724166" lon="12.4545549"><ele>216.5</ele><time>2026-04-10T12:39:26.852Z</time></trkpt><trkpt lat="43.9724349" lon="12.4547122"><ele>215.75</ele><time>2026-04-10T12:39:27.853Z</time></trkpt><trkpt lat="43.9724749" lon="12.4548736"><ele>215.0</ele><time>2026-04-10T12:39:28.852Z</time></trkpt><trkpt lat="43.9725301" lon="12.4550409"><ele>215.0</ele><time>2026-04-10T12:39:29.852Z</time></trkpt><trkpt lat="43.9725923" lon="12.4552108"><ele>215.0</ele><time>2026-04-10T12:39:30.853Z</time></trkpt><trkpt lat="43.972655" lon="12.4553799"><ele>215.0</ele><time>2026-04-10T12:39:31.851Z</time></trkpt><trkpt lat="43.9727149" lon="12.4555451"><ele>215.0</ele><time>2026-04-10T12:39:32.853Z</time></trkpt><trkpt lat="43.9727644" lon="12.4557026"><ele>215.8</ele><time>2026-04-10T12:39:33.851Z</time></trkpt><trkpt lat="43.9728067" lon="12.4558528"><ele>216.6</ele><time>2026-04-10T12:39:34.854Z</time></trkpt><trkpt lat="43.9728354" lon="12.4560017"><ele>217.39999999999998</ele><time>2026-04-10T12:39:35.852Z</time></trkpt><trkpt lat="43.9728453" lon="12.4561429"><ele>218.2</ele><time>2026-04-10T12:39:36.852Z</time></trkpt><trkpt lat="43.9728438" lon="12.4562779"><ele>219.0</ele><time>2026-04-10T12:39:37.852Z</time></trkpt><trkpt lat="43.9728261" lon="12.4564088"><ele>219.0</ele><time>2026-04-10T12:39:38.851Z</time></trkpt><trkpt lat="43.9728051" lon="12.4565306"><ele>218.99999999999997</ele><time>2026-04-10T12:39:39.852Z</time></trkpt><trkpt lat="43.9727823" lon="12.4566492"><ele>218.99999999999997</ele><time>2026-04-10T12:39:40.854Z</time></trkpt><trkpt lat="43.9727571" lon="12.4567806"><ele>219.0</ele><time>2026-04-10T12:39:41.853Z</time></trkpt><trkpt lat="43.9727258" lon="12.4569145"><ele>219.0</ele><time>2026-04-10T12:39:42.852Z</time></trkpt><trkpt lat="43.9726941" lon="12.457054"><ele>217.6</ele><time>2026-04-10T12:39:43.853Z</time></trkpt><trkpt lat="43.9726727" lon="12.4571968"><ele>216.2</ele><time>2026-04-10T12:39:44.851Z</time></trkpt><trkpt lat="43.9726601" lon="12.4573479"><ele>214.79999999999998</ele><time>2026-04-10T12:39:45.852Z</time></trkpt><trkpt lat="43.9726584" lon="12.4574944"><ele>213.39999999999998</ele><time>2026-04-10T12:39:46.852Z</time></trkpt><trkpt lat="43.9726635" lon="12.4576451"><ele>212.0</ele><time>2026-04-10T12:39:47.852Z</time></trkpt><trkpt lat="43.9726886" lon="12.4577933"><ele>212.0</ele><time>2026-04-10T12:39:48.852Z</time></trkpt><trkpt lat="43.9727119" lon="12.457945"><ele>212.0</ele><time>2026-04-10T12:39:49.852Z</time></trkpt><trkpt lat="43.9727424" lon="12.4580965"><ele>212.0</ele><time>2026-04-10T12:39:50.853Z</time></trkpt><trkpt lat="43.9727724" lon="12.458257"><ele>212.0</ele><time>2026-04-10T12:39:51.852Z</time></trkpt><trkpt lat="43.972803" lon="12.4584175"><ele>211.75</ele><time>2026-04-10T12:39:52.853Z</time></trkpt><trkpt lat="43.9728399" lon="12.4585823"><ele>211.5</ele><time>2026-04-10T12:39:53.851Z</time></trkpt><trkpt lat="43.9728856" lon="12.4587465"><ele>211.25</ele><time>2026-04-10T12:39:54.851Z</time></trkpt><trkpt lat="43.9729334" lon="12.4589131"><ele>211.0</ele><time>2026-04-10T12:39:55.851Z</time></trkpt><trkpt lat="43.9729806" lon="12.4590845"><ele>211.0</ele><time>2026-04-10T12:39:56.853Z</time></trkpt><trkpt lat="43.9730406" lon="12.4592624"><ele>211.0</ele><time>2026-04-10T12:39:57.851Z</time></trkpt><trkpt lat="43.9730989" lon="12.4594337"><ele>211.0</ele><time>2026-04-10T12:39:58.853Z</time></trkpt><trkpt lat="43.9731618" lon="12.4596022"><ele>211.0</ele><time>2026-04-10T12:39:59.851Z</time></trkpt><trkpt lat="43.9732222" lon="12.4597658"><ele>211.25</ele><time>2026-04-10T12:40:00.852Z</time></trkpt><trkpt lat="43.9732869" lon="12.4599245"><ele>211.5</ele><time>2026-04-10T12:40:01.851Z</time></trkpt><trkpt lat="43.9733524" lon="12.4600828"><ele>211.75</ele><time>2026-04-10T12:40:02.852Z</time></trkpt><trkpt lat="43.9734157" lon="12.46024"><ele>212.0</ele><time>2026-04-10T12:40:03.852Z</time></trkpt><trkpt lat="43.9734765" lon="12.4604026"><ele>211.75</ele><time>2026-04-10T12:40:04.851Z</time></trkpt><trkpt lat="43.9735332" lon="12.460545"><ele>211.5</ele><time>2026-04-10T12:40:05.852Z</time></trkpt><trkpt lat="43.9735962" lon="12.4606945"><ele>211.25</ele><time>2026-04-10T12:40:06.852Z</time></trkpt><trkpt lat="43.9736671" lon="12.4608494"><ele>211.0</ele><time>2026-04-10T12:40:07.853Z</time></trkpt><trkpt lat="43.9737444" lon="12.4610174"><ele>211.0</ele><time>2026-04-10T12:40:08.852Z</time></trkpt><trkpt lat="43.9738325" lon="12.4612063"><ele>211.0</ele><time>2026-04-10T12:40:09.851Z</time></trkpt><trkpt lat="43.973918" lon="12.4613951"><ele>211.0</ele><time>2026-04-10T12:40:10.852Z</time></trkpt><trkpt lat="43.9740028" lon="12.4615787"><ele>212.0</ele><time>2026-04-10T12:40:11.852Z</time></trkpt><trkpt lat="43.9740845" lon="12.4617596"><ele>213.0</ele><time>2026-04-10T12:40:12.851Z</time></trkpt><trkpt lat="43.9741587" lon="12.4619403"><ele>214.0</ele><time>2026-04-10T12:40:13.853Z</time></trkpt><trkpt lat="43.9742327" lon="12.4621147"><ele>215.0</ele><time>2026-04-10T12:40:14.852Z</time></trkpt><trkpt lat="43.9743026" lon="12.4622835"><ele>216.0</ele><time>2026-04-10T12:40:15.851Z</time></trkpt><trkpt lat="43.9743668" lon="12.4624353"><ele>217.0</ele><time>2026-04-10T12:40:16.852Z</time></trkpt><trkpt lat="43.9744533" lon="12.4625795"><ele>218.0</ele><time>2026-04-10T12:40:17.852Z</time></trkpt><trkpt lat="43.9745597" lon="12.4627077"><ele>219.0</ele><time>2026-04-10T12:40:18.851Z</time></trkpt><trkpt lat="43.9746767" lon="12.4628133"><ele>219.0</ele><time>2026-04-10T12:40:19.852Z</time></trkpt><trkpt lat="43.97479" lon="12.4628842"><ele>219.0</ele><time>2026-04-10T12:40:20.853Z</time></trkpt><trkpt lat="43.974907" lon="12.4629289"><ele>219.0</ele><time>2026-04-10T12:40:21.851Z</time></trkpt><trkpt lat="43.9750158" lon="12.4629734"><ele>219.0</ele><time>2026-04-10T12:40:22.852Z</time></trkpt><trkpt lat="43.9751241" lon="12.463017"><ele>219.25</ele><time>2026-04-10T12:40:23.851Z</time></trkpt><trkpt lat="43.9752277" lon="12.463051"><ele>219.5</ele><time>2026-04-10T12:40:24.851Z</time></trkpt><trkpt lat="43.9753354" lon="12.4630754"><ele>219.75</ele><time>2026-04-10T12:40:25.852Z</time></trkpt><trkpt lat="43.9754538" lon="12.4630793"><ele>220.0</ele><time>2026-04-10T12:40:26.851Z</time></trkpt><trkpt lat="43.9755752" lon="12.4630708"><ele>220.0</ele><time>2026-04-10T12:40:27.853Z</time></trkpt><trkpt lat="43.9756971" lon="12.463057"><ele>220.0</ele><time>2026-04-10T12:40:28.851Z</time></trkpt><trkpt lat="43.9758186" lon="12.463044"><ele>220.0</ele><time>2026-04-10T12:40:29.852Z</time></trkpt><trkpt lat="43.975936" lon="12.4630298"><ele>220.0</ele><time>2026-04-10T12:40:30.851Z</time></trkpt><trkpt lat="43.976051" lon="12.4630262"><ele>218.2</ele><time>2026-04-10T12:40:31.852Z</time></trkpt><trkpt lat="43.9761617" lon="12.4630445"><ele>216.4</ele><time>2026-04-10T12:40:32.853Z</time></trkpt><trkpt lat="43.9762628" lon="12.4630948"><ele>214.60000000000002</ele><time>2026-04-10T12:40:33.851Z</time></trkpt><trkpt lat="43.9763501" lon="12.4631698"><ele>212.8</ele><time>2026-04-10T12:40:34.852Z</time></trkpt><trkpt lat="43.9764227" lon="12.4632711"><ele>211.0</ele><time>2026-04-10T12:40:35.852Z</time></trkpt><trkpt lat="43.976477" lon="12.4633836"><ele>210.99999999999997</ele><time>2026-04-10T12:40:36.852Z</time></trkpt><trkpt lat="43.9765302" lon="12.4634803"><ele>211.0</ele><time>2026-04-10T12:40:37.852Z</time></trkpt><trkpt lat="43.9765877" lon="12.4635385"><ele>211.0</ele><time>2026-04-10T12:40:38.851Z</time></trkpt><trkpt lat="43.9767041" lon="12.463505"><ele>211.0</ele><time>2026-04-10T12:40:40.852Z</time></trkpt><trkpt lat="43.9767391" lon="12.4634266"><ele>210.99999999999997</ele><time>2026-04-10T12:40:41.852Z</time></trkpt><trkpt lat="43.9767519" lon="12.4633147"><ele>211.0</ele><time>2026-04-10T12:40:42.851Z</time></trkpt><trkpt lat="43.976761" lon="12.463183"><ele>209.33333333333331</ele><time>2026-04-10T12:40:43.852Z</time></trkpt><trkpt lat="43.9767692" lon="12.4630522"><ele>207.66666666666666</ele><time>2026-04-10T12:40:44.851Z</time></trkpt><trkpt lat="43.9767792" lon="12.4629277"><ele>206.0</ele><time>2026-04-10T12:40:45.853Z</time></trkpt><trkpt lat="43.9767866" lon="12.4628086"><ele>204.33333333333331</ele><time>2026-04-10T12:40:46.851Z</time></trkpt><trkpt lat="43.9768053" lon="12.4626966"><ele>202.66666666666666</ele><time>2026-04-10T12:40:47.851Z</time></trkpt><trkpt lat="43.976842" lon="12.4625779"><ele>201.0</ele><time>2026-04-10T12:40:48.853Z</time></trkpt><trkpt lat="43.9769038" lon="12.4624695"><ele>201.0</ele><time>2026-04-10T12:40:49.853Z</time></trkpt><trkpt lat="43.9769769" lon="12.4623766"><ele>201.0</ele><time>2026-04-10T12:40:50.853Z</time></trkpt><trkpt lat="43.9770671" lon="12.4623399"><ele>201.0</ele><time>2026-04-10T12:40:51.853Z</time></trkpt><trkpt lat="43.9771654" lon="12.4623182"><ele>201.0</ele><time>2026-04-10T12:40:52.852Z</time></trkpt><trkpt lat="43.977284" lon="12.4623195"><ele>201.0</ele><time>2026-04-10T12:40:53.851Z</time></trkpt><trkpt lat="43.9773948" lon="12.4623182"><ele>201.0</ele><time>2026-04-10T12:40:54.851Z</time></trkpt><trkpt lat="43.9775121" lon="12.462318"><ele>201.0</ele><time>2026-04-10T12:40:55.851Z</time></trkpt><trkpt lat="43.9776203" lon="12.4623114"><ele>201.0</ele><time>2026-04-10T12:40:56.851Z</time></trkpt><trkpt lat="43.9777266" lon="12.4623097"><ele>201.0</ele><time>2026-04-10T12:40:57.852Z</time></trkpt><trkpt lat="43.97784" lon="12.4623073"><ele>201.0</ele><time>2026-04-10T12:40:58.852Z</time></trkpt><trkpt lat="43.9779514" lon="12.4623021"><ele>198.75</ele><time>2026-04-10T12:40:59.853Z</time></trkpt><trkpt lat="43.9780659" lon="12.462289"><ele>196.5</ele><time>2026-04-10T12:41:00.852Z</time></trkpt><trkpt lat="43.9781848" lon="12.4622685"><ele>194.25</ele><time>2026-04-10T12:41:01.852Z</time></trkpt><trkpt lat="43.9783055" lon="12.4622425"><ele>192.0</ele><time>2026-04-10T12:41:02.852Z</time></trkpt><trkpt lat="43.9784347" lon="12.462214"><ele>191.25</ele><time>2026-04-10T12:41:03.851Z</time></trkpt><trkpt lat="43.9785706" lon="12.4621822"><ele>190.5</ele><time>2026-04-10T12:41:04.851Z</time></trkpt><trkpt lat="43.9787073" lon="12.4621569"><ele>189.75</ele><time>2026-04-10T12:41:05.853Z</time></trkpt><trkpt lat="43.9788473" lon="12.4621257"><ele>189.0</ele><time>2026-04-10T12:41:06.852Z</time></trkpt><trkpt lat="43.9789877" lon="12.4620931"><ele>189.0</ele><time>2026-04-10T12:41:07.851Z</time></trkpt><trkpt lat="43.9791235" lon="12.4620605"><ele>189.0</ele><time>2026-04-10T12:41:08.852Z</time></trkpt><trkpt lat="43.9792595" lon="12.4620264"><ele>189.0</ele><time>2026-04-10T12:41:09.852Z</time></trkpt><trkpt lat="43.9793999" lon="12.4619906"><ele>189.0</ele><time>2026-04-10T12:41:10.852Z</time></trkpt><trkpt lat="43.9795408" lon="12.461958"><ele>188.0</ele><time>2026-04-10T12:41:11.851Z</time></trkpt><trkpt lat="43.9796804" lon="12.4619234"><ele>187.0</ele><time>2026-04-10T12:41:12.852Z</time></trkpt><trkpt lat="43.9798136" lon="12.461884"><ele>186.0</ele><time>2026-04-10T12:41:13.851Z</time></trkpt><trkpt lat="43.9799429" lon="12.4618406"><ele>185.0</ele><time>2026-04-10T12:41:14.851Z</time></trkpt><trkpt lat="43.9800666" lon="12.4617859"><ele>183.75</ele><time>2026-04-10T12:41:15.853Z</time></trkpt><trkpt lat="43.9801889" lon="12.4617162"><ele>182.5</ele><time>2026-04-10T12:41:16.851Z</time></trkpt><trkpt lat="43.9803061" lon="12.461628"><ele>181.25</ele><time>2026-04-10T12:41:17.852Z</time></trkpt><trkpt lat="43.9804174" lon="12.4615241"><ele>180.0</ele><time>2026-04-10T12:41:18.853Z</time></trkpt><trkpt lat="43.9805237" lon="12.4614126"><ele>180.0</ele><time>2026-04-10T12:41:19.851Z</time></trkpt><trkpt lat="43.9806292" lon="12.461296"><ele>180.0</ele><time>2026-04-10T12:41:20.852Z</time></trkpt><trkpt lat="43.9807299" lon="12.461183"><ele>180.0</ele><time>2026-04-10T12:41:21.853Z</time></trkpt><trkpt lat="43.9808239" lon="12.4610657"><ele>180.0</ele><time>2026-04-10T12:41:22.851Z</time></trkpt><trkpt lat="43.9809175" lon="12.4609543"><ele>180.25</ele><time>2026-04-10T12:41:23.851Z</time></trkpt><trkpt lat="43.9810159" lon="12.4608457"><ele>180.5</ele><time>2026-04-10T12:41:24.851Z</time></trkpt><trkpt lat="43.9811173" lon="12.4607428"><ele>180.75</ele><time>2026-04-10T12:41:25.853Z</time></trkpt><trkpt lat="43.9812183" lon="12.4606547"><ele>181.0</ele><time>2026-04-10T12:41:26.852Z</time></trkpt><trkpt lat="43.9813186" lon="12.4605662"><ele>181.0</ele><time>2026-04-10T12:41:27.851Z</time></trkpt><trkpt lat="43.9814112" lon="12.4604825"><ele>181.0</ele><time>2026-04-10T12:41:28.851Z</time></trkpt><trkpt lat="43.9815132" lon="12.4604114"><ele>181.0</ele><time>2026-04-10T12:41:29.852Z</time></trkpt><trkpt lat="43.9816208" lon="12.4603571"><ele>181.0</ele><time>2026-04-10T12:41:30.851Z</time></trkpt><trkpt lat="43.9817456" lon="12.4603411"><ele>180.5</ele><time>2026-04-10T12:41:31.851Z</time></trkpt><trkpt lat="43.9818725" lon="12.4603326"><ele>180.0</ele><time>2026-04-10T12:41:32.851Z</time></trkpt><trkpt lat="43.982005" lon="12.4603307"><ele>179.5</ele><time>2026-04-10T12:41:33.851Z</time></trkpt><trkpt lat="43.9821432" lon="12.4603187"><ele>179.0</ele><time>2026-04-10T12:41:34.852Z</time></trkpt><trkpt lat="43.982285" lon="12.4603024"><ele>179.0</ele><time>2026-04-10T12:41:35.853Z</time></trkpt><trkpt lat="43.9824246" lon="12.4602824"><ele>179.0</ele><time>2026-04-10T12:41:36.852Z</time></trkpt><trkpt lat="43.9825667" lon="12.4602667"><ele>179.0</ele><time>2026-04-10T12:41:37.851Z</time></trkpt><trkpt lat="43.9827043" lon="12.4602553"><ele>179.0</ele><time>2026-04-10T12:41:38.852Z</time></trkpt><trkpt lat="43.9828422" lon="12.4602428"><ele>179.5</ele><time>2026-04-10T12:41:39.852Z</time></trkpt><trkpt lat="43.9829768" lon="12.4602326"><ele>180.0</ele><time>2026-04-10T12:41:40.851Z</time></trkpt><trkpt lat="43.9831119" lon="12.4602236"><ele>180.5</ele><time>2026-04-10T12:41:41.853Z</time></trkpt><trkpt lat="43.9832383" lon="12.4602262"><ele>181.0</ele><time>2026-04-10T12:41:42.853Z</time></trkpt><trkpt lat="43.9833654" lon="12.4602406"><ele>181.0</ele><time>2026-04-10T12:41:43.852Z</time></trkpt><trkpt lat="43.9834883" lon="12.4602668"><ele>181.0</ele><time>2026-04-10T12:41:44.852Z</time></trkpt><trkpt lat="43.9836115" lon="12.4603064"><ele>181.0</ele><time>2026-04-10T12:41:45.852Z</time></trkpt><trkpt lat="43.9837374" lon="12.460353"><ele>181.0</ele><time>2026-04-10T12:41:46.851Z</time></trkpt><trkpt lat="43.9838655" lon="12.460409"><ele>180.0</ele><time>2026-04-10T12:41:47.852Z</time></trkpt><trkpt lat="43.9839933" lon="12.4604673"><ele>179.0</ele><time>2026-04-10T12:41:48.851Z</time></trkpt><trkpt lat="43.9841193" lon="12.4605221"><ele>178.0</ele><time>2026-04-10T12:41:49.852Z</time></trkpt><trkpt lat="43.9842438" lon="12.4605783"><ele>177.0</ele><time>2026-04-10T12:41:50.851Z</time></trkpt><trkpt lat="43.9843705" lon="12.4606309"><ele>176.0</ele><time>2026-04-10T12:41:51.852Z</time></trkpt><trkpt lat="43.9844949" lon="12.4606705"><ele>175.0</ele><time>2026-04-10T12:41:52.853Z</time></trkpt><trkpt lat="43.9846187" lon="12.4607045"><ele>174.0</ele><time>2026-04-10T12:41:53.852Z</time></trkpt><trkpt lat="43.9847483" lon="12.460729"><ele>173.0</ele><time>2026-04-10T12:41:54.852Z</time></trkpt><trkpt lat="43.9848788" lon="12.4607476"><ele>173.0</ele><time>2026-04-10T12:41:55.852Z</time></trkpt><trkpt lat="43.9850119" lon="12.4607689"><ele>173.0</ele><time>2026-04-10T12:41:56.852Z</time></trkpt><trkpt lat="43.9851382" lon="12.460796"><ele>173.0</ele><time>2026-04-10T12:41:57.851Z</time></trkpt><trkpt lat="43.9852687" lon="12.4608322"><ele>173.0</ele><time>2026-04-10T12:41:58.852Z</time></trkpt><trkpt lat="43.9854" lon="12.4608769"><ele>172.5</ele><time>2026-04-10T12:41:59.852Z</time></trkpt><trkpt lat="43.9855257" lon="12.4609181"><ele>172.0</ele><time>2026-04-10T12:42:00.852Z</time></trkpt><trkpt lat="43.9856474" lon="12.4609686"><ele>171.5</ele><time>2026-04-10T12:42:01.851Z</time></trkpt><trkpt lat="43.9857691" lon="12.4610143"><ele>171.0</ele><time>2026-04-10T12:42:02.851Z</time></trkpt><trkpt lat="43.9858824" lon="12.4610555"><ele>171.0</ele><time>2026-04-10T12:42:03.853Z</time></trkpt><trkpt lat="43.9859927" lon="12.4610987"><ele>171.0</ele><time>2026-04-10T12:42:04.853Z</time></trkpt><trkpt lat="43.9860925" lon="12.4611453"><ele>171.0</ele><time>2026-04-10T12:42:05.852Z</time></trkpt><trkpt lat="43.9861892" lon="12.4611904"><ele>171.0</ele><time>2026-04-10T12:42:06.852Z</time></trkpt><trkpt lat="43.9862894" lon="12.4612339"><ele>171.0</ele><time>2026-04-10T12:42:07.851Z</time></trkpt><trkpt lat="43.9863895" lon="12.4612814"><ele>171.20000000000002</ele><time>2026-04-10T12:42:08.853Z</time></trkpt><trkpt lat="43.9864918" lon="12.4613324"><ele>171.4</ele><time>2026-04-10T12:42:09.853Z</time></trkpt><trkpt lat="43.9865886" lon="12.4613775"><ele>171.6</ele><time>2026-04-10T12:42:10.852Z</time></trkpt><trkpt lat="43.9866889" lon="12.4614253"><ele>171.8</ele><time>2026-04-10T12:42:11.851Z</time></trkpt><trkpt lat="43.9867923" lon="12.4614699"><ele>172.0</ele><time>2026-04-10T12:42:12.852Z</time></trkpt><trkpt lat="43.986882" lon="12.4615118"><ele>172.83333333333334</ele><time>2026-04-10T12:42:13.851Z</time></trkpt><trkpt lat="43.9869689" lon="12.4615547"><ele>173.66666666666669</ele><time>2026-04-10T12:42:14.853Z</time></trkpt><trkpt lat="43.9870491" lon="12.4615986"><ele>174.5</ele><time>2026-04-10T12:42:15.851Z</time></trkpt><trkpt lat="43.9871293" lon="12.4616334"><ele>175.33333333333334</ele><time>2026-04-10T12:42:16.853Z</time></trkpt><trkpt lat="43.9871981" lon="12.4616731"><ele>176.16666666666666</ele><time>2026-04-10T12:42:17.852Z</time></trkpt><trkpt lat="43.9872659" lon="12.4617026"><ele>177.0</ele><time>2026-04-10T12:42:18.851Z</time></trkpt><trkpt lat="43.9873386" lon="12.4617373"><ele>177.0</ele><time>2026-04-10T12:42:19.852Z</time></trkpt><trkpt lat="43.9874198" lon="12.4617711"><ele>177.0</ele><time>2026-04-10T12:42:20.852Z</time></trkpt><trkpt lat="43.9875122" lon="12.4618128"><ele>177.0</ele><time>2026-04-10T12:42:21.852Z</time></trkpt><trkpt lat="43.9876162" lon="12.4618577"><ele>177.0</ele><time>2026-04-10T12:42:22.852Z</time></trkpt><trkpt lat="43.9877222" lon="12.4619101"><ele>177.0</ele><time>2026-04-10T12:42:23.851Z</time></trkpt><trkpt lat="43.9878385" lon="12.4619655"><ele>176.75</ele><time>2026-04-10T12:42:24.851Z</time></trkpt><trkpt lat="43.9879573" lon="12.4620166"><ele>176.5</ele><time>2026-04-10T12:42:25.852Z</time></trkpt><trkpt lat="43.9880771" lon="12.4620705"><ele>176.25</ele><time>2026-04-10T12:42:26.852Z</time></trkpt><trkpt lat="43.9881946" lon="12.4621252"><ele>176.0</ele><time>2026-04-10T12:42:27.852Z</time></trkpt><trkpt lat="43.988311" lon="12.4621765"><ele>178.25</ele><time>2026-04-10T12:42:28.851Z</time></trkpt><trkpt lat="43.9884281" lon="12.4622317"><ele>180.5</ele><time>2026-04-10T12:42:29.852Z</time></trkpt><trkpt lat="43.9885433" lon="12.4622978"><ele>182.75</ele><time>2026-04-10T12:42:30.853Z</time></trkpt><trkpt lat="43.9886565" lon="12.462366"><ele>185.0</ele><time>2026-04-10T12:42:31.852Z</time></trkpt><trkpt lat="43.9887707" lon="12.4624373"><ele>185.0</ele><time>2026-04-10T12:42:32.851Z</time></trkpt><trkpt lat="43.9888858" lon="12.4625079"><ele>185.0</ele><time>2026-04-10T12:42:33.851Z</time></trkpt><trkpt lat="43.989" lon="12.4625794"><ele>185.0</ele><time>2026-04-10T12:42:34.851Z</time></trkpt><trkpt lat="43.9891166" lon="12.4626506"><ele>185.0</ele><time>2026-04-10T12:42:35.851Z</time></trkpt><trkpt lat="43.9892334" lon="12.4627129"><ele>185.25</ele><time>2026-04-10T12:42:36.853Z</time></trkpt><trkpt lat="43.9893427" lon="12.462776"><ele>185.5</ele><time>2026-04-10T12:42:37.851Z</time></trkpt><trkpt lat="43.9894554" lon="12.4628367"><ele>185.75</ele><time>2026-04-10T12:42:38.851Z</time></trkpt><trkpt lat="43.9895612" lon="12.4629049"><ele>186.0</ele><time>2026-04-10T12:42:39.851Z</time></trkpt><trkpt lat="43.9896583" lon="12.462977"><ele>185.25</ele><time>2026-04-10T12:42:40.851Z</time></trkpt><trkpt lat="43.9897647" lon="12.4630563"><ele>184.5</ele><time>2026-04-10T12:42:41.852Z</time></trkpt><trkpt lat="43.9898618" lon="12.4631458"><ele>183.75</ele><time>2026-04-10T12:42:42.851Z</time></trkpt><trkpt lat="43.9899623" lon="12.4632481"><ele>183.0</ele><time>2026-04-10T12:42:43.852Z</time></trkpt><trkpt lat="43.9900657" lon="12.4633491"><ele>181.75</ele><time>2026-04-10T12:42:44.853Z</time></trkpt><trkpt lat="43.9901689" lon="12.4634438"><ele>180.5</ele><time>2026-04-10T12:42:45.852Z</time></trkpt><trkpt lat="43.9902699" lon="12.463534"><ele>179.25</ele><time>2026-04-10T12:42:46.851Z</time></trkpt><trkpt lat="43.990369" lon="12.463635"><ele>178.0</ele><time>2026-04-10T12:42:47.853Z</time></trkpt><trkpt lat="43.9904605" lon="12.4637441"><ele>178.5</ele><time>2026-04-10T12:42:48.852Z</time></trkpt><trkpt lat="43.990548" lon="12.4638584"><ele>179.0</ele><time>2026-04-10T12:42:49.852Z</time></trkpt><trkpt lat="43.9906395" lon="12.4639804"><ele>179.5</ele><time>2026-04-10T12:42:50.852Z</time></trkpt><trkpt lat="43.9907287" lon="12.4640938"><ele>180.0</ele><time>2026-04-10T12:42:51.851Z</time></trkpt><trkpt lat="43.9908148" lon="12.4642098"><ele>178.75</ele><time>2026-04-10T12:42:52.851Z</time></trkpt><trkpt lat="43.9909029" lon="12.4643282"><ele>177.5</ele><time>2026-04-10T12:42:53.851Z</time></trkpt><trkpt lat="43.990992" lon="12.4644497"><ele>176.25</ele><time>2026-04-10T12:42:54.852Z</time></trkpt><trkpt lat="43.9910853" lon="12.4645787"><ele>175.0</ele><time>2026-04-10T12:42:55.852Z</time></trkpt><trkpt lat="43.9911824" lon="12.4647112"><ele>175.0</ele><time>2026-04-10T12:42:56.851Z</time></trkpt><trkpt lat="43.9912842" lon="12.464852"><ele>175.0</ele><time>2026-04-10T12:42:57.851Z</time></trkpt><trkpt lat="43.9913912" lon="12.4649969"><ele>175.0</ele><time>2026-04-10T12:42:58.852Z</time></trkpt><trkpt lat="43.9914894" lon="12.4651455"><ele>175.0</ele><time>2026-04-10T12:42:59.852Z</time></trkpt><trkpt lat="43.9915961" lon="12.4652937"><ele>175.5</ele><time>2026-04-10T12:43:00.852Z</time></trkpt><trkpt lat="43.9916991" lon="12.4654295"><ele>176.0</ele><time>2026-04-10T12:43:01.852Z</time></trkpt><trkpt lat="43.9917989" lon="12.4655709"><ele>176.5</ele><time>2026-04-10T12:43:02.853Z</time></trkpt><trkpt lat="43.9918977" lon="12.4657154"><ele>177.0</ele><time>2026-04-10T12:43:03.851Z</time></trkpt><trkpt lat="43.9919943" lon="12.4658584"><ele>177.0</ele><time>2026-04-10T12:43:04.851Z</time></trkpt><trkpt lat="43.9920899" lon="12.4659982"><ele>177.0</ele><time>2026-04-10T12:43:05.852Z</time></trkpt><trkpt lat="43.992184" lon="12.4661434"><ele>177.0</ele><time>2026-04-10T12:43:06.852Z</time></trkpt><trkpt lat="43.9922727" lon="12.4662845"><ele>177.0</ele><time>2026-04-10T12:43:07.852Z</time></trkpt><trkpt lat="43.99236" lon="12.4664284"><ele>177.0</ele><time>2026-04-10T12:43:08.851Z</time></trkpt><trkpt lat="43.9924535" lon="12.4665773"><ele>177.0</ele><time>2026-04-10T12:43:09.853Z</time></trkpt><trkpt lat="43.992546" lon="12.4667223"><ele>177.0</ele><time>2026-04-10T12:43:10.851Z</time></trkpt><trkpt lat="43.9926346" lon="12.4668641"><ele>177.0</ele><time>2026-04-10T12:43:11.851Z</time></trkpt><trkpt lat="43.9927267" lon="12.467003"><ele>176.75</ele><time>2026-04-10T12:43:12.852Z</time></trkpt><trkpt lat="43.992819" lon="12.4671408"><ele>176.5</ele><time>2026-04-10T12:43:13.853Z</time></trkpt><trkpt lat="43.9929113" lon="12.4672822"><ele>176.25</ele><time>2026-04-10T12:43:14.851Z</time></trkpt><trkpt lat="43.9930021" lon="12.467426"><ele>176.0</ele><time>2026-04-10T12:43:15.851Z</time></trkpt><trkpt lat="43.9930973" lon="12.4675688"><ele>176.0</ele><time>2026-04-10T12:43:16.851Z</time></trkpt><trkpt lat="43.9931921" lon="12.4677147"><ele>176.0</ele><time>2026-04-10T12:43:17.852Z</time></trkpt><trkpt lat="43.9932885" lon="12.4678618"><ele>176.0</ele><time>2026-04-10T12:43:18.851Z</time></trkpt><trkpt lat="43.9933849" lon="12.4680083"><ele>176.0</ele><time>2026-04-10T12:43:19.852Z</time></trkpt><trkpt lat="43.9934774" lon="12.4681558"><ele>176.25</ele><time>2026-04-10T12:43:20.853Z</time></trkpt><trkpt lat="43.9935739" lon="12.468305"><ele>176.5</ele><time>2026-04-10T12:43:21.852Z</time></trkpt><trkpt lat="43.9936656" lon="12.4684525"><ele>176.75</ele><time>2026-04-10T12:43:22.852Z</time></trkpt><trkpt lat="43.9937592" lon="12.4685975"><ele>177.0</ele><time>2026-04-10T12:43:23.852Z</time></trkpt><trkpt lat="43.9938519" lon="12.4687467"><ele>176.75</ele><time>2026-04-10T12:43:24.851Z</time></trkpt><trkpt lat="43.9939451" lon="12.468897"><ele>176.5</ele><time>2026-04-10T12:43:25.853Z</time></trkpt><trkpt lat="43.994045" lon="12.4690473"><ele>176.25</ele><time>2026-04-10T12:43:26.852Z</time></trkpt><trkpt lat="43.9941467" lon="12.4691916"><ele>176.0</ele><time>2026-04-10T12:43:27.852Z</time></trkpt><trkpt lat="43.9942475" lon="12.469334"><ele>175.75</ele><time>2026-04-10T12:43:28.852Z</time></trkpt><trkpt lat="43.9943474" lon="12.469472"><ele>175.5</ele><time>2026-04-10T12:43:29.852Z</time></trkpt><trkpt lat="43.994446" lon="12.4696129"><ele>175.25</ele><time>2026-04-10T12:43:30.852Z</time></trkpt><trkpt lat="43.9945433" lon="12.4697537"><ele>175.0</ele><time>2026-04-10T12:43:31.852Z</time></trkpt><trkpt lat="43.9946437" lon="12.4698969"><ele>175.0</ele><time>2026-04-10T12:43:32.853Z</time></trkpt><trkpt lat="43.9947433" lon="12.4700371"><ele>175.0</ele><time>2026-04-10T12:43:33.852Z</time></trkpt><trkpt lat="43.994844" lon="12.4701793"><ele>175.0</ele><time>2026-04-10T12:43:34.853Z</time></trkpt><trkpt lat="43.994941" lon="12.4703228"><ele>175.0</ele><time>2026-04-10T12:43:35.852Z</time></trkpt><trkpt lat="43.9950396" lon="12.4704609"><ele>175.0</ele><time>2026-04-10T12:43:36.852Z</time></trkpt><trkpt lat="43.9951388" lon="12.4705962"><ele>175.0</ele><time>2026-04-10T12:43:37.851Z</time></trkpt><trkpt lat="43.9952372" lon="12.4707292"><ele>175.0</ele><time>2026-04-10T12:43:38.852Z</time></trkpt><trkpt lat="43.9953341" lon="12.4708605"><ele>175.0</ele><time>2026-04-10T12:43:39.853Z</time></trkpt><trkpt lat="43.9954305" lon="12.4709892"><ele>175.0</ele><time>2026-04-10T12:43:40.852Z</time></trkpt><trkpt lat="43.9955253" lon="12.4711186"><ele>175.0</ele><time>2026-04-10T12:43:41.851Z</time></trkpt><trkpt lat="43.9956197" lon="12.4712534"><ele>175.0</ele><time>2026-04-10T12:43:42.852Z</time></trkpt><trkpt lat="43.9957201" lon="12.4713898"><ele>175.0</ele><time>2026-04-10T12:43:43.851Z</time></trkpt><trkpt lat="43.9958208" lon="12.4715228"><ele>175.25</ele><time>2026-04-10T12:43:44.852Z</time></trkpt><trkpt lat="43.9959177" lon="12.4716407"><ele>175.5</ele><time>2026-04-10T12:43:45.852Z</time></trkpt><trkpt lat="43.9960231" lon="12.4717656"><ele>175.75</ele><time>2026-04-10T12:43:46.853Z</time></trkpt><trkpt lat="43.9961398" lon="12.4719138"><ele>176.0</ele><time>2026-04-10T12:43:47.852Z</time></trkpt><trkpt lat="43.9962583" lon="12.4720684"><ele>177.66666666666666</ele><time>2026-04-10T12:43:48.853Z</time></trkpt><trkpt lat="43.9963802" lon="12.4722291"><ele>179.33333333333334</ele><time>2026-04-10T12:43:49.852Z</time></trkpt><trkpt lat="43.9965017" lon="12.4724008"><ele>181.0</ele><time>2026-04-10T12:43:50.853Z</time></trkpt><trkpt lat="43.9966231" lon="12.4725824"><ele>180.0</ele><time>2026-04-10T12:43:51.852Z</time></trkpt><trkpt lat="43.9967409" lon="12.4727644"><ele>179.0</ele><time>2026-04-10T12:43:52.853Z</time></trkpt><trkpt lat="43.996856" lon="12.4729414"><ele>178.0</ele><time>2026-04-10T12:43:53.852Z</time></trkpt><trkpt lat="43.9969648" lon="12.4731133"><ele>181.0</ele><time>2026-04-10T12:43:54.853Z</time></trkpt><trkpt lat="43.9970698" lon="12.4732759"><ele>184.0</ele><time>2026-04-10T12:43:55.851Z</time></trkpt><trkpt lat="43.9971775" lon="12.4734303"><ele>187.0</ele><time>2026-04-10T12:43:56.851Z</time></trkpt><trkpt lat="43.9972983" lon="12.473566"><ele>187.0</ele><time>2026-04-10T12:43:57.853Z</time></trkpt><trkpt lat="43.9974381" lon="12.4736824"><ele>187.0</ele><time>2026-04-10T12:43:58.851Z</time></trkpt><trkpt lat="43.9975956" lon="12.4737947"><ele>187.0</ele><time>2026-04-10T12:43:59.852Z</time></trkpt><trkpt lat="43.9977615" lon="12.4739051"><ele>188.0</ele><time>2026-04-10T12:44:00.851Z</time></trkpt><trkpt lat="43.9979196" lon="12.4740087"><ele>189.0</ele><time>2026-04-10T12:44:01.851Z</time></trkpt><trkpt lat="43.9980643" lon="12.4741022"><ele>190.0</ele><time>2026-04-10T12:44:02.851Z</time></trkpt><trkpt lat="43.9982039" lon="12.4741898"><ele>190.5</ele><time>2026-04-10T12:44:03.852Z</time></trkpt><trkpt lat="43.9983371" lon="12.4742704"><ele>191.0</ele><time>2026-04-10T12:44:04.852Z</time></trkpt><trkpt lat="43.9984661" lon="12.4743501"><ele>191.5</ele><time>2026-04-10T12:44:05.851Z</time></trkpt><trkpt lat="43.998594" lon="12.4744295"><ele>192.0</ele><time>2026-04-10T12:44:06.852Z</time></trkpt><trkpt lat="43.9987162" lon="12.4745079"><ele>192.0</ele><time>2026-04-10T12:44:07.851Z</time></trkpt><trkpt lat="43.9988383" lon="12.4745786"><ele>192.0</ele><time>2026-04-10T12:44:08.853Z</time></trkpt><trkpt lat="43.9989603" lon="12.4746469"><ele>192.0</ele><time>2026-04-10T12:44:09.852Z</time></trkpt><trkpt lat="43.9990836" lon="12.4747187"><ele>192.0</ele><time>2026-04-10T12:44:10.852Z</time></trkpt><trkpt lat="43.9992044" lon="12.4747887"><ele>193.39999999999998</ele><time>2026-04-10T12:44:11.852Z</time></trkpt><trkpt lat="43.9993143" lon="12.4748544"><ele>194.79999999999998</ele><time>2026-04-10T12:44:12.852Z</time></trkpt><trkpt lat="43.9994182" lon="12.4749176"><ele>196.2</ele><time>2026-04-10T12:44:13.853Z</time></trkpt><trkpt lat="43.9995166" lon="12.4749748"><ele>197.6</ele><time>2026-04-10T12:44:14.852Z</time></trkpt><trkpt lat="43.9996052" lon="12.4750326"><ele>199.0</ele><time>2026-04-10T12:44:15.851Z</time></trkpt><trkpt lat="43.9996904" lon="12.4750914"><ele>199.0</ele><time>2026-04-10T12:44:16.851Z</time></trkpt><trkpt lat="43.9997731" lon="12.4751476"><ele>199.0</ele><time>2026-04-10T12:44:17.853Z</time></trkpt><trkpt lat="43.999851" lon="12.4752042"><ele>199.0</ele><time>2026-04-10T12:44:18.851Z</time></trkpt><trkpt lat="43.9999272" lon="12.4752658"><ele>199.0</ele><time>2026-04-10T12:44:19.852Z</time></trkpt><trkpt lat="44.0000041" lon="12.4753341"><ele>199.0</ele><time>2026-04-10T12:44:20.851Z</time></trkpt><trkpt lat="44.0000787" lon="12.4754183"><ele>197.79999999999998</ele><time>2026-04-10T12:44:21.852Z</time></trkpt><trkpt lat="44.0001563" lon="12.4755107"><ele>196.6</ele><time>2026-04-10T12:44:22.852Z</time></trkpt><trkpt lat="44.0002213" lon="12.4756216"><ele>195.4</ele><time>2026-04-10T12:44:23.851Z</time></trkpt><trkpt lat="44.0002822" lon="12.4757373"><ele>194.2</ele><time>2026-04-10T12:44:24.851Z</time></trkpt><trkpt lat="44.0003443" lon="12.4758562"><ele>193.0</ele><time>2026-04-10T12:44:25.851Z</time></trkpt><trkpt lat="44.0004079" lon="12.4759843"><ele>193.0</ele><time>2026-04-10T12:44:26.851Z</time></trkpt><trkpt lat="44.0004695" lon="12.4761308"><ele>193.0</ele><time>2026-04-10T12:44:27.852Z</time></trkpt><trkpt lat="44.0005294" lon="12.4762847"><ele>193.0</ele><time>2026-04-10T12:44:28.851Z</time></trkpt><trkpt lat="44.0005831" lon="12.4764346"><ele>193.0</ele><time>2026-04-10T12:44:29.853Z</time></trkpt><trkpt lat="44.0006361" lon="12.4765774"><ele>190.5</ele><time>2026-04-10T12:44:30.852Z</time></trkpt><trkpt lat="44.0006881" lon="12.476718"><ele>188.0</ele><time>2026-04-10T12:44:31.851Z</time></trkpt><trkpt lat="44.0007389" lon="12.4768662"><ele>185.5</ele><time>2026-04-10T12:44:32.852Z</time></trkpt><trkpt lat="44.0007866" lon="12.4770187"><ele>183.0</ele><time>2026-04-10T12:44:33.852Z</time></trkpt><trkpt lat="44.0008262" lon="12.4771632"><ele>183.8</ele><time>2026-04-10T12:44:34.852Z</time></trkpt><trkpt lat="44.0008608" lon="12.4773082"><ele>184.60000000000002</ele><time>2026-04-10T12:44:35.851Z</time></trkpt><trkpt lat="44.0008949" lon="12.4774528"><ele>185.39999999999998</ele><time>2026-04-10T12:44:36.851Z</time></trkpt><trkpt lat="44.0009286" lon="12.4775956"><ele>186.2</ele><time>2026-04-10T12:44:37.851Z</time></trkpt><trkpt lat="44.0009619" lon="12.4777363"><ele>187.0</ele><time>2026-04-10T12:44:38.852Z</time></trkpt><trkpt lat="44.0009968" lon="12.477872"><ele>186.6</ele><time>2026-04-10T12:44:39.853Z</time></trkpt><trkpt lat="44.0010328" lon="12.4780074"><ele>186.2</ele><time>2026-04-10T12:44:40.852Z</time></trkpt><trkpt lat="44.0010668" lon="12.4781483"><ele>185.8</ele><time>2026-04-10T12:44:41.851Z</time></trkpt><trkpt lat="44.0010992" lon="12.4782869"><ele>185.4</ele><time>2026-04-10T12:44:42.851Z</time></trkpt><trkpt lat="44.0011393" lon="12.4784217"><ele>185.0</ele><time>2026-04-10T12:44:43.852Z</time></trkpt><trkpt lat="44.0011867" lon="12.4785531"><ele>185.0</ele><time>2026-04-10T12:44:44.852Z</time></trkpt><trkpt lat="44.0012431" lon="12.4786829"><ele>185.0</ele><time>2026-04-10T12:44:45.853Z</time></trkpt><trkpt lat="44.0013081" lon="12.4788083"><ele>185.0</ele><time>2026-04-10T12:44:46.852Z</time></trkpt><trkpt lat="44.0013776" lon="12.4789337"><ele>185.0</ele><time>2026-04-10T12:44:47.852Z</time></trkpt><trkpt lat="44.0014481" lon="12.4790566"><ele>185.0</ele><time>2026-04-10T12:44:48.852Z</time></trkpt><trkpt lat="44.0015179" lon="12.4791766"><ele>185.2</ele><time>2026-04-10T12:44:49.851Z</time></trkpt><trkpt lat="44.0015808" lon="12.4792955"><ele>185.4</ele><time>2026-04-10T12:44:50.852Z</time></trkpt><trkpt lat="44.001636" lon="12.4794086"><ele>185.60000000000002</ele><time>2026-04-10T12:44:51.852Z</time></trkpt><trkpt lat="44.0016883" lon="12.4795172"><ele>185.8</ele><time>2026-04-10T12:44:52.853Z</time></trkpt><trkpt lat="44.0017382" lon="12.4796278"><ele>186.0</ele><time>2026-04-10T12:44:53.852Z</time></trkpt><trkpt lat="44.0017753" lon="12.4797344"><ele>184.83333333333334</ele><time>2026-04-10T12:44:54.853Z</time></trkpt><trkpt lat="44.0018009" lon="12.4798367"><ele>183.66666666666666</ele><time>2026-04-10T12:44:55.851Z</time></trkpt><trkpt lat="44.0018144" lon="12.4799451"><ele>182.5</ele><time>2026-04-10T12:44:56.851Z</time></trkpt><trkpt lat="44.001806" lon="12.4800578"><ele>181.33333333333331</ele><time>2026-04-10T12:44:57.852Z</time></trkpt><trkpt lat="44.0017924" lon="12.4801665"><ele>180.16666666666666</ele><time>2026-04-10T12:44:58.851Z</time></trkpt><trkpt lat="44.0017658" lon="12.480278"><ele>179.0</ele><time>2026-04-10T12:44:59.851Z</time></trkpt><trkpt lat="44.0017408" lon="12.4803801"><ele>177.79999999999998</ele><time>2026-04-10T12:45:00.851Z</time></trkpt><trkpt lat="44.0017195" lon="12.4804676"><ele>176.6</ele><time>2026-04-10T12:45:01.851Z</time></trkpt><trkpt lat="44.0016881" lon="12.4806187"><ele>175.4</ele><time>2026-04-10T12:45:03.851Z</time></trkpt><trkpt lat="44.0016846" lon="12.4807673"><ele>174.2</ele><time>2026-04-10T12:45:05.851Z</time></trkpt><trkpt lat="44.0017407" lon="12.4808734"><ele>173.0</ele><time>2026-04-10T12:45:07.851Z</time></trkpt><trkpt lat="44.0018494" lon="12.4808942"><ele>173.0</ele><time>2026-04-10T12:45:09.851Z</time></trkpt><trkpt lat="44.0019585" lon="12.4808142"><ele>173.0</ele><time>2026-04-10T12:45:11.852Z</time></trkpt><trkpt lat="44.0020158" lon="12.4807441"><ele>173.0</ele><time>2026-04-10T12:45:12.852Z</time></trkpt><trkpt lat="44.0020757" lon="12.4806547"><ele>173.0</ele><time>2026-04-10T12:45:13.851Z</time></trkpt><trkpt lat="44.0021313" lon="12.4805634"><ele>173.0</ele><time>2026-04-10T12:45:14.851Z</time></trkpt><trkpt lat="44.0021875" lon="12.4804734"><ele>174.0</ele><time>2026-04-10T12:45:15.851Z</time></trkpt><trkpt lat="44.0022444" lon="12.4803811"><ele>175.0</ele><time>2026-04-10T12:45:16.853Z</time></trkpt><trkpt lat="44.0022999" lon="12.4802916"><ele>176.0</ele><time>2026-04-10T12:45:17.853Z</time></trkpt><trkpt lat="44.0023534" lon="12.4802068"><ele>177.0</ele><time>2026-04-10T12:45:18.853Z</time></trkpt><trkpt lat="44.0024068" lon="12.4801348"><ele>178.0</ele><time>2026-04-10T12:45:19.852Z</time></trkpt><trkpt lat="44.0024619" lon="12.4800738"><ele>179.0</ele><time>2026-04-10T12:45:20.851Z</time></trkpt><trkpt lat="44.0025171" lon="12.4800285"><ele>176.5</ele><time>2026-04-10T12:45:21.851Z</time></trkpt><trkpt lat="44.0025792" lon="12.480004"><ele>174.0</ele><time>2026-04-10T12:45:22.852Z</time></trkpt><trkpt lat="44.0026441" lon="12.4800091"><ele>171.5</ele><time>2026-04-10T12:45:23.851Z</time></trkpt><trkpt lat="44.0027422" lon="12.4801016"><ele>169.0</ele><time>2026-04-10T12:45:25.853Z</time></trkpt><trkpt lat="44.0027796" lon="12.4802568"><ele>166.5</ele><time>2026-04-10T12:45:27.851Z</time></trkpt><trkpt lat="44.0027838" lon="12.4803563"><ele>164.0</ele><time>2026-04-10T12:45:28.851Z</time></trkpt><trkpt lat="44.0027913" lon="12.4804674"><ele>163.6</ele><time>2026-04-10T12:45:29.851Z</time></trkpt><trkpt lat="44.0028069" lon="12.4805793"><ele>163.2</ele><time>2026-04-10T12:45:30.851Z</time></trkpt><trkpt lat="44.0028396" lon="12.4806901"><ele>162.79999999999998</ele><time>2026-04-10T12:45:31.851Z</time></trkpt><trkpt lat="44.0028907" lon="12.4807991"><ele>162.39999999999998</ele><time>2026-04-10T12:45:32.852Z</time></trkpt><trkpt lat="44.0029583" lon="12.4808967"><ele>162.0</ele><time>2026-04-10T12:45:33.852Z</time></trkpt><trkpt lat="44.0030392" lon="12.480981"><ele>162.0</ele><time>2026-04-10T12:45:34.853Z</time></trkpt><trkpt lat="44.0031269" lon="12.4810574"><ele>162.0</ele><time>2026-04-10T12:45:35.851Z</time></trkpt><trkpt lat="44.003211" lon="12.4811288"><ele>162.0</ele><time>2026-04-10T12:45:36.852Z</time></trkpt><trkpt lat="44.0032917" lon="12.4811967"><ele>162.0</ele><time>2026-04-10T12:45:37.851Z</time></trkpt><trkpt lat="44.0033625" lon="12.4812565"><ele>162.0</ele><time>2026-04-10T12:45:38.852Z</time></trkpt><trkpt lat="44.0034197" lon="12.4813063"><ele>162.0</ele><time>2026-04-10T12:45:39.851Z</time></trkpt><trkpt lat="44.0034634" lon="12.4813935"><ele>160.79999999999998</ele><time>2026-04-10T12:45:41.853Z</time></trkpt><trkpt lat="44.0034279" lon="12.4814725"><ele>159.6</ele><time>2026-04-10T12:45:44.852Z</time></trkpt><trkpt lat="44.0033417" lon="12.4815451"><ele>158.39999999999998</ele><time>2026-04-10T12:45:48.851Z</time></trkpt><trkpt lat="44.0032353" lon="12.4816096"><ele>157.2</ele><time>2026-04-10T12:45:50.851Z</time></trkpt><trkpt lat="44.0031393" lon="12.4817377"><ele>156.0</ele><time>2026-04-10T12:45:52.852Z</time></trkpt><trkpt lat="44.0031079" lon="12.4818733"><ele>156.0</ele><time>2026-04-10T12:45:54.852Z</time></trkpt><trkpt lat="44.0031119" lon="12.4820221"><ele>156.0</ele><time>2026-04-10T12:45:56.853Z</time></trkpt><trkpt lat="44.003119" lon="12.4821654"><ele>156.0</ele><time>2026-04-10T12:45:58.852Z</time></trkpt><trkpt lat="44.0031267" lon="12.4823096"><ele>156.0</ele><time>2026-04-10T12:46:00.852Z</time></trkpt><trkpt lat="44.0031362" lon="12.482456"><ele>156.0</ele><time>2026-04-10T12:46:02.851Z</time></trkpt><trkpt lat="44.0031486" lon="12.4826028"><ele>154.33333333333334</ele><time>2026-04-10T12:46:04.851Z</time></trkpt><trkpt lat="44.0031333" lon="12.4827165"><ele>152.66666666666666</ele><time>2026-04-10T12:46:06.852Z</time></trkpt><trkpt lat="44.0030709" lon="12.4828139"><ele>151.0</ele><time>2026-04-10T12:46:08.851Z</time></trkpt><trkpt lat="44.0029871" lon="12.482897"><ele>149.33333333333331</ele><time>2026-04-10T12:46:10.851Z</time></trkpt><trkpt lat="44.0029333" lon="12.482982"><ele>147.66666666666666</ele><time>2026-04-10T12:46:12.852Z</time></trkpt><trkpt lat="44.0029262" lon="12.4830972"><ele>146.0</ele><time>2026-04-10T12:46:14.852Z</time></trkpt><trkpt lat="44.0029147" lon="12.4832337"><ele>144.0</ele><time>2026-04-10T12:46:16.853Z</time></trkpt><trkpt lat="44.0029104" lon="12.4833902"><ele>142.0</ele><time>2026-04-10T12:46:18.852Z</time></trkpt><trkpt lat="44.0028969" lon="12.4835626"><ele>140.0</ele><time>2026-04-10T12:46:20.851Z</time></trkpt><trkpt lat="44.0028966" lon="12.4837374"><ele>138.0</ele><time>2026-04-10T12:46:22.852Z</time></trkpt><trkpt lat="44.0028889" lon="12.4838277"><ele>136.0</ele><time>2026-04-10T12:46:23.853Z</time></trkpt><trkpt lat="44.0028841" lon="12.483985"><ele>134.66666666666669</ele><time>2026-04-10T12:46:25.852Z</time></trkpt><trkpt lat="44.0028914" lon="12.4841148"><ele>133.33333333333334</ele><time>2026-04-10T12:46:27.852Z</time></trkpt><trkpt lat="44.0028445" lon="12.4842222"><ele>132.0</ele><time>2026-04-10T12:46:31.851Z</time></trkpt><trkpt lat="44.002782" lon="12.484269"><ele>130.66666666666666</ele><time>2026-04-10T12:46:33.851Z</time></trkpt><trkpt lat="44.0027195" lon="12.4842958"><ele>129.33333333333331</ele><time>2026-04-10T12:46:35.853Z</time></trkpt><trkpt lat="44.0026449" lon="12.4843099"><ele>128.0</ele><time>2026-04-10T12:46:37.852Z</time></trkpt><trkpt lat="44.0025683" lon="12.4843178"><ele>128.0</ele><time>2026-04-10T12:46:40.851Z</time></trkpt><trkpt lat="44.0024737" lon="12.4843334"><ele>128.0</ele><time>2026-04-10T12:46:42.852Z</time></trkpt><trkpt lat="44.0023915" lon="12.4843435"><ele>128.0</ele><time>2026-04-10T12:46:45.852Z</time></trkpt><trkpt lat="44.0022871" lon="12.4843494"><ele>128.0</ele><time>2026-04-10T12:46:47.851Z</time></trkpt><trkpt lat="44.0022203" lon="12.4843564"><ele>128.0</ele><time>2026-04-10T12:46:48.852Z</time></trkpt><trkpt lat="44.002108" lon="12.4843728"><ele>128.0</ele><time>2026-04-10T12:46:50.853Z</time></trkpt><trkpt lat="44.0019938" lon="12.4843977"><ele>128.0</ele><time>2026-04-10T12:46:52.852Z</time></trkpt><trkpt lat="44.0018839" lon="12.4844213"><ele>128.0</ele><time>2026-04-10T12:46:54.852Z</time></trkpt><trkpt lat="44.0017639" lon="12.484458"><ele>128.0</ele><time>2026-04-10T12:46:56.852Z</time></trkpt><trkpt lat="44.0016498" lon="12.484504"><ele>127.33333333333333</ele><time>2026-04-10T12:46:58.853Z</time></trkpt><trkpt lat="44.0015574" lon="12.4845561"><ele>126.66666666666666</ele><time>2026-04-10T12:47:00.851Z</time></trkpt><trkpt lat="44.0015184" lon="12.4846437"><ele>126.0</ele><time>2026-04-10T12:47:02.851Z</time></trkpt><trkpt lat="44.0015232" lon="12.4847351"><ele>125.33333333333334</ele><time>2026-04-10T12:47:04.852Z</time></trkpt><trkpt lat="44.0015372" lon="12.484827"><ele>124.66666666666667</ele><time>2026-04-10T12:47:06.853Z</time></trkpt><trkpt lat="44.0015508" lon="12.4849527"><ele>124.0</ele><time>2026-04-10T12:47:08.851Z</time></trkpt><trkpt lat="44.001562" lon="12.4850842"><ele>124.00000000000001</ele><time>2026-04-10T12:47:10.851Z</time></trkpt><trkpt lat="44.0015823" lon="12.485259"><ele>124.0</ele><time>2026-04-10T12:47:12.852Z</time></trkpt><trkpt lat="44.0015916" lon="12.4853477"><ele>124.0</ele><time>2026-04-10T12:47:13.852Z</time></trkpt><trkpt lat="44.0016009" lon="12.4854488"><ele>124.0</ele><time>2026-04-10T12:47:14.851Z</time></trkpt><trkpt lat="44.0016106" lon="12.4855532"><ele>124.00000000000001</ele><time>2026-04-10T12:47:15.852Z</time></trkpt><trkpt lat="44.001621" lon="12.4856499"><ele>124.0</ele><time>2026-04-10T12:47:16.853Z</time></trkpt><trkpt lat="44.0016275" lon="12.4857452"><ele>122.0</ele><time>2026-04-10T12:47:17.852Z</time></trkpt><trkpt lat="44.0016379" lon="12.4858421"><ele>120.00000000000001</ele><time>2026-04-10T12:47:18.851Z</time></trkpt><trkpt lat="44.0016487" lon="12.4859365"><ele>118.0</ele><time>2026-04-10T12:47:19.852Z</time></trkpt><trkpt lat="44.0016609" lon="12.4860325"><ele>116.0</ele><time>2026-04-10T12:47:20.853Z</time></trkpt><trkpt lat="44.0016745" lon="12.486129"><ele>114.0</ele><time>2026-04-10T12:47:21.852Z</time></trkpt><trkpt lat="44.0016891" lon="12.4862204"><ele>112.0</ele><time>2026-04-10T12:47:22.853Z</time></trkpt><trkpt lat="44.0017061" lon="12.4863188"><ele>110.0</ele><time>2026-04-10T12:47:23.851Z</time></trkpt><trkpt lat="44.0017314" lon="12.4864199"><ele>108.16666666666666</ele><time>2026-04-10T12:47:24.853Z</time></trkpt><trkpt lat="44.0017662" lon="12.4865203"><ele>106.33333333333333</ele><time>2026-04-10T12:47:25.852Z</time></trkpt><trkpt lat="44.0018038" lon="12.4866213"><ele>104.5</ele><time>2026-04-10T12:47:26.852Z</time></trkpt><trkpt lat="44.0018399" lon="12.4867209"><ele>102.66666666666666</ele><time>2026-04-10T12:47:27.851Z</time></trkpt><trkpt lat="44.0018726" lon="12.4868207"><ele>100.83333333333333</ele><time>2026-04-10T12:47:28.851Z</time></trkpt><trkpt lat="44.0019083" lon="12.4869131"><ele>99.0</ele><time>2026-04-10T12:47:29.851Z</time></trkpt><trkpt lat="44.0019445" lon="12.4870117"><ele>98.33333333333333</ele><time>2026-04-10T12:47:30.851Z</time></trkpt><trkpt lat="44.0019732" lon="12.4871166"><ele>97.66666666666667</ele><time>2026-04-10T12:47:31.851Z</time></trkpt><trkpt lat="44.001998" lon="12.487224"><ele>97.0</ele><time>2026-04-10T12:47:32.852Z</time></trkpt><trkpt lat="44.0020085" lon="12.4873255"><ele>96.33333333333334</ele><time>2026-04-10T12:47:33.852Z</time></trkpt><trkpt lat="44.00201" lon="12.4874396"><ele>95.66666666666667</ele><time>2026-04-10T12:47:34.852Z</time></trkpt><trkpt lat="44.0020124" lon="12.4875575"><ele>95.0</ele><time>2026-04-10T12:47:35.851Z</time></trkpt><trkpt lat="44.0020138" lon="12.4876841"><ele>95.0</ele><time>2026-04-10T12:47:36.852Z</time></trkpt><trkpt lat="44.0020065" lon="12.4878057"><ele>95.0</ele><time>2026-04-10T12:47:37.852Z</time></trkpt><trkpt lat="44.0020017" lon="12.4879298"><ele>95.0</ele><time>2026-04-10T12:47:38.851Z</time></trkpt><trkpt lat="44.0019951" lon="12.4880474"><ele>95.0</ele><time>2026-04-10T12:47:39.851Z</time></trkpt><trkpt lat="44.0019857" lon="12.4881644"><ele>95.0</ele><time>2026-04-10T12:47:40.851Z</time></trkpt><trkpt lat="44.0019727" lon="12.4882729"><ele>95.0</ele><time>2026-04-10T12:47:41.851Z</time></trkpt><trkpt lat="44.0019596" lon="12.4883772"><ele>96.16666666666667</ele><time>2026-04-10T12:47:42.853Z</time></trkpt><trkpt lat="44.0019534" lon="12.4884776"><ele>97.33333333333334</ele><time>2026-04-10T12:47:43.852Z</time></trkpt><trkpt lat="44.001947" lon="12.4885879"><ele>98.5</ele><time>2026-04-10T12:47:44.851Z</time></trkpt><trkpt lat="44.0019335" lon="12.4887027"><ele>99.66666666666667</ele><time>2026-04-10T12:47:45.853Z</time></trkpt><trkpt lat="44.001925" lon="12.4888098"><ele>100.83333333333333</ele><time>2026-04-10T12:47:46.851Z</time></trkpt><trkpt lat="44.0019177" lon="12.4889109"><ele>102.0</ele><time>2026-04-10T12:47:47.852Z</time></trkpt><trkpt lat="44.0019128" lon="12.4890134"><ele>103.83333333333333</ele><time>2026-04-10T12:47:48.851Z</time></trkpt><trkpt lat="44.0019163" lon="12.489116"><ele>105.66666666666666</ele><time>2026-04-10T12:47:49.852Z</time></trkpt><trkpt lat="44.0019251" lon="12.4892209"><ele>107.5</ele><time>2026-04-10T12:47:50.851Z</time></trkpt><trkpt lat="44.0019417" lon="12.489336"><ele>109.33333333333333</ele><time>2026-04-10T12:47:51.852Z</time></trkpt><trkpt lat="44.0019677" lon="12.4894547"><ele>111.16666666666666</ele><time>2026-04-10T12:47:52.852Z</time></trkpt><trkpt lat="44.002" lon="12.489584"><ele>113.0</ele><time>2026-04-10T12:47:53.851Z</time></trkpt><trkpt lat="44.0020331" lon="12.4896962"><ele>112.99999999999999</ele><time>2026-04-10T12:47:54.852Z</time></trkpt><trkpt lat="44.002071" lon="12.4898005"><ele>113.0</ele><time>2026-04-10T12:47:55.851Z</time></trkpt><trkpt lat="44.0021108" lon="12.4899023"><ele>113.0</ele><time>2026-04-10T12:47:56.852Z</time></trkpt><trkpt lat="44.0021546" lon="12.4900075"><ele>113.0</ele><time>2026-04-10T12:47:57.851Z</time></trkpt><trkpt lat="44.0021979" lon="12.4901079"><ele>112.99999999999999</ele><time>2026-04-10T12:47:58.851Z</time></trkpt><trkpt lat="44.0022446" lon="12.4902157"><ele>113.0</ele><time>2026-04-10T12:47:59.851Z</time></trkpt><trkpt lat="44.002291" lon="12.4903228"><ele>113.66666666666666</ele><time>2026-04-10T12:48:00.851Z</time></trkpt><trkpt lat="44.0023396" lon="12.4904264"><ele>114.33333333333333</ele><time>2026-04-10T12:48:01.851Z</time></trkpt><trkpt lat="44.0023878" lon="12.4905305"><ele>115.0</ele><time>2026-04-10T12:48:02.851Z</time></trkpt><trkpt lat="44.0024295" lon="12.4906331"><ele>115.66666666666666</ele><time>2026-04-10T12:48:03.852Z</time></trkpt><trkpt lat="44.0024682" lon="12.4907196"><ele>116.33333333333333</ele><time>2026-04-10T12:48:04.851Z</time></trkpt><trkpt lat="44.002504" lon="12.4907946"><ele>117.0</ele><time>2026-04-10T12:48:05.852Z</time></trkpt><trkpt lat="44.0025691" lon="12.4909299"><ele>117.83333333333333</ele><time>2026-04-10T12:48:07.852Z</time></trkpt><trkpt lat="44.0026068" lon="12.4910137"><ele>118.66666666666666</ele><time>2026-04-10T12:48:09.851Z</time></trkpt><trkpt lat="44.0026134" lon="12.4911192"><ele>119.5</ele><time>2026-04-10T12:48:14.852Z</time></trkpt><trkpt lat="44.0025431" lon="12.491225"><ele>120.33333333333333</ele><time>2026-04-10T12:48:16.853Z</time></trkpt><trkpt lat="44.0024719" lon="12.4912867"><ele>121.16666666666666</ele><time>2026-04-10T12:48:17.851Z</time></trkpt><trkpt lat="44.0024128" lon="12.4913517"><ele>122.0</ele><time>2026-04-10T12:48:18.851Z</time></trkpt><trkpt lat="44.0023406" lon="12.4914229"><ele>122.0</ele><time>2026-04-10T12:48:19.851Z</time></trkpt><trkpt lat="44.0022622" lon="12.4915069"><ele>121.99999999999999</ele><time>2026-04-10T12:48:20.851Z</time></trkpt><trkpt lat="44.0021804" lon="12.4916005"><ele>121.99999999999999</ele><time>2026-04-10T12:48:21.852Z</time></trkpt><trkpt lat="44.0020926" lon="12.4917015"><ele>122.0</ele><time>2026-04-10T12:48:22.852Z</time></trkpt><trkpt lat="44.0019972" lon="12.4918036"><ele>122.0</ele><time>2026-04-10T12:48:23.851Z</time></trkpt><trkpt lat="44.0019035" lon="12.4919089"><ele>122.0</ele><time>2026-04-10T12:48:24.853Z</time></trkpt><trkpt lat="44.0018031" lon="12.4920235"><ele>122.0</ele><time>2026-04-10T12:48:25.851Z</time></trkpt><trkpt lat="44.0017006" lon="12.4921366"><ele>122.0</ele><time>2026-04-10T12:48:26.851Z</time></trkpt><trkpt lat="44.0015969" lon="12.4922491"><ele>122.0</ele><time>2026-04-10T12:48:27.851Z</time></trkpt><trkpt lat="44.0014932" lon="12.4923626"><ele>122.25</ele><time>2026-04-10T12:48:28.851Z</time></trkpt><trkpt lat="44.001395" lon="12.4924724"><ele>122.5</ele><time>2026-04-10T12:48:29.852Z</time></trkpt><trkpt lat="44.0012928" lon="12.4925893"><ele>122.75</ele><time>2026-04-10T12:48:30.852Z</time></trkpt><trkpt lat="44.0011964" lon="12.4926941"><ele>123.0</ele><time>2026-04-10T12:48:31.852Z</time></trkpt><trkpt lat="44.0011052" lon="12.4927932"><ele>123.0</ele><time>2026-04-10T12:48:32.851Z</time></trkpt><trkpt lat="44.0010137" lon="12.4928988"><ele>123.0</ele><time>2026-04-10T12:48:33.851Z</time></trkpt><trkpt lat="44.000913" lon="12.4930111"><ele>123.0</ele><time>2026-04-10T12:48:34.852Z</time></trkpt><trkpt lat="44.0008043" lon="12.4931241"><ele>123.0</ele><time>2026-04-10T12:48:35.853Z</time></trkpt><trkpt lat="44.0006938" lon="12.4932367"><ele>124.5</ele><time>2026-04-10T12:48:36.851Z</time></trkpt><trkpt lat="44.0005705" lon="12.4933496"><ele>126.0</ele><time>2026-04-10T12:48:37.852Z</time></trkpt><trkpt lat="44.0004459" lon="12.4934682"><ele>127.5</ele><time>2026-04-10T12:48:38.851Z</time></trkpt><trkpt lat="44.0003211" lon="12.4935779"><ele>129.0</ele><time>2026-04-10T12:48:39.852Z</time></trkpt><trkpt lat="44.0001931" lon="12.493693"><ele>127.66666666666666</ele><time>2026-04-10T12:48:40.851Z</time></trkpt><trkpt lat="44.0000696" lon="12.4938064"><ele>126.33333333333333</ele><time>2026-04-10T12:48:41.853Z</time></trkpt><trkpt lat="43.9999408" lon="12.4939273"><ele>125.0</ele><time>2026-04-10T12:48:42.852Z</time></trkpt><trkpt lat="43.9998079" lon="12.494046"><ele>125.0</ele><time>2026-04-10T12:48:43.851Z</time></trkpt><trkpt lat="43.9996851" lon="12.4941616"><ele>125.0</ele><time>2026-04-10T12:48:44.853Z</time></trkpt><trkpt lat="43.9995745" lon="12.4942947"><ele>125.0</ele><time>2026-04-10T12:48:45.852Z</time></trkpt><trkpt lat="43.9994801" lon="12.4944425"><ele>125.0</ele><time>2026-04-10T12:48:46.851Z</time></trkpt><trkpt lat="43.9993879" lon="12.4946064"><ele>125.33333333333333</ele><time>2026-04-10T12:48:47.851Z</time></trkpt><trkpt lat="43.9993043" lon="12.4947839"><ele>125.66666666666666</ele><time>2026-04-10T12:48:48.853Z</time></trkpt><trkpt lat="43.9992203" lon="12.4949701"><ele>126.0</ele><time>2026-04-10T12:48:49.852Z</time></trkpt><trkpt lat="43.9991433" lon="12.4951677"><ele>126.0</ele><time>2026-04-10T12:48:50.851Z</time></trkpt><trkpt lat="43.9990722" lon="12.4953702"><ele>126.0</ele><time>2026-04-10T12:48:51.851Z</time></trkpt><trkpt lat="43.9990082" lon="12.4955628"><ele>126.0</ele><time>2026-04-10T12:48:52.851Z</time></trkpt><trkpt lat="43.9989531" lon="12.4957522"><ele>124.0</ele><time>2026-04-10T12:48:53.852Z</time></trkpt><trkpt lat="43.9989185" lon="12.4959171"><ele>122.0</ele><time>2026-04-10T12:48:54.853Z</time></trkpt><trkpt lat="43.998879" lon="12.4960776"><ele>120.0</ele><time>2026-04-10T12:48:55.852Z</time></trkpt><trkpt lat="43.9988324" lon="12.4962251"><ele>118.0</ele><time>2026-04-10T12:48:56.852Z</time></trkpt><trkpt lat="43.9987762" lon="12.4963713"><ele>116.80000000000001</ele><time>2026-04-10T12:48:57.852Z</time></trkpt><trkpt lat="43.9987077" lon="12.4965095"><ele>115.60000000000001</ele><time>2026-04-10T12:48:58.852Z</time></trkpt><trkpt lat="43.9986349" lon="12.4966206"><ele>114.39999999999999</ele><time>2026-04-10T12:48:59.852Z</time></trkpt><trkpt lat="43.9985603" lon="12.4967142"><ele>113.19999999999999</ele><time>2026-04-10T12:49:00.852Z</time></trkpt><trkpt lat="43.9984848" lon="12.4967875"><ele>112.0</ele><time>2026-04-10T12:49:01.851Z</time></trkpt><trkpt lat="43.9984168" lon="12.4968365"><ele>112.0</ele><time>2026-04-10T12:49:02.852Z</time></trkpt><trkpt lat="43.9983616" lon="12.4968899"><ele>112.0</ele><time>2026-04-10T12:49:03.852Z</time></trkpt><trkpt lat="43.9983229" lon="12.4969618"><ele>112.0</ele><time>2026-04-10T12:49:04.852Z</time></trkpt><trkpt lat="43.9982889" lon="12.4970467"><ele>112.0</ele><time>2026-04-10T12:49:05.851Z</time></trkpt><trkpt lat="43.9982689" lon="12.4971435"><ele>112.0</ele><time>2026-04-10T12:49:06.853Z</time></trkpt><trkpt lat="43.9982446" lon="12.4972404"><ele>112.0</ele><time>2026-04-10T12:49:07.851Z</time></trkpt><trkpt lat="43.9982205" lon="12.4973475"><ele>112.0</ele><time>2026-04-10T12:49:08.852Z</time></trkpt><trkpt lat="43.9982013" lon="12.4974565"><ele>114.0</ele><time>2026-04-10T12:49:09.851Z</time></trkpt><trkpt lat="43.9981944" lon="12.4975788"><ele>115.99999999999999</ele><time>2026-04-10T12:49:10.853Z</time></trkpt><trkpt lat="43.998203" lon="12.4976981"><ele>117.99999999999999</ele><time>2026-04-10T12:49:11.852Z</time></trkpt><trkpt lat="43.9982122" lon="12.4978151"><ele>120.0</ele><time>2026-04-10T12:49:12.851Z</time></trkpt><trkpt lat="43.9982014" lon="12.4979454"><ele>122.0</ele><time>2026-04-10T12:49:13.852Z</time></trkpt><trkpt lat="43.9981659" lon="12.4980746"><ele>122.0</ele><time>2026-04-10T12:49:14.852Z</time></trkpt><trkpt lat="43.9981149" lon="12.4981927"><ele>121.99999999999999</ele><time>2026-04-10T12:49:15.851Z</time></trkpt><trkpt lat="43.9980558" lon="12.4982998"><ele>121.99999999999999</ele><time>2026-04-10T12:49:16.851Z</time></trkpt><trkpt lat="43.9979892" lon="12.4984115"><ele>122.0</ele><time>2026-04-10T12:49:17.851Z</time></trkpt><trkpt lat="43.9979248" lon="12.4985237"><ele>122.0</ele><time>2026-04-10T12:49:18.853Z</time></trkpt><trkpt lat="43.9978632" lon="12.4986343"><ele>121.99999999999999</ele><time>2026-04-10T12:49:19.851Z</time></trkpt><trkpt lat="43.9978082" lon="12.4987387"><ele>122.0</ele><time>2026-04-10T12:49:20.852Z</time></trkpt><trkpt lat="43.9977578" lon="12.4988546"><ele>122.0</ele><time>2026-04-10T12:49:21.851Z</time></trkpt><trkpt lat="43.9977203" lon="12.4989646"><ele>122.0</ele><time>2026-04-10T12:49:22.851Z</time></trkpt><trkpt lat="43.9976895" lon="12.4990782"><ele>121.99999999999999</ele><time>2026-04-10T12:49:23.851Z</time></trkpt><trkpt lat="43.9976661" lon="12.4991905"><ele>122.0</ele><time>2026-04-10T12:49:24.851Z</time></trkpt><trkpt lat="43.9976486" lon="12.4992986"><ele>121.57142857142856</ele><time>2026-04-10T12:49:25.853Z</time></trkpt><trkpt lat="43.9976379" lon="12.4994047"><ele>121.14285714285714</ele><time>2026-04-10T12:49:26.851Z</time></trkpt><trkpt lat="43.9976417" lon="12.4995081"><ele>120.71428571428571</ele><time>2026-04-10T12:49:27.852Z</time></trkpt><trkpt lat="43.9976589" lon="12.499605"><ele>120.28571428571428</ele><time>2026-04-10T12:49:28.851Z</time></trkpt><trkpt lat="43.9976986" lon="12.4996868"><ele>119.85714285714286</ele><time>2026-04-10T12:49:29.851Z</time></trkpt><trkpt lat="43.9977525" lon="12.4997482"><ele>119.42857142857143</ele><time>2026-04-10T12:49:30.851Z</time></trkpt><trkpt lat="43.9978198" lon="12.4997973"><ele>119.0</ele><time>2026-04-10T12:49:31.853Z</time></trkpt><trkpt lat="43.9978879" lon="12.4998448"><ele>118.99999999999999</ele><time>2026-04-10T12:49:32.852Z</time></trkpt><trkpt lat="43.997962" lon="12.4998893"><ele>119.0</ele><time>2026-04-10T12:49:33.851Z</time></trkpt><trkpt lat="43.9980404" lon="12.4999309"><ele>119.0</ele><time>2026-04-10T12:49:34.851Z</time></trkpt><trkpt lat="43.9981209" lon="12.4999767"><ele>119.0</ele><time>2026-04-10T12:49:35.852Z</time></trkpt><trkpt lat="43.9982015" lon="12.5000252"><ele>118.99999999999999</ele><time>2026-04-10T12:49:36.852Z</time></trkpt><trkpt lat="43.9982791" lon="12.5000638"><ele>119.0</ele><time>2026-04-10T12:49:37.851Z</time></trkpt><trkpt lat="43.998364" lon="12.5001143"><ele>117.83333333333333</ele><time>2026-04-10T12:49:38.851Z</time></trkpt><trkpt lat="43.9984415" lon="12.5001702"><ele>116.66666666666666</ele><time>2026-04-10T12:49:39.852Z</time></trkpt><trkpt lat="43.9985199" lon="12.5002158"><ele>115.5</ele><time>2026-04-10T12:49:40.852Z</time></trkpt><trkpt lat="43.9985904" lon="12.5002689"><ele>114.33333333333334</ele><time>2026-04-10T12:49:41.852Z</time></trkpt><trkpt lat="43.9986523" lon="12.5003367"><ele>113.16666666666667</ele><time>2026-04-10T12:49:42.851Z</time></trkpt><trkpt lat="43.9987034" lon="12.5004111"><ele>112.0</ele><time>2026-04-10T12:49:43.852Z</time></trkpt><trkpt lat="43.9987277" lon="12.5005037"><ele>111.8</ele><time>2026-04-10T12:49:44.851Z</time></trkpt><trkpt lat="43.9987291" lon="12.5006035"><ele>111.6</ele><time>2026-04-10T12:49:45.852Z</time></trkpt><trkpt lat="43.9987309" lon="12.5007267"><ele>111.39999999999999</ele><time>2026-04-10T12:49:46.851Z</time></trkpt><trkpt lat="43.9987331" lon="12.5008616"><ele>111.19999999999999</ele><time>2026-04-10T12:49:47.851Z</time></trkpt><trkpt lat="43.9987388" lon="12.5010026"><ele>111.0</ele><time>2026-04-10T12:49:48.853Z</time></trkpt><trkpt lat="43.9987386" lon="12.5011415"><ele>110.8</ele><time>2026-04-10T12:49:49.852Z</time></trkpt><trkpt lat="43.9987432" lon="12.5012856"><ele>110.6</ele><time>2026-04-10T12:49:50.851Z</time></trkpt><trkpt lat="43.9987505" lon="12.5014321"><ele>110.4</ele><time>2026-04-10T12:49:51.852Z</time></trkpt><trkpt lat="43.9987575" lon="12.5015742"><ele>110.2</ele><time>2026-04-10T12:49:52.851Z</time></trkpt><trkpt lat="43.9987664" lon="12.5017137"><ele>110.0</ele><time>2026-04-10T12:49:53.852Z</time></trkpt><trkpt lat="43.9987774" lon="12.5018577"><ele>110.0</ele><time>2026-04-10T12:49:54.851Z</time></trkpt><trkpt lat="43.9987903" lon="12.5020029"><ele>110.0</ele><time>2026-04-10T12:49:55.852Z</time></trkpt><trkpt lat="43.9988055" lon="12.5021567"><ele>110.0</ele><time>2026-04-10T12:49:56.852Z</time></trkpt><trkpt lat="43.9988203" lon="12.5023125"><ele>110.0</ele><time>2026-04-10T12:49:57.851Z</time></trkpt><trkpt lat="43.9988365" lon="12.5024678"><ele>110.0</ele><time>2026-04-10T12:49:58.852Z</time></trkpt><trkpt lat="43.9988513" lon="12.5026182"><ele>109.8</ele><time>2026-04-10T12:49:59.851Z</time></trkpt><trkpt lat="43.9988671" lon="12.5027738"><ele>109.6</ele><time>2026-04-10T12:50:00.852Z</time></trkpt><trkpt lat="43.9988811" lon="12.5029264"><ele>109.4</ele><time>2026-04-10T12:50:01.851Z</time></trkpt><trkpt lat="43.9988953" lon="12.5030694"><ele>109.2</ele><time>2026-04-10T12:50:02.851Z</time></trkpt><trkpt lat="43.9989104" lon="12.5032051"><ele>109.0</ele><time>2026-04-10T12:50:03.851Z</time></trkpt><trkpt lat="43.9989196" lon="12.5033282"><ele>109.0</ele><time>2026-04-10T12:50:04.853Z</time></trkpt><trkpt lat="43.9989258" lon="12.5034301"><ele>109.0</ele><time>2026-04-10T12:50:05.851Z</time></trkpt><trkpt lat="43.9989311" lon="12.5035202"><ele>109.0</ele><time>2026-04-10T12:50:06.853Z</time></trkpt><trkpt lat="43.9989358" lon="12.5036143"><ele>109.0</ele><time>2026-04-10T12:50:07.853Z</time></trkpt><trkpt lat="43.9989464" lon="12.5037075"><ele>109.0</ele><time>2026-04-10T12:50:08.851Z</time></trkpt><trkpt lat="43.9989571" lon="12.5038039"><ele>109.0</ele><time>2026-04-10T12:50:09.852Z</time></trkpt><trkpt lat="43.9989694" lon="12.5039036"><ele>109.0</ele><time>2026-04-10T12:50:10.852Z</time></trkpt><trkpt lat="43.998981" lon="12.5040108"><ele>109.14285714285714</ele><time>2026-04-10T12:50:11.851Z</time></trkpt><trkpt lat="43.9989953" lon="12.5041204"><ele>109.28571428571429</ele><time>2026-04-10T12:50:12.852Z</time></trkpt><trkpt lat="43.9990135" lon="12.504223"><ele>109.42857142857142</ele><time>2026-04-10T12:50:13.851Z</time></trkpt><trkpt lat="43.9990345" lon="12.5043194"><ele>109.57142857142857</ele><time>2026-04-10T12:50:14.852Z</time></trkpt><trkpt lat="43.9990668" lon="12.5044154"><ele>109.71428571428571</ele><time>2026-04-10T12:50:15.851Z</time></trkpt><trkpt lat="43.9991007" lon="12.5045035"><ele>109.85714285714285</ele><time>2026-04-10T12:50:16.851Z</time></trkpt><trkpt lat="43.999146" lon="12.5045776"><ele>110.0</ele><time>2026-04-10T12:50:17.851Z</time></trkpt><trkpt lat="43.9991896" lon="12.5046577"><ele>110.49999999999999</ele><time>2026-04-10T12:50:18.852Z</time></trkpt><trkpt lat="43.9992359" lon="12.5047416"><ele>111.0</ele><time>2026-04-10T12:50:19.852Z</time></trkpt><trkpt lat="43.99929" lon="12.5048379"><ele>111.5</ele><time>2026-04-10T12:50:20.851Z</time></trkpt><trkpt lat="43.9993427" lon="12.5049298"><ele>112.0</ele><time>2026-04-10T12:50:21.852Z</time></trkpt><trkpt lat="43.9993931" lon="12.5050249"><ele>112.49999999999999</ele><time>2026-04-10T12:50:22.852Z</time></trkpt><trkpt lat="43.9994431" lon="12.5051217"><ele>113.0</ele><time>2026-04-10T12:50:23.852Z</time></trkpt><trkpt lat="43.9994822" lon="12.5052279"><ele>113.0</ele><time>2026-04-10T12:50:24.852Z</time></trkpt><trkpt lat="43.9995163" lon="12.5053416"><ele>113.00000000000001</ele><time>2026-04-10T12:50:25.852Z</time></trkpt><trkpt lat="43.9995484" lon="12.5054632"><ele>113.00000000000001</ele><time>2026-04-10T12:50:26.852Z</time></trkpt><trkpt lat="43.9995803" lon="12.5055931"><ele>113.0</ele><time>2026-04-10T12:50:27.851Z</time></trkpt><trkpt lat="43.9996081" lon="12.5057214"><ele>113.0</ele><time>2026-04-10T12:50:28.853Z</time></trkpt><trkpt lat="43.9996246" lon="12.5058483"><ele>114.33333333333333</ele><time>2026-04-10T12:50:29.851Z</time></trkpt><trkpt lat="43.9996303" lon="12.5059708"><ele>115.66666666666666</ele><time>2026-04-10T12:50:30.853Z</time></trkpt><trkpt lat="43.9996271" lon="12.5060752"><ele>117.0</ele><time>2026-04-10T12:50:31.852Z</time></trkpt><trkpt lat="43.9996129" lon="12.506167"><ele>118.33333333333334</ele><time>2026-04-10T12:50:32.852Z</time></trkpt><trkpt lat="43.9995583" lon="12.5062856"><ele>119.66666666666667</ele><time>2026-04-10T12:50:34.853Z</time></trkpt><trkpt lat="43.9995448" lon="12.5063747"><ele>121.0</ele><time>2026-04-10T12:50:36.851Z</time></trkpt><trkpt lat="43.9995265" lon="12.5064956"><ele>121.33333333333334</ele><time>2026-04-10T12:50:38.851Z</time></trkpt><trkpt lat="43.9995145" lon="12.5065958"><ele>121.66666666666667</ele><time>2026-04-10T12:50:40.852Z</time></trkpt><trkpt lat="43.9995089" lon="12.5066911"><ele>122.0</ele><time>2026-04-10T12:50:43.852Z</time></trkpt><trkpt lat="43.9994887" lon="12.5068263"><ele>122.33333333333334</ele><time>2026-04-10T12:50:46.851Z</time></trkpt><trkpt lat="43.9994743" lon="12.5069586"><ele>122.66666666666667</ele><time>2026-04-10T12:50:48.852Z</time></trkpt><trkpt lat="43.9994511" lon="12.5070616"><ele>123.0</ele><time>2026-04-10T12:50:50.852Z</time></trkpt><trkpt lat="43.9994379" lon="12.5071707"><ele>122.33333333333333</ele><time>2026-04-10T12:50:52.852Z</time></trkpt><trkpt lat="43.9994268" lon="12.5072901"><ele>121.66666666666666</ele><time>2026-04-10T12:50:54.853Z</time></trkpt><trkpt lat="43.9994145" lon="12.5074046"><ele>121.0</ele><time>2026-04-10T12:50:56.851Z</time></trkpt><trkpt lat="43.9994004" lon="12.5075044"><ele>120.33333333333333</ele><time>2026-04-10T12:50:58.853Z</time></trkpt><trkpt lat="43.9993955" lon="12.5076364"><ele>119.66666666666666</ele><time>2026-04-10T12:51:00.851Z</time></trkpt><trkpt lat="43.9993902" lon="12.5077722"><ele>119.0</ele><time>2026-04-10T12:51:02.852Z</time></trkpt><trkpt lat="43.9993702" lon="12.5078809"><ele>118.33333333333333</ele><time>2026-04-10T12:51:04.851Z</time></trkpt><trkpt lat="43.9993688" lon="12.5079814"><ele>117.66666666666666</ele><time>2026-04-10T12:51:06.852Z</time></trkpt><trkpt lat="43.9993429" lon="12.5080695"><ele>117.0</ele><time>2026-04-10T12:51:14.851Z</time></trkpt><trkpt lat="43.9993285" lon="12.5081672"><ele>116.33333333333334</ele><time>2026-04-10T12:51:23.851Z</time></trkpt><trkpt lat="43.9993069" lon="12.5082878"><ele>115.66666666666667</ele><time>2026-04-10T12:51:26.851Z</time></trkpt><trkpt lat="43.9992871" lon="12.5083791"><ele>115.0</ele><time>2026-04-10T12:51:28.851Z</time></trkpt><trkpt lat="43.9992407" lon="12.5085061"><ele>115.00000000000001</ele><time>2026-04-10T12:51:30.853Z</time></trkpt><trkpt lat="43.9992092" lon="12.5085997"><ele>115.0</ele><time>2026-04-10T12:51:32.852Z</time></trkpt><trkpt lat="43.999167" lon="12.5087114"><ele>115.0</ele><time>2026-04-10T12:51:35.852Z</time></trkpt><trkpt lat="43.9991323" lon="12.5087929"><ele>115.0</ele><time>2026-04-10T12:51:37.852Z</time></trkpt><trkpt lat="43.9990603" lon="12.5088966"><ele>115.00000000000001</ele><time>2026-04-10T12:51:40.851Z</time></trkpt><trkpt lat="43.9989984" lon="12.50898"><ele>115.0</ele><time>2026-04-10T12:51:42.851Z</time></trkpt><trkpt lat="43.9989293" lon="12.5090578"><ele>116.6</ele><time>2026-04-10T12:51:44.851Z</time></trkpt><trkpt lat="43.9988553" lon="12.5091573"><ele>118.2</ele><time>2026-04-10T12:51:46.852Z</time></trkpt><trkpt lat="43.9987932" lon="12.5092497"><ele>119.80000000000001</ele><time>2026-04-10T12:51:48.853Z</time></trkpt><trkpt lat="43.9987298" lon="12.5093348"><ele>121.4</ele><time>2026-04-10T12:51:50.851Z</time></trkpt><trkpt lat="43.9986703" lon="12.5094164"><ele>123.0</ele><time>2026-04-10T12:51:52.851Z</time></trkpt><trkpt lat="43.9986211" lon="12.5095308"><ele>122.60000000000001</ele><time>2026-04-10T12:51:54.851Z</time></trkpt><trkpt lat="43.9985769" lon="12.5096968"><ele>122.20000000000002</ele><time>2026-04-10T12:51:56.851Z</time></trkpt><trkpt lat="43.9985567" lon="12.5097973"><ele>121.8</ele><time>2026-04-10T12:51:57.852Z</time></trkpt><trkpt lat="43.9985384" lon="12.5099268"><ele>121.4</ele><time>2026-04-10T12:51:58.852Z</time></trkpt><trkpt lat="43.9985165" lon="12.5100517"><ele>121.0</ele><time>2026-04-10T12:51:59.852Z</time></trkpt><trkpt lat="43.9984938" lon="12.5101771"><ele>121.0</ele><time>2026-04-10T12:52:00.852Z</time></trkpt><trkpt lat="43.9984713" lon="12.5103009"><ele>121.0</ele><time>2026-04-10T12:52:01.853Z</time></trkpt><trkpt lat="43.9984465" lon="12.5104198"><ele>121.0</ele><time>2026-04-10T12:52:02.851Z</time></trkpt><trkpt lat="43.9984271" lon="12.5105409"><ele>121.0</ele><time>2026-04-10T12:52:03.853Z</time></trkpt><trkpt lat="43.9984078" lon="12.5106643"><ele>121.0</ele><time>2026-04-10T12:52:04.852Z</time></trkpt><trkpt lat="43.99839" lon="12.5107852"><ele>121.19999999999999</ele><time>2026-04-10T12:52:05.852Z</time></trkpt><trkpt lat="43.9983679" lon="12.5109111"><ele>121.39999999999999</ele><time>2026-04-10T12:52:06.851Z</time></trkpt><trkpt lat="43.998337" lon="12.5110389"><ele>121.6</ele><time>2026-04-10T12:52:07.852Z</time></trkpt><trkpt lat="43.9982953" lon="12.5111664"><ele>121.8</ele><time>2026-04-10T12:52:08.852Z</time></trkpt><trkpt lat="43.9982449" lon="12.5112986"><ele>122.0</ele><time>2026-04-10T12:52:09.852Z</time></trkpt><trkpt lat="43.998197" lon="12.5114235"><ele>121.0</ele><time>2026-04-10T12:52:10.851Z</time></trkpt><trkpt lat="43.9981491" lon="12.5115472"><ele>119.99999999999999</ele><time>2026-04-10T12:52:11.851Z</time></trkpt><trkpt lat="43.9981052" lon="12.5116588"><ele>118.99999999999999</ele><time>2026-04-10T12:52:12.851Z</time></trkpt><trkpt lat="43.998062" lon="12.5117721"><ele>118.0</ele><time>2026-04-10T12:52:13.851Z</time></trkpt><trkpt lat="43.9980224" lon="12.5118915"><ele>117.0</ele><time>2026-04-10T12:52:14.851Z</time></trkpt><trkpt lat="43.9979884" lon="12.5120036"><ele>115.8</ele><time>2026-04-10T12:52:15.852Z</time></trkpt><trkpt lat="43.9979605" lon="12.5121204"><ele>114.6</ele><time>2026-04-10T12:52:16.852Z</time></trkpt><trkpt lat="43.9979313" lon="12.5122397"><ele>113.39999999999999</ele><time>2026-04-10T12:52:17.851Z</time></trkpt><trkpt lat="43.9979073" lon="12.5123561"><ele>112.19999999999999</ele><time>2026-04-10T12:52:18.851Z</time></trkpt><trkpt lat="43.9978752" lon="12.5124766"><ele>111.0</ele><time>2026-04-10T12:52:19.852Z</time></trkpt><trkpt lat="43.9978342" lon="12.5125909"><ele>111.0</ele><time>2026-04-10T12:52:20.851Z</time></trkpt><trkpt lat="43.9977804" lon="12.5126983"><ele>111.0</ele><time>2026-04-10T12:52:21.851Z</time></trkpt><trkpt lat="43.9977222" lon="12.5127937"><ele>111.0</ele><time>2026-04-10T12:52:22.851Z</time></trkpt><trkpt lat="43.9976561" lon="12.512873"><ele>111.0</ele><time>2026-04-10T12:52:23.852Z</time></trkpt><trkpt lat="43.9975824" lon="12.5129491"><ele>111.0</ele><time>2026-04-10T12:52:24.851Z</time></trkpt><trkpt lat="43.9974822" lon="12.513004"><ele>110.4</ele><time>2026-04-10T12:52:25.852Z</time></trkpt><trkpt lat="43.9973834" lon="12.5130614"><ele>109.8</ele><time>2026-04-10T12:52:26.852Z</time></trkpt><trkpt lat="43.9972787" lon="12.5131196"><ele>109.20000000000002</ele><time>2026-04-10T12:52:27.852Z</time></trkpt><trkpt lat="43.9971789" lon="12.5131764"><ele>108.60000000000001</ele><time>2026-04-10T12:52:28.853Z</time></trkpt><trkpt lat="43.9970829" lon="12.5132313"><ele>108.0</ele><time>2026-04-10T12:52:29.851Z</time></trkpt><trkpt lat="43.9969862" lon="12.5132788"><ele>108.0</ele><time>2026-04-10T12:52:30.853Z</time></trkpt><trkpt lat="43.9968886" lon="12.5133283"><ele>108.00000000000001</ele><time>2026-04-10T12:52:31.852Z</time></trkpt><trkpt lat="43.996786" lon="12.5133879"><ele>108.00000000000001</ele><time>2026-04-10T12:52:32.851Z</time></trkpt><trkpt lat="43.9966816" lon="12.5134602"><ele>108.0</ele><time>2026-04-10T12:52:33.852Z</time></trkpt><trkpt lat="43.9965774" lon="12.513531"><ele>108.0</ele><time>2026-04-10T12:52:34.851Z</time></trkpt><trkpt lat="43.9964739" lon="12.5136101"><ele>107.80000000000001</ele><time>2026-04-10T12:52:35.851Z</time></trkpt><trkpt lat="43.9963746" lon="12.5136846"><ele>107.60000000000001</ele><time>2026-04-10T12:52:36.851Z</time></trkpt><trkpt lat="43.9962823" lon="12.5137571"><ele>107.39999999999999</ele><time>2026-04-10T12:52:37.852Z</time></trkpt><trkpt lat="43.9961985" lon="12.5138305"><ele>107.19999999999999</ele><time>2026-04-10T12:52:38.851Z</time></trkpt><trkpt lat="43.9961339" lon="12.5138949"><ele>107.0</ele><time>2026-04-10T12:52:39.851Z</time></trkpt><trkpt lat="43.996076" lon="12.5139496"><ele>106.16666666666666</ele><time>2026-04-10T12:52:40.852Z</time></trkpt><trkpt lat="43.9960255" lon="12.5140134"><ele>105.33333333333333</ele><time>2026-04-10T12:52:41.852Z</time></trkpt><trkpt lat="43.9960021" lon="12.5141709"><ele>104.5</ele><time>2026-04-10T12:52:43.852Z</time></trkpt><trkpt lat="43.9960143" lon="12.5142718"><ele>103.66666666666666</ele><time>2026-04-10T12:52:44.851Z</time></trkpt><trkpt lat="43.9960265" lon="12.514366"><ele>102.83333333333333</ele><time>2026-04-10T12:52:45.851Z</time></trkpt><trkpt lat="43.9960415" lon="12.5144531"><ele>102.0</ele><time>2026-04-10T12:52:46.852Z</time></trkpt><trkpt lat="43.9960802" lon="12.5145659"><ele>102.0</ele><time>2026-04-10T12:52:48.851Z</time></trkpt><trkpt lat="43.996141" lon="12.5146137"><ele>102.0</ele><time>2026-04-10T12:52:50.852Z</time></trkpt><trkpt lat="43.9962696" lon="12.5145805"><ele>102.0</ele><time>2026-04-10T12:52:52.851Z</time></trkpt><trkpt lat="43.9963494" lon="12.5145549"><ele>102.0</ele><time>2026-04-10T12:52:53.851Z</time></trkpt><trkpt lat="43.9964501" lon="12.5145053"><ele>102.0</ele><time>2026-04-10T12:52:54.851Z</time></trkpt><trkpt lat="43.9965374" lon="12.514468"><ele>102.0</ele><time>2026-04-10T12:52:55.853Z</time></trkpt><trkpt lat="43.9966195" lon="12.5144368"><ele>102.0</ele><time>2026-04-10T12:52:56.852Z</time></trkpt><trkpt lat="43.9967011" lon="12.5144078"><ele>102.0</ele><time>2026-04-10T12:52:57.851Z</time></trkpt><trkpt lat="43.9967874" lon="12.5143801"><ele>102.0</ele><time>2026-04-10T12:52:58.853Z</time></trkpt><trkpt lat="43.9968677" lon="12.5143487"><ele>102.0</ele><time>2026-04-10T12:52:59.852Z</time></trkpt><trkpt lat="43.9969431" lon="12.5143223"><ele>102.0</ele><time>2026-04-10T12:53:00.851Z</time></trkpt><trkpt lat="43.9970207" lon="12.5142968"><ele>101.16666666666667</ele><time>2026-04-10T12:53:01.852Z</time></trkpt><trkpt lat="43.9971028" lon="12.5142686"><ele>100.33333333333334</ele><time>2026-04-10T12:53:02.851Z</time></trkpt><trkpt lat="43.9971895" lon="12.5142386"><ele>99.5</ele><time>2026-04-10T12:53:03.852Z</time></trkpt><trkpt lat="43.9972749" lon="12.514208"><ele>98.66666666666667</ele><time>2026-04-10T12:53:04.853Z</time></trkpt><trkpt lat="43.9973504" lon="12.5141778"><ele>97.83333333333334</ele><time>2026-04-10T12:53:05.852Z</time></trkpt><trkpt lat="43.9974303" lon="12.5141508"><ele>97.0</ele><time>2026-04-10T12:53:06.852Z</time></trkpt><trkpt lat="43.9975112" lon="12.5141157"><ele>95.83333333333334</ele><time>2026-04-10T12:53:07.852Z</time></trkpt><trkpt lat="43.9975943" lon="12.5140853"><ele>94.66666666666667</ele><time>2026-04-10T12:53:08.852Z</time></trkpt><trkpt lat="43.9976726" lon="12.5140672"><ele>93.5</ele><time>2026-04-10T12:53:09.853Z</time></trkpt><trkpt lat="43.9977501" lon="12.5140524"><ele>92.33333333333334</ele><time>2026-04-10T12:53:10.853Z</time></trkpt><trkpt lat="43.9978167" lon="12.5140338"><ele>91.16666666666667</ele><time>2026-04-10T12:53:11.852Z</time></trkpt><trkpt lat="43.9978895" lon="12.5140117"><ele>90.0</ele><time>2026-04-10T12:53:12.852Z</time></trkpt><trkpt lat="43.9979644" lon="12.5139901"><ele>90.0</ele><time>2026-04-10T12:53:13.851Z</time></trkpt><trkpt lat="43.9980343" lon="12.5139635"><ele>90.0</ele><time>2026-04-10T12:53:14.852Z</time></trkpt><trkpt lat="43.9981127" lon="12.5139267"><ele>90.0</ele><time>2026-04-10T12:53:15.851Z</time></trkpt><trkpt lat="43.9981849" lon="12.513895"><ele>90.0</ele><time>2026-04-10T12:53:16.853Z</time></trkpt><trkpt lat="43.9983141" lon="12.5138525"><ele>90.0</ele><time>2026-04-10T12:53:18.851Z</time></trkpt><trkpt lat="43.9983867" lon="12.5138215"><ele>90.0</ele><time>2026-04-10T12:53:19.851Z</time></trkpt><trkpt lat="43.9984579" lon="12.5137861"><ele>89.83333333333333</ele><time>2026-04-10T12:53:20.852Z</time></trkpt><trkpt lat="43.9985322" lon="12.5137589"><ele>89.66666666666667</ele><time>2026-04-10T12:53:21.852Z</time></trkpt><trkpt lat="43.9986067" lon="12.5137334"><ele>89.5</ele><time>2026-04-10T12:53:22.852Z</time></trkpt><trkpt lat="43.9986694" lon="12.5137071"><ele>89.33333333333334</ele><time>2026-04-10T12:53:23.851Z</time></trkpt><trkpt lat="43.9987545" lon="12.5136711"><ele>89.16666666666667</ele><time>2026-04-10T12:53:24.852Z</time></trkpt><trkpt lat="43.9988456" lon="12.5136401"><ele>89.0</ele><time>2026-04-10T12:53:25.851Z</time></trkpt><trkpt lat="43.9989339" lon="12.5136115"><ele>90.2</ele><time>2026-04-10T12:53:26.852Z</time></trkpt><trkpt lat="43.9990115" lon="12.5135808"><ele>91.4</ele><time>2026-04-10T12:53:27.852Z</time></trkpt><trkpt lat="43.9990787" lon="12.5135546"><ele>92.6</ele><time>2026-04-10T12:53:28.852Z</time></trkpt><trkpt lat="43.9992027" lon="12.5135154"><ele>93.8</ele><time>2026-04-10T12:53:30.852Z</time></trkpt><trkpt lat="43.9992679" lon="12.5134996"><ele>95.0</ele><time>2026-04-10T12:53:31.851Z</time></trkpt><trkpt lat="43.9993851" lon="12.5134791"><ele>95.0</ele><time>2026-04-10T12:53:33.851Z</time></trkpt><trkpt lat="43.9994664" lon="12.5135504"><ele>95.0</ele><time>2026-04-10T12:53:35.852Z</time></trkpt><trkpt lat="43.999498" lon="12.5136829"><ele>95.0</ele><time>2026-04-10T12:53:37.851Z</time></trkpt><trkpt lat="43.9995107" lon="12.5137722"><ele>95.0</ele><time>2026-04-10T12:53:38.851Z</time></trkpt><trkpt lat="43.9995237" lon="12.5138723"><ele>95.0</ele><time>2026-04-10T12:53:39.851Z</time></trkpt><trkpt lat="43.9995413" lon="12.5139838"><ele>95.0</ele><time>2026-04-10T12:53:40.852Z</time></trkpt><trkpt lat="43.9995622" lon="12.5140997"><ele>94.5</ele><time>2026-04-10T12:53:41.852Z</time></trkpt><trkpt lat="43.9995818" lon="12.5142098"><ele>94.0</ele><time>2026-04-10T12:53:42.852Z</time></trkpt><trkpt lat="43.9996005" lon="12.5143337"><ele>93.5</ele><time>2026-04-10T12:53:43.852Z</time></trkpt><trkpt lat="43.9996212" lon="12.5144505"><ele>93.0</ele><time>2026-04-10T12:53:44.852Z</time></trkpt><trkpt lat="43.9996447" lon="12.5145612"><ele>92.5</ele><time>2026-04-10T12:53:45.852Z</time></trkpt><trkpt lat="43.9996713" lon="12.5146718"><ele>92.0</ele><time>2026-04-10T12:53:46.851Z</time></trkpt><trkpt lat="43.9996982" lon="12.5147751"><ele>91.16666666666667</ele><time>2026-04-10T12:53:47.851Z</time></trkpt><trkpt lat="43.999722" lon="12.514885"><ele>90.33333333333334</ele><time>2026-04-10T12:53:48.852Z</time></trkpt><trkpt lat="43.9997441" lon="12.5149952"><ele>89.5</ele><time>2026-04-10T12:53:49.851Z</time></trkpt><trkpt lat="43.9997673" lon="12.5151109"><ele>88.66666666666667</ele><time>2026-04-10T12:53:50.852Z</time></trkpt><trkpt lat="43.9998008" lon="12.5152341"><ele>87.83333333333333</ele><time>2026-04-10T12:53:51.851Z</time></trkpt><trkpt lat="43.9998428" lon="12.5153503"><ele>87.0</ele><time>2026-04-10T12:53:52.852Z</time></trkpt><trkpt lat="43.9998839" lon="12.5154598"><ele>85.6</ele><time>2026-04-10T12:53:53.851Z</time></trkpt><trkpt lat="43.9999236" lon="12.5155672"><ele>84.19999999999999</ele><time>2026-04-10T12:53:54.852Z</time></trkpt><trkpt lat="43.9999563" lon="12.5156831"><ele>82.8</ele><time>2026-04-10T12:53:55.853Z</time></trkpt><trkpt lat="43.9999773" lon="12.5158123"><ele>81.4</ele><time>2026-04-10T12:53:56.852Z</time></trkpt><trkpt lat="43.999996" lon="12.5159686"><ele>80.0</ele><time>2026-04-10T12:53:57.852Z</time></trkpt><trkpt lat="44.000016" lon="12.5161471"><ele>78.75</ele><time>2026-04-10T12:53:58.853Z</time></trkpt><trkpt lat="44.000036" lon="12.5163379"><ele>77.5</ele><time>2026-04-10T12:53:59.851Z</time></trkpt><trkpt lat="44.0000603" lon="12.5165418"><ele>76.25</ele><time>2026-04-10T12:54:00.851Z</time></trkpt><trkpt lat="44.0000865" lon="12.5167339"><ele>75.0</ele><time>2026-04-10T12:54:01.851Z</time></trkpt><trkpt lat="44.0001037" lon="12.5168966"><ele>75.0</ele><time>2026-04-10T12:54:02.851Z</time></trkpt><trkpt lat="44.0001099" lon="12.5170595"><ele>75.0</ele><time>2026-04-10T12:54:03.851Z</time></trkpt><trkpt lat="44.0001106" lon="12.5172182"><ele>75.0</ele><time>2026-04-10T12:54:04.851Z</time></trkpt><trkpt lat="44.0001109" lon="12.517368"><ele>75.0</ele><time>2026-04-10T12:54:05.852Z</time></trkpt><trkpt lat="44.0001197" lon="12.5175198"><ele>75.0</ele><time>2026-04-10T12:54:06.851Z</time></trkpt><trkpt lat="44.000133" lon="12.5176645"><ele>74.8</ele><time>2026-04-10T12:54:07.852Z</time></trkpt><trkpt lat="44.0001459" lon="12.5177949"><ele>74.6</ele><time>2026-04-10T12:54:08.852Z</time></trkpt><trkpt lat="44.0001573" lon="12.5179232"><ele>74.4</ele><time>2026-04-10T12:54:09.852Z</time></trkpt><trkpt lat="44.0001695" lon="12.5180517"><ele>74.2</ele><time>2026-04-10T12:54:10.852Z</time></trkpt><trkpt lat="44.0001801" lon="12.5181897"><ele>74.0</ele><time>2026-04-10T12:54:11.852Z</time></trkpt><trkpt lat="44.0001921" lon="12.5183199"><ele>73.2</ele><time>2026-04-10T12:54:12.851Z</time></trkpt><trkpt lat="44.0002048" lon="12.5184492"><ele>72.4</ele><time>2026-04-10T12:54:13.853Z</time></trkpt><trkpt lat="44.0002201" lon="12.5185762"><ele>71.6</ele><time>2026-04-10T12:54:14.851Z</time></trkpt><trkpt lat="44.0002423" lon="12.5187105"><ele>70.8</ele><time>2026-04-10T12:54:15.852Z</time></trkpt><trkpt lat="44.0002705" lon="12.5188448"><ele>70.0</ele><time>2026-04-10T12:54:16.851Z</time></trkpt><trkpt lat="44.0003031" lon="12.518974"><ele>68.6</ele><time>2026-04-10T12:54:17.851Z</time></trkpt><trkpt lat="44.0003378" lon="12.519107"><ele>67.2</ele><time>2026-04-10T12:54:18.851Z</time></trkpt><trkpt lat="44.0003741" lon="12.5192365"><ele>65.8</ele><time>2026-04-10T12:54:19.851Z</time></trkpt><trkpt lat="44.0004236" lon="12.5193604"><ele>64.4</ele><time>2026-04-10T12:54:20.851Z</time></trkpt><trkpt lat="44.0004716" lon="12.5194745"><ele>63.0</ele><time>2026-04-10T12:54:21.851Z</time></trkpt><trkpt lat="44.0005264" lon="12.5195913"><ele>62.5</ele><time>2026-04-10T12:54:22.852Z</time></trkpt><trkpt lat="44.0005836" lon="12.5196941"><ele>62.0</ele><time>2026-04-10T12:54:23.852Z</time></trkpt><trkpt lat="44.0006486" lon="12.519776"><ele>61.5</ele><time>2026-04-10T12:54:24.851Z</time></trkpt><trkpt lat="44.0007238" lon="12.5198376"><ele>61.0</ele><time>2026-04-10T12:54:25.851Z</time></trkpt><trkpt lat="44.0008006" lon="12.519898"><ele>60.5</ele><time>2026-04-10T12:54:26.853Z</time></trkpt><trkpt lat="44.0008826" lon="12.51993"><ele>60.0</ele><time>2026-04-10T12:54:27.851Z</time></trkpt><trkpt lat="44.000963" lon="12.5199506"><ele>60.0</ele><time>2026-04-10T12:54:28.851Z</time></trkpt><trkpt lat="44.0010462" lon="12.5199481"><ele>60.0</ele><time>2026-04-10T12:54:29.852Z</time></trkpt><trkpt lat="44.0011234" lon="12.5199318"><ele>60.0</ele><time>2026-04-10T12:54:30.851Z</time></trkpt><trkpt lat="44.0012036" lon="12.5199233"><ele>60.0</ele><time>2026-04-10T12:54:31.851Z</time></trkpt><trkpt lat="44.001278" lon="12.5199238"><ele>60.0</ele><time>2026-04-10T12:54:32.851Z</time></trkpt><trkpt lat="44.0013527" lon="12.5199403"><ele>60.0</ele><time>2026-04-10T12:54:33.852Z</time></trkpt><trkpt lat="44.0014212" lon="12.5199793"><ele>60.0</ele><time>2026-04-10T12:54:34.852Z</time></trkpt><trkpt lat="44.0014882" lon="12.5200441"><ele>60.0</ele><time>2026-04-10T12:54:35.852Z</time></trkpt><trkpt lat="44.0015453" lon="12.5201267"><ele>60.0</ele><time>2026-04-10T12:54:36.851Z</time></trkpt><trkpt lat="44.0015962" lon="12.5202222"><ele>60.0</ele><time>2026-04-10T12:54:37.851Z</time></trkpt><trkpt lat="44.0016461" lon="12.5203163"><ele>60.0</ele><time>2026-04-10T12:54:38.851Z</time></trkpt><trkpt lat="44.0016992" lon="12.5204165"><ele>60.0</ele><time>2026-04-10T12:54:39.852Z</time></trkpt><trkpt lat="44.0017522" lon="12.520526"><ele>57.4</ele><time>2026-04-10T12:54:40.852Z</time></trkpt><trkpt lat="44.0018054" lon="12.5206295"><ele>54.8</ele><time>2026-04-10T12:54:41.851Z</time></trkpt><trkpt lat="44.0018584" lon="12.5207349"><ele>52.2</ele><time>2026-04-10T12:54:42.851Z</time></trkpt><trkpt lat="44.001908" lon="12.520836"><ele>49.6</ele><time>2026-04-10T12:54:43.852Z</time></trkpt><trkpt lat="44.0019622" lon="12.5209388"><ele>47.0</ele><time>2026-04-10T12:54:44.851Z</time></trkpt><trkpt lat="44.0020097" lon="12.5210415"><ele>47.0</ele><time>2026-04-10T12:54:45.851Z</time></trkpt><trkpt lat="44.0020561" lon="12.5211303"><ele>47.0</ele><time>2026-04-10T12:54:46.851Z</time></trkpt><trkpt lat="44.0020946" lon="12.5212094"><ele>47.0</ele><time>2026-04-10T12:54:47.851Z</time></trkpt><trkpt lat="44.0021594" lon="12.5213277"><ele>47.0</ele><time>2026-04-10T12:54:49.851Z</time></trkpt><trkpt lat="44.0022316" lon="12.5213537"><ele>47.0</ele><time>2026-04-10T12:54:52.851Z</time></trkpt><trkpt lat="44.0023111" lon="12.5212512"><ele>47.0</ele><time>2026-04-10T12:54:54.851Z</time></trkpt><trkpt lat="44.0023567" lon="12.5211718"><ele>47.0</ele><time>2026-04-10T12:54:55.852Z</time></trkpt><trkpt lat="44.002399" lon="12.5210955"><ele>47.0</ele><time>2026-04-10T12:54:56.851Z</time></trkpt><trkpt lat="44.0024412" lon="12.5210204"><ele>47.0</ele><time>2026-04-10T12:54:57.851Z</time></trkpt><trkpt lat="44.0024849" lon="12.5209385"><ele>47.0</ele><time>2026-04-10T12:54:58.851Z</time></trkpt><trkpt lat="44.0025274" lon="12.5208498"><ele>47.0</ele><time>2026-04-10T12:54:59.852Z</time></trkpt><trkpt lat="44.0025651" lon="12.5207465"><ele>47.0</ele><time>2026-04-10T12:55:00.851Z</time></trkpt><trkpt lat="44.0025951" lon="12.5206327"><ele>46.0</ele><time>2026-04-10T12:55:01.852Z</time></trkpt><trkpt lat="44.0026261" lon="12.5205044"><ele>45.0</ele><time>2026-04-10T12:55:02.851Z</time></trkpt><trkpt lat="44.0026548" lon="12.5203705"><ele>44.0</ele><time>2026-04-10T12:55:03.852Z</time></trkpt><trkpt lat="44.0026833" lon="12.5202364"><ele>43.0</ele><time>2026-04-10T12:55:04.851Z</time></trkpt><trkpt lat="44.0027111" lon="12.520098"><ele>42.0</ele><time>2026-04-10T12:55:05.851Z</time></trkpt><trkpt lat="44.0027381" lon="12.5199587"><ele>42.0</ele><time>2026-04-10T12:55:06.851Z</time></trkpt><trkpt lat="44.0027657" lon="12.5198133"><ele>42.0</ele><time>2026-04-10T12:55:07.851Z</time></trkpt><trkpt lat="44.0027952" lon="12.5196739"><ele>42.0</ele><time>2026-04-10T12:55:08.851Z</time></trkpt><trkpt lat="44.0028232" lon="12.519524"><ele>42.0</ele><time>2026-04-10T12:55:09.852Z</time></trkpt><trkpt lat="44.0028547" lon="12.5193693"><ele>42.0</ele><time>2026-04-10T12:55:10.853Z</time></trkpt><trkpt lat="44.0028851" lon="12.519212"><ele>42.0</ele><time>2026-04-10T12:55:11.851Z</time></trkpt><trkpt lat="44.0029149" lon="12.5190665"><ele>42.0</ele><time>2026-04-10T12:55:12.851Z</time></trkpt><trkpt lat="44.002946" lon="12.5189188"><ele>42.0</ele><time>2026-04-10T12:55:13.852Z</time></trkpt><trkpt lat="44.0029704" lon="12.5187835"><ele>42.0</ele><time>2026-04-10T12:55:14.851Z</time></trkpt><trkpt lat="44.0029963" lon="12.5186617"><ele>42.0</ele><time>2026-04-10T12:55:15.851Z</time></trkpt><trkpt lat="44.003017" lon="12.5185478"><ele>42.166666666666664</ele><time>2026-04-10T12:55:16.852Z</time></trkpt><trkpt lat="44.0030651" lon="12.5184525"><ele>42.333333333333336</ele><time>2026-04-10T12:55:18.852Z</time></trkpt><trkpt lat="44.0031354" lon="12.5184713"><ele>42.5</ele><time>2026-04-10T12:55:21.851Z</time></trkpt><trkpt lat="44.003195" lon="12.5185552"><ele>42.66666666666667</ele><time>2026-04-10T12:55:23.851Z</time></trkpt><trkpt lat="44.0032842" lon="12.5186733"><ele>42.833333333333336</ele><time>2026-04-10T12:55:25.851Z</time></trkpt><trkpt lat="44.0033411" lon="12.5187256"><ele>43.0</ele><time>2026-04-10T12:55:26.851Z</time></trkpt><trkpt lat="44.0034103" lon="12.5187827"><ele>42.16666666666667</ele><time>2026-04-10T12:55:27.851Z</time></trkpt><trkpt lat="44.0034786" lon="12.5188304"><ele>41.333333333333336</ele><time>2026-04-10T12:55:28.851Z</time></trkpt><trkpt lat="44.0035524" lon="12.518865"><ele>40.5</ele><time>2026-04-10T12:55:29.851Z</time></trkpt><trkpt lat="44.0036234" lon="12.5188881"><ele>39.666666666666664</ele><time>2026-04-10T12:55:30.851Z</time></trkpt><trkpt lat="44.0036867" lon="12.5189148"><ele>38.83333333333333</ele><time>2026-04-10T12:55:31.851Z</time></trkpt><trkpt lat="44.0037457" lon="12.51895"><ele>38.0</ele><time>2026-04-10T12:55:32.852Z</time></trkpt><trkpt lat="44.0038424" lon="12.5190564"><ele>38.0</ele><time>2026-04-10T12:55:34.851Z</time></trkpt><trkpt lat="44.0038888" lon="12.5191156"><ele>38.0</ele><time>2026-04-10T12:55:35.853Z</time></trkpt><trkpt lat="44.0039394" lon="12.5191818"><ele>38.0</ele><time>2026-04-10T12:55:36.851Z</time></trkpt><trkpt lat="44.0040251" lon="12.5193097"><ele>38.0</ele><time>2026-04-10T12:55:38.852Z</time></trkpt><trkpt lat="44.0041234" lon="12.5194074"><ele>38.0</ele><time>2026-04-10T12:55:40.852Z</time></trkpt><trkpt lat="44.0042561" lon="12.5194297"><ele>37.5</ele><time>2026-04-10T12:55:42.851Z</time></trkpt><trkpt lat="44.0043325" lon="12.5194153"><ele>37.0</ele><time>2026-04-10T12:55:43.851Z</time></trkpt><trkpt lat="44.00442" lon="12.519385"><ele>36.5</ele><time>2026-04-10T12:55:44.851Z</time></trkpt><trkpt lat="44.0045048" lon="12.519362"><ele>36.0</ele><time>2026-04-10T12:55:45.851Z</time></trkpt><trkpt lat="44.0045945" lon="12.5193388"><ele>35.5</ele><time>2026-04-10T12:55:46.851Z</time></trkpt><trkpt lat="44.0046834" lon="12.5193127"><ele>35.0</ele><time>2026-04-10T12:55:47.851Z</time></trkpt><trkpt lat="44.0047749" lon="12.5192668"><ele>35.0</ele><time>2026-04-10T12:55:48.852Z</time></trkpt><trkpt lat="44.0048634" lon="12.5192132"><ele>35.0</ele><time>2026-04-10T12:55:49.851Z</time></trkpt><trkpt lat="44.0049487" lon="12.5191546"><ele>35.0</ele><time>2026-04-10T12:55:50.851Z</time></trkpt><trkpt lat="44.0050293" lon="12.5190711"><ele>35.0</ele><time>2026-04-10T12:55:51.851Z</time></trkpt><trkpt lat="44.0051075" lon="12.5189911"><ele>35.0</ele><time>2026-04-10T12:55:52.851Z</time></trkpt><trkpt lat="44.0051845" lon="12.5189122"><ele>35.8</ele><time>2026-04-10T12:55:53.852Z</time></trkpt><trkpt lat="44.005264" lon="12.5188396"><ele>36.6</ele><time>2026-04-10T12:55:54.851Z</time></trkpt><trkpt lat="44.0053464" lon="12.5187749"><ele>37.4</ele><time>2026-04-10T12:55:55.851Z</time></trkpt><trkpt lat="44.0054281" lon="12.5187201"><ele>38.2</ele><time>2026-04-10T12:55:56.852Z</time></trkpt><trkpt lat="44.0055103" lon="12.5186617"><ele>39.0</ele><time>2026-04-10T12:55:57.851Z</time></trkpt><trkpt lat="44.0055976" lon="12.5186022"><ele>39.4</ele><time>2026-04-10T12:55:58.852Z</time></trkpt><trkpt lat="44.0056834" lon="12.5185455"><ele>39.8</ele><time>2026-04-10T12:55:59.851Z</time></trkpt><trkpt lat="44.005768" lon="12.5184857"><ele>40.199999999999996</ele><time>2026-04-10T12:56:00.851Z</time></trkpt><trkpt lat="44.0058527" lon="12.5184268"><ele>40.599999999999994</ele><time>2026-04-10T12:56:01.852Z</time></trkpt><trkpt lat="44.0059358" lon="12.5183647"><ele>41.0</ele><time>2026-04-10T12:56:02.851Z</time></trkpt><trkpt lat="44.0060211" lon="12.5183029"><ele>43.4</ele><time>2026-04-10T12:56:03.851Z</time></trkpt><trkpt lat="44.0061036" lon="12.5182404"><ele>45.8</ele><time>2026-04-10T12:56:04.851Z</time></trkpt><trkpt lat="44.0061885" lon="12.51818"><ele>48.199999999999996</ele><time>2026-04-10T12:56:05.851Z</time></trkpt><trkpt lat="44.0062695" lon="12.5181185"><ele>50.599999999999994</ele><time>2026-04-10T12:56:06.851Z</time></trkpt><trkpt lat="44.0063568" lon="12.5180485"><ele>53.0</ele><time>2026-04-10T12:56:07.852Z</time></trkpt><trkpt lat="44.006434" lon="12.517985"><ele>53.00000000000001</ele><time>2026-04-10T12:56:08.852Z</time></trkpt><trkpt lat="44.0065071" lon="12.5179232"><ele>53.0</ele><time>2026-04-10T12:56:09.852Z</time></trkpt><trkpt lat="44.0065843" lon="12.5178773"><ele>53.0</ele><time>2026-04-10T12:56:10.851Z</time></trkpt><trkpt lat="44.0066619" lon="12.517844"><ele>53.0</ele><time>2026-04-10T12:56:11.853Z</time></trkpt><trkpt lat="44.0067364" lon="12.5178521"><ele>53.00000000000001</ele><time>2026-04-10T12:56:12.852Z</time></trkpt><trkpt lat="44.0068175" lon="12.5178436"><ele>53.0</ele><time>2026-04-10T12:56:13.851Z</time></trkpt><trkpt lat="44.0068976" lon="12.5178394"><ele>54.833333333333336</ele><time>2026-04-10T12:56:14.852Z</time></trkpt><trkpt lat="44.006978" lon="12.5178458"><ele>56.66666666666667</ele><time>2026-04-10T12:56:15.851Z</time></trkpt><trkpt lat="44.0070603" lon="12.5178493"><ele>58.5</ele><time>2026-04-10T12:56:16.853Z</time></trkpt><trkpt lat="44.0071488" lon="12.5178576"><ele>60.33333333333333</ele><time>2026-04-10T12:56:17.851Z</time></trkpt><trkpt lat="44.0072282" lon="12.5178742"><ele>62.166666666666664</ele><time>2026-04-10T12:56:18.851Z</time></trkpt><trkpt lat="44.0073095" lon="12.5178977"><ele>64.0</ele><time>2026-04-10T12:56:19.851Z</time></trkpt><trkpt lat="44.0073927" lon="12.5179357"><ele>65.66666666666666</ele><time>2026-04-10T12:56:20.851Z</time></trkpt><trkpt lat="44.007494" lon="12.5179863"><ele>67.33333333333333</ele><time>2026-04-10T12:56:21.851Z</time></trkpt><trkpt lat="44.0075827" lon="12.5180359"><ele>69.0</ele><time>2026-04-10T12:56:22.852Z</time></trkpt><trkpt lat="44.0076549" lon="12.5180813"><ele>70.66666666666667</ele><time>2026-04-10T12:56:23.852Z</time></trkpt><trkpt lat="44.0077291" lon="12.5181068"><ele>72.33333333333334</ele><time>2026-04-10T12:56:24.852Z</time></trkpt><trkpt lat="44.0078011" lon="12.5181169"><ele>74.0</ele><time>2026-04-10T12:56:25.852Z</time></trkpt><trkpt lat="44.0078998" lon="12.5180705"><ele>74.0</ele><time>2026-04-10T12:56:27.851Z</time></trkpt><trkpt lat="44.0079729" lon="12.5179397"><ele>74.0</ele><time>2026-04-10T12:56:29.852Z</time></trkpt><trkpt lat="44.0080071" lon="12.5178652"><ele>74.0</ele><time>2026-04-10T12:56:30.852Z</time></trkpt><trkpt lat="44.0080758" lon="12.5177332"><ele>74.0</ele><time>2026-04-10T12:56:32.853Z</time></trkpt><trkpt lat="44.0081494" lon="12.5176073"><ele>74.0</ele><time>2026-04-10T12:56:34.851Z</time></trkpt><trkpt lat="44.0082054" lon="12.5175465"><ele>73.8</ele><time>2026-04-10T12:56:35.852Z</time></trkpt><trkpt lat="44.0082728" lon="12.5174898"><ele>73.60000000000001</ele><time>2026-04-10T12:56:36.852Z</time></trkpt><trkpt lat="44.0083439" lon="12.517419"><ele>73.4</ele><time>2026-04-10T12:56:37.851Z</time></trkpt><trkpt lat="44.0084183" lon="12.5173412"><ele>73.2</ele><time>2026-04-10T12:56:38.851Z</time></trkpt><trkpt lat="44.0084937" lon="12.5172569"><ele>73.0</ele><time>2026-04-10T12:56:39.851Z</time></trkpt><trkpt lat="44.0085747" lon="12.5171611"><ele>74.0</ele><time>2026-04-10T12:56:40.851Z</time></trkpt><trkpt lat="44.0086625" lon="12.5170597"><ele>75.0</ele><time>2026-04-10T12:56:41.851Z</time></trkpt><trkpt lat="44.0087552" lon="12.5169514"><ele>76.0</ele><time>2026-04-10T12:56:42.851Z</time></trkpt><trkpt lat="44.0088536" lon="12.5168392"><ele>77.0</ele><time>2026-04-10T12:56:43.851Z</time></trkpt><trkpt lat="44.0089553" lon="12.5167273"><ele>77.0</ele><time>2026-04-10T12:56:44.851Z</time></trkpt><trkpt lat="44.0090535" lon="12.5166219"><ele>77.0</ele><time>2026-04-10T12:56:45.851Z</time></trkpt><trkpt lat="44.0091521" lon="12.5165153"><ele>77.0</ele><time>2026-04-10T12:56:46.852Z</time></trkpt><trkpt lat="44.0092539" lon="12.5164188"><ele>77.0</ele><time>2026-04-10T12:56:47.853Z</time></trkpt><trkpt lat="44.0093549" lon="12.5163331"><ele>77.5</ele><time>2026-04-10T12:56:48.852Z</time></trkpt><trkpt lat="44.0094631" lon="12.5162638"><ele>78.0</ele><time>2026-04-10T12:56:49.852Z</time></trkpt><trkpt lat="44.0095762" lon="12.5162108"><ele>78.5</ele><time>2026-04-10T12:56:50.851Z</time></trkpt><trkpt lat="44.0096957" lon="12.5161675"><ele>79.0</ele><time>2026-04-10T12:56:51.853Z</time></trkpt><trkpt lat="44.0098183" lon="12.5161275"><ele>80.5</ele><time>2026-04-10T12:56:52.851Z</time></trkpt><trkpt lat="44.0099417" lon="12.5160971"><ele>82.0</ele><time>2026-04-10T12:56:53.851Z</time></trkpt><trkpt lat="44.0100635" lon="12.516067"><ele>83.5</ele><time>2026-04-10T12:56:54.852Z</time></trkpt><trkpt lat="44.0101872" lon="12.5160522"><ele>85.0</ele><time>2026-04-10T12:56:55.852Z</time></trkpt><trkpt lat="44.010315" lon="12.5160463"><ele>85.0</ele><time>2026-04-10T12:56:56.851Z</time></trkpt><trkpt lat="44.0104436" lon="12.5160374"><ele>85.0</ele><time>2026-04-10T12:56:57.851Z</time></trkpt><trkpt lat="44.0105753" lon="12.5160318"><ele>85.0</ele><time>2026-04-10T12:56:58.851Z</time></trkpt><trkpt lat="44.0107073" lon="12.5160257"><ele>85.0</ele><time>2026-04-10T12:56:59.851Z</time></trkpt><trkpt lat="44.0108429" lon="12.5160151"><ele>84.75</ele><time>2026-04-10T12:57:00.852Z</time></trkpt><trkpt lat="44.0109794" lon="12.5160076"><ele>84.5</ele><time>2026-04-10T12:57:01.851Z</time></trkpt><trkpt lat="44.0111145" lon="12.5160012"><ele>84.25</ele><time>2026-04-10T12:57:02.851Z</time></trkpt><trkpt lat="44.0112571" lon="12.5159908"><ele>84.0</ele><time>2026-04-10T12:57:03.851Z</time></trkpt><trkpt lat="44.0114014" lon="12.5159844"><ele>84.0</ele><time>2026-04-10T12:57:04.852Z</time></trkpt><trkpt lat="44.0115485" lon="12.5159758"><ele>84.0</ele><time>2026-04-10T12:57:05.852Z</time></trkpt><trkpt lat="44.0116952" lon="12.5159625"><ele>84.0</ele><time>2026-04-10T12:57:06.852Z</time></trkpt><trkpt lat="44.0118424" lon="12.5159539"><ele>84.0</ele><time>2026-04-10T12:57:07.851Z</time></trkpt><trkpt lat="44.0119865" lon="12.515946"><ele>85.0</ele><time>2026-04-10T12:57:08.851Z</time></trkpt><trkpt lat="44.0121276" lon="12.5159396"><ele>86.0</ele><time>2026-04-10T12:57:09.851Z</time></trkpt><trkpt lat="44.0122681" lon="12.5159288"><ele>87.0</ele><time>2026-04-10T12:57:10.852Z</time></trkpt><trkpt lat="44.0124092" lon="12.5159144"><ele>88.0</ele><time>2026-04-10T12:57:11.853Z</time></trkpt><trkpt lat="44.012548" lon="12.515904"><ele>88.5</ele><time>2026-04-10T12:57:12.85Z</time></trkpt><trkpt lat="44.0126881" lon="12.515892"><ele>89.0</ele><time>2026-04-10T12:57:13.852Z</time></trkpt><trkpt lat="44.0128321" lon="12.5158791"><ele>89.5</ele><time>2026-04-10T12:57:14.851Z</time></trkpt><trkpt lat="44.0129822" lon="12.5158628"><ele>90.0</ele><time>2026-04-10T12:57:15.851Z</time></trkpt><trkpt lat="44.013133" lon="12.5158464"><ele>90.0</ele><time>2026-04-10T12:57:16.852Z</time></trkpt><trkpt lat="44.0132872" lon="12.5158354"><ele>90.0</ele><time>2026-04-10T12:57:17.851Z</time></trkpt><trkpt lat="44.0134387" lon="12.515828"><ele>90.0</ele><time>2026-04-10T12:57:18.852Z</time></trkpt><trkpt lat="44.0135775" lon="12.515819"><ele>90.0</ele><time>2026-04-10T12:57:19.852Z</time></trkpt><trkpt lat="44.013709" lon="12.5158092"><ele>90.0</ele><time>2026-04-10T12:57:20.851Z</time></trkpt><trkpt lat="44.0138359" lon="12.5158149"><ele>90.0</ele><time>2026-04-10T12:57:21.852Z</time></trkpt><trkpt lat="44.0139618" lon="12.5158387"><ele>90.0</ele><time>2026-04-10T12:57:22.851Z</time></trkpt><trkpt lat="44.0140863" lon="12.5158817"><ele>90.0</ele><time>2026-04-10T12:57:23.851Z</time></trkpt><trkpt lat="44.0142101" lon="12.5159454"><ele>90.0</ele><time>2026-04-10T12:57:24.853Z</time></trkpt><trkpt lat="44.014326" lon="12.5160391"><ele>90.0</ele><time>2026-04-10T12:57:25.852Z</time></trkpt><trkpt lat="44.0144353" lon="12.5161504"><ele>90.0</ele><time>2026-04-10T12:57:26.852Z</time></trkpt><trkpt lat="44.0145421" lon="12.5162755"><ele>90.0</ele><time>2026-04-10T12:57:27.852Z</time></trkpt><trkpt lat="44.014642" lon="12.5164301"><ele>90.0</ele><time>2026-04-10T12:57:28.852Z</time></trkpt><trkpt lat="44.0147438" lon="12.5165785"><ele>90.0</ele><time>2026-04-10T12:57:29.852Z</time></trkpt><trkpt lat="44.0148556" lon="12.516711"><ele>90.0</ele><time>2026-04-10T12:57:30.852Z</time></trkpt><trkpt lat="44.0149786" lon="12.5168298"><ele>90.0</ele><time>2026-04-10T12:57:31.851Z</time></trkpt><trkpt lat="44.0151082" lon="12.5169367"><ele>91.75</ele><time>2026-04-10T12:57:32.851Z</time></trkpt><trkpt lat="44.0152413" lon="12.5170323"><ele>93.5</ele><time>2026-04-10T12:57:33.851Z</time></trkpt><trkpt lat="44.0153744" lon="12.5171268"><ele>95.25</ele><time>2026-04-10T12:57:34.852Z</time></trkpt><trkpt lat="44.0155072" lon="12.5172217"><ele>97.0</ele><time>2026-04-10T12:57:35.851Z</time></trkpt><trkpt lat="44.0156377" lon="12.5173194"><ele>97.0</ele><time>2026-04-10T12:57:36.851Z</time></trkpt><trkpt lat="44.0157634" lon="12.5174134"><ele>97.0</ele><time>2026-04-10T12:57:37.852Z</time></trkpt><trkpt lat="44.0158929" lon="12.517506"><ele>97.0</ele><time>2026-04-10T12:57:38.852Z</time></trkpt><trkpt lat="44.0160208" lon="12.5175972"><ele>97.0</ele><time>2026-04-10T12:57:39.852Z</time></trkpt><trkpt lat="44.0161473" lon="12.5176896"><ele>97.75</ele><time>2026-04-10T12:57:40.853Z</time></trkpt><trkpt lat="44.0162735" lon="12.5177886"><ele>98.5</ele><time>2026-04-10T12:57:41.851Z</time></trkpt><trkpt lat="44.0164017" lon="12.5178942"><ele>99.25</ele><time>2026-04-10T12:57:42.852Z</time></trkpt><trkpt lat="44.0165278" lon="12.5180017"><ele>100.0</ele><time>2026-04-10T12:57:43.851Z</time></trkpt><trkpt lat="44.0166513" lon="12.5180956"><ele>100.25</ele><time>2026-04-10T12:57:44.853Z</time></trkpt><trkpt lat="44.0167678" lon="12.5181838"><ele>100.5</ele><time>2026-04-10T12:57:45.851Z</time></trkpt><trkpt lat="44.0168695" lon="12.5182725"><ele>100.75</ele><time>2026-04-10T12:57:46.85Z</time></trkpt><trkpt lat="44.01697" lon="12.5183716"><ele>101.0</ele><time>2026-04-10T12:57:47.851Z</time></trkpt><trkpt lat="44.0170627" lon="12.5184853"><ele>101.0</ele><time>2026-04-10T12:57:48.852Z</time></trkpt><trkpt lat="44.0171432" lon="12.5186226"><ele>101.0</ele><time>2026-04-10T12:57:49.851Z</time></trkpt><trkpt lat="44.0172071" lon="12.5187612"><ele>101.0</ele><time>2026-04-10T12:57:50.851Z</time></trkpt><trkpt lat="44.0172624" lon="12.5189081"><ele>101.0</ele><time>2026-04-10T12:57:51.851Z</time></trkpt><trkpt lat="44.017318" lon="12.5190651"><ele>100.5</ele><time>2026-04-10T12:57:52.852Z</time></trkpt><trkpt lat="44.0173759" lon="12.5192322"><ele>100.0</ele><time>2026-04-10T12:57:53.851Z</time></trkpt><trkpt lat="44.0174344" lon="12.5194076"><ele>99.5</ele><time>2026-04-10T12:57:54.851Z</time></trkpt><trkpt lat="44.0174952" lon="12.5195926"><ele>99.0</ele><time>2026-04-10T12:57:55.851Z</time></trkpt><trkpt lat="44.0175579" lon="12.5197774"><ele>97.25</ele><time>2026-04-10T12:57:56.85Z</time></trkpt><trkpt lat="44.0176213" lon="12.5199656"><ele>95.5</ele><time>2026-04-10T12:57:57.851Z</time></trkpt><trkpt lat="44.0176776" lon="12.5201436"><ele>93.75</ele><time>2026-04-10T12:57:58.852Z</time></trkpt><trkpt lat="44.0177346" lon="12.5203149"><ele>92.0</ele><time>2026-04-10T12:57:59.851Z</time></trkpt><trkpt lat="44.0177915" lon="12.5204823"><ele>90.5</ele><time>2026-04-10T12:58:00.852Z</time></trkpt><trkpt lat="44.0178505" lon="12.5206417"><ele>89.0</ele><time>2026-04-10T12:58:01.852Z</time></trkpt><trkpt lat="44.0179091" lon="12.5207959"><ele>87.5</ele><time>2026-04-10T12:58:02.851Z</time></trkpt><trkpt lat="44.0179613" lon="12.5209477"><ele>86.0</ele><time>2026-04-10T12:58:03.851Z</time></trkpt><trkpt lat="44.0180173" lon="12.5210925"><ele>86.0</ele><time>2026-04-10T12:58:04.851Z</time></trkpt><trkpt lat="44.0180755" lon="12.5212268"><ele>86.0</ele><time>2026-04-10T12:58:05.851Z</time></trkpt><trkpt lat="44.0181298" lon="12.5213521"><ele>86.0</ele><time>2026-04-10T12:58:06.851Z</time></trkpt><trkpt lat="44.0181668" lon="12.5214521"><ele>86.0</ele><time>2026-04-10T12:58:07.851Z</time></trkpt><trkpt lat="44.0181792" lon="12.5215777"><ele>86.0</ele><time>2026-04-10T12:58:09.853Z</time></trkpt><trkpt lat="44.0181511" lon="12.5216657"><ele>84.2</ele><time>2026-04-10T12:58:10.852Z</time></trkpt><trkpt lat="44.0181128" lon="12.5217767"><ele>82.39999999999999</ele><time>2026-04-10T12:58:11.852Z</time></trkpt><trkpt lat="44.0180832" lon="12.5218972"><ele>80.6</ele><time>2026-04-10T12:58:12.851Z</time></trkpt><trkpt lat="44.0180607" lon="12.5220171"><ele>78.8</ele><time>2026-04-10T12:58:13.852Z</time></trkpt><trkpt lat="44.0180398" lon="12.522148"><ele>77.0</ele><time>2026-04-10T12:58:14.851Z</time></trkpt><trkpt lat="44.0180252" lon="12.5222857"><ele>75.8</ele><time>2026-04-10T12:58:15.851Z</time></trkpt><trkpt lat="44.018011" lon="12.5224258"><ele>74.6</ele><time>2026-04-10T12:58:16.852Z</time></trkpt><trkpt lat="44.018004" lon="12.5225831"><ele>73.39999999999999</ele><time>2026-04-10T12:58:17.852Z</time></trkpt><trkpt lat="44.0179946" lon="12.5227364"><ele>72.2</ele><time>2026-04-10T12:58:18.852Z</time></trkpt><trkpt lat="44.017992" lon="12.5228871"><ele>71.0</ele><time>2026-04-10T12:58:19.852Z</time></trkpt><trkpt lat="44.0179878" lon="12.5230326"><ele>70.83333333333334</ele><time>2026-04-10T12:58:20.851Z</time></trkpt><trkpt lat="44.0179765" lon="12.523161"><ele>70.66666666666667</ele><time>2026-04-10T12:58:21.851Z</time></trkpt><trkpt lat="44.0179654" lon="12.5232691"><ele>70.5</ele><time>2026-04-10T12:58:22.851Z</time></trkpt><trkpt lat="44.0179325" lon="12.5233635"><ele>70.33333333333333</ele><time>2026-04-10T12:58:23.853Z</time></trkpt><trkpt lat="44.0178941" lon="12.5234592"><ele>70.16666666666666</ele><time>2026-04-10T12:58:24.851Z</time></trkpt><trkpt lat="44.0178514" lon="12.5235501"><ele>70.0</ele><time>2026-04-10T12:58:25.852Z</time></trkpt><trkpt lat="44.0177859" lon="12.5236423"><ele>69.2</ele><time>2026-04-10T12:58:26.852Z</time></trkpt><trkpt lat="44.0177137" lon="12.5237447"><ele>68.4</ele><time>2026-04-10T12:58:27.851Z</time></trkpt><trkpt lat="44.0176306" lon="12.5238443"><ele>67.6</ele><time>2026-04-10T12:58:28.852Z</time></trkpt><trkpt lat="44.017552" lon="12.5239378"><ele>66.8</ele><time>2026-04-10T12:58:29.851Z</time></trkpt><trkpt lat="44.0174784" lon="12.5240308"><ele>66.0</ele><time>2026-04-10T12:58:30.851Z</time></trkpt><trkpt lat="44.0174039" lon="12.5241117"><ele>66.0</ele><time>2026-04-10T12:58:31.851Z</time></trkpt><trkpt lat="44.0173436" lon="12.5242049"><ele>66.0</ele><time>2026-04-10T12:58:32.852Z</time></trkpt><trkpt lat="44.0172831" lon="12.5242944"><ele>66.0</ele><time>2026-04-10T12:58:33.851Z</time></trkpt><trkpt lat="44.0172269" lon="12.5243865"><ele>66.0</ele><time>2026-04-10T12:58:34.852Z</time></trkpt><trkpt lat="44.0171701" lon="12.5244824"><ele>66.0</ele><time>2026-04-10T12:58:35.851Z</time></trkpt><trkpt lat="44.0171142" lon="12.5245767"><ele>66.0</ele><time>2026-04-10T12:58:36.852Z</time></trkpt><trkpt lat="44.0170482" lon="12.5246715"><ele>67.6</ele><time>2026-04-10T12:58:37.851Z</time></trkpt><trkpt lat="44.0169703" lon="12.52476"><ele>69.19999999999999</ele><time>2026-04-10T12:58:38.851Z</time></trkpt><trkpt lat="44.0168965" lon="12.5248535"><ele>70.80000000000001</ele><time>2026-04-10T12:58:39.851Z</time></trkpt><trkpt lat="44.0168293" lon="12.524946"><ele>72.4</ele><time>2026-04-10T12:58:40.852Z</time></trkpt><trkpt lat="44.0167647" lon="12.5250552"><ele>74.0</ele><time>2026-04-10T12:58:41.852Z</time></trkpt><trkpt lat="44.0167004" lon="12.5251763"><ele>74.2</ele><time>2026-04-10T12:58:42.85Z</time></trkpt><trkpt lat="44.0166393" lon="12.5252923"><ele>74.4</ele><time>2026-04-10T12:58:43.853Z</time></trkpt><trkpt lat="44.016576" lon="12.525405"><ele>74.6</ele><time>2026-04-10T12:58:44.852Z</time></trkpt><trkpt lat="44.0165077" lon="12.5255097"><ele>74.8</ele><time>2026-04-10T12:58:45.853Z</time></trkpt><trkpt lat="44.0164524" lon="12.5256091"><ele>75.0</ele><time>2026-04-10T12:58:46.852Z</time></trkpt><trkpt lat="44.0164018" lon="12.5257088"><ele>74.99999999999999</ele><time>2026-04-10T12:58:47.85Z</time></trkpt><trkpt lat="44.0163597" lon="12.5257911"><ele>75.0</ele><time>2026-04-10T12:58:48.851Z</time></trkpt><trkpt lat="44.0163209" lon="12.5258704"><ele>75.0</ele><time>2026-04-10T12:58:49.851Z</time></trkpt><trkpt lat="44.0162843" lon="12.5259546"><ele>75.0</ele><time>2026-04-10T12:58:50.852Z</time></trkpt><trkpt lat="44.0162468" lon="12.5260283"><ele>75.0</ele><time>2026-04-10T12:58:51.852Z</time></trkpt><trkpt lat="44.0162084" lon="12.5261054"><ele>74.99999999999999</ele><time>2026-04-10T12:58:52.852Z</time></trkpt><trkpt lat="44.0161716" lon="12.5261868"><ele>75.0</ele><time>2026-04-10T12:58:53.852Z</time></trkpt><trkpt lat="44.0161375" lon="12.526274"><ele>75.0</ele><time>2026-04-10T12:58:54.851Z</time></trkpt><trkpt lat="44.016099" lon="12.5263666"><ele>75.0</ele><time>2026-04-10T12:58:55.852Z</time></trkpt><trkpt lat="44.0160634" lon="12.526454"><ele>75.0</ele><time>2026-04-10T12:58:56.852Z</time></trkpt><trkpt lat="44.0160278" lon="12.5265355"><ele>75.0</ele><time>2026-04-10T12:58:57.851Z</time></trkpt><trkpt lat="44.0159984" lon="12.5266212"><ele>75.0</ele><time>2026-04-10T12:58:58.851Z</time></trkpt><trkpt lat="44.0159525" lon="12.5267837"><ele>75.0</ele><time>2026-04-10T12:59:00.851Z</time></trkpt><trkpt lat="44.0159307" lon="12.526919"><ele>75.0</ele><time>2026-04-10T12:59:02.852Z</time></trkpt><trkpt lat="44.01598" lon="12.5269819"><ele>75.0</ele><time>2026-04-10T12:59:04.851Z</time></trkpt><trkpt lat="44.0160933" lon="12.5270242"><ele>75.0</ele><time>2026-04-10T12:59:06.851Z</time></trkpt><trkpt lat="44.0161951" lon="12.5270525"><ele>75.0</ele><time>2026-04-10T12:59:07.851Z</time></trkpt><trkpt lat="44.0162841" lon="12.5270833"><ele>75.0</ele><time>2026-04-10T12:59:08.851Z</time></trkpt><trkpt lat="44.0163784" lon="12.5271099"><ele>75.0</ele><time>2026-04-10T12:59:09.852Z</time></trkpt><trkpt lat="44.0164806" lon="12.5271413"><ele>75.0</ele><time>2026-04-10T12:59:10.852Z</time></trkpt><trkpt lat="44.0165882" lon="12.5271743"><ele>75.0</ele><time>2026-04-10T12:59:11.851Z</time></trkpt><trkpt lat="44.0167039" lon="12.5272115"><ele>75.0</ele><time>2026-04-10T12:59:12.852Z</time></trkpt><trkpt lat="44.016829" lon="12.5272486"><ele>73.25</ele><time>2026-04-10T12:59:13.851Z</time></trkpt><trkpt lat="44.0169563" lon="12.527304"><ele>71.5</ele><time>2026-04-10T12:59:14.851Z</time></trkpt><trkpt lat="44.0170805" lon="12.5273764"><ele>69.75</ele><time>2026-04-10T12:59:15.852Z</time></trkpt><trkpt lat="44.0172089" lon="12.5274399"><ele>68.0</ele><time>2026-04-10T12:59:16.851Z</time></trkpt><trkpt lat="44.01732" lon="12.5275015"><ele>68.0</ele><time>2026-04-10T12:59:17.85Z</time></trkpt><trkpt lat="44.0174408" lon="12.5275591"><ele>68.0</ele><time>2026-04-10T12:59:18.852Z</time></trkpt><trkpt lat="44.0175619" lon="12.5276185"><ele>68.0</ele><time>2026-04-10T12:59:19.852Z</time></trkpt><trkpt lat="44.0176826" lon="12.5276717"><ele>68.0</ele><time>2026-04-10T12:59:20.851Z</time></trkpt><trkpt lat="44.0178128" lon="12.5277068"><ele>69.25</ele><time>2026-04-10T12:59:21.852Z</time></trkpt><trkpt lat="44.0179352" lon="12.5277432"><ele>70.5</ele><time>2026-04-10T12:59:22.852Z</time></trkpt><trkpt lat="44.0180723" lon="12.5277867"><ele>71.75</ele><time>2026-04-10T12:59:23.85Z</time></trkpt><trkpt lat="44.0182261" lon="12.5278289"><ele>73.0</ele><time>2026-04-10T12:59:24.851Z</time></trkpt><trkpt lat="44.0184003" lon="12.5278662"><ele>74.33333333333333</ele><time>2026-04-10T12:59:25.851Z</time></trkpt><trkpt lat="44.0185714" lon="12.5278845"><ele>75.66666666666667</ele><time>2026-04-10T12:59:26.851Z</time></trkpt><trkpt lat="44.0187433" lon="12.5278875"><ele>77.0</ele><time>2026-04-10T12:59:27.852Z</time></trkpt><trkpt lat="44.0189162" lon="12.527872"><ele>77.0</ele><time>2026-04-10T12:59:28.852Z</time></trkpt><trkpt lat="44.0190841" lon="12.5278402"><ele>77.0</ele><time>2026-04-10T12:59:29.852Z</time></trkpt><trkpt lat="44.0192524" lon="12.5277873"><ele>77.0</ele><time>2026-04-10T12:59:30.852Z</time></trkpt><trkpt lat="44.0194211" lon="12.5277345"><ele>75.66666666666667</ele><time>2026-04-10T12:59:31.851Z</time></trkpt><trkpt lat="44.0195882" lon="12.5276863"><ele>74.33333333333333</ele><time>2026-04-10T12:59:32.851Z</time></trkpt><trkpt lat="44.0197573" lon="12.5276393"><ele>73.0</ele><time>2026-04-10T12:59:33.851Z</time></trkpt><trkpt lat="44.0199242" lon="12.5275916"><ele>71.66666666666666</ele><time>2026-04-10T12:59:34.85Z</time></trkpt><trkpt lat="44.0200901" lon="12.52755"><ele>70.33333333333333</ele><time>2026-04-10T12:59:35.852Z</time></trkpt><trkpt lat="44.0202575" lon="12.5275115"><ele>69.0</ele><time>2026-04-10T12:59:36.852Z</time></trkpt><trkpt lat="44.0204199" lon="12.5274788"><ele>69.0</ele><time>2026-04-10T12:59:37.852Z</time></trkpt><trkpt lat="44.0205779" lon="12.5274518"><ele>69.0</ele><time>2026-04-10T12:59:38.851Z</time></trkpt><trkpt lat="44.0207319" lon="12.527428"><ele>69.0</ele><time>2026-04-10T12:59:39.851Z</time></trkpt><trkpt lat="44.0208814" lon="12.5274073"><ele>68.75</ele><time>2026-04-10T12:59:40.851Z</time></trkpt><trkpt lat="44.0210284" lon="12.5273871"><ele>68.5</ele><time>2026-04-10T12:59:41.851Z</time></trkpt><trkpt lat="44.0211597" lon="12.5273684"><ele>68.25</ele><time>2026-04-10T12:59:42.853Z</time></trkpt><trkpt lat="44.0212867" lon="12.5273586"><ele>68.0</ele><time>2026-04-10T12:59:43.852Z</time></trkpt><trkpt lat="44.0214111" lon="12.5273714"><ele>68.0</ele><time>2026-04-10T12:59:44.851Z</time></trkpt><trkpt lat="44.0215297" lon="12.5274133"><ele>68.0</ele><time>2026-04-10T12:59:45.851Z</time></trkpt><trkpt lat="44.0216443" lon="12.5274696"><ele>68.0</ele><time>2026-04-10T12:59:46.85Z</time></trkpt><trkpt lat="44.0217646" lon="12.5275108"><ele>68.0</ele><time>2026-04-10T12:59:47.851Z</time></trkpt><trkpt lat="44.0218915" lon="12.5275339"><ele>68.25</ele><time>2026-04-10T12:59:48.851Z</time></trkpt><trkpt lat="44.0220244" lon="12.5275474"><ele>68.5</ele><time>2026-04-10T12:59:49.851Z</time></trkpt><trkpt lat="44.0221648" lon="12.5275526"><ele>68.75</ele><time>2026-04-10T12:59:50.852Z</time></trkpt><trkpt lat="44.0223064" lon="12.5275568"><ele>69.0</ele><time>2026-04-10T12:59:51.851Z</time></trkpt><trkpt lat="44.0224447" lon="12.5275536"><ele>68.5</ele><time>2026-04-10T12:59:52.852Z</time></trkpt><trkpt lat="44.0225771" lon="12.5275377"><ele>68.0</ele><time>2026-04-10T12:59:53.852Z</time></trkpt><trkpt lat="44.0226987" lon="12.5275129"><ele>67.5</ele><time>2026-04-10T12:59:54.851Z</time></trkpt><trkpt lat="44.0228078" lon="12.5274561"><ele>67.0</ele><time>2026-04-10T12:59:55.852Z</time></trkpt><trkpt lat="44.0229125" lon="12.5273764"><ele>67.0</ele><time>2026-04-10T12:59:56.851Z</time></trkpt><trkpt lat="44.0230132" lon="12.5272817"><ele>67.0</ele><time>2026-04-10T12:59:57.851Z</time></trkpt><trkpt lat="44.0231061" lon="12.527178"><ele>67.0</ele><time>2026-04-10T12:59:58.851Z</time></trkpt><trkpt lat="44.023194" lon="12.5270733"><ele>67.0</ele><time>2026-04-10T12:59:59.852Z</time></trkpt><trkpt lat="44.0232639" lon="12.5269785"><ele>68.5</ele><time>2026-04-10T13:00:00.851Z</time></trkpt><trkpt lat="44.0233158" lon="12.5269014"><ele>70.0</ele><time>2026-04-10T13:00:01.851Z</time></trkpt><trkpt lat="44.0233664" lon="12.5268376"><ele>71.5</ele><time>2026-04-10T13:00:02.851Z</time></trkpt><trkpt lat="44.0234513" lon="12.5268273"><ele>73.0</ele><time>2026-04-10T13:00:04.851Z</time></trkpt><trkpt lat="44.0235157" lon="12.5268432"><ele>74.5</ele><time>2026-04-10T13:00:05.851Z</time></trkpt><trkpt lat="44.023662" lon="12.5268817"><ele>76.0</ele><time>2026-04-10T13:00:06.851Z</time></trkpt><trkpt lat="44.0238045" lon="12.5269273"><ele>76.0</ele><time>2026-04-10T13:00:07.851Z</time></trkpt><trkpt lat="44.0239354" lon="12.5269926"><ele>76.0</ele><time>2026-04-10T13:00:08.851Z</time></trkpt><trkpt lat="44.0240498" lon="12.5270865"><ele>76.0</ele><time>2026-04-10T13:00:09.853Z</time></trkpt><trkpt lat="44.0241591" lon="12.5272066"><ele>76.0</ele><time>2026-04-10T13:00:10.851Z</time></trkpt><trkpt lat="44.0242649" lon="12.5273345"><ele>73.75</ele><time>2026-04-10T13:00:11.852Z</time></trkpt><trkpt lat="44.0243607" lon="12.5274798"><ele>71.5</ele><time>2026-04-10T13:00:12.852Z</time></trkpt><trkpt lat="44.0244575" lon="12.5276327"><ele>69.25</ele><time>2026-04-10T13:00:13.851Z</time></trkpt><trkpt lat="44.0245396" lon="12.5277952"><ele>67.0</ele><time>2026-04-10T13:00:14.852Z</time></trkpt><trkpt lat="44.0246147" lon="12.5279599"><ele>66.5</ele><time>2026-04-10T13:00:15.852Z</time></trkpt><trkpt lat="44.0246756" lon="12.5281257"><ele>66.0</ele><time>2026-04-10T13:00:16.852Z</time></trkpt><trkpt lat="44.0247176" lon="12.5282959"><ele>65.5</ele><time>2026-04-10T13:00:17.851Z</time></trkpt><trkpt lat="44.0247478" lon="12.5284704"><ele>65.0</ele><time>2026-04-10T13:00:18.852Z</time></trkpt><trkpt lat="44.0247545" lon="12.5286543"><ele>65.5</ele><time>2026-04-10T13:00:19.85Z</time></trkpt><trkpt lat="44.0247604" lon="12.5288345"><ele>66.0</ele><time>2026-04-10T13:00:20.852Z</time></trkpt><trkpt lat="44.0247658" lon="12.5290172"><ele>66.5</ele><time>2026-04-10T13:00:21.851Z</time></trkpt><trkpt lat="44.0247834" lon="12.5291894"><ele>67.0</ele><time>2026-04-10T13:00:22.852Z</time></trkpt><trkpt lat="44.0248091" lon="12.5293558"><ele>67.0</ele><time>2026-04-10T13:00:23.852Z</time></trkpt><trkpt lat="44.024854" lon="12.5295228"><ele>67.0</ele><time>2026-04-10T13:00:24.851Z</time></trkpt><trkpt lat="44.0249206" lon="12.5296856"><ele>67.0</ele><time>2026-04-10T13:00:25.851Z</time></trkpt><trkpt lat="44.0249967" lon="12.5298477"><ele>67.0</ele><time>2026-04-10T13:00:26.851Z</time></trkpt><trkpt lat="44.0251008" lon="12.5299964"><ele>68.75</ele><time>2026-04-10T13:00:27.851Z</time></trkpt><trkpt lat="44.025203" lon="12.5301383"><ele>70.5</ele><time>2026-04-10T13:00:28.851Z</time></trkpt><trkpt lat="44.0253129" lon="12.5302764"><ele>72.25</ele><time>2026-04-10T13:00:29.851Z</time></trkpt><trkpt lat="44.0254308" lon="12.5304126"><ele>74.0</ele><time>2026-04-10T13:00:30.852Z</time></trkpt><trkpt lat="44.0255616" lon="12.5305506"><ele>74.0</ele><time>2026-04-10T13:00:31.851Z</time></trkpt><trkpt lat="44.0257114" lon="12.5306896"><ele>74.0</ele><time>2026-04-10T13:00:32.852Z</time></trkpt><trkpt lat="44.0258564" lon="12.5308169"><ele>74.0</ele><time>2026-04-10T13:00:33.851Z</time></trkpt><trkpt lat="44.0259873" lon="12.5309294"><ele>76.25</ele><time>2026-04-10T13:00:34.851Z</time></trkpt><trkpt lat="44.0261022" lon="12.5310373"><ele>78.5</ele><time>2026-04-10T13:00:35.851Z</time></trkpt><trkpt lat="44.0262064" lon="12.5311302"><ele>80.75</ele><time>2026-04-10T13:00:36.851Z</time></trkpt><trkpt lat="44.0263081" lon="12.5312179"><ele>83.0</ele><time>2026-04-10T13:00:37.852Z</time></trkpt><trkpt lat="44.0264056" lon="12.5313027"><ele>83.0</ele><time>2026-04-10T13:00:38.851Z</time></trkpt><trkpt lat="44.0264909" lon="12.5313819"><ele>83.0</ele><time>2026-04-10T13:00:39.852Z</time></trkpt><trkpt lat="44.0265494" lon="12.5314664"><ele>83.0</ele><time>2026-04-10T13:00:40.851Z</time></trkpt><trkpt lat="44.0265953" lon="12.5315545"><ele>83.0</ele><time>2026-04-10T13:00:41.853Z</time></trkpt><trkpt lat="44.0266284" lon="12.5316342"><ele>83.0</ele><time>2026-04-10T13:00:42.852Z</time></trkpt><trkpt lat="44.0266814" lon="12.5317"><ele>83.0</ele><time>2026-04-10T13:00:44.851Z</time></trkpt><trkpt lat="44.0267753" lon="12.5315905"><ele>84.16666666666667</ele><time>2026-04-10T13:00:46.853Z</time></trkpt><trkpt lat="44.0268348" lon="12.5315029"><ele>85.33333333333334</ele><time>2026-04-10T13:00:47.851Z</time></trkpt><trkpt lat="44.0268973" lon="12.5314073"><ele>86.5</ele><time>2026-04-10T13:00:48.852Z</time></trkpt><trkpt lat="44.0269567" lon="12.5313195"><ele>87.66666666666667</ele><time>2026-04-10T13:00:49.852Z</time></trkpt><trkpt lat="44.027016" lon="12.5312285"><ele>88.83333333333333</ele><time>2026-04-10T13:00:50.853Z</time></trkpt><trkpt lat="44.0270737" lon="12.5311494"><ele>90.0</ele><time>2026-04-10T13:00:51.851Z</time></trkpt><trkpt lat="44.0271303" lon="12.5310686"><ele>90.0</ele><time>2026-04-10T13:00:52.852Z</time></trkpt><trkpt lat="44.0271824" lon="12.530991"><ele>90.0</ele><time>2026-04-10T13:00:53.851Z</time></trkpt><trkpt lat="44.0272369" lon="12.5309106"><ele>90.0</ele><time>2026-04-10T13:00:54.851Z</time></trkpt><trkpt lat="44.0272905" lon="12.5308279"><ele>90.0</ele><time>2026-04-10T13:00:55.852Z</time></trkpt><trkpt lat="44.0273317" lon="12.530738"><ele>90.0</ele><time>2026-04-10T13:00:56.851Z</time></trkpt><trkpt lat="44.0273872" lon="12.5306499"><ele>90.0</ele><time>2026-04-10T13:00:57.851Z</time></trkpt><trkpt lat="44.0274408" lon="12.5305716"><ele>89.71428571428571</ele><time>2026-04-10T13:00:58.851Z</time></trkpt><trkpt lat="44.0275035" lon="12.5305011"><ele>89.42857142857143</ele><time>2026-04-10T13:00:59.852Z</time></trkpt><trkpt lat="44.0275691" lon="12.5304641"><ele>89.14285714285714</ele><time>2026-04-10T13:01:00.852Z</time></trkpt><trkpt lat="44.027632" lon="12.5304493"><ele>88.85714285714286</ele><time>2026-04-10T13:01:01.851Z</time></trkpt><trkpt lat="44.0276949" lon="12.5304616"><ele>88.57142857142857</ele><time>2026-04-10T13:01:02.851Z</time></trkpt><trkpt lat="44.0277614" lon="12.5304956"><ele>88.28571428571429</ele><time>2026-04-10T13:01:03.851Z</time></trkpt><trkpt lat="44.0278464" lon="12.5305391"><ele>88.0</ele><time>2026-04-10T13:01:04.852Z</time></trkpt><trkpt lat="44.0279212" lon="12.53058"><ele>88.0</ele><time>2026-04-10T13:01:05.852Z</time></trkpt><trkpt lat="44.0280031" lon="12.5306226"><ele>88.0</ele><time>2026-04-10T13:01:06.851Z</time></trkpt><trkpt lat="44.028091" lon="12.5306573"><ele>88.0</ele><time>2026-04-10T13:01:07.852Z</time></trkpt><trkpt lat="44.0281751" lon="12.5306806"><ele>88.0</ele><time>2026-04-10T13:01:08.852Z</time></trkpt><trkpt lat="44.0282658" lon="12.5306984"><ele>88.0</ele><time>2026-04-10T13:01:09.851Z</time></trkpt><trkpt lat="44.0283524" lon="12.5307069"><ele>88.0</ele><time>2026-04-10T13:01:10.851Z</time></trkpt><trkpt lat="44.0284433" lon="12.5307153"><ele>87.66666666666666</ele><time>2026-04-10T13:01:11.852Z</time></trkpt><trkpt lat="44.0285273" lon="12.5307219"><ele>87.33333333333333</ele><time>2026-04-10T13:01:12.852Z</time></trkpt><trkpt lat="44.0286082" lon="12.5307243"><ele>87.0</ele><time>2026-04-10T13:01:13.852Z</time></trkpt><trkpt lat="44.0286912" lon="12.53072"><ele>86.66666666666667</ele><time>2026-04-10T13:01:14.851Z</time></trkpt><trkpt lat="44.028768" lon="12.5306966"><ele>86.33333333333334</ele><time>2026-04-10T13:01:15.853Z</time></trkpt><trkpt lat="44.028838" lon="12.5306548"><ele>86.0</ele><time>2026-04-10T13:01:16.852Z</time></trkpt><trkpt lat="44.0289" lon="12.5306098"><ele>86.00000000000001</ele><time>2026-04-10T13:01:17.851Z</time></trkpt><trkpt lat="44.0289569" lon="12.5305458"><ele>86.0</ele><time>2026-04-10T13:01:18.853Z</time></trkpt><trkpt lat="44.0290206" lon="12.5304858"><ele>86.0</ele><time>2026-04-10T13:01:19.851Z</time></trkpt><trkpt lat="44.0290827" lon="12.5304356"><ele>86.0</ele><time>2026-04-10T13:01:20.852Z</time></trkpt><trkpt lat="44.029145" lon="12.5303993"><ele>86.0</ele><time>2026-04-10T13:01:21.852Z</time></trkpt><trkpt lat="44.0292157" lon="12.5303735"><ele>86.00000000000001</ele><time>2026-04-10T13:01:22.852Z</time></trkpt><trkpt lat="44.0292907" lon="12.530352"><ele>86.0</ele><time>2026-04-10T13:01:23.851Z</time></trkpt><trkpt lat="44.0293623" lon="12.5303425"><ele>84.16666666666667</ele><time>2026-04-10T13:01:24.852Z</time></trkpt><trkpt lat="44.029444" lon="12.5303259"><ele>82.33333333333334</ele><time>2026-04-10T13:01:25.851Z</time></trkpt><trkpt lat="44.0295208" lon="12.5303007"><ele>80.5</ele><time>2026-04-10T13:01:26.852Z</time></trkpt><trkpt lat="44.0296008" lon="12.5302749"><ele>78.66666666666667</ele><time>2026-04-10T13:01:27.852Z</time></trkpt><trkpt lat="44.0296775" lon="12.5302371"><ele>76.83333333333333</ele><time>2026-04-10T13:01:28.851Z</time></trkpt><trkpt lat="44.0297563" lon="12.5301889"><ele>75.0</ele><time>2026-04-10T13:01:29.852Z</time></trkpt><trkpt lat="44.0298338" lon="12.5301316"><ele>75.0</ele><time>2026-04-10T13:01:30.851Z</time></trkpt><trkpt lat="44.02991" lon="12.5300722"><ele>75.0</ele><time>2026-04-10T13:01:31.852Z</time></trkpt><trkpt lat="44.029975" lon="12.5300341"><ele>75.0</ele><time>2026-04-10T13:01:32.852Z</time></trkpt><trkpt lat="44.0300464" lon="12.5300012"><ele>75.0</ele><time>2026-04-10T13:01:33.852Z</time></trkpt><trkpt lat="44.030114" lon="12.5299969"><ele>75.0</ele><time>2026-04-10T13:01:34.852Z</time></trkpt><trkpt lat="44.0302014" lon="12.5300014"><ele>75.0</ele><time>2026-04-10T13:01:35.851Z</time></trkpt><trkpt lat="44.0302866" lon="12.5300097"><ele>74.33333333333333</ele><time>2026-04-10T13:01:36.851Z</time></trkpt><trkpt lat="44.0303724" lon="12.5300309"><ele>73.66666666666667</ele><time>2026-04-10T13:01:37.851Z</time></trkpt><trkpt lat="44.0304683" lon="12.530056"><ele>73.0</ele><time>2026-04-10T13:01:38.851Z</time></trkpt><trkpt lat="44.0305588" lon="12.5300826"><ele>72.33333333333334</ele><time>2026-04-10T13:01:39.851Z</time></trkpt><trkpt lat="44.0306289" lon="12.5301058"><ele>71.66666666666667</ele><time>2026-04-10T13:01:40.851Z</time></trkpt><trkpt lat="44.030689" lon="12.5301437"><ele>71.0</ele><time>2026-04-10T13:01:41.852Z</time></trkpt><trkpt lat="44.030758" lon="12.5301893"><ele>70.66666666666667</ele><time>2026-04-10T13:01:42.852Z</time></trkpt><trkpt lat="44.0308242" lon="12.5302437"><ele>70.33333333333334</ele><time>2026-04-10T13:01:43.85Z</time></trkpt><trkpt lat="44.0308885" lon="12.5303189"><ele>70.0</ele><time>2026-04-10T13:01:44.852Z</time></trkpt><trkpt lat="44.0309385" lon="12.5304348"><ele>69.66666666666667</ele><time>2026-04-10T13:01:45.851Z</time></trkpt><trkpt lat="44.0309966" lon="12.5305334"><ele>69.33333333333333</ele><time>2026-04-10T13:01:46.852Z</time></trkpt><trkpt lat="44.0310592" lon="12.530622"><ele>69.0</ele><time>2026-04-10T13:01:47.852Z</time></trkpt><trkpt lat="44.0311111" lon="12.5307089"><ele>69.83333333333333</ele><time>2026-04-10T13:01:48.852Z</time></trkpt><trkpt lat="44.0311714" lon="12.5307909"><ele>70.66666666666667</ele><time>2026-04-10T13:01:49.851Z</time></trkpt><trkpt lat="44.0312298" lon="12.530868"><ele>71.5</ele><time>2026-04-10T13:01:50.853Z</time></trkpt><trkpt lat="44.0312905" lon="12.5309523"><ele>72.33333333333334</ele><time>2026-04-10T13:01:51.852Z</time></trkpt><trkpt lat="44.0313404" lon="12.5310357"><ele>73.16666666666667</ele><time>2026-04-10T13:01:52.851Z</time></trkpt><trkpt lat="44.0313914" lon="12.5311256"><ele>74.0</ele><time>2026-04-10T13:01:53.851Z</time></trkpt><trkpt lat="44.0314384" lon="12.5312232"><ele>74.5</ele><time>2026-04-10T13:01:54.852Z</time></trkpt><trkpt lat="44.0314803" lon="12.5313139"><ele>75.0</ele><time>2026-04-10T13:01:55.851Z</time></trkpt><trkpt lat="44.0315205" lon="12.5314104"><ele>75.5</ele><time>2026-04-10T13:01:56.852Z</time></trkpt><trkpt lat="44.031558" lon="12.5315073"><ele>76.0</ele><time>2026-04-10T13:01:57.852Z</time></trkpt><trkpt lat="44.0315947" lon="12.5316212"><ele>76.5</ele><time>2026-04-10T13:01:58.851Z</time></trkpt><trkpt lat="44.0316203" lon="12.5317295"><ele>77.0</ele><time>2026-04-10T13:01:59.851Z</time></trkpt><trkpt lat="44.0316456" lon="12.5318471"><ele>74.0</ele><time>2026-04-10T13:02:00.851Z</time></trkpt><trkpt lat="44.0316692" lon="12.5319751"><ele>71.0</ele><time>2026-04-10T13:02:01.852Z</time></trkpt><trkpt lat="44.0316869" lon="12.5321007"><ele>68.0</ele><time>2026-04-10T13:02:02.851Z</time></trkpt><trkpt lat="44.0317078" lon="12.5322233"><ele>65.0</ele><time>2026-04-10T13:02:03.852Z</time></trkpt><trkpt lat="44.0317334" lon="12.5323399"><ele>62.0</ele><time>2026-04-10T13:02:04.851Z</time></trkpt><trkpt lat="44.0317803" lon="12.5324501"><ele>62.0</ele><time>2026-04-10T13:02:05.851Z</time></trkpt><trkpt lat="44.0318406" lon="12.5325638"><ele>62.0</ele><time>2026-04-10T13:02:06.851Z</time></trkpt><trkpt lat="44.0319054" lon="12.5326885"><ele>62.0</ele><time>2026-04-10T13:02:07.851Z</time></trkpt><trkpt lat="44.031972" lon="12.5328038"><ele>62.0</ele><time>2026-04-10T13:02:08.851Z</time></trkpt><trkpt lat="44.032036" lon="12.5329147"><ele>62.0</ele><time>2026-04-10T13:02:09.851Z</time></trkpt><trkpt lat="44.0320947" lon="12.5330152"><ele>61.16666666666667</ele><time>2026-04-10T13:02:10.852Z</time></trkpt><trkpt lat="44.0321408" lon="12.5331165"><ele>60.333333333333336</ele><time>2026-04-10T13:02:11.851Z</time></trkpt><trkpt lat="44.0321722" lon="12.5332115"><ele>59.5</ele><time>2026-04-10T13:02:12.851Z</time></trkpt><trkpt lat="44.0321904" lon="12.5333053"><ele>58.66666666666667</ele><time>2026-04-10T13:02:13.852Z</time></trkpt><trkpt lat="44.0321613" lon="12.5334776"><ele>57.833333333333336</ele><time>2026-04-10T13:02:15.852Z</time></trkpt><trkpt lat="44.0321344" lon="12.5335696"><ele>57.0</ele><time>2026-04-10T13:02:16.852Z</time></trkpt><trkpt lat="44.0321045" lon="12.5336784"><ele>56.2</ele><time>2026-04-10T13:02:17.851Z</time></trkpt><trkpt lat="44.032074" lon="12.5337885"><ele>55.400000000000006</ele><time>2026-04-10T13:02:18.852Z</time></trkpt><trkpt lat="44.032028" lon="12.533897"><ele>54.599999999999994</ele><time>2026-04-10T13:02:19.853Z</time></trkpt><trkpt lat="44.0319825" lon="12.534001"><ele>53.8</ele><time>2026-04-10T13:02:20.852Z</time></trkpt><trkpt lat="44.0319038" lon="12.5341424"><ele>53.0</ele><time>2026-04-10T13:02:22.852Z</time></trkpt><trkpt lat="44.0318538" lon="12.5342059"><ele>53.00000000000001</ele><time>2026-04-10T13:02:23.852Z</time></trkpt><trkpt lat="44.0318036" lon="12.5342621"><ele>53.0</ele><time>2026-04-10T13:02:24.851Z</time></trkpt><trkpt lat="44.031746" lon="12.5343019"><ele>53.0</ele><time>2026-04-10T13:02:25.851Z</time></trkpt><trkpt lat="44.0316882" lon="12.5343417"><ele>53.0</ele><time>2026-04-10T13:02:26.851Z</time></trkpt><trkpt lat="44.0316099" lon="12.5344556"><ele>53.00000000000001</ele><time>2026-04-10T13:02:28.852Z</time></trkpt><trkpt lat="44.031592" lon="12.5345786"><ele>53.0</ele><time>2026-04-10T13:02:30.852Z</time></trkpt><trkpt lat="44.0316526" lon="12.5347376"><ele>53.333333333333336</ele><time>2026-04-10T13:02:32.851Z</time></trkpt><trkpt lat="44.0317004" lon="12.5348192"><ele>53.66666666666667</ele><time>2026-04-10T13:02:33.852Z</time></trkpt><trkpt lat="44.0317568" lon="12.5349012"><ele>54.0</ele><time>2026-04-10T13:02:34.852Z</time></trkpt><trkpt lat="44.031825" lon="12.5349908"><ele>54.33333333333333</ele><time>2026-04-10T13:02:35.851Z</time></trkpt><trkpt lat="44.0318945" lon="12.5350905"><ele>54.666666666666664</ele><time>2026-04-10T13:02:36.851Z</time></trkpt><trkpt lat="44.0319636" lon="12.535186"><ele>55.0</ele><time>2026-04-10T13:02:37.851Z</time></trkpt><trkpt lat="44.0320232" lon="12.5352854"><ele>55.4</ele><time>2026-04-10T13:02:38.851Z</time></trkpt><trkpt lat="44.0320825" lon="12.5353904"><ele>55.8</ele><time>2026-04-10T13:02:39.852Z</time></trkpt><trkpt lat="44.0321122" lon="12.5355165"><ele>56.2</ele><time>2026-04-10T13:02:40.851Z</time></trkpt><trkpt lat="44.0321497" lon="12.535639"><ele>56.6</ele><time>2026-04-10T13:02:41.851Z</time></trkpt><trkpt lat="44.0321868" lon="12.5357787"><ele>57.0</ele><time>2026-04-10T13:02:42.852Z</time></trkpt><trkpt lat="44.0322328" lon="12.5359211"><ele>57.0</ele><time>2026-04-10T13:02:43.852Z</time></trkpt><trkpt lat="44.0322844" lon="12.5360707"><ele>57.0</ele><time>2026-04-10T13:02:44.852Z</time></trkpt><trkpt lat="44.032331" lon="12.5362262"><ele>57.0</ele><time>2026-04-10T13:02:45.851Z</time></trkpt><trkpt lat="44.0323768" lon="12.5363771"><ele>57.0</ele><time>2026-04-10T13:02:46.852Z</time></trkpt><trkpt lat="44.0324252" lon="12.5365037"><ele>57.333333333333336</ele><time>2026-04-10T13:02:47.852Z</time></trkpt><trkpt lat="44.0324769" lon="12.5366082"><ele>57.66666666666667</ele><time>2026-04-10T13:02:48.851Z</time></trkpt><trkpt lat="44.0325386" lon="12.5366942"><ele>58.0</ele><time>2026-04-10T13:02:49.851Z</time></trkpt><trkpt lat="44.0326058" lon="12.5367592"><ele>58.333333333333336</ele><time>2026-04-10T13:02:50.852Z</time></trkpt><trkpt lat="44.0326805" lon="12.5367791"><ele>58.66666666666667</ele><time>2026-04-10T13:02:51.853Z</time></trkpt><trkpt lat="44.0327661" lon="12.5367691"><ele>59.0</ele><time>2026-04-10T13:02:52.853Z</time></trkpt><trkpt lat="44.032868" lon="12.5367299"><ele>59.0</ele><time>2026-04-10T13:02:53.852Z</time></trkpt><trkpt lat="44.0329696" lon="12.5366984"><ele>59.0</ele><time>2026-04-10T13:02:54.852Z</time></trkpt><trkpt lat="44.0330836" lon="12.5366763"><ele>59.0</ele><time>2026-04-10T13:02:55.851Z</time></trkpt><trkpt lat="44.0332013" lon="12.536686"><ele>59.0</ele><time>2026-04-10T13:02:56.851Z</time></trkpt><trkpt lat="44.0333256" lon="12.5367003"><ele>58.25</ele><time>2026-04-10T13:02:57.852Z</time></trkpt><trkpt lat="44.0334507" lon="12.5367275"><ele>57.5</ele><time>2026-04-10T13:02:58.851Z</time></trkpt><trkpt lat="44.0335778" lon="12.5367724"><ele>56.75</ele><time>2026-04-10T13:02:59.852Z</time></trkpt><trkpt lat="44.0337053" lon="12.5368291"><ele>56.0</ele><time>2026-04-10T13:03:00.852Z</time></trkpt><trkpt lat="44.033833" lon="12.5368813"><ele>56.0</ele><time>2026-04-10T13:03:01.851Z</time></trkpt><trkpt lat="44.0339476" lon="12.5369352"><ele>55.99999999999999</ele><time>2026-04-10T13:03:02.853Z</time></trkpt><trkpt lat="44.0340509" lon="12.5369783"><ele>55.99999999999999</ele><time>2026-04-10T13:03:03.851Z</time></trkpt><trkpt lat="44.034154" lon="12.5370206"><ele>56.0</ele><time>2026-04-10T13:03:04.851Z</time></trkpt><trkpt lat="44.0342557" lon="12.5370726"><ele>56.0</ele><time>2026-04-10T13:03:05.852Z</time></trkpt><trkpt lat="44.0343536" lon="12.5371261"><ele>57.0</ele><time>2026-04-10T13:03:06.853Z</time></trkpt><trkpt lat="44.0344384" lon="12.537174"><ele>57.99999999999999</ele><time>2026-04-10T13:03:07.852Z</time></trkpt><trkpt lat="44.0345027" lon="12.5372186"><ele>58.99999999999999</ele><time>2026-04-10T13:03:08.851Z</time></trkpt><trkpt lat="44.0345773" lon="12.5372615"><ele>60.0</ele><time>2026-04-10T13:03:10.852Z</time></trkpt><trkpt lat="44.0346531" lon="12.5372169"><ele>61.0</ele><time>2026-04-10T13:03:13.852Z</time></trkpt><trkpt lat="44.0347557" lon="12.5370825"><ele>60.199999999999996</ele><time>2026-04-10T13:03:15.851Z</time></trkpt><trkpt lat="44.0348282" lon="12.5369891"><ele>59.39999999999999</ele><time>2026-04-10T13:03:16.852Z</time></trkpt><trkpt lat="44.0348949" lon="12.5368949"><ele>58.6</ele><time>2026-04-10T13:03:17.851Z</time></trkpt><trkpt lat="44.0349586" lon="12.536805"><ele>57.8</ele><time>2026-04-10T13:03:18.851Z</time></trkpt><trkpt lat="44.0350286" lon="12.536707"><ele>57.0</ele><time>2026-04-10T13:03:19.852Z</time></trkpt><trkpt lat="44.0350895" lon="12.5366204"><ele>57.0</ele><time>2026-04-10T13:03:20.85Z</time></trkpt><trkpt lat="44.035155" lon="12.5365444"><ele>57.0</ele><time>2026-04-10T13:03:21.851Z</time></trkpt><trkpt lat="44.0352158" lon="12.5364721"><ele>57.0</ele><time>2026-04-10T13:03:22.85Z</time></trkpt><trkpt lat="44.0352817" lon="12.5363885"><ele>57.0</ele><time>2026-04-10T13:03:23.852Z</time></trkpt><trkpt lat="44.0353548" lon="12.5362952"><ele>57.0</ele><time>2026-04-10T13:03:24.851Z</time></trkpt><trkpt lat="44.035432" lon="12.5361882"><ele>55.6</ele><time>2026-04-10T13:03:25.852Z</time></trkpt><trkpt lat="44.0355019" lon="12.5360875"><ele>54.2</ele><time>2026-04-10T13:03:26.851Z</time></trkpt><trkpt lat="44.0355677" lon="12.5359957"><ele>52.8</ele><time>2026-04-10T13:03:27.852Z</time></trkpt><trkpt lat="44.0356254" lon="12.5359214"><ele>51.4</ele><time>2026-04-10T13:03:28.85Z</time></trkpt><trkpt lat="44.0357315" lon="12.5358771"><ele>50.0</ele><time>2026-04-10T13:03:30.851Z</time></trkpt><trkpt lat="44.0357944" lon="12.5359162"><ele>50.50000000000001</ele><time>2026-04-10T13:03:31.851Z</time></trkpt><trkpt lat="44.0358536" lon="12.5359798"><ele>51.0</ele><time>2026-04-10T13:03:32.851Z</time></trkpt><trkpt lat="44.0359067" lon="12.5360595"><ele>51.5</ele><time>2026-04-10T13:03:33.853Z</time></trkpt><trkpt lat="44.035951" lon="12.536156"><ele>52.0</ele><time>2026-04-10T13:03:34.851Z</time></trkpt><trkpt lat="44.0359968" lon="12.5362723"><ele>52.50000000000001</ele><time>2026-04-10T13:03:35.851Z</time></trkpt><trkpt lat="44.0360413" lon="12.5363977"><ele>53.0</ele><time>2026-04-10T13:03:36.852Z</time></trkpt><trkpt lat="44.0360861" lon="12.5365184"><ele>53.0</ele><time>2026-04-10T13:03:37.851Z</time></trkpt><trkpt lat="44.0361491" lon="12.5366366"><ele>53.0</ele><time>2026-04-10T13:03:38.851Z</time></trkpt><trkpt lat="44.0362087" lon="12.5367472"><ele>53.0</ele><time>2026-04-10T13:03:39.852Z</time></trkpt><trkpt lat="44.0362564" lon="12.5368679"><ele>53.0</ele><time>2026-04-10T13:03:40.851Z</time></trkpt><trkpt lat="44.0363204" lon="12.536976"><ele>53.0</ele><time>2026-04-10T13:03:41.852Z</time></trkpt><trkpt lat="44.0363778" lon="12.5370913"><ele>52.0</ele><time>2026-04-10T13:03:42.851Z</time></trkpt><trkpt lat="44.0364344" lon="12.537212"><ele>51.0</ele><time>2026-04-10T13:03:43.851Z</time></trkpt><trkpt lat="44.0364896" lon="12.5373384"><ele>50.0</ele><time>2026-04-10T13:03:44.851Z</time></trkpt><trkpt lat="44.0365478" lon="12.5374709"><ele>49.0</ele><time>2026-04-10T13:03:45.85Z</time></trkpt><trkpt lat="44.0366048" lon="12.5376063"><ele>48.0</ele><time>2026-04-10T13:03:46.85Z</time></trkpt><trkpt lat="44.036667" lon="12.5377253"><ele>46.333333333333336</ele><time>2026-04-10T13:03:47.852Z</time></trkpt><trkpt lat="44.0367181" lon="12.5378251"><ele>44.666666666666664</ele><time>2026-04-10T13:03:48.852Z</time></trkpt><trkpt lat="44.0367717" lon="12.5379174"><ele>43.0</ele><time>2026-04-10T13:03:49.852Z</time></trkpt><trkpt lat="44.0368272" lon="12.538"><ele>41.33333333333333</ele><time>2026-04-10T13:03:50.851Z</time></trkpt><trkpt lat="44.0368796" lon="12.538089"><ele>39.666666666666664</ele><time>2026-04-10T13:03:51.851Z</time></trkpt><trkpt lat="44.0369341" lon="12.5381752"><ele>38.0</ele><time>2026-04-10T13:03:52.852Z</time></trkpt><trkpt lat="44.0369877" lon="12.5382543"><ele>37.6</ele><time>2026-04-10T13:03:53.851Z</time></trkpt><trkpt lat="44.0370421" lon="12.5383422"><ele>37.199999999999996</ele><time>2026-04-10T13:03:54.852Z</time></trkpt><trkpt lat="44.0371152" lon="12.5384186"><ele>36.8</ele><time>2026-04-10T13:03:55.851Z</time></trkpt><trkpt lat="44.0372031" lon="12.5384711"><ele>36.4</ele><time>2026-04-10T13:03:56.851Z</time></trkpt><trkpt lat="44.0373305" lon="12.5385162"><ele>36.0</ele><time>2026-04-10T13:03:57.852Z</time></trkpt><trkpt lat="44.0374544" lon="12.5385604"><ele>35.0</ele><time>2026-04-10T13:03:58.851Z</time></trkpt><trkpt lat="44.0375724" lon="12.5386096"><ele>34.0</ele><time>2026-04-10T13:03:59.851Z</time></trkpt><trkpt lat="44.0376844" lon="12.5386556"><ele>33.0</ele><time>2026-04-10T13:04:00.852Z</time></trkpt><trkpt lat="44.0377609" lon="12.5387363"><ele>32.0</ele><time>2026-04-10T13:04:01.851Z</time></trkpt><trkpt lat="44.0378469" lon="12.5388255"><ele>31.0</ele><time>2026-04-10T13:04:02.85Z</time></trkpt><trkpt lat="44.037928" lon="12.5389309"><ele>31.0</ele><time>2026-04-10T13:04:03.852Z</time></trkpt><trkpt lat="44.0380038" lon="12.5390566"><ele>31.0</ele><time>2026-04-10T13:04:04.852Z</time></trkpt><trkpt lat="44.0380901" lon="12.5391776"><ele>31.0</ele><time>2026-04-10T13:04:05.851Z</time></trkpt><trkpt lat="44.0381837" lon="12.5392993"><ele>31.0</ele><time>2026-04-10T13:04:06.851Z</time></trkpt><trkpt lat="44.0382786" lon="12.5394152"><ele>31.0</ele><time>2026-04-10T13:04:07.852Z</time></trkpt><trkpt lat="44.0383786" lon="12.5395174"><ele>31.0</ele><time>2026-04-10T13:04:08.851Z</time></trkpt><trkpt lat="44.0384786" lon="12.5396109"><ele>31.0</ele><time>2026-04-10T13:04:09.851Z</time></trkpt><trkpt lat="44.0385819" lon="12.5396997"><ele>31.0</ele><time>2026-04-10T13:04:10.851Z</time></trkpt><trkpt lat="44.0386875" lon="12.5397711"><ele>31.0</ele><time>2026-04-10T13:04:11.853Z</time></trkpt><trkpt lat="44.0387932" lon="12.5398354"><ele>31.0</ele><time>2026-04-10T13:04:12.852Z</time></trkpt><trkpt lat="44.038914" lon="12.5398563"><ele>31.0</ele><time>2026-04-10T13:04:13.852Z</time></trkpt><trkpt lat="44.0390354" lon="12.5398964"><ele>31.0</ele><time>2026-04-10T13:04:14.852Z</time></trkpt><trkpt lat="44.0391446" lon="12.5399121"><ele>32.0</ele><time>2026-04-10T13:04:15.851Z</time></trkpt><trkpt lat="44.039267" lon="12.5399275"><ele>33.0</ele><time>2026-04-10T13:04:16.851Z</time></trkpt><trkpt lat="44.0394069" lon="12.5399398"><ele>34.0</ele><time>2026-04-10T13:04:17.852Z</time></trkpt><trkpt lat="44.0395561" lon="12.539962"><ele>35.0</ele><time>2026-04-10T13:04:18.851Z</time></trkpt><trkpt lat="44.0396854" lon="12.5399868"><ele>35.0</ele><time>2026-04-10T13:04:19.851Z</time></trkpt><trkpt lat="44.0398134" lon="12.5400191"><ele>35.0</ele><time>2026-04-10T13:04:20.85Z</time></trkpt><trkpt lat="44.0399379" lon="12.5400632"><ele>35.0</ele><time>2026-04-10T13:04:21.851Z</time></trkpt><trkpt lat="44.0400614" lon="12.5401119"><ele>35.0</ele><time>2026-04-10T13:04:22.852Z</time></trkpt><trkpt lat="44.0401816" lon="12.5401717"><ele>36.2</ele><time>2026-04-10T13:04:23.852Z</time></trkpt><trkpt lat="44.0402946" lon="12.5402306"><ele>37.4</ele><time>2026-04-10T13:04:24.852Z</time></trkpt><trkpt lat="44.0404072" lon="12.5402821"><ele>38.599999999999994</ele><time>2026-04-10T13:04:25.851Z</time></trkpt><trkpt lat="44.0404768" lon="12.540326"><ele>39.8</ele><time>2026-04-10T13:04:26.851Z</time></trkpt><trkpt lat="44.0405438" lon="12.5403748"><ele>41.0</ele><time>2026-04-10T13:04:27.852Z</time></trkpt><trkpt lat="44.0406168" lon="12.5404354"><ele>42.8</ele><time>2026-04-10T13:04:28.851Z</time></trkpt><trkpt lat="44.0406597" lon="12.5405065"><ele>44.599999999999994</ele><time>2026-04-10T13:04:29.853Z</time></trkpt><trkpt lat="44.0407175" lon="12.5406322"><ele>46.4</ele><time>2026-04-10T13:04:31.852Z</time></trkpt><trkpt lat="44.0406845" lon="12.5407238"><ele>48.2</ele><time>2026-04-10T13:04:34.851Z</time></trkpt><trkpt lat="44.0406231" lon="12.540834"><ele>50.0</ele><time>2026-04-10T13:04:36.85Z</time></trkpt><trkpt lat="44.0405445" lon="12.5409262"><ele>50.00000000000001</ele><time>2026-04-10T13:04:37.85Z</time></trkpt><trkpt lat="44.0404685" lon="12.5410185"><ele>50.0</ele><time>2026-04-10T13:04:38.852Z</time></trkpt><trkpt lat="44.0403903" lon="12.5410965"><ele>50.0</ele><time>2026-04-10T13:04:39.852Z</time></trkpt><trkpt lat="44.0403129" lon="12.5411782"><ele>50.0</ele><time>2026-04-10T13:04:40.852Z</time></trkpt><trkpt lat="44.040249" lon="12.5412361"><ele>50.00000000000001</ele><time>2026-04-10T13:04:41.851Z</time></trkpt><trkpt lat="44.0401866" lon="12.5412859"><ele>50.0</ele><time>2026-04-10T13:04:42.851Z</time></trkpt><trkpt lat="44.0401283" lon="12.541334"><ele>51.00000000000001</ele><time>2026-04-10T13:04:43.852Z</time></trkpt><trkpt lat="44.0400686" lon="12.5413998"><ele>52.0</ele><time>2026-04-10T13:04:44.851Z</time></trkpt><trkpt lat="44.0399881" lon="12.5414891"><ele>53.0</ele><time>2026-04-10T13:04:46.851Z</time></trkpt><trkpt lat="44.0399252" lon="12.5415593"><ele>54.0</ele><time>2026-04-10T13:04:48.851Z</time></trkpt><trkpt lat="44.0398477" lon="12.5416596"><ele>55.00000000000001</ele><time>2026-04-10T13:04:50.852Z</time></trkpt><trkpt lat="44.0398082" lon="12.5417291"><ele>56.0</ele><time>2026-04-10T13:04:52.853Z</time></trkpt><trkpt lat="44.039742" lon="12.5418374"><ele>56.00000000000001</ele><time>2026-04-10T13:04:54.853Z</time></trkpt><trkpt lat="44.0396703" lon="12.5419592"><ele>56.0</ele><time>2026-04-10T13:04:56.852Z</time></trkpt><trkpt lat="44.0396154" lon="12.5420594"><ele>56.0</ele><time>2026-04-10T13:04:58.852Z</time></trkpt><trkpt lat="44.0395799" lon="12.5421335"><ele>56.0</ele><time>2026-04-10T13:04:59.851Z</time></trkpt><trkpt lat="44.0395001" lon="12.5422312"><ele>56.00000000000001</ele><time>2026-04-10T13:05:01.852Z</time></trkpt><trkpt lat="44.0394555" lon="12.5422971"><ele>56.0</ele><time>2026-04-10T13:05:02.852Z</time></trkpt><trkpt lat="44.0394055" lon="12.5423626"><ele>58.599999999999994</ele><time>2026-04-10T13:05:03.851Z</time></trkpt><trkpt lat="44.0393141" lon="12.5425199"><ele>61.199999999999996</ele><time>2026-04-10T13:05:05.852Z</time></trkpt><trkpt lat="44.0392747" lon="12.5425942"><ele>63.800000000000004</ele><time>2026-04-10T13:05:06.853Z</time></trkpt><trkpt lat="44.039221" lon="12.5426764"><ele>66.4</ele><time>2026-04-10T13:05:07.851Z</time></trkpt><trkpt lat="44.0391403" lon="12.5428145"><ele>69.0</ele><time>2026-04-10T13:05:09.851Z</time></trkpt><trkpt lat="44.0390971" lon="12.5429175"><ele>69.2</ele><time>2026-04-10T13:05:10.852Z</time></trkpt><trkpt lat="44.0390341" lon="12.5430532"><ele>69.4</ele><time>2026-04-10T13:05:11.852Z</time></trkpt><trkpt lat="44.0389823" lon="12.5431608"><ele>69.6</ele><time>2026-04-10T13:05:12.851Z</time></trkpt><trkpt lat="44.0389276" lon="12.5432727"><ele>69.8</ele><time>2026-04-10T13:05:13.852Z</time></trkpt><trkpt lat="44.0388714" lon="12.5433834"><ele>70.0</ele><time>2026-04-10T13:05:14.852Z</time></trkpt><trkpt lat="44.0388117" lon="12.5434903"><ele>70.0</ele><time>2026-04-10T13:05:15.852Z</time></trkpt><trkpt lat="44.0387523" lon="12.5436039"><ele>70.0</ele><time>2026-04-10T13:05:16.852Z</time></trkpt><trkpt lat="44.0386985" lon="12.5437104"><ele>70.0</ele><time>2026-04-10T13:05:17.851Z</time></trkpt><trkpt lat="44.0386285" lon="12.5438113"><ele>70.0</ele><time>2026-04-10T13:05:18.852Z</time></trkpt><trkpt lat="44.0385559" lon="12.54391"><ele>70.0</ele><time>2026-04-10T13:05:19.851Z</time></trkpt><trkpt lat="44.0384738" lon="12.5440166"><ele>70.33333333333333</ele><time>2026-04-10T13:05:20.852Z</time></trkpt><trkpt lat="44.038398" lon="12.5441229"><ele>70.66666666666666</ele><time>2026-04-10T13:05:21.851Z</time></trkpt><trkpt lat="44.0383447" lon="12.544203"><ele>71.0</ele><time>2026-04-10T13:05:22.852Z</time></trkpt><trkpt lat="44.0382825" lon="12.5442936"><ele>71.33333333333333</ele><time>2026-04-10T13:05:23.853Z</time></trkpt><trkpt lat="44.0382223" lon="12.5443726"><ele>71.66666666666667</ele><time>2026-04-10T13:05:24.851Z</time></trkpt><trkpt lat="44.0381586" lon="12.5444468"><ele>72.0</ele><time>2026-04-10T13:05:25.851Z</time></trkpt><trkpt lat="44.0380938" lon="12.5445071"><ele>74.6</ele><time>2026-04-10T13:05:26.851Z</time></trkpt><trkpt lat="44.0380236" lon="12.5445962"><ele>77.2</ele><time>2026-04-10T13:05:27.852Z</time></trkpt><trkpt lat="44.0379413" lon="12.5446655"><ele>79.8</ele><time>2026-04-10T13:05:28.851Z</time></trkpt><trkpt lat="44.0378629" lon="12.5447457"><ele>82.4</ele><time>2026-04-10T13:05:29.852Z</time></trkpt><trkpt lat="44.0377873" lon="12.5448198"><ele>85.0</ele><time>2026-04-10T13:05:30.851Z</time></trkpt><trkpt lat="44.0377082" lon="12.5448927"><ele>85.0</ele><time>2026-04-10T13:05:31.852Z</time></trkpt><trkpt lat="44.0376341" lon="12.5449708"><ele>85.0</ele><time>2026-04-10T13:05:32.851Z</time></trkpt><trkpt lat="44.0375591" lon="12.5450562"><ele>85.0</ele><time>2026-04-10T13:05:33.852Z</time></trkpt><trkpt lat="44.0374944" lon="12.5451287"><ele>85.0</ele><time>2026-04-10T13:05:34.851Z</time></trkpt><trkpt lat="44.0374433" lon="12.5452262"><ele>85.0</ele><time>2026-04-10T13:05:35.851Z</time></trkpt><trkpt lat="44.0373826" lon="12.5453231"><ele>86.0</ele><time>2026-04-10T13:05:36.852Z</time></trkpt><trkpt lat="44.0373209" lon="12.5454389"><ele>87.0</ele><time>2026-04-10T13:05:37.852Z</time></trkpt><trkpt lat="44.0372593" lon="12.5455301"><ele>88.0</ele><time>2026-04-10T13:05:38.852Z</time></trkpt><trkpt lat="44.0371996" lon="12.5456249"><ele>89.0</ele><time>2026-04-10T13:05:39.851Z</time></trkpt><trkpt lat="44.0371464" lon="12.5457357"><ele>90.0</ele><time>2026-04-10T13:05:40.851Z</time></trkpt><trkpt lat="44.0370708" lon="12.5458264"><ele>90.0</ele><time>2026-04-10T13:05:41.852Z</time></trkpt><trkpt lat="44.0369945" lon="12.5459142"><ele>90.0</ele><time>2026-04-10T13:05:42.852Z</time></trkpt><trkpt lat="44.0368967" lon="12.5459794"><ele>90.0</ele><time>2026-04-10T13:05:43.851Z</time></trkpt><trkpt lat="44.0367842" lon="12.54605"><ele>90.0</ele><time>2026-04-10T13:05:44.851Z</time></trkpt><trkpt lat="44.0366775" lon="12.5461317"><ele>90.4</ele><time>2026-04-10T13:05:45.851Z</time></trkpt><trkpt lat="44.0365882" lon="12.546206"><ele>90.8</ele><time>2026-04-10T13:05:46.853Z</time></trkpt><trkpt lat="44.0365004" lon="12.5462721"><ele>91.19999999999999</ele><time>2026-04-10T13:05:47.851Z</time></trkpt><trkpt lat="44.0364053" lon="12.546334"><ele>91.6</ele><time>2026-04-10T13:05:48.852Z</time></trkpt><trkpt lat="44.0363113" lon="12.5464088"><ele>92.0</ele><time>2026-04-10T13:05:49.851Z</time></trkpt><trkpt lat="44.0362143" lon="12.5464814"><ele>92.0</ele><time>2026-04-10T13:05:50.853Z</time></trkpt><trkpt lat="44.0361281" lon="12.5465653"><ele>92.0</ele><time>2026-04-10T13:05:51.851Z</time></trkpt><trkpt lat="44.03605" lon="12.5466817"><ele>92.0</ele><time>2026-04-10T13:05:52.852Z</time></trkpt><trkpt lat="44.0359705" lon="12.5467858"><ele>92.0</ele><time>2026-04-10T13:05:53.852Z</time></trkpt><trkpt lat="44.0359159" lon="12.546888"><ele>92.0</ele><time>2026-04-10T13:05:54.851Z</time></trkpt><trkpt lat="44.0358653" lon="12.5469752"><ele>92.5</ele><time>2026-04-10T13:05:55.852Z</time></trkpt><trkpt lat="44.0358106" lon="12.5470622"><ele>93.0</ele><time>2026-04-10T13:05:56.853Z</time></trkpt><trkpt lat="44.0357517" lon="12.547123"><ele>93.5</ele><time>2026-04-10T13:05:57.852Z</time></trkpt><trkpt lat="44.0356922" lon="12.5471877"><ele>94.0</ele><time>2026-04-10T13:05:58.852Z</time></trkpt><trkpt lat="44.0356276" lon="12.5472569"><ele>94.5</ele><time>2026-04-10T13:05:59.851Z</time></trkpt><trkpt lat="44.035568" lon="12.547325"><ele>95.0</ele><time>2026-04-10T13:06:00.85Z</time></trkpt><trkpt lat="44.035509" lon="12.5473928"><ele>93.6</ele><time>2026-04-10T13:06:01.851Z</time></trkpt><trkpt lat="44.0354521" lon="12.5474553"><ele>92.2</ele><time>2026-04-10T13:06:02.851Z</time></trkpt><trkpt lat="44.0353943" lon="12.5475061"><ele>90.80000000000001</ele><time>2026-04-10T13:06:03.852Z</time></trkpt><trkpt lat="44.0352929" lon="12.5475492"><ele>89.4</ele><time>2026-04-10T13:06:05.852Z</time></trkpt><trkpt lat="44.035197" lon="12.5474667"><ele>88.0</ele><time>2026-04-10T13:06:07.851Z</time></trkpt><trkpt lat="44.0350923" lon="12.5473757"><ele>88.0</ele><time>2026-04-10T13:06:09.851Z</time></trkpt><trkpt lat="44.0350021" lon="12.5473"><ele>88.0</ele><time>2026-04-10T13:06:11.852Z</time></trkpt><trkpt lat="44.0349451" lon="12.5472178"><ele>93.0</ele><time>2026-04-10T13:06:13.851Z</time></trkpt></trkseg></trk></gpx>